# Wetter Temperatur Luftdruck Luftfeuchtigkeit Sichtweite Windgeschwindigkeit Windrichtung Zeit
1 Rain 26 1007 43 0 3.62 203 08:58 14.07.2020
2 Rain 26 1007 43 0 3.62 203 08:39 14.07.2020
3 Clear 26 1008 39 0 3.38 203 08:20 14.07.2020
4 Clear 26 1008 39 0 3.38 203 07:45 14.07.2020
5 Clear 26 1009 35 0 2.94 201 07:19 14.07.2020
6 Clear 26 1009 35 0 2.94 201 06:58 14.07.2020
7 Clear 25 1009 34 0 1.87 208 06:27 14.07.2020
8 Clear 25 1009 34 0 1.87 208 05:54 14.07.2020
9 Clear 23 1009 35 0 0.37 278 04:54 14.07.2020
10 Clear 23 1009 35 0 0.37 278 04:33 14.07.2020
11 Clear 22 1010 38 0 0.71 12 03:31 14.07.2020
12 Clear 17 1010 46 0 1.54 29 02:29 14.07.2020
13 Clear 17 1010 46 0 1.54 29 01:45 14.07.2020
14 Clear 17 1009 47 0 0.82 18 01:23 14.07.2020
15 Clear 17 1009 47 0 0.82 18 00:43 14.07.2020
16 Clear 18 1009 47 0 1.15 31 00:25 14.07.2020
17 Clear 18 1009 47 0 1.15 31 23:39 13.07.2020
18 Clear 18 1009 48 0 1.06 34 23:20 13.07.2020
19 Clear 18 1009 48 0 1.06 34 22:58 13.07.2020
20 Clear 18 1009 48 0 1.06 34 22:39 13.07.2020
21 Clear 18 1009 49 0 0.78 34 22:19 13.07.2020
22 Clear 18 1009 49 0 0.78 34 21:55 13.07.2020
23 Clear 18 1008 48 0 0.92 27 21:37 13.07.2020
24 Clear 19 1008 48 0 0.93 37 21:19 13.07.2020
25 Clear 19 1008 48 0 0.93 37 20:55 13.07.2020
26 Clear 19 1008 48 0 0.93 37 20:37 13.07.2020
27 Clouds 19 1008 49 0 0.86 31 20:19 13.07.2020
28 Clouds 19 1008 49 0 0.86 31 19:42 13.07.2020
29 Clouds 19 1008 49 0 1 20 19:24 13.07.2020
30 Clouds 19 1008 49 0 1 20 18:57 13.07.2020
31 Clouds 19 1008 49 0 1 20 18:38 13.07.2020
32 Clouds 20 1007 50 0 1.18 12 18:20 13.07.2020
33 Clouds 20 1007 50 0 1.18 12 17:56 13.07.2020
34 Clouds 20 1007 50 0 1.18 12 17:37 13.07.2020
35 Clouds 20 1006 52 0 1.52 27 17:18 13.07.2020
36 Clouds 20 1006 52 0 1.52 27 16:55 13.07.2020
37 Clouds 20 1006 52 0 1.52 27 16:36 13.07.2020
38 Clouds 20 1005 55 0 0.76 1 16:18 13.07.2020
39 Clouds 20 1005 55 0 0.76 1 15:41 13.07.2020
40 Rain 22 1004 51 0 1.17 211 15:21 13.07.2020
41 Rain 22 1004 51 0 1.17 211 14:59 13.07.2020
42 Rain 22 1004 51 0 1.17 211 14:39 13.07.2020
43 Rain 22 1004 51 0 1.17 211 14:39 13.07.2020
44 Rain 24 1003 45 0 2.28 199 14:21 13.07.2020
45 Rain 24 1003 45 0 2.28 199 13:57 13.07.2020
46 Rain 24 1003 45 0 2.28 199 13:39 13.07.2020
47 Rain 25 1003 43 0 3.07 200 13:21 13.07.2020
48 Rain 25 1003 43 0 3.07 200 12:44 13.07.2020
49 Rain 25 1004 41 0 3.74 204 12:26 13.07.2020
50 Rain 25 1004 41 0 3.74 204 11:59 13.07.2020
51 Rain 25 1004 41 0 3.74 204 11:40 13.07.2020
52 Rain 26 1004 36 0 4.16 207 11:22 13.07.2020
53 Rain 26 1004 36 0 4.16 207 10:42 13.07.2020
54 Rain 27 1005 31 0 3.82 203 10:20 13.07.2020
55 Rain 27 1005 31 0 3.82 203 09:54 13.07.2020
56 Rain 27 1005 31 0 3.82 203 09:36 13.07.2020
57 Clear 27 1006 28 0 3.04 201 09:18 13.07.2020
58 Clear 26 1006 32 0 3.04 201 08:42 13.07.2020
59 Clear 26 1007 32 0 2.63 199 08:21 13.07.2020
60 Clear 25 1008 32 0 2.67 199 07:22 13.07.2020
61 Clear 25 1008 32 0 2.67 199 06:53 13.07.2020
62 Clear 25 1008 32 0 2.67 199 06:32 13.07.2020
63 Clear 24 1008 31 0 2.19 203 05:30 13.07.2020
64 Clear 19 1009 39 0 2.54 19 02:45 13.07.2020
65 Clear 17 1009 40 0 1.95 24 01:43 13.07.2020
66 Clear 17 1008 41 0 1.99 28 01:21 13.07.2020
67 Clear 17 1008 41 0 1.99 28 00:40 13.07.2020
68 Clear 17 1008 41 0 1.79 28 00:21 13.07.2020
69 Clear 17 1008 41 0 1.79 28 23:43 12.07.2020
70 Clear 17 1008 41 0 1.48 28 23:23 12.07.2020
71 Clear 17 1008 41 0 1.48 28 22:57 12.07.2020
72 Clear 17 1008 41 0 1.48 28 22:37 12.07.2020
73 Clear 18 1008 41 0 1.62 25 22:19 12.07.2020
74 Clear 18 1008 41 0 1.62 25 21:57 12.07.2020
75 Clear 18 1008 41 0 1.62 25 21:39 12.07.2020
76 Clouds 18 1008 44 0 1.23 39 21:19 12.07.2020
77 Clouds 18 1008 44 0 1.23 39 20:57 12.07.2020
78 Clouds 18 1008 44 0 1.23 39 20:37 12.07.2020
79 Clouds 18 1008 45 0 1.3 33 20:19 12.07.2020
80 Clouds 18 1008 45 0 1.3 33 19:40 12.07.2020
81 Clouds 19 1008 46 0 1.79 36 19:21 12.07.2020
82 Clouds 19 1008 46 0 1.79 36 18:57 12.07.2020
83 Clouds 19 1008 46 0 1.79 36 18:38 12.07.2020
84 Clouds 19 1007 48 0 1.51 28 18:18 12.07.2020
85 Clouds 19 1007 48 0 1.51 28 17:39 12.07.2020
86 Clouds 19 1006 52 0 1.56 32 17:21 12.07.2020
87 Clouds 19 1006 52 0 1.56 32 16:48 12.07.2020
88 Clouds 20 1005 53 0 0.25 251 16:23 12.07.2020
89 Clouds 20 1005 53 0 0.25 251 15:58 12.07.2020
90 Clouds 20 1005 53 0 0.25 251 15:40 12.07.2020
91 Clouds 22 1004 45 0 1.63 211 15:20 12.07.2020
92 Clouds 22 1004 45 0 1.63 211 14:41 12.07.2020
93 Clouds 23 1004 42 0 2.22 198 14:23 12.07.2020
94 Rain 22 1004 49 0 1.93 206 13:41 12.07.2020
95 Rain 23 1004 47 0 3 208 13:22 12.07.2020
96 Rain 23 1004 47 0 3 208 12:58 12.07.2020
97 Rain 23 1004 47 0 3 208 12:58 12.07.2020
98 Rain 23 1004 47 0 3 208 12:39 12.07.2020
99 Rain 23 1004 45 0 3.87 208 12:19 12.07.2020
100 Rain 23 1004 45 0 3.87 208 11:55 12.07.2020
101 Rain 23 1004 45 0 3.87 208 11:36 12.07.2020
102 Rain 24 1005 43 0 3.7 205 11:18 12.07.2020
103 Rain 24 1005 43 0 3.7 205 10:41 12.07.2020
104 Clouds 23 1006 43 0 2.06 191 10:19 12.07.2020
105 Clouds 23 1006 43 0 2.06 191 09:43 12.07.2020
106 Rain 21 1006 49 0 1.92 200 09:22 12.07.2020
107 Clouds 20 1006 48 0 0.82 263 08:57 12.07.2020
108 Clouds 20 1006 48 0 0.82 263 08:38 12.07.2020
109 Clouds 20 1006 50 0 1.42 229 08:20 12.07.2020
110 Clouds 20 1006 50 0 1.42 229 07:49 12.07.2020
111 Clouds 20 1006 50 0 1.42 229 07:31 12.07.2020
112 Clouds 20 1007 50 0 0.9 198 06:55 12.07.2020
113 Clouds 20 1007 50 0 0.9 198 06:37 12.07.2020
114 Rain 20 1007 51 0 0.32 198 06:18 12.07.2020
115 Rain 20 1007 54 0 0.42 204 04:58 12.07.2020
116 Rain 19 1007 56 0 0.39 225 04:29 12.07.2020
117 Rain 19 1007 56 0 0.39 225 03:45 12.07.2020
118 Rain 19 1007 56 0 0.44 147 03:24 12.07.2020
119 Rain 18 1006 54 0 0.42 97 02:26 12.07.2020
120 Rain 18 1006 53 0 0.26 121 01:29 12.07.2020
121 Rain 18 1006 53 0 0.26 121 00:39 12.07.2020
122 Clouds 18 1006 53 0 0.26 42 00:21 12.07.2020
123 Clouds 18 1006 53 0 0.26 42 23:41 11.07.2020
124 Clouds 18 1006 53 0 1.97 32 23:22 11.07.2020
125 Clouds 18 1006 53 0 1.97 32 22:58 11.07.2020
126 Clouds 18 1006 53 0 1.97 32 22:38 11.07.2020
127 Clear 17 1006 55 0 0.43 21 22:20 11.07.2020
128 Clear 17 1006 55 0 0.43 21 21:56 11.07.2020
129 Clear 17 1006 55 0 0.43 21 21:37 11.07.2020
130 Clouds 18 1006 55 0 0.44 109 21:19 11.07.2020
131 Clouds 18 1006 55 0 0.44 109 20:54 11.07.2020
132 Clouds 18 1006 55 0 0.44 109 20:36 11.07.2020
133 Clouds 18 1006 55 0 0.41 118 20:18 11.07.2020
134 Clouds 18 1006 55 0 0.41 118 19:46 11.07.2020
135 Clouds 19 1005 55 0 0.7 51 19:27 11.07.2020
136 Clouds 19 1005 55 0 0.7 51 18:58 11.07.2020
137 Clouds 19 1005 55 0 0.7 51 18:39 11.07.2020
138 Clouds 19 1004 55 0 1.26 18 18:21 11.07.2020
139 Clouds 19 1004 55 0 1.26 18 17:57 11.07.2020
140 Clouds 19 1004 55 0 1.26 18 17:38 11.07.2020
141 Clouds 20 1004 56 0 0.84 2 17:19 11.07.2020
142 Clouds 20 1004 56 0 0.84 2 16:56 11.07.2020
143 Clouds 20 1004 56 0 0.84 2 16:37 11.07.2020
144 Rain 20 1002 57 0 0.17 228 16:18 11.07.2020
145 Rain 20 1002 57 0 0.17 228 15:41 11.07.2020
146 Rain 21 1001 53 0 1.42 204 15:21 11.07.2020
147 Rain 21 1001 53 0 1.42 204 14:58 11.07.2020
148 Rain 21 1001 53 0 1.42 204 14:39 11.07.2020
149 Rain 22 1000 52 0 2.23 205 14:21 11.07.2020
150 Rain 22 1000 52 0 2.23 205 13:44 11.07.2020
151 Rain 23 1000 51 0 2.42 200 13:23 11.07.2020
152 Rain 23 1000 51 0 2.42 200 12:59 11.07.2020
153 Rain 23 1000 51 0 2.42 200 12:41 11.07.2020
154 Rain 23 1001 50 0 2.93 199 12:22 11.07.2020
155 Rain 23 1001 50 0 2.93 199 11:57 11.07.2020
156 Rain 23 1001 50 0 2.93 199 11:39 11.07.2020
157 Rain 24 1001 49 0 3.42 200 11:19 11.07.2020
158 Rain 24 1001 49 0 3.42 200 10:44 11.07.2020
159 Rain 24 1002 47 0 3.38 203 10:26 11.07.2020
160 Rain 24 1002 47 0 3.38 203 09:55 11.07.2020
161 Rain 24 1002 46 0 3.43 204 09:36 11.07.2020
162 Rain 25 1002 44 0 3.24 203 09:18 11.07.2020
163 Rain 25 1002 44 0 3.24 203 08:37 11.07.2020
164 Rain 24 1003 44 0 3.11 200 08:19 11.07.2020
165 Rain 24 1003 44 0 3.11 200 07:46 11.07.2020
166 Rain 24 1004 44 0 2.96 200 07:27 11.07.2020
167 Rain 24 1004 44 0 2.96 200 06:59 11.07.2020
168 Clear 23 1005 43 0 2.7 202 06:22 11.07.2020
169 Clear 23 1005 43 0 2.7 202 05:41 11.07.2020
170 Clear 22 1005 41 0 1.74 213 04:57 11.07.2020
171 Clear 22 1005 41 0 1.74 213 04:33 11.07.2020
172 Clear 21 1006 42 0 0.72 259 03:38 11.07.2020
173 Clear 19 1006 47 0 1.32 357 02:51 11.07.2020
174 Clear 17 1005 48 0 1.24 13 01:53 11.07.2020
175 Clear 17 1006 48 0 1.08 17 01:20 11.07.2020
176 Clear 17 1006 48 0 1.08 17 00:41 11.07.2020
177 Clear 18 1005 49 0 1.65 27 00:22 11.07.2020
178 Clear 18 1005 49 0 1.65 27 23:58 10.07.2020
179 Clear 18 1005 49 0 1.65 27 23:58 10.07.2020
180 Clear 18 1005 49 0 1.65 27 23:40 10.07.2020
181 Clear 18 1005 51 0 1.55 28 23:21 10.07.2020
182 Clear 18 1005 51 0 1.55 28 22:47 10.07.2020
183 Clear 18 1006 53 0 1.31 36 22:23 10.07.2020
184 Clear 18 1006 53 0 1.31 36 21:59 10.07.2020
185 Clear 18 1006 53 0 1.31 36 21:38 10.07.2020
186 Clouds 19 1006 50 0 0.1 31 21:20 10.07.2020
187 Clouds 19 1006 50 0 0.1 31 20:43 10.07.2020
188 Clouds 20 1006 50 0 0.26 37 20:24 10.07.2020
189 Clouds 20 1006 50 0 0.26 37 19:59 10.07.2020
190 Clouds 20 1006 50 0 0.26 37 19:41 10.07.2020
191 Clouds 20 1005 51 0 1.14 12 19:21 10.07.2020
192 Clouds 20 1005 51 0 1.14 12 18:55 10.07.2020
193 Clouds 20 1005 51 0 1.14 12 18:37 10.07.2020
194 Rain 20 1005 52 0 1.05 14 18:18 10.07.2020
195 Rain 20 1005 52 0 1.05 14 17:42 10.07.2020
196 Rain 20 1004 53 0 0.46 39 17:22 10.07.2020
197 Rain 20 1004 53 0 0.46 39 16:57 10.07.2020
198 Rain 20 1004 53 0 0.46 39 16:39 10.07.2020
199 Rain 21 1003 55 0 0.32 168 16:18 10.07.2020
200 Rain 21 1003 55 0 0.32 168 15:43 10.07.2020
201 Rain 21 1002 54 0 1.05 174 15:21 10.07.2020
202 Rain 21 1002 54 0 1.05 174 14:54 10.07.2020
203 Rain 22 1002 51 0 1.12 173 14:36 10.07.2020
204 Rain 23 1001 50 0 1.71 197 14:18 10.07.2020
205 Rain 23 1001 50 0 1.71 197 13:54 10.07.2020
206 Rain 23 1001 50 0 1.71 197 13:36 10.07.2020
207 Rain 23 1001 49 0 2.18 201 13:18 10.07.2020
208 Rain 23 1001 49 0 2.18 201 12:42 10.07.2020
209 Rain 24 1001 48 0 3.39 198 12:23 10.07.2020
210 Rain 24 1001 48 0 3.39 198 11:58 10.07.2020
211 Rain 24 1001 48 0 3.39 198 11:38 10.07.2020
212 Rain 25 1001 46 0 3.9 203 11:18 10.07.2020
213 Rain 25 1001 46 0 3.9 203 10:41 10.07.2020
214 Rain 26 1002 42 0 3.96 202 10:21 10.07.2020
215 Rain 26 1002 42 0 3.96 202 09:56 10.07.2020
216 Rain 25 1002 44 0 3.9 202 09:36 10.07.2020
217 Rain 25 1003 44 0 3.69 201 09:18 10.07.2020
218 Rain 25 1003 44 0 3.69 201 08:55 10.07.2020
219 Rain 25 1003 44 0 3.69 201 08:36 10.07.2020
220 Rain 25 1004 43 0 3.6 201 08:18 10.07.2020
221 Rain 25 1004 43 0 3.6 201 07:41 10.07.2020
222 Rain 25 1005 41 0 2.8 197 07:20 10.07.2020
223 Rain 25 1005 41 0 2.8 197 06:48 10.07.2020
224 Rain 24 1005 40 0 2.21 205 05:55 10.07.2020
225 Clear 23 1006 41 0 0.81 223 04:33 10.07.2020
226 Clouds 22 1006 43 0 0.54 352 03:37 10.07.2020
227 Clouds 20 1006 49 0 1.01 360 02:52 10.07.2020
228 Clear 18 1006 48 0 1.36 8 01:49 10.07.2020
229 Clear 18 1006 48 0 1.48 10 00:48 10.07.2020
230 Clear 19 1006 49 0 1.6 13 00:20 10.07.2020
231 Clear 19 1006 49 0 1.6 13 23:46 09.07.2020
232 Clear 19 1006 51 0 1.22 12 23:22 09.07.2020
233 Clear 19 1006 51 0 1.22 12 22:59 09.07.2020
234 Clear 19 1006 51 0 1.22 12 22:41 09.07.2020
235 Clear 19 1006 53 0 1.36 17 22:21 09.07.2020
236 Clear 19 1006 53 0 1.36 17 21:56 09.07.2020
237 Clear 19 1006 53 0 1.36 17 21:38 09.07.2020
238 Rain 19 1007 54 0 0.9 14 21:19 09.07.2020
239 Clear 20 1007 50 0 1.62 27 20:45 09.07.2020
240 Clouds 20 1006 52 0 1.4 21 20:26 09.07.2020
241 Clouds 20 1006 52 0 1.4 21 20:26 09.07.2020
242 Clouds 20 1006 52 0 1.4 21 19:59 09.07.2020
243 Clouds 20 1006 52 0 1.4 21 19:41 09.07.2020
244 Clouds 20 1006 53 0 1.46 17 19:21 09.07.2020
245 Clouds 20 1006 53 0 1.46 17 18:43 09.07.2020
246 Rain 21 1006 54 0 1.53 19 18:24 09.07.2020
247 Rain 21 1006 54 0 1.53 19 17:56 09.07.2020
248 Rain 21 1006 54 0 1.53 19 17:38 09.07.2020
249 Rain 21 1005 57 0 0.72 1 17:20 09.07.2020
250 Rain 21 1005 57 0 0.72 1 16:56 09.07.2020
251 Rain 21 1005 57 0 0.72 1 16:56 09.07.2020
252 Rain 21 1005 57 0 0.72 1 16:38 09.07.2020
253 Rain 21 1005 58 0 0.67 165 16:19 09.07.2020
254 Rain 21 1005 58 0 0.67 165 15:56 09.07.2020
255 Rain 21 1005 58 0 0.67 165 15:37 09.07.2020
256 Rain 23 1003 56 0 0.92 196 15:18 09.07.2020
257 Rain 23 1003 56 0 0.92 196 14:57 09.07.2020
258 Rain 23 1003 56 0 0.92 196 14:39 09.07.2020
259 Rain 24 1002 52 0 1.49 202 14:20 09.07.2020
260 Rain 24 1002 52 0 1.49 202 13:56 09.07.2020
261 Rain 24 1002 52 0 1.49 202 13:37 09.07.2020
262 Rain 25 1002 51 0 2.18 205 13:18 09.07.2020
263 Rain 25 1002 51 0 2.18 205 12:41 09.07.2020
264 Rain 25 1002 50 0 2.51 205 12:22 09.07.2020
265 Rain 25 1002 50 0 2.51 205 11:56 09.07.2020
266 Rain 25 1002 50 0 2.51 205 11:38 09.07.2020
267 Rain 25 1003 50 0 2.73 202 11:18 09.07.2020
268 Rain 25 1003 50 0 2.73 202 10:55 09.07.2020
269 Rain 25 1003 50 0 2.73 202 10:37 09.07.2020
270 Rain 26 1004 49 0 2.78 205 10:18 09.07.2020
271 Rain 26 1004 49 0 2.78 205 09:41 09.07.2020
272 Rain 26 1005 48 0 2.73 202 09:22 09.07.2020
273 Rain 25 1005 49 0 2.84 200 08:49 09.07.2020
274 Rain 25 1006 50 0 3.06 208 08:26 09.07.2020
275 Rain 25 1006 50 0 3.06 208 07:50 09.07.2020
276 Rain 25 1006 50 0 3.06 208 07:30 09.07.2020
277 Rain 25 1007 48 0 3.17 206 06:59 09.07.2020
278 Rain 25 1007 47 0 2.57 200 06:20 09.07.2020
279 Rain 25 1007 47 0 2.57 200 05:50 09.07.2020
280 Clouds 23 1008 49 0 0.35 241 04:29 09.07.2020
281 Clouds 21 1009 54 0 0.26 93 02:47 09.07.2020
282 Clouds 19 1009 54 0 0.53 78 01:55 09.07.2020
283 Clouds 20 1009 54 0 0.47 75 00:59 09.07.2020
284 Clouds 20 1009 54 0 0.47 75 00:38 09.07.2020
285 Clouds 20 1009 54 0 0.49 73 00:19 09.07.2020
286 Clouds 20 1009 54 0 0.49 73 23:43 08.07.2020
287 Clouds 20 1010 54 0 0.49 61 23:24 08.07.2020
288 Clouds 20 1010 54 0 0.49 61 22:55 08.07.2020
289 Clouds 20 1010 54 0 0.49 61 22:36 08.07.2020
290 Clouds 20 1010 54 0 0.45 61 22:18 08.07.2020
291 Clouds 20 1010 54 0 0.45 61 21:55 08.07.2020
292 Clouds 19 1010 55 0 0.56 61 21:36 08.07.2020
293 Clouds 20 1010 54 0 0.31 175 21:18 08.07.2020
294 Clouds 20 1010 54 0 0.31 175 20:41 08.07.2020
295 Clouds 20 1010 53 0 0.27 353 20:23 08.07.2020
296 Clouds 20 1010 53 0 0.27 353 19:55 08.07.2020
297 Clouds 20 1010 53 0 0.27 353 19:37 08.07.2020
298 Clouds 21 1010 52 0 0.86 7 19:18 08.07.2020
299 Clouds 21 1010 52 0 0.86 7 18:41 08.07.2020
300 Clouds 21 1010 53 0 0.89 11 18:21 08.07.2020
301 Clouds 21 1010 53 0 0.89 11 17:57 08.07.2020
302 Clouds 21 1010 53 0 0.89 11 17:39 08.07.2020
303 Clouds 21 1009 54 0 0.89 19 17:20 08.07.2020
304 Clouds 21 1009 54 0 0.89 19 16:57 08.07.2020
305 Clouds 21 1009 54 0 0.89 19 16:38 08.07.2020
306 Clouds 21 1009 54 0 0.63 20 16:18 08.07.2020
307 Clouds 21 1009 54 0 0.63 20 15:58 08.07.2020
308 Clouds 21 1009 54 0 0.63 20 15:38 08.07.2020
309 Clouds 23 1008 51 0 0.34 56 15:19 08.07.2020
310 Clouds 23 1008 51 0 0.34 56 15:19 08.07.2020
311 Clouds 23 1008 51 0 0.34 56 14:42 08.07.2020
312 Clouds 25 1008 46 0 1.7 209 14:23 08.07.2020
313 Clouds 25 1008 46 0 1.7 209 13:57 08.07.2020
314 Clouds 25 1008 46 0 1.7 209 13:38 08.07.2020
315 Rain 25 1008 46 0 2.12 193 13:18 08.07.2020
316 Rain 25 1008 46 0 2.12 193 12:41 08.07.2020
317 Rain 25 1008 46 0 2.49 174 12:20 08.07.2020
318 Rain 25 1008 46 0 2.49 174 11:55 08.07.2020
319 Rain 25 1008 46 0 2.49 174 11:37 08.07.2020
320 Rain 24 1008 48 0 1.99 170 11:19 08.07.2020
321 Rain 24 1008 48 0 1.99 170 10:42 08.07.2020
322 Rain 24 1009 50 0 0.7 146 10:23 08.07.2020
323 Rain 24 1009 50 0 0.7 146 09:45 08.07.2020
324 Rain 22 1010 54 0 1.25 154 09:25 08.07.2020
325 Rain 22 1010 54 0 1.25 154 08:44 08.07.2020
326 Clouds 23 1011 53 0 1.51 190 08:25 08.07.2020
327 Clouds 23 1011 53 0 1.51 190 07:57 08.07.2020
328 Clouds 23 1011 53 0 1.51 190 07:38 08.07.2020
329 Clouds 23 1012 49 0 1.32 209 07:19 08.07.2020
330 Clouds 23 1012 49 0 1.32 209 06:43 08.07.2020
331 Clouds 23 1012 46 0 1.09 225 06:24 08.07.2020
332 Clouds 23 1012 46 0 1.09 225 05:44 08.07.2020
333 Clouds 23 1012 46 0 1.09 225 05:44 08.07.2020
334 Clouds 23 1012 47 0 0.76 306 04:44 08.07.2020
335 Clouds 22 1012 49 0 1.08 349 03:33 08.07.2020
336 Rain 20 1011 50 0 2.03 5 02:19 08.07.2020
337 Rain 20 1011 50 0 2.03 5 01:38 08.07.2020
338 Rain 20 1011 50 0 2.91 6 00:51 08.07.2020
339 Rain 20 1011 50 0 2.77 10 00:19 08.07.2020
340 Rain 20 1011 50 0 2.77 10 23:43 07.07.2020
341 Rain 20 1011 51 0 3.03 9 23:22 07.07.2020
342 Rain 20 1011 51 0 3.03 9 22:56 07.07.2020
343 Rain 20 1011 51 0 3.03 9 22:38 07.07.2020
344 Rain 21 1012 53 0 2.9 356 22:19 07.07.2020
345 Rain 21 1012 53 0 2.9 356 21:56 07.07.2020
346 Rain 21 1012 53 0 2.9 356 21:38 07.07.2020
347 Clouds 20 1011 49 0 1.25 22 21:18 07.07.2020
348 Clouds 20 1011 49 0 1.25 22 20:42 07.07.2020
349 Clouds 20 1011 51 0 0.96 17 20:23 07.07.2020
350 Clouds 20 1011 51 0 0.96 17 19:59 07.07.2020
351 Clouds 20 1011 51 0 0.96 17 19:39 07.07.2020
352 Clouds 21 1012 51 0 0.94 15 19:20 07.07.2020
353 Clouds 21 1012 51 0 0.94 15 18:55 07.07.2020
354 Clouds 21 1012 51 0 0.94 15 18:37 07.07.2020
355 Rain 21 1011 52 0 1.01 31 18:19 07.07.2020
356 Rain 21 1011 52 0 1.01 31 17:56 07.07.2020
357 Rain 21 1011 52 0 1.01 31 17:37 07.07.2020
358 Rain 21 1010 55 0 1 29 17:18 07.07.2020
359 Rain 21 1010 55 0 1 29 16:42 07.07.2020
360 Rain 22 1009 56 0 0.46 23 16:22 07.07.2020
361 Rain 22 1009 56 0 0.46 23 15:56 07.07.2020
362 Rain 22 1009 56 0 0.46 23 15:37 07.07.2020
363 Rain 22 1008 56 0 0.95 210 15:19 07.07.2020
364 Rain 22 1008 56 0 0.95 210 14:45 07.07.2020
365 Rain 22 1008 58 0 1.61 181 14:24 07.07.2020
366 Rain 22 1008 58 0 1.61 181 13:46 07.07.2020
367 Rain 23 1008 56 0 2.73 201 13:21 07.07.2020
368 Rain 23 1008 56 0 2.73 201 12:57 07.07.2020
369 Rain 23 1008 56 0 2.73 201 12:39 07.07.2020
370 Rain 24 1008 54 0 2.45 189 12:21 07.07.2020
371 Rain 24 1008 54 0 2.45 189 11:46 07.07.2020
372 Rain 25 1008 49 0 3.44 206 11:24 07.07.2020
373 Rain 25 1008 49 0 3.44 206 10:58 07.07.2020
374 Rain 25 1008 49 0 3.44 206 10:58 07.07.2020
375 Rain 25 1008 49 0 3.44 206 10:40 07.07.2020
376 Rain 26 1008 44 0 3.5 206 10:21 07.07.2020
377 Rain 26 1008 44 0 3.5 206 09:55 07.07.2020
378 Rain 26 1008 39 0 4.01 203 09:37 07.07.2020
379 Clouds 27 1009 35 0 3.67 203 09:18 07.07.2020
380 Clouds 27 1009 35 0 3.67 203 08:40 07.07.2020
381 Clouds 27 1009 32 0 2.99 205 08:20 07.07.2020
382 Clouds 27 1009 32 0 2.99 205 07:39 07.07.2020
383 Clouds 26 1010 31 0 2.7 203 07:20 07.07.2020
384 Clouds 26 1010 31 0 2.7 203 06:48 07.07.2020
385 Clear 25 1011 28 0 2.01 199 06:27 07.07.2020
386 Clear 25 1011 28 0 2.01 199 05:47 07.07.2020
387 Clear 24 1011 26 0 0.52 212 05:20 07.07.2020
388 Clear 24 1011 26 0 0.52 212 04:36 07.07.2020
389 Clear 22 1011 28 0 1.73 16 03:35 07.07.2020
390 Clear 18 1011 34 0 2.56 24 02:21 07.07.2020
391 Clear 18 1011 37 0 2.52 18 01:22 07.07.2020
392 Clear 18 1011 37 0 2.52 18 00:42 07.07.2020
393 Clear 18 1011 40 0 2.69 18 00:23 07.07.2020
394 Clear 18 1011 40 0 2.69 18 23:45 06.07.2020
395 Clear 18 1010 43 0 2.05 13 23:26 06.07.2020
396 Clear 18 1010 43 0 2.05 13 22:59 06.07.2020
397 Clear 18 1010 43 0 2.05 13 22:40 06.07.2020
398 Clear 18 1010 43 0 2.05 13 22:40 06.07.2020
399 Clear 18 1011 44 0 1.97 14 22:19 06.07.2020
400 Clear 18 1011 44 0 1.97 14 21:57 06.07.2020
401 Clouds 18 1010 42 0 2.41 2 21:37 06.07.2020
402 Clouds 18 1010 44 0 2.19 360 21:19 06.07.2020
403 Clouds 18 1010 44 0 2.19 360 20:55 06.07.2020
404 Clouds 18 1010 44 0 2.19 360 20:36 06.07.2020
405 Clouds 18 1009 45 0 1.93 359 20:18 06.07.2020
406 Clouds 18 1009 45 0 1.93 359 19:56 06.07.2020
407 Clouds 18 1009 45 0 1.93 359 19:37 06.07.2020
408 Clouds 19 1009 47 0 1.92 16 19:18 06.07.2020
409 Clouds 19 1009 47 0 1.92 16 18:41 06.07.2020
410 Clouds 19 1008 50 0 1.92 16 18:23 06.07.2020
411 Clouds 19 1008 50 0 1.92 16 17:58 06.07.2020
412 Clouds 19 1008 50 0 1.92 16 17:40 06.07.2020
413 Clouds 19 1007 55 0 0.84 23 17:20 06.07.2020
414 Clouds 19 1007 55 0 0.84 23 16:43 06.07.2020
415 Clouds 20 1006 54 0 1.13 206 16:24 06.07.2020
416 Clouds 20 1006 54 0 1.13 206 15:57 06.07.2020
417 Clouds 20 1006 54 0 1.13 206 15:39 06.07.2020
418 Clouds 23 1004 45 0 2.52 198 15:21 06.07.2020
419 Clouds 23 1004 45 0 2.52 198 14:55 06.07.2020
420 Clouds 23 1004 45 0 2.52 198 14:37 06.07.2020
421 Clouds 23 1004 45 0 2.52 198 14:37 06.07.2020
422 Clear 25 1002 36 0 2.88 197 14:18 06.07.2020
423 Clear 25 1002 36 0 2.88 197 13:44 06.07.2020
424 Clear 26 1003 32 0 3.52 203 13:24 06.07.2020
425 Clear 26 1003 32 0 3.52 203 12:56 06.07.2020
426 Clear 26 1003 32 0 3.52 203 12:38 06.07.2020
427 Clear 26 1003 29 0 3.63 203 12:18 06.07.2020
428 Clear 26 1003 29 0 3.63 203 11:57 06.07.2020
429 Clear 26 1003 29 0 3.63 203 11:36 06.07.2020
430 Clear 27 1004 26 0 3.85 201 11:18 06.07.2020
431 Clear 27 1004 26 0 3.85 201 10:41 06.07.2020
432 Clear 27 1004 24 0 3.69 201 10:21 06.07.2020
433 Clear 27 1004 24 0 3.69 201 09:55 06.07.2020
434 Clear 27 1004 24 0 3.69 201 09:37 06.07.2020
435 Clear 27 1004 24 0 3.69 201 09:37 06.07.2020
436 Clear 27 1005 27 0 3.56 204 09:19 06.07.2020
437 Clear 27 1005 27 0 3.56 204 08:41 06.07.2020
438 Clear 26 1006 26 0 3.06 202 08:22 06.07.2020
439 Clear 26 1006 26 0 3.06 202 07:54 06.07.2020
440 Clear 26 1006 26 0 3.06 202 07:35 06.07.2020
441 Clear 25 1007 26 0 2.29 196 06:57 06.07.2020
442 Clear 25 1007 26 0 2.29 196 06:38 06.07.2020
443 Clear 24 1008 28 0 0.84 181 06:19 06.07.2020
444 Clear 22 1008 31 0 0.73 59 05:29 06.07.2020
445 Clear 22 1008 31 0 0.73 59 04:36 06.07.2020
446 Clear 18 1009 42 0 2.98 31 02:50 06.07.2020
447 Clear 16 1009 44 0 2.59 31 02:19 06.07.2020
448 Clear 16 1009 44 0 2.45 25 00:59 06.07.2020
449 Clear 16 1009 44 0 2.45 25 00:32 06.07.2020
450 Clear 16 1008 44 0 2.34 26 23:59 05.07.2020
451 Clear 16 1008 44 0 2.34 26 23:40 05.07.2020
452 Clear 17 1008 45 0 2.22 27 23:22 05.07.2020
453 Clear 17 1008 45 0 2.22 27 22:58 05.07.2020
454 Clear 17 1008 45 0 2.22 27 22:39 05.07.2020
455 Clear 17 1009 44 0 1.85 23 22:19 05.07.2020
456 Clear 17 1009 44 0 1.85 23 21:57 05.07.2020
457 Clear 17 1009 44 0 1.85 23 21:37 05.07.2020
458 Clouds 18 1008 52 0 1.07 25 21:18 05.07.2020
459 Clouds 18 1008 52 0 1.07 25 20:56 05.07.2020
460 Clouds 18 1008 52 0 1.07 25 20:38 05.07.2020
461 Clouds 18 1008 53 0 0.34 47 20:19 05.07.2020
462 Clouds 18 1008 53 0 0.34 47 19:42 05.07.2020
463 Clouds 18 1007 52 0 0.21 336 19:21 05.07.2020
464 Clouds 18 1007 52 0 0.21 336 18:55 05.07.2020
465 Clouds 18 1007 52 0 0.21 336 18:37 05.07.2020
466 Clouds 18 1006 52 0 1 60 18:18 05.07.2020
467 Clouds 18 1006 52 0 1 60 17:42 05.07.2020
468 Rain 19 1005 54 0 0.77 117 17:19 05.07.2020
469 Rain 19 1005 54 0 0.77 117 16:59 05.07.2020
470 Rain 19 1005 54 0 0.77 117 16:40 05.07.2020
471 Rain 20 1004 52 0 1.86 203 16:21 05.07.2020
472 Rain 20 1004 52 0 1.86 203 15:40 05.07.2020
473 Rain 22 1003 46 0 2.25 205 15:20 05.07.2020
474 Rain 22 1003 46 0 2.25 205 14:56 05.07.2020
475 Clouds 22 1003 43 0 0.55 245 14:38 05.07.2020
476 Rain 23 1002 43 0 2 198 14:20 05.07.2020
477 Clouds 23 1003 40 0 0.53 307 13:41 05.07.2020
478 Rain 23 1003 40 0 0.83 314 13:23 05.07.2020
479 Rain 23 1003 40 0 0.83 314 12:46 05.07.2020
480 Rain 23 1004 41 0 0.84 272 12:21 05.07.2020
481 Rain 23 1004 41 0 0.84 272 11:56 05.07.2020
482 Rain 23 1004 41 0 0.84 272 11:38 05.07.2020
483 Rain 21 1004 43 0 1.55 342 11:19 05.07.2020
484 Rain 21 1004 43 0 1.55 342 10:55 05.07.2020
485 Rain 21 1004 43 0 1.55 342 10:37 05.07.2020
486 Rain 20 1005 47 0 2.24 342 10:18 05.07.2020
487 Rain 20 1005 47 0 2.24 342 09:41 05.07.2020
488 Rain 19 1007 49 0 1.2 348 09:20 05.07.2020
489 Rain 19 1007 57 0 2.12 214 08:57 05.07.2020
490 Rain 19 1007 57 0 2.12 214 08:38 05.07.2020
491 Rain 20 1008 53 0 2 201 08:18 05.07.2020
492 Rain 20 1008 53 0 2 201 07:40 05.07.2020
493 Rain 20 1009 49 0 1.12 176 07:22 05.07.2020
494 Rain 20 1009 49 0 1.12 176 06:47 05.07.2020
495 Rain 19 1010 51 0 0.88 297 04:37 05.07.2020
496 Clouds 19 1010 47 0 0.77 48 03:19 05.07.2020
497 Clouds 19 1010 47 0 0.77 48 02:41 05.07.2020
498 Clouds 19 1010 47 0 0.77 48 02:41 05.07.2020
499 Clear 17 1009 46 0 1.57 7 01:59 05.07.2020
500 Clear 17 1008 47 0 2.04 20 01:28 05.07.2020
501 Clear 17 1008 47 0 2.04 20 00:53 05.07.2020
502 Clear 17 1008 47 0 2.04 20 00:31 05.07.2020
503 Clouds 18 1008 49 0 1.88 5 23:58 04.07.2020
504 Clouds 18 1008 49 0 1.88 5 23:40 04.07.2020
505 Rain 18 1008 50 0 1.56 16 23:22 04.07.2020
506 Rain 18 1008 50 0 1.56 16 22:43 04.07.2020
507 Rain 18 1009 51 0 1.1 35 22:25 04.07.2020
508 Rain 18 1009 51 0 1.1 35 21:59 04.07.2020
509 Rain 18 1009 51 0 1.1 35 21:40 04.07.2020
510 Rain 19 1008 50 0 1.18 11 21:22 04.07.2020
511 Rain 19 1008 50 0 1.18 11 20:54 04.07.2020
512 Rain 19 1008 50 0 1.18 11 20:36 04.07.2020
513 Rain 19 1008 50 0 0.91 16 20:18 04.07.2020
514 Rain 19 1008 50 0 0.91 16 19:41 04.07.2020
515 Rain 19 1007 51 0 0.73 18 19:21 04.07.2020
516 Rain 19 1007 51 0 0.73 18 18:55 04.07.2020
517 Rain 19 1007 51 0 0.73 18 18:36 04.07.2020
518 Rain 19 1007 52 0 0.68 21 18:18 04.07.2020
519 Rain 19 1007 52 0 0.68 21 17:42 04.07.2020
520 Rain 19 1007 52 0 0.68 21 17:42 04.07.2020
521 Rain 19 1006 52 0 0.89 33 17:22 04.07.2020
522 Rain 19 1006 52 0 0.89 33 16:56 04.07.2020
523 Rain 19 1006 52 0 0.89 33 16:37 04.07.2020
524 Rain 19 1006 52 0 0.89 33 16:37 04.07.2020
525 Rain 20 1005 52 0 0.87 25 16:18 04.07.2020
526 Rain 20 1005 52 0 0.87 25 15:45 04.07.2020
527 Rain 21 1004 50 0 0.26 248 15:26 04.07.2020
528 Rain 21 1004 50 0 0.26 248 14:58 04.07.2020
529 Rain 21 1004 50 0 0.26 248 14:37 04.07.2020
530 Rain 23 1002 43 0 1.91 195 14:19 04.07.2020
531 Rain 23 1002 43 0 1.91 195 13:56 04.07.2020
532 Rain 23 1002 43 0 1.91 195 13:37 04.07.2020
533 Rain 23 1003 43 0 2.2 210 13:18 04.07.2020
534 Rain 23 1003 43 0 2.2 210 12:41 04.07.2020
535 Rain 24 1003 42 0 2.67 218 12:20 04.07.2020
536 Rain 24 1003 42 0 2.67 218 11:46 04.07.2020
537 Rain 24 1004 41 0 3.26 211 11:25 04.07.2020
538 Rain 24 1004 41 0 3.26 211 10:59 04.07.2020
539 Rain 24 1004 41 0 3.26 211 10:39 04.07.2020
540 Rain 25 1005 40 0 3.57 204 10:21 04.07.2020
541 Rain 25 1005 40 0 3.57 204 09:56 04.07.2020
542 Rain 25 1005 40 0 3.57 204 09:36 04.07.2020
543 Rain 25 1005 38 0 3.71 201 09:18 04.07.2020
544 Rain 25 1005 38 0 3.71 201 08:46 04.07.2020
545 Rain 25 1006 36 0 3.33 202 08:27 04.07.2020
546 Rain 25 1006 36 0 3.33 202 07:44 04.07.2020
547 Clear 25 1007 36 0 2.88 200 07:26 04.07.2020
548 Clear 25 1007 36 0 2.88 200 06:51 04.07.2020
549 Clear 24 1008 35 0 1.92 203 06:20 04.07.2020
550 Clear 24 1008 35 0 1.92 203 05:34 04.07.2020
551 Clear 23 1009 37 0 0.86 210 04:42 04.07.2020
552 Clear 20 1009 48 0 1.28 25 02:49 04.07.2020
553 Clouds 18 1009 48 0 1.26 11 02:19 04.07.2020
554 Rain 18 1009 50 0 1.12 3 01:26 04.07.2020
555 Rain 18 1009 50 0 1.12 3 00:40 04.07.2020
556 Clouds 18 1009 50 0 0.84 349 00:22 04.07.2020
557 Clouds 18 1009 50 0 0.84 349 23:40 03.07.2020
558 Clouds 19 1009 49 0 0.72 343 23:19 03.07.2020
559 Clouds 19 1009 49 0 0.72 343 22:55 03.07.2020
560 Clouds 19 1009 49 0 0.72 343 22:37 03.07.2020
561 Clouds 19 1008 49 0 0.46 334 22:19 03.07.2020
562 Clouds 19 1008 49 0 0.46 334 21:41 03.07.2020
563 Clouds 19 1008 50 0 0.66 29 21:20 03.07.2020
564 Clouds 19 1008 50 0 0.66 29 20:55 03.07.2020
565 Clouds 19 1008 50 0 0.66 29 20:55 03.07.2020
566 Clouds 19 1008 50 0 0.66 29 20:37 03.07.2020
567 Clouds 20 1008 50 0 0.54 47 20:19 03.07.2020
568 Clouds 20 1008 50 0 0.54 47 19:41 03.07.2020
569 Clouds 20 1008 49 0 0.86 54 19:19 03.07.2020
570 Clouds 20 1008 49 0 0.86 54 18:56 03.07.2020
571 Clouds 20 1008 49 0 0.86 54 18:38 03.07.2020
572 Clouds 20 1007 51 0 1.23 41 18:19 03.07.2020
573 Clouds 20 1007 51 0 1.23 41 17:42 03.07.2020
574 Clouds 20 1006 52 0 1.21 29 17:22 03.07.2020
575 Clouds 20 1006 52 0 1.21 29 16:46 03.07.2020
576 Clouds 21 1005 51 0 0.67 27 16:27 03.07.2020
577 Clouds 21 1005 51 0 0.67 27 15:48 03.07.2020
578 Rain 22 1004 50 0 0.77 173 15:26 03.07.2020
579 Rain 22 1004 50 0 0.77 173 14:59 03.07.2020
580 Rain 22 1004 50 0 0.77 173 14:41 03.07.2020
581 Rain 23 1004 46 0 1.6 191 14:41 03.07.2020
582 Rain 24 1003 43 0 2.47 197 14:22 03.07.2020
583 Rain 24 1003 43 0 2.47 197 13:56 03.07.2020
584 Rain 24 1003 43 0 2.47 197 13:37 03.07.2020
585 Rain 25 1003 41 0 2.82 194 13:19 03.07.2020
586 Rain 25 1003 41 0 2.82 194 12:40 03.07.2020
587 Rain 25 1003 40 0 2.99 194 12:21 03.07.2020
588 Rain 25 1003 40 0 2.99 194 11:44 03.07.2020
589 Rain 26 1004 39 0 3.2 199 11:25 03.07.2020
590 Rain 26 1004 39 0 3.2 199 10:59 03.07.2020
591 Rain 26 1004 39 0 3.2 199 10:41 03.07.2020
592 Rain 26 1005 38 0 3.47 202 10:21 03.07.2020
593 Rain 26 1005 38 0 3.47 202 09:58 03.07.2020
594 Rain 26 1005 38 0 3.47 202 09:38 03.07.2020
595 Rain 26 1005 38 0 3.47 202 09:38 03.07.2020
596 Rain 26 1006 35 0 3.43 201 09:19 03.07.2020
597 Clouds 26 1005 35 0 3.52 201 08:55 03.07.2020
598 Clouds 26 1005 35 0 3.52 201 08:37 03.07.2020
599 Clouds 26 1006 31 0 3.43 202 08:18 03.07.2020
600 Clouds 26 1006 31 0 3.43 202 07:41 03.07.2020
601 Clear 26 1007 30 0 2.56 208 07:21 03.07.2020
602 Clear 25 1007 31 0 1.29 210 06:25 03.07.2020
603 Clear 25 1007 31 0 1.29 210 05:34 03.07.2020
604 Clouds 22 1009 38 0 1.38 18 03:59 03.07.2020
605 Clouds 20 1009 45 0 1.8 28 02:52 03.07.2020
606 Clouds 20 1009 45 0 1.8 28 02:30 03.07.2020
607 Clouds 19 1008 48 0 1.47 22 01:41 03.07.2020
608 Clouds 19 1008 49 0 1.34 16 01:20 03.07.2020
609 Clouds 19 1008 49 0 1.34 16 00:40 03.07.2020
610 Clouds 19 1008 50 0 1 23 23:53 02.07.2020
611 Clouds 18 1008 52 0 0.7 37 23:22 02.07.2020
612 Clouds 18 1008 52 0 0.7 37 22:59 02.07.2020
613 Clouds 18 1008 52 0 0.7 37 22:41 02.07.2020
614 Clear 18 1008 53 0 0.57 68 22:21 02.07.2020
615 Clear 18 1008 53 0 0.57 68 22:00 02.07.2020
616 Clear 18 1008 53 0 0.57 68 21:41 02.07.2020
617 Clouds 19 1007 51 0 0.71 22 21:19 02.07.2020
618 Clouds 19 1007 51 0 0.71 22 20:58 02.07.2020
619 Clouds 19 1007 51 0 0.71 22 20:40 02.07.2020
620 Clouds 20 1007 51 0 0.75 24 20:20 02.07.2020
621 Clouds 20 1007 51 0 0.75 24 19:43 02.07.2020
622 Clouds 21 1007 51 0 0.91 25 19:24 02.07.2020
623 Clouds 21 1007 51 0 0.91 25 18:59 02.07.2020
624 Clouds 21 1007 51 0 0.91 25 18:41 02.07.2020
625 Clouds 21 1007 52 0 0.89 25 18:22 02.07.2020
626 Clouds 21 1007 52 0 0.89 25 17:58 02.07.2020
627 Clouds 21 1007 52 0 0.89 25 17:39 02.07.2020
628 Clouds 21 1006 53 0 0.45 21 17:18 02.07.2020
629 Clouds 21 1006 53 0 0.45 21 16:44 02.07.2020
630 Rain 22 1005 53 0 0.13 137 16:22 02.07.2020
631 Rain 22 1005 53 0 0.13 137 15:59 02.07.2020
632 Rain 22 1005 53 0 0.13 137 15:38 02.07.2020
633 Rain 23 1003 51 0 1 189 15:20 02.07.2020
634 Rain 23 1003 51 0 1 189 14:46 02.07.2020
635 Rain 23 1003 49 0 1.64 201 14:25 02.07.2020
636 Rain 24 1002 48 0 1.61 202 13:57 02.07.2020
637 Rain 24 1002 48 0 1.61 202 13:39 02.07.2020
638 Rain 24 1003 47 0 1.8 203 13:20 02.07.2020
639 Rain 24 1003 47 0 1.8 203 12:58 02.07.2020
640 Rain 24 1003 47 0 1.8 203 12:39 02.07.2020
641 Rain 24 1003 48 0 2.26 203 12:21 02.07.2020
642 Rain 24 1003 48 0 2.26 203 11:44 02.07.2020
643 Rain 25 1003 47 0 2.86 206 11:26 02.07.2020
644 Rain 25 1003 47 0 2.86 206 10:50 02.07.2020
645 Rain 25 1004 46 0 3.1 208 10:28 02.07.2020
646 Rain 25 1004 46 0 3.1 208 10:28 02.07.2020
647 Rain 25 1004 46 0 3.1 208 09:59 02.07.2020
648 Rain 25 1004 46 0 3.1 208 09:41 02.07.2020
649 Rain 26 1006 43 0 3.62 203 09:21 02.07.2020
650 Rain 26 1006 43 0 3.62 203 08:56 02.07.2020
651 Rain 26 1006 43 0 3.62 203 08:37 02.07.2020
652 Rain 26 1007 40 0 3.31 200 08:18 02.07.2020
653 Rain 26 1007 40 0 3.31 200 07:41 02.07.2020
654 Rain 25 1007 38 0 2.69 204 07:20 02.07.2020
655 Rain 25 1007 38 0 2.69 204 06:41 02.07.2020
656 Clear 24 1008 38 0 1.82 209 06:20 02.07.2020
657 Clear 24 1008 38 0 1.82 209 05:46 02.07.2020
658 Clear 23 1009 40 0 1.06 225 04:40 02.07.2020
659 Clear 22 1009 40 0 0.43 329 03:33 02.07.2020
660 Clear 17 1009 49 0 1.13 33 01:48 02.07.2020
661 Clear 17 1008 49 0 0.7 41 00:27 02.07.2020
662 Clear 17 1008 49 0 0.7 41 23:55 01.07.2020
663 Clear 17 1008 49 0 0.7 41 23:37 01.07.2020
664 Clear 18 1008 49 0 0.77 41 23:18 01.07.2020
665 Clear 18 1008 49 0 0.77 41 22:54 01.07.2020
666 Clear 18 1008 49 0 0.77 41 22:36 01.07.2020
667 Clear 18 1008 48 0 0.72 32 22:18 01.07.2020
668 Clear 18 1008 48 0 0.72 32 21:54 01.07.2020
669 Clear 18 1008 48 0 0.72 32 21:36 01.07.2020
670 Clear 18 1008 49 0 0.81 38 21:18 01.07.2020
671 Clear 19 1008 47 0 1.04 49 20:43 01.07.2020
672 Clouds 19 1008 48 0 1.11 44 20:25 01.07.2020
673 Clouds 19 1008 48 0 1.11 44 19:56 01.07.2020
674 Clouds 19 1008 48 0 1.11 44 19:38 01.07.2020
675 Clouds 19 1008 50 0 1.3 40 19:19 01.07.2020
676 Clouds 19 1008 50 0 1.3 40 18:42 01.07.2020
677 Clouds 20 1008 52 0 1.15 36 18:21 01.07.2020
678 Clouds 20 1008 52 0 1.15 36 17:59 01.07.2020
679 Clouds 20 1008 52 0 1.15 36 17:41 01.07.2020
680 Clouds 21 1007 54 0 0.57 35 17:19 01.07.2020
681 Clouds 21 1007 54 0 0.57 35 16:48 01.07.2020
682 Clouds 21 1007 54 0 0.57 35 16:48 01.07.2020
683 Clouds 21 1006 54 0 0.31 209 16:29 01.07.2020
684 Clouds 21 1006 54 0 0.31 209 15:58 01.07.2020
685 Clouds 21 1006 54 0 0.31 209 15:39 01.07.2020
686 Clouds 23 1006 51 0 1.14 209 15:21 01.07.2020
687 Clouds 23 1006 51 0 1.14 209 14:45 01.07.2020
688 Rain 23 1006 49 0 1.84 203 14:22 01.07.2020
689 Rain 23 1006 51 0 1.51 214 13:59 01.07.2020
690 Rain 23 1006 51 0 1.51 214 13:39 01.07.2020
691 Rain 23 1006 49 0 2.04 211 13:20 01.07.2020
692 Rain 23 1006 49 0 2.04 211 12:58 01.07.2020
693 Rain 23 1006 49 0 2.04 211 12:39 01.07.2020
694 Rain 24 1006 48 0 2.44 203 12:20 01.07.2020
695 Rain 24 1006 48 0 2.44 203 11:55 01.07.2020
696 Rain 24 1006 48 0 2.44 203 11:37 01.07.2020
697 Rain 24 1006 48 0 3.07 204 11:18 01.07.2020
698 Rain 24 1006 48 0 3.07 204 10:41 01.07.2020
699 Rain 25 1007 46 0 3.62 207 10:23 01.07.2020
700 Rain 25 1007 46 0 3.62 207 09:59 01.07.2020
701 Rain 25 1007 46 0 3.62 207 09:37 01.07.2020
702 Rain 25 1008 43 0 3.85 203 09:19 01.07.2020
703 Rain 25 1008 43 0 3.85 203 08:41 01.07.2020
704 Clear 26 1009 39 0 3.69 198 08:23 01.07.2020
705 Clear 26 1009 39 0 3.69 198 07:58 01.07.2020
706 Clear 26 1009 39 0 3.69 198 07:39 01.07.2020
707 Clear 26 1010 36 0 2.84 203 07:20 01.07.2020
708 Clear 26 1010 36 0 2.84 203 06:50 01.07.2020
709 Clear 24 1011 38 0 1.21 213 06:28 01.07.2020
710 Clear 22 1012 41 0 1.24 215 05:23 01.07.2020
711 Clear 21 1012 42 0 0.6 182 03:48 01.07.2020
712 Clear 20 1012 47 0 0.55 48 03:27 01.07.2020
713 Clear 20 1012 47 0 0.55 48 02:41 01.07.2020
714 Clouds 17 1012 51 0 0.54 35 01:48 01.07.2020
715 Clouds 18 1011 52 0 0.79 12 00:43 01.07.2020
716 Clouds 18 1011 52 0 0.93 8 00:25 01.07.2020
717 Clouds 18 1011 52 0 0.93 8 23:42 30.06.2020
718 Clouds 19 1010 53 0 1.23 21 23:23 30.06.2020
719 Clouds 19 1010 53 0 1.23 21 22:59 30.06.2020
720 Clouds 19 1010 53 0 1.23 21 22:40 30.06.2020
721 Clouds 18 1010 54 0 0.48 22 22:18 30.06.2020
722 Clouds 18 1010 54 0 0.48 22 21:41 30.06.2020
723 Clouds 18 1010 54 0 0.48 22 21:41 30.06.2020
724 Clouds 18 1011 54 0 0.51 59 21:19 30.06.2020
725 Clouds 20 1010 50 0 0.73 50 20:55 30.06.2020
726 Clouds 20 1010 50 0 0.73 50 20:37 30.06.2020
727 Clouds 20 1010 51 0 0.07 267 20:19 30.06.2020
728 Clouds 20 1010 51 0 0.07 267 19:42 30.06.2020
729 Clouds 20 1010 51 0 0.52 29 19:19 30.06.2020
730 Clouds 20 1010 51 0 0.52 29 18:46 30.06.2020
731 Clouds 20 1009 50 0 0.91 14 18:21 30.06.2020
732 Clouds 20 1009 50 0 0.91 14 17:59 30.06.2020
733 Clouds 20 1009 50 0 0.91 14 17:38 30.06.2020
734 Clouds 20 1008 51 0 0.98 51 17:19 30.06.2020
735 Clouds 20 1008 51 0 0.98 51 16:54 30.06.2020
736 Clouds 20 1008 51 0 0.98 51 16:36 30.06.2020
737 Clouds 21 1007 50 0 0.91 190 16:18 30.06.2020
738 Clouds 21 1007 50 0 0.91 190 15:41 30.06.2020
739 Clouds 23 1006 44 0 1.34 219 15:22 30.06.2020
740 Clouds 23 1006 44 0 1.34 219 14:57 30.06.2020
741 Clouds 23 1006 44 0 1.34 219 14:38 30.06.2020
742 Clouds 23 1006 43 0 1.29 197 14:18 30.06.2020
743 Clouds 24 1005 44 0 1.2 197 14:18 30.06.2020
744 Clouds 24 1005 44 0 1.2 197 13:41 30.06.2020
745 Rain 24 1006 44 0 2.26 197 13:21 30.06.2020
746 Rain 24 1006 44 0 2.26 197 12:59 30.06.2020
747 Rain 24 1006 44 0 2.26 197 12:40 30.06.2020
748 Rain 24 1006 44 0 2.71 201 12:21 30.06.2020
749 Rain 24 1006 44 0 2.71 201 11:59 30.06.2020
750 Rain 24 1006 44 0 2.71 201 11:39 30.06.2020
751 Rain 25 1007 42 0 3.4 203 11:20 30.06.2020
752 Rain 25 1007 42 0 3.4 203 10:59 30.06.2020
753 Rain 20 1009 47 0 0.6 30 16:44 28.06.2020
754 Rain 21 1007 46 0 0.42 241 16:26 28.06.2020
755 Rain 21 1007 46 0 0.42 241 15:58 28.06.2020
756 Rain 21 1007 46 0 0.42 241 15:39 28.06.2020
757 Rain 23 1006 42 0 1.51 217 15:19 28.06.2020
758 Rain 23 1006 42 0 1.51 217 15:19 28.06.2020
759 Rain 23 1006 42 0 1.51 217 14:47 28.06.2020
760 Rain 23 1006 42 0 1.51 217 14:47 28.06.2020
761 Rain 24 1005 40 0 2.15 212 14:28 28.06.2020
762 Rain 23 1004 43 0 1.6 206 13:59 28.06.2020
763 Rain 23 1004 43 0 1.6 206 13:38 28.06.2020
764 Rain 23 1004 43 0 1.6 206 13:38 28.06.2020
765 Rain 23 1004 43 0 1.6 206 13:38 28.06.2020
766 Rain 24 1005 42 0 2.19 218 13:20 28.06.2020
767 Rain 24 1005 42 0 2.19 218 13:20 28.06.2020
768 Rain 24 1005 42 0 2.19 218 12:56 28.06.2020
769 Rain 24 1005 42 0 2.19 218 12:37 28.06.2020
770 Rain 24 1005 42 0 2.19 218 12:37 28.06.2020
771 Rain 24 1005 41 0 2.79 210 12:19 28.06.2020
772 Rain 24 1005 41 0 2.79 210 11:57 28.06.2020
773 Rain 24 1005 41 0 2.79 210 11:39 28.06.2020
774 Rain 25 1005 39 0 3.34 201 11:20 28.06.2020
775 Rain 25 1005 39 0 3.34 201 10:56 28.06.2020
776 Rain 25 1005 39 0 3.34 201 10:38 28.06.2020
777 Rain 25 1005 37 0 3.66 199 10:19 28.06.2020
778 Rain 25 1005 37 0 3.66 199 09:40 28.06.2020
779 Clouds 26 1005 33 0 3.35 198 09:21 28.06.2020
780 Clouds 26 1006 34 0 3.54 199 08:48 28.06.2020
781 Clear 25 1006 32 0 3 198 08:28 28.06.2020
782 Clear 25 1006 32 0 3 198 07:50 28.06.2020
783 Clear 25 1006 32 0 3 198 07:30 28.06.2020
784 Clear 25 1007 31 0 2.65 201 06:45 28.06.2020
785 Clear 24 1008 31 0 1.56 206 06:26 28.06.2020
786 Clear 23 1009 34 0 0.13 344 05:27 28.06.2020
787 Clear 21 1009 38 0 1.29 26 03:45 28.06.2020
788 Clear 19 1009 44 0 1.99 22 02:49 28.06.2020
789 Clouds 17 1009 46 0 2.01 18 02:18 28.06.2020
790 Clouds 17 1009 48 0 1.8 19 01:27 28.06.2020
791 Clouds 17 1009 48 0 1.8 19 00:51 28.06.2020
792 Clouds 17 1009 49 0 1.53 18 00:27 28.06.2020
793 Clouds 17 1009 49 0 1.53 18 23:43 27.06.2020
794 Clouds 17 1009 51 0 0.84 21 23:24 27.06.2020
795 Clouds 17 1009 51 0 0.84 21 22:59 27.06.2020
796 Clouds 17 1009 51 0 0.84 21 22:41 27.06.2020
797 Clouds 17 1009 51 0 0.63 47 22:23 27.06.2020
798 Clouds 17 1009 51 0 0.63 47 21:57 27.06.2020
799 Clouds 17 1009 51 0 0.63 47 21:38 27.06.2020
800 Clouds 18 1009 50 0 0.92 343 21:20 27.06.2020
801 Clouds 18 1009 50 0 0.92 343 21:20 27.06.2020
802 Clouds 18 1009 50 0 0.92 343 20:45 27.06.2020
803 Clouds 19 1008 51 0 1.07 10 20:19 27.06.2020
804 Clouds 19 1008 51 0 1.07 10 19:57 27.06.2020
805 Clouds 19 1008 51 0 1.07 10 19:37 27.06.2020
806 Clouds 19 1008 52 0 1.37 24 19:19 27.06.2020
807 Clouds 19 1008 52 0 1.37 24 18:47 27.06.2020
808 Clouds 19 1008 52 0 1.37 24 18:47 27.06.2020
809 Clouds 19 1008 53 0 1.35 26 18:28 27.06.2020
810 Clouds 19 1008 53 0 1.35 26 17:59 27.06.2020
811 Clouds 19 1008 53 0 1.35 26 17:40 27.06.2020
812 Clouds 20 1007 53 0 0.72 33 17:20 27.06.2020
813 Clouds 20 1007 53 0 0.72 33 16:56 27.06.2020
814 Clouds 20 1007 53 0 0.72 33 16:38 27.06.2020
815 Rain 21 1005 53 0 0.44 184 16:18 27.06.2020
816 Rain 21 1005 53 0 0.44 184 15:42 27.06.2020
817 Rain 22 1004 51 0 1.6 205 15:23 27.06.2020
818 Rain 22 1004 51 0 1.6 205 14:54 27.06.2020
819 Rain 22 1004 50 0 1.46 199 14:36 27.06.2020
820 Rain 22 1003 49 0 1.89 202 14:18 27.06.2020
821 Rain 22 1003 49 0 1.89 202 13:39 27.06.2020
822 Rain 23 1004 47 0 2.48 205 13:20 27.06.2020
823 Rain 23 1004 47 0 2.48 205 12:58 27.06.2020
824 Rain 23 1004 47 0 2.48 205 12:40 27.06.2020
825 Rain 23 1004 46 0 3.04 204 12:21 27.06.2020
826 Rain 23 1004 46 0 3.04 204 11:55 27.06.2020
827 Rain 23 1004 46 0 3.04 204 11:37 27.06.2020
828 Rain 24 1005 43 0 3.39 202 11:18 27.06.2020
829 Rain 24 1005 43 0 3.39 202 10:39 27.06.2020
830 Rain 25 1005 42 0 3.39 203 10:19 27.06.2020
831 Rain 25 1005 42 0 3.39 203 09:54 27.06.2020
832 Rain 24 1005 41 0 3.57 207 09:36 27.06.2020
833 Rain 25 1006 39 0 3.5 202 09:18 27.06.2020
834 Clouds 25 1006 38 0 3.58 203 08:40 27.06.2020
835 Clear 25 1006 37 0 3.26 199 08:22 27.06.2020
836 Clear 25 1006 37 0 3.26 199 07:46 27.06.2020
837 Clear 24 1007 37 0 3.08 198 07:24 27.06.2020
838 Clear 24 1007 37 0 3.08 198 06:50 27.06.2020
839 Clear 24 1007 37 0 3.08 198 06:31 27.06.2020
840 Clear 21 1008 36 0 1.01 27 04:24 27.06.2020
841 Clear 21 1008 36 0 1.01 27 03:54 27.06.2020
842 Clear 21 1008 36 0 1.01 27 03:30 27.06.2020
843 Clear 18 1008 44 0 2.24 30 02:36 27.06.2020
844 Clear 16 1008 51 0 0.91 31 01:49 27.06.2020
845 Clear 16 1008 52 0 0.89 19 01:24 27.06.2020
846 Clear 16 1008 52 0 0.89 19 00:38 27.06.2020
847 Clear 16 1008 54 0 0.68 20 23:47 26.06.2020
848 Clear 16 1008 54 0 0.17 18 23:26 26.06.2020
849 Clear 16 1008 54 0 0.17 18 22:57 26.06.2020
850 Clear 16 1008 54 0 0.17 18 22:39 26.06.2020
851 Clear 17 1007 53 0 0.23 4 22:20 26.06.2020
852 Clear 17 1007 53 0 0.23 4 21:57 26.06.2020
853 Clear 17 1007 53 0 0.23 4 21:38 26.06.2020
854 Clear 18 1007 52 0 0.32 9 21:20 26.06.2020
855 Clear 18 1007 52 0 0.32 9 20:46 26.06.2020
856 Clouds 18 1007 51 0 0.95 14 20:26 26.06.2020
857 Clouds 18 1007 51 0 0.95 14 19:47 26.06.2020
858 Clouds 19 1007 52 0 1.65 17 19:24 26.06.2020
859 Clouds 19 1007 52 0 1.65 17 18:58 26.06.2020
860 Clouds 19 1007 52 0 1.65 17 18:38 26.06.2020
861 Clouds 19 1007 53 0 1.24 2 18:20 26.06.2020
862 Clouds 19 1007 53 0 1.24 2 17:44 26.06.2020
863 Rain 20 1006 53 0 0.74 35 17:26 26.06.2020
864 Rain 20 1006 53 0 0.74 35 16:51 26.06.2020
865 Rain 20 1005 54 0 0.7 156 16:28 26.06.2020
866 Rain 20 1005 54 0 0.7 156 15:58 26.06.2020
867 Rain 20 1005 54 0 0.7 156 15:39 26.06.2020
868 Rain 21 1004 52 0 1.99 192 15:21 26.06.2020
869 Rain 21 1004 52 0 1.99 192 14:57 26.06.2020
870 Rain 21 1004 52 0 1.99 192 14:57 26.06.2020
871 Rain 21 1004 52 0 1.99 192 14:38 26.06.2020
872 Rain 22 1003 48 0 2.51 204 14:20 26.06.2020
873 Rain 23 1003 49 0 2.06 199 13:44 26.06.2020
874 Rain 23 1003 48 0 2.42 204 13:23 26.06.2020
875 Rain 23 1003 48 0 2.42 204 12:56 26.06.2020
876 Rain 23 1003 48 0 2.42 204 12:38 26.06.2020
877 Rain 23 1004 48 0 2.99 202 12:19 26.06.2020
878 Rain 23 1004 48 0 2.99 202 11:56 26.06.2020
879 Rain 23 1004 48 0 2.99 202 11:38 26.06.2020
880 Rain 24 1005 47 0 3.34 202 11:19 26.06.2020
881 Rain 24 1005 47 0 3.34 202 10:56 26.06.2020
882 Rain 24 1005 47 0 3.34 202 10:37 26.06.2020
883 Rain 24 1005 47 0 3.34 202 10:37 26.06.2020
884 Rain 24 1005 46 0 3.43 199 10:18 26.06.2020
885 Rain 24 1005 46 0 3.43 199 09:41 26.06.2020
886 Rain 25 1006 41 0 3.73 200 09:22 26.06.2020
887 Rain 25 1006 41 0 3.72 202 08:48 26.06.2020
888 Clear 25 1007 39 0 3.42 201 08:27 26.06.2020
889 Clear 25 1007 39 0 3.42 201 07:48 26.06.2020
890 Clear 24 1008 38 0 3.16 202 07:24 26.06.2020
891 Clear 24 1008 38 0 3.16 202 06:54 26.06.2020
892 Clear 24 1008 38 0 3.16 202 06:33 26.06.2020
893 Clouds 23 1008 36 0 2.5 203 05:55 26.06.2020
894 Clouds 22 1009 36 0 1.4 217 05:29 26.06.2020
895 Clouds 19 1009 47 0 2.08 23 02:41 26.06.2020
896 Clouds 18 1009 52 0 1.49 24 02:21 26.06.2020
897 Rain 18 1009 53 0 0.58 348 00:55 26.06.2020
898 Rain 18 1009 53 0 0.58 348 00:32 26.06.2020
899 Rain 18 1009 53 0 0.36 277 23:48 25.06.2020
900 Rain 18 1008 53 0 0.19 238 23:23 25.06.2020
901 Rain 18 1008 53 0 0.19 238 22:59 25.06.2020
902 Rain 18 1008 53 0 0.19 238 22:40 25.06.2020
903 Clouds 19 1008 53 0 0.14 81 22:20 25.06.2020
904 Clouds 19 1008 53 0 0.14 81 21:58 25.06.2020
905 Clouds 19 1008 53 0 0.14 81 21:40 25.06.2020
906 Rain 19 1009 51 0 0.56 26 21:21 25.06.2020
907 Rain 19 1009 51 0 0.56 26 20:59 25.06.2020
908 Rain 19 1009 51 0 0.56 26 20:41 25.06.2020
909 Clouds 19 1009 52 0 0.8 33 20:22 25.06.2020
910 Clouds 19 1009 52 0 0.8 33 19:56 25.06.2020
911 Clouds 19 1009 52 0 0.8 33 19:37 25.06.2020
912 Rain 20 1009 53 0 1.01 37 19:18 25.06.2020
913 Rain 20 1009 53 0 1.01 37 18:40 25.06.2020
914 Rain 20 1008 54 0 0.92 61 18:21 25.06.2020
915 Rain 20 1008 54 0 0.92 61 17:55 25.06.2020
916 Rain 20 1008 54 0 0.92 61 17:37 25.06.2020
917 Clouds 20 1008 56 0 0.59 89 17:19 25.06.2020
918 Clouds 20 1008 56 0 0.59 89 17:19 25.06.2020
919 Clouds 20 1008 56 0 0.59 89 16:41 25.06.2020
920 Rain 20 1007 56 0 0.56 193 16:20 25.06.2020
921 Rain 20 1007 56 0 0.56 193 15:45 25.06.2020
922 Rain 22 1005 50 0 0.87 204 15:27 25.06.2020
923 Rain 22 1005 50 0 0.87 204 14:58 25.06.2020
924 Rain 22 1005 50 0 0.87 204 14:40 25.06.2020
925 Rain 22 1005 47 0 1.31 232 14:22 25.06.2020
926 Rain 22 1005 47 0 1.31 232 13:56 25.06.2020
927 Rain 22 1005 47 0 1.31 232 13:37 25.06.2020
928 Rain 23 1005 45 0 1.4 219 13:19 25.06.2020
929 Rain 23 1005 45 0 1.4 219 12:44 25.06.2020
930 Rain 23 1005 44 0 1.85 201 12:20 25.06.2020
931 Rain 23 1005 44 0 1.85 201 11:44 25.06.2020
932 Rain 23 1006 49 0 2.59 190 11:25 25.06.2020
933 Rain 23 1006 49 0 2.59 190 10:59 25.06.2020
934 Rain 23 1006 49 0 2.59 190 10:40 25.06.2020
935 Rain 23 1007 50 0 3.36 194 10:22 25.06.2020
936 Rain 23 1007 50 0 3.36 194 09:41 25.06.2020
937 Rain 23 1007 50 0 3.36 194 09:41 25.06.2020
938 Rain 24 1008 48 0 3.41 200 09:23 25.06.2020
939 Rain 23 1009 50 0 4.18 197 08:47 25.06.2020
940 Rain 24 1009 47 0 3.6 203 08:20 25.06.2020
941 Rain 24 1009 47 0 3.6 203 07:46 25.06.2020
942 Rain 24 1010 46 0 3.06 200 07:28 25.06.2020
943 Rain 24 1010 46 0 3.06 200 06:54 25.06.2020
944 Rain 23 1011 47 0 2.3 194 06:27 25.06.2020
945 Rain 23 1011 47 0 2.3 194 05:51 25.06.2020
946 Rain 22 1011 47 0 2.24 198 04:56 25.06.2020
947 Clear 21 1011 44 0 0.97 218 03:35 25.06.2020
948 Clear 20 1012 48 0 1.72 23 02:44 25.06.2020
949 Clouds 17 1012 53 0 0.59 50 02:18 25.06.2020
950 Clouds 17 1012 54 0 1.13 44 01:29 25.06.2020
951 Clouds 17 1012 54 0 1.13 44 00:47 25.06.2020
952 Rain 17 1011 55 0 0.97 47 00:22 25.06.2020
953 Rain 17 1011 55 0 0.97 47 23:58 24.06.2020
954 Rain 17 1011 55 0 0.97 47 23:37 24.06.2020
955 Rain 18 1012 56 0 0.41 62 23:19 24.06.2020
956 Rain 18 1012 56 0 0.41 62 22:41 24.06.2020
957 Rain 19 1013 56 0 0.35 86 22:20 24.06.2020
958 Rain 19 1013 56 0 0.35 86 21:57 24.06.2020
959 Rain 19 1013 56 0 0.35 86 21:37 24.06.2020
960 Rain 19 1013 57 0 0.41 230 21:19 24.06.2020
961 Rain 20 1012 55 0 0.63 91 20:58 24.06.2020
962 Rain 20 1012 55 0 0.63 91 20:39 24.06.2020
963 Rain 20 1012 56 0 0.58 81 20:21 24.06.2020
964 Rain 20 1012 56 0 0.58 81 19:57 24.06.2020
965 Rain 20 1012 56 0 0.58 81 19:38 24.06.2020
966 Rain 20 1012 56 0 0.53 80 19:20 24.06.2020
967 Rain 20 1012 56 0 0.53 80 18:58 24.06.2020
968 Rain 20 1012 56 0 0.53 80 18:39 24.06.2020
969 Rain 20 1011 57 0 0.48 101 18:20 24.06.2020
970 Rain 20 1011 57 0 0.48 101 17:55 24.06.2020
971 Rain 20 1011 57 0 0.48 101 17:37 24.06.2020
972 Rain 20 1011 58 0 0.51 165 17:18 24.06.2020
973 Rain 20 1011 58 0 0.51 165 16:55 24.06.2020
974 Rain 20 1011 58 0 0.51 165 16:37 24.06.2020
975 Rain 20 1011 58 0 0.51 165 16:37 24.06.2020
976 Rain 21 1010 58 0 1.29 220 16:19 24.06.2020
977 Rain 21 1010 58 0 1.29 220 15:55 24.06.2020
978 Rain 21 1010 58 0 1.29 220 15:37 24.06.2020
979 Rain 21 1009 57 0 1.8 211 15:18 24.06.2020
980 Rain 21 1009 57 0 1.8 211 14:40 24.06.2020
981 Rain 23 1007 52 0 1.72 199 14:22 24.06.2020
982 Rain 23 1007 52 0 1.72 199 13:42 24.06.2020
983 Rain 23 1008 52 0 2.37 201 13:22 24.06.2020
984 Rain 23 1008 52 0 2.37 201 12:54 24.06.2020
985 Rain 23 1008 52 0 2.37 201 12:36 24.06.2020
986 Rain 24 1008 51 0 2.86 204 12:18 24.06.2020
987 Rain 24 1008 51 0 2.86 204 11:42 24.06.2020
988 Rain 24 1008 51 0 2.86 204 11:42 24.06.2020
989 Rain 24 1009 49 0 3.03 200 11:24 24.06.2020
990 Rain 24 1009 49 0 3.03 200 10:59 24.06.2020
991 Rain 24 1009 49 0 3.03 200 10:40 24.06.2020
992 Rain 25 1009 48 0 3.08 198 10:18 24.06.2020
993 Rain 25 1009 48 0 3.08 198 09:42 24.06.2020
994 Rain 24 1010 48 0 3.1 201 09:21 24.06.2020
995 Rain 24 1010 48 0 3.1 201 08:42 24.06.2020
996 Rain 24 1011 47 0 2.88 199 08:20 24.06.2020
997 Rain 24 1011 47 0 2.88 199 07:50 24.06.2020
998 Rain 24 1011 47 0 2.88 199 07:31 24.06.2020
999 Rain 24 1012 45 0 2.34 203 06:50 24.06.2020
1000 Rain 24 1013 43 0 2.17 206 06:25 24.06.2020
1001 Rain 24 1013 43 0 2.17 206 05:54 24.06.2020
1002 Rain 23 1013 42 0 1.76 199 04:42 24.06.2020
1003 Clouds 22 1014 40 0 0.32 183 04:18 24.06.2020
1004 Clouds 22 1014 40 0 0.32 183 03:34 24.06.2020
1005 Clouds 21 1014 44 0 1.25 38 02:45 24.06.2020
1006 Clouds 18 1013 46 0 2.23 31 01:35 24.06.2020
1007 Clouds 18 1013 48 0 2.12 26 00:47 24.06.2020
1008 Clouds 19 1013 51 0 1.43 26 00:27 24.06.2020
1009 Clouds 19 1013 51 0 1.43 26 23:44 23.06.2020
1010 Clouds 19 1013 54 0 0.76 17 23:19 23.06.2020
1011 Clouds 19 1013 54 0 0.76 17 22:42 23.06.2020
1012 Clouds 19 1014 54 0 0.49 9 22:19 23.06.2020
1013 Clouds 19 1014 54 0 0.49 9 21:59 23.06.2020
1014 Clouds 19 1014 54 0 0.49 9 21:40 23.06.2020
1015 Rain 20 1013 55 0 0.88 337 21:19 23.06.2020
1016 Rain 20 1013 55 0 0.88 337 20:55 23.06.2020
1017 Rain 20 1013 55 0 0.88 337 20:37 23.06.2020
1018 Rain 20 1013 55 0 0.62 296 20:18 23.06.2020
1019 Rain 20 1013 55 0 0.62 296 19:44 23.06.2020
1020 Rain 21 1013 55 0 0.41 311 19:26 23.06.2020
1021 Rain 21 1013 55 0 0.41 311 18:42 23.06.2020
1022 Rain 21 1012 56 0 0.39 338 18:19 23.06.2020
1023 Rain 21 1012 56 0 0.39 338 17:57 23.06.2020
1024 Rain 21 1012 56 0 0.39 338 17:38 23.06.2020
1025 Rain 21 1011 56 0 0.29 340 17:20 23.06.2020
1026 Rain 21 1011 56 0 0.29 340 16:55 23.06.2020
1027 Rain 21 1011 56 0 0.29 340 16:37 23.06.2020
1028 Rain 21 1010 55 0 0.57 208 16:18 23.06.2020
1029 Rain 21 1010 55 0 0.57 208 15:43 23.06.2020
1030 Rain 23 1009 51 0 1.32 200 15:24 23.06.2020
1031 Rain 23 1009 51 0 1.32 200 14:58 23.06.2020
1032 Rain 23 1009 51 0 1.32 200 14:40 23.06.2020
1033 Rain 24 1008 47 0 1.97 199 14:18 23.06.2020
1034 Rain 24 1008 47 0 1.97 199 13:54 23.06.2020
1035 Rain 24 1008 47 0 1.97 199 13:54 23.06.2020
1036 Rain 24 1008 47 0 1.97 199 13:36 23.06.2020
1037 Rain 24 1008 46 0 2.63 201 13:18 23.06.2020
1038 Rain 24 1008 46 0 2.63 201 12:40 23.06.2020
1039 Rain 25 1008 44 0 3.29 202 12:21 23.06.2020
1040 Rain 25 1008 44 0 3.29 202 11:44 23.06.2020
1041 Rain 26 1009 40 0 3.9 202 11:23 23.06.2020
1042 Rain 26 1009 40 0 3.9 202 10:59 23.06.2020
1043 Rain 26 1009 40 0 3.9 202 10:41 23.06.2020
1044 Rain 27 1009 35 0 3.83 202 10:22 23.06.2020
1045 Rain 27 1009 35 0 3.83 202 09:57 23.06.2020
1046 Rain 27 1009 35 0 3.83 202 09:38 23.06.2020
1047 Clouds 27 1010 36 0 3.89 203 09:20 23.06.2020
1048 Clouds 27 1010 36 0 3.89 203 08:47 23.06.2020
1049 Clear 27 1010 33 0 3.32 200 08:26 23.06.2020
1050 Clear 27 1010 33 0 3.32 200 07:51 23.06.2020
1051 Clear 26 1011 32 0 2.47 202 07:25 23.06.2020
1052 Clear 26 1011 32 0 2.47 202 06:57 23.06.2020
1053 Clear 26 1011 32 0 2.47 202 06:38 23.06.2020
1054 Clear 25 1012 32 0 1.93 200 06:19 23.06.2020
1055 Clear 24 1012 32 0 1.25 198 05:29 23.06.2020
1056 Clear 20 1012 37 0 1.63 28 03:23 23.06.2020
1057 Clear 20 1012 37 0 1.63 28 02:53 23.06.2020
1058 Clear 20 1012 37 0 1.63 28 02:34 23.06.2020
1059 Clouds 18 1011 40 0 1.91 24 01:46 23.06.2020
1060 Clouds 18 1011 40 0 1.86 18 01:25 23.06.2020
1061 Clouds 18 1011 40 0 1.86 18 00:49 23.06.2020
1062 Clouds 18 1011 40 0 1.72 14 00:21 23.06.2020
1063 Clouds 18 1011 40 0 1.72 14 23:55 22.06.2020
1064 Clouds 18 1011 40 0 1.72 14 23:36 22.06.2020
1065 Clouds 18 1011 42 0 1.41 16 23:18 22.06.2020
1066 Clouds 18 1011 42 0 1.41 16 22:54 22.06.2020
1067 Clouds 18 1011 42 0 1.41 16 22:36 22.06.2020
1068 Clouds 18 1011 43 0 1.28 19 22:18 22.06.2020
1069 Clouds 18 1011 43 0 1.28 19 21:41 22.06.2020
1070 Clouds 19 1010 46 0 1.15 51 21:22 22.06.2020
1071 Clouds 19 1010 46 0 1.15 51 20:59 22.06.2020
1072 Clouds 19 1010 46 0 1.15 51 20:59 22.06.2020
1073 Clouds 19 1010 46 0 1.15 51 20:41 22.06.2020
1074 Clouds 19 1010 48 0 1.34 41 20:21 22.06.2020
1075 Clouds 19 1010 48 0 1.34 41 19:44 22.06.2020
1076 Clouds 19 1010 51 0 1.03 45 19:20 22.06.2020
1077 Clouds 19 1010 51 0 1.03 45 18:58 22.06.2020
1078 Clouds 19 1010 51 0 1.03 45 18:38 22.06.2020
1079 Clouds 19 1010 53 0 0.75 49 18:20 22.06.2020
1080 Clouds 19 1010 53 0 0.75 49 17:56 22.06.2020
1081 Clouds 19 1010 53 0 0.75 49 17:37 22.06.2020
1082 Clouds 20 1009 53 0 0.43 97 17:19 22.06.2020
1083 Clouds 20 1009 53 0 0.43 97 16:43 22.06.2020
1084 Clouds 21 1008 51 0 1.07 195 16:20 22.06.2020
1085 Clouds 21 1008 51 0 1.07 195 15:59 22.06.2020
1086 Clouds 21 1008 51 0 1.07 195 15:39 22.06.2020
1087 Clouds 23 1006 45 0 2.23 191 15:21 22.06.2020
1088 Clouds 23 1006 45 0 2.23 191 14:40 22.06.2020
1089 Clouds 25 1005 36 0 2.76 190 14:21 22.06.2020
1090 Clouds 25 1005 36 0 2.76 190 13:59 22.06.2020
1091 Clouds 25 1005 36 0 2.76 190 13:39 22.06.2020
1092 Clouds 26 1005 33 0 3.33 193 13:21 22.06.2020
1093 Clouds 26 1005 33 0 3.33 193 12:44 22.06.2020
1094 Clouds 27 1005 31 0 3.55 195 12:25 22.06.2020
1095 Clouds 27 1005 31 0 3.55 195 11:59 22.06.2020
1096 Clouds 27 1005 31 0 3.55 195 11:37 22.06.2020
1097 Clear 27 1005 29 0 3.73 196 11:19 22.06.2020
1098 Clear 27 1005 29 0 3.73 196 10:55 22.06.2020
1099 Clear 27 1005 29 0 3.73 196 10:37 22.06.2020
1100 Clear 27 1006 28 0 3.59 199 10:18 22.06.2020
1101 Clear 27 1006 28 0 3.59 199 09:56 22.06.2020
1102 Clear 27 1006 28 0 3.59 199 09:38 22.06.2020
1103 Clear 26 1007 28 0 3.29 197 09:18 22.06.2020
1104 Clear 26 1007 28 0 3.29 197 08:54 22.06.2020
1105 Clear 26 1007 28 0 3.29 197 08:36 22.06.2020
1106 Clear 26 1008 28 0 2.91 200 08:18 22.06.2020
1107 Clear 26 1008 28 0 2.91 200 07:44 22.06.2020
1108 Clear 25 1009 28 0 2.53 197 07:23 22.06.2020
1109 Clear 25 1009 28 0 2.53 197 06:38 22.06.2020
1110 Clear 24 1009 27 0 2.13 198 06:19 22.06.2020
1111 Clear 24 1009 27 0 2.13 198 05:41 22.06.2020
1112 Clear 18 1010 33 0 2.67 23 03:22 22.06.2020
1113 Clear 16 1010 37 0 2.68 28 01:39 22.06.2020
1114 Clear 16 1010 38 0 2.37 30 00:44 22.06.2020
1115 Clear 16 1010 38 0 1.98 32 00:25 22.06.2020
1116 Clear 16 1010 38 0 1.98 32 23:56 21.06.2020
1117 Clear 16 1010 38 0 1.98 32 23:37 21.06.2020
1118 Clear 16 1010 39 0 2.06 34 23:19 21.06.2020
1119 Clear 16 1010 39 0 2.06 34 22:55 21.06.2020
1120 Clear 16 1010 39 0 2.06 34 22:36 21.06.2020
1121 Clear 17 1010 40 0 1.83 43 22:18 21.06.2020
1122 Clear 17 1010 40 0 1.83 43 21:55 21.06.2020
1123 Clear 17 1010 40 0 1.83 43 21:37 21.06.2020
1124 Clear 17 1009 42 0 1.55 54 21:18 21.06.2020
1125 Clear 17 1008 40 0 2.26 46 20:54 21.06.2020
1126 Clear 17 1008 40 0 2.26 46 20:36 21.06.2020
1127 Clouds 17 1008 42 0 1.86 44 20:18 21.06.2020
1128 Clouds 17 1008 42 0 1.86 44 19:41 21.06.2020
1129 Clouds 18 1008 45 0 1.83 30 19:20 21.06.2020
1130 Clouds 18 1008 45 0 1.83 30 18:56 21.06.2020
1131 Clouds 18 1008 45 0 1.83 30 18:38 21.06.2020
1132 Clouds 18 1008 46 0 1.8 19 18:19 21.06.2020
1133 Clouds 18 1008 46 0 1.8 19 17:55 21.06.2020
1134 Clouds 18 1008 46 0 1.8 19 17:36 21.06.2020
1135 Clouds 19 1007 47 0 1.08 37 17:18 21.06.2020
1136 Clouds 19 1007 47 0 1.08 37 16:40 21.06.2020
1137 Rain 20 1007 46 0 0.56 158 16:22 21.06.2020
1138 Rain 20 1007 46 0 0.56 158 15:42 21.06.2020
1139 Rain 21 1006 42 0 1.54 187 15:24 21.06.2020
1140 Rain 21 1006 42 0 1.54 187 14:59 21.06.2020
1141 Rain 21 1006 42 0 1.54 187 14:38 21.06.2020
1142 Rain 22 1005 40 0 2.35 186 14:19 21.06.2020
1143 Rain 23 1004 41 0 2.29 181 13:55 21.06.2020
1144 Rain 23 1004 41 0 2.29 181 13:37 21.06.2020
1145 Rain 23 1005 39 0 3.08 185 13:18 21.06.2020
1146 Rain 23 1005 39 0 3.08 185 12:43 21.06.2020
1147 Rain 24 1005 35 0 3.44 186 12:24 21.06.2020
1148 Rain 24 1005 35 0 3.44 186 11:55 21.06.2020
1149 Rain 24 1005 35 0 3.44 186 11:36 21.06.2020
1150 Rain 25 1006 31 0 3.19 188 11:18 21.06.2020
1151 Rain 25 1006 31 0 3.19 188 10:54 21.06.2020
1152 Rain 25 1006 31 0 3.19 188 10:36 21.06.2020
1153 Clouds 25 1006 29 0 3.23 185 10:18 21.06.2020
1154 Clouds 25 1006 29 0 3.23 185 09:40 21.06.2020
1155 Clouds 25 1008 29 0 3.58 192 09:19 21.06.2020
1156 Clouds 25 1008 29 0 3.58 192 08:55 21.06.2020
1157 Clouds 25 1008 29 0 3.58 192 08:37 21.06.2020
1158 Clear 25 1009 27 0 3.27 190 08:19 21.06.2020
1159 Clear 25 1009 27 0 3.27 190 07:41 21.06.2020
1160 Clear 24 1010 26 0 2.63 191 07:22 21.06.2020
1161 Clear 24 1010 26 0 2.63 191 06:48 21.06.2020
1162 Clear 23 1010 27 0 1.18 189 05:59 21.06.2020
1163 Clear 23 1010 27 0 1.18 189 05:30 21.06.2020
1164 Clear 20 1011 35 0 2 18 03:40 21.06.2020
1165 Clear 18 1012 41 0 3.12 21 03:18 21.06.2020
1166 Clouds 16 1011 42 0 3.22 24 02:19 21.06.2020
1167 Clouds 16 1012 43 0 2.63 29 01:24 21.06.2020
1168 Clouds 16 1012 43 0 2.63 29 00:56 21.06.2020
1169 Clouds 16 1012 43 0 2.63 29 00:38 21.06.2020
1170 Clouds 16 1011 43 0 2.07 28 00:19 21.06.2020
1171 Clouds 16 1011 43 0 2.07 28 23:44 20.06.2020
1172 Clouds 16 1011 44 0 2.08 32 23:22 20.06.2020
1173 Clouds 16 1011 44 0 2.08 32 22:56 20.06.2020
1174 Clouds 16 1011 44 0 2.08 32 22:38 20.06.2020
1175 Clouds 17 1012 45 0 2.51 36 22:18 20.06.2020
1176 Clouds 17 1012 45 0 2.51 36 21:56 20.06.2020
1177 Clouds 17 1012 45 0 2.51 36 21:38 20.06.2020
1178 Clear 17 1011 42 0 2.51 43 21:19 20.06.2020
1179 Clear 17 1011 42 0 2.51 43 20:56 20.06.2020
1180 Clear 17 1011 42 0 2.51 43 20:38 20.06.2020
1181 Clouds 17 1011 43 0 2.53 45 20:19 20.06.2020
1182 Clouds 17 1011 43 0 2.53 45 19:44 20.06.2020
1183 Clouds 17 1011 45 0 2.65 42 19:25 20.06.2020
1184 Clouds 17 1011 45 0 2.65 42 18:58 20.06.2020
1185 Clouds 17 1011 45 0 2.65 42 18:40 20.06.2020
1186 Clouds 18 1010 46 0 2.86 29 18:19 20.06.2020
1187 Clouds 18 1010 46 0 2.86 29 17:56 20.06.2020
1188 Clouds 18 1010 46 0 2.86 29 17:38 20.06.2020
1189 Rain 19 1010 47 0 2.76 20 17:19 20.06.2020
1190 Rain 19 1010 47 0 2.76 20 16:41 20.06.2020
1191 Rain 19 1008 46 0 1.41 348 16:19 20.06.2020
1192 Rain 19 1008 46 0 1.41 348 15:57 20.06.2020
1193 Rain 19 1008 46 0 1.41 348 15:38 20.06.2020
1194 Rain 21 1007 44 0 1.58 252 15:18 20.06.2020
1195 Rain 21 1007 44 0 1.58 252 14:42 20.06.2020
1196 Rain 23 1006 36 0 2.5 211 14:20 20.06.2020
1197 Rain 23 1006 36 0 2.5 211 13:42 20.06.2020
1198 Rain 24 1006 32 0 2.54 190 13:20 20.06.2020
1199 Rain 24 1006 32 0 2.54 190 12:57 20.06.2020
1200 Rain 24 1006 32 0 2.54 190 12:38 20.06.2020
1201 Rain 24 1007 30 0 2.35 184 12:19 20.06.2020
1202 Rain 24 1007 30 0 2.35 184 12:19 20.06.2020
1203 Rain 24 1007 30 0 2.35 184 11:55 20.06.2020
1204 Rain 24 1007 30 0 2.35 184 11:36 20.06.2020
1205 Clouds 25 1008 27 0 2.46 186 11:18 20.06.2020
1206 Clouds 25 1008 27 0 2.46 186 10:42 20.06.2020
1207 Clouds 25 1009 26 0 2.35 181 10:20 20.06.2020
1208 Clouds 25 1009 26 0 2.35 181 09:54 20.06.2020
1209 Clouds 25 1009 26 0 3.28 199 09:36 20.06.2020
1210 Clouds 26 1010 22 0 3.24 190 09:18 20.06.2020
1211 Clouds 26 1010 22 0 3.24 190 08:43 20.06.2020
1212 Clear 25 1011 21 0 1.83 188 08:25 20.06.2020
1213 Clear 25 1011 21 0 1.83 188 07:51 20.06.2020
1214 Clear 25 1011 22 0 0.62 208 07:26 20.06.2020
1215 Clear 25 1011 22 0 0.62 208 06:51 20.06.2020
1216 Clear 23 1012 24 0 0.51 345 06:23 20.06.2020
1217 Clear 23 1012 24 0 0.51 345 05:49 20.06.2020
1218 Clear 22 1012 28 0 1.48 9 04:50 20.06.2020
1219 Clouds 16 1013 37 0 3.57 26 02:23 20.06.2020
1220 Clouds 16 1013 37 0 3.57 26 01:46 20.06.2020
1221 Clouds 16 1012 38 0 3.36 27 00:52 20.06.2020
1222 Clouds 17 1012 38 0 3.23 28 00:21 20.06.2020
1223 Clouds 17 1012 38 0 3.23 28 23:55 19.06.2020
1224 Clouds 17 1012 38 0 3.23 28 23:36 19.06.2020
1225 Clouds 17 1012 38 0 3.04 29 23:18 19.06.2020
1226 Clouds 17 1012 38 0 3.04 29 22:40 19.06.2020
1227 Clouds 17 1012 38 0 3.1 29 22:22 19.06.2020
1228 Clouds 17 1012 38 0 3.1 29 21:58 19.06.2020
1229 Clouds 17 1011 36 0 3.21 29 21:38 19.06.2020
1230 Clear 17 1012 39 0 3.53 26 21:18 19.06.2020
1231 Clouds 17 1011 37 0 3.33 28 20:58 19.06.2020
1232 Clouds 17 1011 37 0 3.33 28 20:40 19.06.2020
1233 Clouds 18 1011 38 0 3.44 29 20:20 19.06.2020
1234 Clouds 18 1011 38 0 3.44 29 19:57 19.06.2020
1235 Clouds 18 1011 38 0 3.44 29 19:38 19.06.2020
1236 Clouds 18 1011 40 0 3.28 29 19:19 19.06.2020
1237 Clouds 18 1011 40 0 3.28 29 18:41 19.06.2020
1238 Clouds 18 1010 42 0 3.44 32 18:21 19.06.2020
1239 Clouds 18 1010 42 0 3.44 32 17:58 19.06.2020
1240 Clouds 18 1010 42 0 3.44 32 17:38 19.06.2020
1241 Clouds 18 1010 44 0 4.02 24 17:20 19.06.2020
1242 Clouds 18 1010 44 0 4.02 24 16:55 19.06.2020
1243 Clouds 18 1010 44 0 4.02 24 16:37 19.06.2020
1244 Rain 19 1009 43 0 3.39 5 16:18 19.06.2020
1245 Rain 19 1009 43 0 3.39 5 15:42 19.06.2020
1246 Rain 21 1007 39 0 2.29 332 15:21 19.06.2020
1247 Rain 21 1007 39 0 2.29 332 14:56 19.06.2020
1248 Rain 21 1007 39 0 2.29 332 14:38 19.06.2020
1249 Rain 24 1007 29 0 1.1 238 14:19 19.06.2020
1250 Rain 24 1007 29 0 1.1 238 13:44 19.06.2020
1251 Rain 25 1007 27 0 1.6 191 13:26 19.06.2020
1252 Rain 25 1007 27 0 1.6 191 12:48 19.06.2020
1253 Clouds 25 1007 26 0 1.96 191 12:23 19.06.2020
1254 Clouds 25 1007 26 0 1.96 191 11:59 19.06.2020
1255 Clouds 25 1007 26 0 1.96 191 11:40 19.06.2020
1256 Clouds 25 1008 24 0 2.3 196 11:19 19.06.2020
1257 Clouds 25 1008 24 0 2.3 196 10:55 19.06.2020
1258 Clouds 25 1008 24 0 2.3 196 10:55 19.06.2020
1259 Clouds 25 1008 24 0 2.3 196 10:37 19.06.2020
1260 Clouds 25 1009 24 0 2.43 182 10:18 19.06.2020
1261 Clouds 25 1009 24 0 2.43 182 09:42 19.06.2020
1262 Clouds 26 1009 20 0 2.81 183 09:21 19.06.2020
1263 Clouds 26 1009 20 0 2.81 183 08:55 19.06.2020
1264 Clouds 26 1009 20 0 2.81 183 08:37 19.06.2020
1265 Clear 26 1010 19 0 1.77 172 08:19 19.06.2020
1266 Clear 26 1010 19 0 1.77 172 07:40 19.06.2020
1267 Clear 25 1011 21 0 0.77 153 07:21 19.06.2020
1268 Clear 25 1011 21 0 0.77 153 06:44 19.06.2020
1269 Clear 23 1011 24 0 0.71 35 06:19 19.06.2020
1270 Clear 22 1012 29 0 1.87 23 04:30 19.06.2020
1271 Clear 18 1013 37 0 3.51 25 03:29 19.06.2020
1272 Clear 16 1012 38 0 3.69 28 01:23 19.06.2020
1273 Clear 16 1012 38 0 3.69 28 00:42 19.06.2020
1274 Clear 17 1011 40 0 3.19 29 00:22 19.06.2020
1275 Clear 17 1011 40 0 3.19 29 23:55 18.06.2020
1276 Clear 17 1011 40 0 3.19 29 23:36 18.06.2020
1277 Clear 17 1011 40 0 3.19 29 23:36 18.06.2020
1278 Clear 17 1011 41 0 2.76 38 23:18 18.06.2020
1279 Clear 17 1011 41 0 2.76 38 23:18 18.06.2020
1280 Clear 17 1011 41 0 2.76 38 22:39 18.06.2020
1281 Clear 17 1011 41 0 2.76 38 22:39 18.06.2020
1282 Clear 17 1011 42 0 2.46 45 22:20 18.06.2020
1283 Clear 17 1011 42 0 2.46 45 21:56 18.06.2020
1284 Clear 17 1011 42 0 2.46 45 21:36 18.06.2020
1285 Clear 17 1011 43 0 2.37 45 21:18 18.06.2020
1286 Clear 17 1011 41 0 3.57 27 20:40 18.06.2020
1287 Clouds 18 1011 42 0 3.4 23 20:20 18.06.2020
1288 Clouds 18 1011 42 0 3.4 23 19:56 18.06.2020
1289 Clouds 18 1011 42 0 3.4 23 19:38 18.06.2020
1290 Clouds 18 1010 42 0 3.08 20 19:19 18.06.2020
1291 Clouds 18 1010 42 0 3.08 20 18:38 18.06.2020
1292 Rain 19 1009 42 0 2.33 19 18:19 18.06.2020
1293 Rain 19 1009 42 0 2.33 19 17:46 18.06.2020
1294 Rain 19 1008 43 0 1.01 23 17:26 18.06.2020
1295 Rain 19 1008 43 0 1.01 23 16:59 18.06.2020
1296 Rain 19 1008 43 0 1.01 23 16:41 18.06.2020
1297 Clouds 19 1007 42 0 0.33 251 16:23 18.06.2020
1298 Clouds 19 1007 42 0 0.33 251 15:57 18.06.2020
1299 Clouds 19 1007 42 0 0.33 251 15:39 18.06.2020
1300 Rain 22 1006 37 0 1.54 229 15:20 18.06.2020
1301 Rain 22 1006 37 0 1.54 229 14:56 18.06.2020
1302 Clouds 23 1005 34 0 1.72 207 14:37 18.06.2020
1303 Rain 24 1005 32 0 2.33 214 14:19 18.06.2020
1304 Clouds 24 1005 27 0 2.4 198 13:47 18.06.2020
1305 Clouds 25 1005 25 0 2.59 194 13:28 18.06.2020
1306 Clouds 25 1005 25 0 2.59 194 12:57 18.06.2020
1307 Clouds 25 1005 25 0 2.59 194 12:39 18.06.2020
1308 Clear 25 1005 23 0 2.53 188 12:20 18.06.2020
1309 Clear 25 1005 23 0 2.53 188 11:57 18.06.2020
1310 Clear 25 1005 23 0 2.53 188 11:37 18.06.2020
1311 Clear 25 1005 22 0 2.17 177 11:18 18.06.2020
1312 Clear 25 1005 22 0 2.17 177 10:40 18.06.2020
1313 Clear 25 1006 21 0 2 168 10:18 18.06.2020
1314 Clear 25 1006 21 0 2 168 09:46 18.06.2020
1315 Clouds 26 1007 19 0 2.85 186 09:27 18.06.2020
1316 Clouds 26 1007 19 0 2.85 186 08:57 18.06.2020
1317 Clouds 26 1007 19 0 2.85 186 08:37 18.06.2020
1318 Clear 25 1008 18 0 2.33 185 08:19 18.06.2020
1319 Clear 25 1008 18 0 2.33 185 07:44 18.06.2020
1320 Clear 25 1009 19 0 1.55 191 07:25 18.06.2020
1321 Clear 25 1009 19 0 1.55 191 06:37 18.06.2020
1322 Clear 22 1010 24 0 1.72 30 05:25 18.06.2020
1323 Clear 20 1010 28 0 2.92 29 04:18 18.06.2020
1324 Clear 16 1010 33 0 3.88 31 01:48 18.06.2020
1325 Clear 16 1010 35 0 3.71 32 01:27 18.06.2020
1326 Clear 16 1010 35 0 3.71 32 00:52 18.06.2020
1327 Clear 16 1010 35 0 3.71 32 00:31 18.06.2020
1328 Clear 16 1009 36 0 3.52 33 23:56 17.06.2020
1329 Clear 16 1009 36 0 3.52 33 23:37 17.06.2020
1330 Clear 16 1009 37 0 3.24 36 23:19 17.06.2020
1331 Clear 16 1009 37 0 3.24 36 22:55 17.06.2020
1332 Clear 16 1009 37 0 3.24 36 22:37 17.06.2020
1333 Clear 16 1009 37 0 2.99 39 22:19 17.06.2020
1334 Clear 16 1009 37 0 2.99 39 21:40 17.06.2020
1335 Clear 17 1008 34 0 2.98 38 21:21 17.06.2020
1336 Clear 17 1008 34 0 2.98 38 20:56 17.06.2020
1337 Clear 17 1008 34 0 2.98 38 20:37 17.06.2020
1338 Clear 17 1008 34 0 2.76 40 20:19 17.06.2020
1339 Clear 17 1008 34 0 2.76 40 19:43 17.06.2020
1340 Clear 18 1008 34 0 2.57 41 19:23 17.06.2020
1341 Clear 18 1008 34 0 2.57 41 18:56 17.06.2020
1342 Clear 18 1008 34 0 2.57 41 18:38 17.06.2020
1343 Clear 18 1007 35 0 2.19 46 18:20 17.06.2020
1344 Clear 18 1007 35 0 2.19 46 17:42 17.06.2020
1345 Clear 18 1006 36 0 1.7 60 17:22 17.06.2020
1346 Clear 18 1006 36 0 1.7 60 16:57 17.06.2020
1347 Clear 18 1006 36 0 1.7 60 16:38 17.06.2020
1348 Clear 19 1005 36 0 0.96 99 16:20 17.06.2020
1349 Clear 19 1005 36 0 0.96 99 15:56 17.06.2020
1350 Clear 19 1005 36 0 0.96 99 15:38 17.06.2020
1351 Clear 22 1004 31 0 1.48 158 15:18 17.06.2020
1352 Clear 22 1004 31 0 1.48 158 14:55 17.06.2020
1353 Clear 22 1004 31 0 1.48 158 14:36 17.06.2020
1354 Clouds 24 1003 26 0 2.36 181 14:18 17.06.2020
1355 Clouds 24 1003 26 0 2.36 181 13:41 17.06.2020
1356 Clouds 25 1003 25 0 2.34 184 13:21 17.06.2020
1357 Clouds 25 1003 25 0 2.34 184 12:58 17.06.2020
1358 Clouds 25 1003 25 0 2.34 184 12:40 17.06.2020
1359 Clear 26 1003 23 0 2.27 175 12:20 17.06.2020
1360 Clear 26 1003 23 0 2.27 175 11:44 17.06.2020
1361 Clear 26 1003 23 0 2.05 169 11:24 17.06.2020
1362 Clear 26 1003 23 0 2.05 169 10:55 17.06.2020
1363 Clear 26 1003 23 0 2.05 169 10:37 17.06.2020
1364 Clear 25 1004 23 0 1.9 169 10:18 17.06.2020
1365 Clear 25 1004 23 0 1.9 169 09:54 17.06.2020
1366 Clear 25 1004 23 0 1.9 169 09:36 17.06.2020
1367 Clouds 25 1006 24 0 2.71 195 09:18 17.06.2020
1368 Clouds 25 1006 24 0 2.71 195 08:41 17.06.2020
1369 Clouds 25 1007 23 0 2.16 197 08:19 17.06.2020
1370 Clouds 25 1007 23 0 2.16 197 07:43 17.06.2020
1371 Clouds 24 1008 23 0 1.55 198 07:23 17.06.2020
1372 Clouds 24 1008 23 0 1.55 198 06:58 17.06.2020
1373 Clouds 24 1008 23 0 1.55 198 06:39 17.06.2020
1374 Clouds 23 1009 25 0 0.71 200 06:21 17.06.2020
1375 Clouds 23 1009 25 0 0.71 200 05:48 17.06.2020
1376 Clouds 22 1010 27 0 0.1 170 04:36 17.06.2020
1377 Clouds 16 1010 35 0 3.27 38 01:55 17.06.2020
1378 Clouds 16 1010 35 0 3.02 38 00:48 17.06.2020
1379 Clouds 16 1010 35 0 2.84 42 00:28 17.06.2020
1380 Clouds 16 1010 35 0 2.84 42 23:57 16.06.2020
1381 Clouds 16 1010 35 0 2.84 42 23:39 16.06.2020
1382 Clouds 17 1010 35 0 2.85 43 23:21 16.06.2020
1383 Clouds 17 1010 35 0 2.85 43 22:57 16.06.2020
1384 Clouds 17 1010 35 0 2.85 43 22:38 16.06.2020
1385 Clear 17 1009 34 0 2.96 40 22:19 16.06.2020
1386 Clear 17 1009 34 0 2.96 40 21:54 16.06.2020
1387 Clear 17 1009 34 0 2.96 40 21:54 16.06.2020
1388 Clear 17 1009 34 0 2.96 40 21:36 16.06.2020
1389 Clear 17 1009 34 0 3.14 41 21:18 16.06.2020
1390 Clear 17 1009 34 0 3.14 41 20:42 16.06.2020
1391 Clouds 17 1009 34 0 3.2 40 20:19 16.06.2020
1392 Clouds 17 1009 34 0 3.2 40 20:19 16.06.2020
1393 Clouds 17 1009 34 0 3.2 40 19:58 16.06.2020
1394 Clouds 17 1009 34 0 3.2 40 19:58 16.06.2020
1395 Clouds 17 1009 34 0 3.2 40 19:39 16.06.2020
1396 Clouds 18 1009 35 0 2.99 43 19:21 16.06.2020
1397 Clouds 18 1009 35 0 2.99 43 18:55 16.06.2020
1398 Clouds 18 1009 35 0 2.99 43 18:37 16.06.2020
1399 Clouds 18 1009 36 0 2.4 54 18:19 16.06.2020
1400 Clouds 18 1009 36 0 2.4 54 17:55 16.06.2020
1401 Clouds 18 1009 36 0 2.4 54 17:36 16.06.2020
1402 Clouds 18 1008 37 0 1.77 61 17:18 16.06.2020
1403 Clouds 18 1008 37 0 1.77 61 17:18 16.06.2020
1404 Clouds 18 1008 37 0 1.77 61 16:55 16.06.2020
1405 Clouds 18 1008 37 0 1.77 61 16:37 16.06.2020
1406 Clouds 19 1007 37 0 0.74 62 16:18 16.06.2020
1407 Clouds 19 1007 37 0 0.74 62 15:55 16.06.2020
1408 Clouds 19 1007 37 0 0.74 62 15:37 16.06.2020
1409 Clouds 22 1006 33 0 0.21 154 15:19 16.06.2020
1410 Clouds 22 1006 33 0 0.21 154 14:42 16.06.2020
1411 Clouds 23 1005 29 0 0.48 233 14:23 16.06.2020
1412 Clouds 23 1005 29 0 0.48 233 13:50 16.06.2020
1413 Clouds 24 1005 28 0 0.62 207 13:27 16.06.2020
1414 Clouds 24 1005 28 0 0.62 207 12:57 16.06.2020
1415 Clouds 24 1005 28 0 0.62 207 12:39 16.06.2020
1416 Clouds 24 1005 27 0 1.21 178 12:21 16.06.2020
1417 Clouds 24 1005 27 0 1.21 178 11:55 16.06.2020
1418 Clouds 24 1005 27 0 1.21 178 11:37 16.06.2020
1419 Clouds 24 1006 27 0 1.54 171 11:19 16.06.2020
1420 Clouds 24 1006 27 0 1.54 171 10:43 16.06.2020
1421 Clouds 24 1006 28 0 1.63 171 10:21 16.06.2020
1422 Clouds 24 1006 28 0 1.63 171 09:58 16.06.2020
1423 Clouds 24 1006 28 0 1.63 171 09:40 16.06.2020
1424 Clouds 24 1007 29 0 1.74 177 09:21 16.06.2020
1425 Clouds 25 1008 22 0 2.97 202 08:45 16.06.2020
1426 Clear 24 1009 22 0 2.29 201 08:26 16.06.2020
1427 Clear 24 1009 22 0 2.29 201 07:50 16.06.2020
1428 Clear 24 1010 23 0 1.22 203 07:27 16.06.2020
1429 Clear 24 1010 23 0 1.22 203 06:54 16.06.2020
1430 Clear 23 1010 24 0 0.4 238 06:27 16.06.2020
1431 Clear 23 1010 24 0 0.4 238 05:39 16.06.2020
1432 Clear 21 1011 26 0 1.07 28 04:39 16.06.2020
1433 Clear 17 1011 35 0 3.3 33 02:59 16.06.2020
1434 Clear 15 1011 37 0 3 36 01:59 16.06.2020
1435 Clear 15 1011 37 0 3 36 01:30 16.06.2020
1436 Clouds 16 1010 37 0 3.1 36 00:45 16.06.2020
1437 Clouds 16 1010 37 0 3.17 34 00:21 16.06.2020
1438 Clouds 16 1010 37 0 3.17 34 23:43 15.06.2020
1439 Clouds 16 1010 37 0 3.18 34 23:22 15.06.2020
1440 Clouds 16 1010 37 0 3.18 34 22:55 15.06.2020
1441 Clouds 16 1010 37 0 3.18 34 22:37 15.06.2020
1442 Clouds 16 1010 36 0 3.12 35 22:18 15.06.2020
1443 Clouds 16 1010 36 0 3.12 35 22:18 15.06.2020
1444 Clouds 16 1010 36 0 3.12 35 21:55 15.06.2020
1445 Clouds 16 1010 36 0 3.12 35 21:37 15.06.2020
1446 Clouds 16 1010 36 0 3.12 35 21:37 15.06.2020
1447 Clouds 17 1010 33 0 3.29 31 21:19 15.06.2020
1448 Clouds 17 1010 33 0 3.29 31 20:55 15.06.2020
1449 Clouds 17 1010 33 0 3.29 31 20:37 15.06.2020
1450 Clouds 17 1010 33 0 3.48 29 20:19 15.06.2020
1451 Clouds 17 1010 33 0 3.48 29 19:55 15.06.2020
1452 Clouds 17 1010 33 0 3.48 29 19:37 15.06.2020
1453 Clouds 18 1010 34 0 3.51 25 19:18 15.06.2020
1454 Clouds 18 1010 34 0 3.51 25 18:44 15.06.2020
1455 Clouds 18 1010 35 0 3.12 25 18:22 15.06.2020
1456 Clouds 18 1010 35 0 3.12 25 17:59 15.06.2020
1457 Clouds 18 1010 35 0 3.12 25 17:41 15.06.2020
1458 Clouds 18 1009 36 0 2.33 20 17:20 15.06.2020
1459 Clouds 18 1009 36 0 2.33 20 16:58 15.06.2020
1460 Clouds 18 1009 36 0 2.33 20 16:40 15.06.2020
1461 Clouds 19 1008 35 0 0.63 310 16:18 15.06.2020
1462 Clouds 19 1008 35 0 0.63 310 15:56 15.06.2020
1463 Clouds 19 1008 35 0 0.63 310 15:36 15.06.2020
1464 Clouds 22 1007 31 0 1.73 219 15:18 15.06.2020
1465 Clouds 22 1007 31 0 1.73 219 14:41 15.06.2020
1466 Clouds 23 1006 28 0 1.69 200 14:20 15.06.2020
1467 Clouds 23 1006 28 0 1.69 200 13:59 15.06.2020
1468 Clouds 23 1006 28 0 1.69 200 13:39 15.06.2020
1469 Clouds 23 1006 26 0 2.07 192 13:20 15.06.2020
1470 Clouds 23 1006 26 0 2.07 192 12:55 15.06.2020
1471 Clouds 23 1006 26 0 2.07 192 12:36 15.06.2020
1472 Clouds 24 1007 25 0 2.15 191 12:18 15.06.2020
1473 Clouds 24 1007 25 0 2.15 191 11:42 15.06.2020
1474 Clouds 24 1008 25 0 2.45 192 11:24 15.06.2020
1475 Clouds 24 1008 25 0 2.45 192 10:44 15.06.2020
1476 Clouds 24 1008 22 0 2.71 187 10:22 15.06.2020
1477 Clouds 24 1008 22 0 2.71 187 09:47 15.06.2020
1478 Clear 25 1009 20 0 2.86 190 09:25 15.06.2020
1479 Clear 25 1009 20 0 2.86 190 08:58 15.06.2020
1480 Clear 25 1009 20 0 2.86 190 08:39 15.06.2020
1481 Clear 24 1010 19 0 2.11 190 08:20 15.06.2020
1482 Clear 24 1010 19 0 2.11 190 07:45 15.06.2020
1483 Clear 23 1011 21 0 1.48 201 07:26 15.06.2020
1484 Clear 23 1011 21 0 1.48 201 06:48 15.06.2020
1485 Clear 23 1011 22 0 0.29 187 06:25 15.06.2020
1486 Clear 23 1011 22 0 0.29 187 05:46 15.06.2020
1487 Clear 21 1012 24 0 1.15 34 05:25 15.06.2020
1488 Clear 19 1013 28 0 2.37 28 04:20 15.06.2020
1489 Clear 19 1013 28 0 2.37 28 03:41 15.06.2020
1490 Clear 16 1013 33 0 3.63 28 02:53 15.06.2020
1491 Clear 15 1013 35 0 4.07 29 01:53 15.06.2020
1492 Clear 15 1013 35 0 4.07 29 01:32 15.06.2020
1493 Clear 15 1013 35 0 3.94 29 00:58 15.06.2020
1494 Clear 15 1013 35 0 3.94 29 00:39 15.06.2020
1495 Clear 15 1013 35 0 3.69 30 00:20 15.06.2020
1496 Clear 15 1013 35 0 3.69 30 23:46 14.06.2020
1497 Clear 15 1012 36 0 3.44 33 23:24 14.06.2020
1498 Clear 15 1012 36 0 3.44 33 22:58 14.06.2020
1499 Clear 15 1012 36 0 3.44 33 22:39 14.06.2020
1500 Clear 16 1013 37 0 3.44 31 22:19 14.06.2020
1501 Clear 16 1013 37 0 3.44 31 21:57 14.06.2020
1502 Clear 16 1013 37 0 3.44 31 21:57 14.06.2020
1503 Clear 16 1013 37 0 3.44 31 21:38 14.06.2020
1504 Clear 16 1012 40 0 2.6 31 21:19 14.06.2020
1505 Clear 16 1012 40 0 2.6 31 21:19 14.06.2020
1506 Clear 16 1012 40 0 2.6 31 20:58 14.06.2020
1507 Clear 16 1012 40 0 2.6 31 20:38 14.06.2020
1508 Clouds 17 1012 41 0 2.54 26 20:20 14.06.2020
1509 Clouds 17 1012 41 0 2.54 26 19:59 14.06.2020
1510 Clouds 17 1012 41 0 2.54 26 19:38 14.06.2020
1511 Clouds 17 1012 42 0 2.59 23 19:19 14.06.2020
1512 Clouds 17 1012 42 0 2.59 23 18:57 14.06.2020
1513 Clouds 17 1012 42 0 2.59 23 18:57 14.06.2020
1514 Clouds 17 1012 42 0 2.59 23 18:38 14.06.2020
1515 Clouds 17 1012 42 0 2.37 24 18:20 14.06.2020
1516 Clouds 17 1012 42 0 2.37 24 17:57 14.06.2020
1517 Clouds 17 1012 42 0 2.37 24 17:38 14.06.2020
1518 Clouds 17 1011 42 0 1.27 11 17:19 14.06.2020
1519 Clouds 17 1011 42 0 1.27 11 16:41 14.06.2020
1520 Clouds 18 1010 41 0 0.83 276 16:21 14.06.2020
1521 Clouds 18 1010 41 0 0.83 276 15:59 14.06.2020
1522 Clouds 18 1010 41 0 0.83 276 15:59 14.06.2020
1523 Clouds 18 1010 41 0 0.83 276 15:40 14.06.2020
1524 Rain 22 1008 37 0 1.52 251 15:18 14.06.2020
1525 Rain 22 1008 37 0 1.52 251 14:58 14.06.2020
1526 Rain 22 1008 37 0 1.52 251 14:40 14.06.2020
1527 Rain 22 1008 32 0 1.78 268 14:21 14.06.2020
1528 Rain 22 1008 32 0 1.78 268 13:55 14.06.2020
1529 Rain 22 1008 32 0 1.78 268 13:37 14.06.2020
1530 Rain 23 1008 29 0 2.39 223 13:19 14.06.2020
1531 Rain 23 1008 29 0 2.39 223 12:55 14.06.2020
1532 Rain 23 1008 29 0 2.39 223 12:37 14.06.2020
1533 Clouds 24 1009 27 0 2.6 198 12:18 14.06.2020
1534 Clouds 24 1009 27 0 2.6 198 11:55 14.06.2020
1535 Clouds 24 1009 27 0 2.6 198 11:37 14.06.2020
1536 Clouds 24 1009 25 0 2.67 192 11:18 14.06.2020
1537 Clouds 24 1009 25 0 2.67 192 10:41 14.06.2020
1538 Clouds 24 1010 22 0 2.58 188 10:19 14.06.2020
1539 Clouds 24 1010 22 0 2.58 188 09:45 14.06.2020
1540 Clear 24 1011 21 0 2.2 183 09:24 14.06.2020
1541 Clouds 25 1011 23 0 3.09 195 08:44 14.06.2020
1542 Clear 24 1012 23 0 2.5 191 08:22 14.06.2020
1543 Clear 24 1012 23 0 2.5 191 08:00 14.06.2020
1544 Clear 24 1012 23 0 2.5 191 07:41 14.06.2020
1545 Clear 23 1013 22 0 1.59 196 07:23 14.06.2020
1546 Clear 23 1013 23 0 0.21 226 06:26 14.06.2020
1547 Clear 23 1013 23 0 0.21 226 05:40 14.06.2020
1548 Clear 21 1014 25 0 1.31 28 04:53 14.06.2020
1549 Clear 19 1015 30 0 2.7 33 04:28 14.06.2020
1550 Clear 16 1015 34 0 3.94 31 02:53 14.06.2020
1551 Clear 15 1014 36 0 4.14 29 02:23 14.06.2020
1552 Clear 15 1014 36 0 4.14 29 01:36 14.06.2020
1553 Clear 15 1014 36 0 3.8 29 00:55 14.06.2020
1554 Clear 15 1014 36 0 3.8 29 00:36 14.06.2020
1555 Clear 15 1013 39 0 3.21 32 00:18 14.06.2020
1556 Clear 15 1013 39 0 3.21 32 23:41 13.06.2020
1557 Clear 15 1014 43 0 2.5 37 23:23 13.06.2020
1558 Clear 15 1014 43 0 2.5 37 22:56 13.06.2020
1559 Clear 15 1014 43 0 2.5 37 22:36 13.06.2020
1560 Clear 15 1014 44 0 1.9 48 22:18 13.06.2020
1561 Clear 15 1014 44 0 1.9 48 21:43 13.06.2020
1562 Clear 16 1013 43 0 2.47 44 21:24 13.06.2020
1563 Clear 16 1013 43 0 2.47 44 20:59 13.06.2020
1564 Clear 16 1013 43 0 2.47 44 20:41 13.06.2020
1565 Clouds 16 1013 45 0 1.98 55 20:19 13.06.2020
1566 Clouds 16 1013 45 0 1.98 55 19:42 13.06.2020
1567 Rain 17 1012 46 0 1.65 67 19:21 13.06.2020
1568 Rain 17 1012 46 0 1.65 67 18:59 13.06.2020
1569 Rain 17 1012 46 0 1.65 67 18:41 13.06.2020
1570 Rain 17 1012 46 0 1.28 76 18:21 13.06.2020
1571 Rain 17 1012 46 0 1.28 76 18:21 13.06.2020
1572 Rain 17 1012 46 0 1.28 76 17:59 13.06.2020
1573 Rain 17 1012 46 0 1.28 76 17:41 13.06.2020
1574 Rain 18 1011 47 0 0.71 114 17:22 13.06.2020
1575 Rain 18 1011 47 0 0.71 114 16:56 13.06.2020
1576 Rain 18 1011 47 0 0.71 114 16:38 13.06.2020
1577 Rain 19 1010 45 0 1.27 188 16:19 13.06.2020
1578 Rain 19 1010 45 0 1.27 188 15:44 13.06.2020
1579 Rain 21 1009 41 0 2.42 197 15:26 13.06.2020
1580 Rain 21 1009 41 0 2.42 197 14:58 13.06.2020
1581 Rain 21 1009 41 0 2.42 197 14:39 13.06.2020
1582 Clouds 24 1007 30 0 3.07 206 14:20 13.06.2020
1583 Clouds 24 1007 30 0 3.07 206 13:44 13.06.2020
1584 Clouds 24 1007 28 0 3.11 196 13:26 13.06.2020
1585 Clouds 24 1007 28 0 3.11 196 12:45 13.06.2020
1586 Clouds 25 1007 26 0 3.15 192 12:27 13.06.2020
1587 Clouds 25 1007 26 0 3.15 192 11:59 13.06.2020
1588 Clouds 25 1007 26 0 3.15 192 11:40 13.06.2020
1589 Clouds 25 1008 26 0 3.09 189 11:19 13.06.2020
1590 Clouds 25 1008 26 0 3.09 189 10:57 13.06.2020
1591 Clouds 25 1008 26 0 3.09 189 10:38 13.06.2020
1592 Clouds 24 1008 24 0 2.88 186 10:19 13.06.2020
1593 Clouds 24 1008 24 0 2.88 186 09:45 13.06.2020
1594 Clouds 24 1009 23 0 2.05 174 09:27 13.06.2020
1595 Clear 25 1009 22 0 2.58 190 08:56 13.06.2020
1596 Clear 25 1009 22 0 2.58 190 08:37 13.06.2020
1597 Clear 25 1010 22 0 2 189 08:19 13.06.2020
1598 Clear 25 1010 22 0 2 189 07:42 13.06.2020
1599 Clear 24 1010 24 0 1.37 189 07:23 13.06.2020
1600 Clear 24 1010 24 0 1.37 189 06:44 13.06.2020
1601 Clear 23 1011 26 0 0.51 169 06:24 13.06.2020
1602 Clear 21 1012 29 0 0.89 47 05:27 13.06.2020
1603 Clear 21 1012 29 0 0.89 47 04:35 13.06.2020
1604 Clear 20 1012 31 0 2.17 39 03:33 13.06.2020
1605 Clear 17 1012 34 0 3.05 37 02:38 13.06.2020
1606 Clear 15 1012 35 0 3.58 35 01:48 13.06.2020
1607 Clear 15 1011 35 0 3.47 37 01:22 13.06.2020
1608 Clear 15 1011 35 0 3.47 37 00:53 13.06.2020
1609 Clear 16 1011 35 0 3.27 38 00:27 13.06.2020
1610 Clear 16 1011 35 0 3.27 38 23:58 12.06.2020
1611 Clear 16 1011 35 0 3.27 38 23:38 12.06.2020
1612 Clear 16 1011 35 0 3.1 37 23:18 12.06.2020
1613 Clear 16 1011 35 0 3.1 37 22:42 12.06.2020
1614 Clear 16 1011 35 0 3.06 38 22:19 12.06.2020
1615 Clear 16 1011 35 0 3.06 38 21:59 12.06.2020
1616 Clear 16 1011 35 0 3.06 38 21:40 12.06.2020
1617 Clear 16 1011 35 0 3.14 33 21:21 12.06.2020
1618 Clear 16 1011 35 0 3.24 35 20:56 12.06.2020
1619 Clear 16 1011 35 0 3.24 35 20:37 12.06.2020
1620 Clear 16 1010 36 0 3.3 37 20:19 12.06.2020
1621 Clear 16 1010 36 0 3.3 37 19:40 12.06.2020
1622 Clear 17 1010 37 0 3.14 40 19:21 12.06.2020
1623 Clear 17 1010 37 0 3.14 40 18:58 12.06.2020
1624 Clear 17 1010 37 0 3.14 40 18:37 12.06.2020
1625 Clear 17 1010 38 0 2.5 42 18:18 12.06.2020
1626 Clear 17 1010 38 0 2.5 42 17:43 12.06.2020
1627 Clear 17 1009 40 0 1.91 48 17:25 12.06.2020
1628 Clear 17 1009 40 0 1.91 48 16:47 12.06.2020
1629 Clear 18 1008 41 0 1 55 16:22 12.06.2020
1630 Clear 18 1008 41 0 1 55 15:53 12.06.2020
1631 Clouds 22 1007 38 0 0.63 147 15:29 12.06.2020
1632 Clouds 22 1007 38 0 0.63 147 14:59 12.06.2020
1633 Clouds 22 1007 38 0 0.63 147 14:41 12.06.2020
1634 Rain 23 1006 33 0 1.44 182 14:21 12.06.2020
1635 Rain 23 1006 33 0 1.44 182 13:44 12.06.2020
1636 Rain 23 1007 32 0 1.9 183 13:22 12.06.2020
1637 Rain 23 1007 32 0 1.9 183 12:57 12.06.2020
1638 Rain 23 1007 32 0 1.9 183 12:39 12.06.2020
1639 Rain 24 1007 31 0 2.04 181 12:18 12.06.2020
1640 Rain 24 1007 31 0 2.04 181 11:44 12.06.2020
1641 Rain 23 1008 31 0 2.26 181 11:23 12.06.2020
1642 Rain 23 1008 31 0 2.26 181 10:54 12.06.2020
1643 Rain 23 1008 31 0 2.26 181 10:36 12.06.2020
1644 Rain 24 1009 31 0 2.49 187 10:18 12.06.2020
1645 Rain 24 1009 31 0 2.49 187 09:43 12.06.2020
1646 Clouds 25 1009 28 0 2.82 202 09:19 12.06.2020
1647 Clouds 25 1009 28 0 2.82 202 08:41 12.06.2020
1648 Clouds 24 1010 28 0 2.21 202 08:23 12.06.2020
1649 Clouds 24 1010 28 0 2.21 202 07:42 12.06.2020
1650 Clouds 23 1011 29 0 1.71 197 07:24 12.06.2020
1651 Clouds 23 1011 29 0 1.71 197 06:43 12.06.2020
1652 Clouds 22 1012 31 0 0.88 206 06:22 12.06.2020
1653 Clouds 22 1012 31 0 0.88 206 05:49 12.06.2020
1654 Clouds 20 1013 35 0 0.59 253 05:24 12.06.2020
1655 Rain 19 1014 39 0 0.78 333 03:55 12.06.2020
1656 Clouds 17 1014 43 0 1.39 15 02:43 12.06.2020
1657 Clouds 16 1013 42 0 2.42 28 01:47 12.06.2020
1658 Clouds 16 1012 42 0 2.24 33 01:20 12.06.2020
1659 Clouds 16 1012 42 0 2.24 33 00:40 12.06.2020
1660 Clouds 16 1012 42 0 1.95 41 00:21 12.06.2020
1661 Clouds 16 1012 42 0 1.95 41 23:57 11.06.2020
1662 Clouds 16 1012 42 0 1.95 41 23:39 11.06.2020
1663 Clouds 16 1012 43 0 1.81 44 23:20 11.06.2020
1664 Clouds 16 1012 43 0 1.81 44 22:56 11.06.2020
1665 Clouds 16 1012 43 0 1.81 44 22:38 11.06.2020
1666 Clear 16 1012 44 0 1.75 43 22:19 11.06.2020
1667 Clear 16 1012 44 0 1.75 43 21:43 11.06.2020
1668 Clear 16 1012 44 0 1.83 38 21:20 11.06.2020
1669 Clear 16 1011 43 0 2.32 36 20:59 11.06.2020
1670 Clear 16 1011 43 0 2.32 36 20:41 11.06.2020
1671 Clouds 17 1011 45 0 2.58 30 20:21 11.06.2020
1672 Clouds 17 1011 45 0 2.58 30 19:44 11.06.2020
1673 Clouds 17 1012 46 0 2.37 30 19:23 11.06.2020
1674 Clouds 17 1012 46 0 2.37 30 18:57 11.06.2020
1675 Clouds 17 1012 46 0 2.37 30 18:39 11.06.2020
1676 Clouds 17 1011 47 0 1.84 39 18:20 11.06.2020
1677 Clouds 17 1011 47 0 1.84 39 17:55 11.06.2020
1678 Clouds 17 1011 47 0 1.84 39 17:37 11.06.2020
1679 Clouds 17 1010 47 0 1.31 37 17:19 11.06.2020
1680 Clouds 17 1010 47 0 1.31 37 16:45 11.06.2020
1681 Clouds 17 1010 47 0 1.31 37 16:45 11.06.2020
1682 Clouds 18 1009 47 0 1.05 39 16:27 11.06.2020
1683 Clouds 18 1009 47 0 1.05 39 15:59 11.06.2020
1684 Clouds 18 1009 47 0 1.05 39 15:41 11.06.2020
1685 Rain 20 1008 44 0 0.61 135 15:23 11.06.2020
1686 Rain 20 1008 44 0 0.61 135 14:55 11.06.2020
1687 Rain 20 1008 44 0 0.61 135 14:36 11.06.2020
1688 Rain 22 1007 37 0 2.26 207 14:18 11.06.2020
1689 Rain 22 1007 37 0 2.26 207 13:54 11.06.2020
1690 Rain 22 1007 37 0 2.26 207 13:36 11.06.2020
1691 Rain 23 1007 35 0 2.57 199 13:18 11.06.2020
1692 Rain 23 1007 35 0 2.57 199 12:39 11.06.2020
1693 Rain 23 1008 36 0 2.57 195 12:20 11.06.2020
1694 Rain 23 1008 36 0 2.57 195 11:59 11.06.2020
1695 Rain 23 1008 36 0 2.57 195 11:40 11.06.2020
1696 Rain 23 1009 36 0 2.61 193 11:22 11.06.2020
1697 Rain 23 1009 36 0 2.61 193 10:57 11.06.2020
1698 Rain 23 1009 36 0 2.61 193 10:39 11.06.2020
1699 Rain 23 1009 36 0 2.61 193 10:39 11.06.2020
1700 Rain 23 1010 34 0 2.79 200 10:18 11.06.2020
1701 Rain 23 1010 34 0 2.79 200 09:43 11.06.2020
1702 Rain 23 1010 33 0 2.82 193 09:25 11.06.2020
1703 Rain 23 1010 33 0 2.82 193 08:44 11.06.2020
1704 Rain 23 1011 31 0 2.57 192 08:21 11.06.2020
1705 Rain 23 1011 31 0 2.57 192 07:59 11.06.2020
1706 Rain 23 1011 31 0 2.57 192 07:41 11.06.2020
1707 Clouds 23 1012 31 0 2.41 195 07:22 11.06.2020
1708 Clouds 23 1012 31 0 2.41 195 06:31 11.06.2020
1709 Clouds 22 1012 32 0 1.89 196 05:50 11.06.2020
1710 Clouds 20 1013 36 0 0.51 15 03:59 11.06.2020
1711 Clear 17 1013 42 0 1.63 16 03:24 11.06.2020
1712 Clear 17 1013 42 0 1.63 16 02:40 11.06.2020
1713 Clear 15 1012 42 0 2.75 20 01:55 11.06.2020
1714 Clear 15 1012 42 0 2.75 20 01:31 11.06.2020
1715 Clear 15 1012 42 0 2.78 19 00:51 11.06.2020
1716 Clear 15 1012 42 0 2.78 19 00:30 11.06.2020
1717 Clear 15 1012 43 0 2.31 28 23:50 10.06.2020
1718 Clear 15 1012 44 0 1.7 42 23:27 10.06.2020
1719 Clear 15 1012 44 0 1.7 42 22:59 10.06.2020
1720 Clear 15 1012 44 0 1.7 42 22:40 10.06.2020
1721 Clear 15 1012 45 0 1.36 48 22:22 10.06.2020
1722 Clear 15 1012 45 0 1.36 48 21:58 10.06.2020
1723 Clear 15 1012 45 0 1.36 48 21:40 10.06.2020
1724 Clear 16 1012 48 0 1.37 25 21:19 10.06.2020
1725 Clear 16 1012 48 0 1.37 25 20:58 10.06.2020
1726 Clear 16 1012 48 0 1.37 25 20:40 10.06.2020
1727 Clouds 16 1012 50 0 1.13 24 20:21 10.06.2020
1728 Clouds 16 1012 50 0 1.13 24 19:58 10.06.2020
1729 Clouds 16 1012 50 0 1.13 24 19:38 10.06.2020
1730 Clouds 16 1012 51 0 1.16 33 19:18 10.06.2020
1731 Clouds 16 1012 51 0 1.16 33 18:42 10.06.2020
1732 Clouds 17 1012 52 0 1.43 35 18:22 10.06.2020
1733 Clouds 17 1012 52 0 1.43 35 17:59 10.06.2020
1734 Clouds 17 1012 52 0 1.43 35 17:41 10.06.2020
1735 Rain 17 1012 54 0 1.07 36 17:20 10.06.2020
1736 Rain 17 1012 54 0 1.07 36 16:59 10.06.2020
1737 Rain 17 1012 54 0 1.07 36 16:40 10.06.2020
1738 Rain 18 1011 54 0 0.17 103 16:20 10.06.2020
1739 Rain 18 1011 54 0 0.17 103 15:57 10.06.2020
1740 Rain 18 1011 54 0 0.17 103 15:37 10.06.2020
1741 Rain 20 1009 49 0 0.87 173 15:19 10.06.2020
1742 Rain 20 1009 49 0 0.87 173 14:41 10.06.2020
1743 Rain 22 1009 46 0 1.72 184 14:22 10.06.2020
1744 Rain 21 1008 47 0 1.64 182 13:57 10.06.2020
1745 Rain 21 1008 47 0 1.64 182 13:39 10.06.2020
1746 Rain 22 1008 44 0 2.36 190 13:21 10.06.2020
1747 Rain 22 1008 44 0 2.36 190 12:41 10.06.2020
1748 Rain 23 1009 43 0 2.69 192 12:19 10.06.2020
1749 Rain 23 1009 43 0 2.69 192 11:55 10.06.2020
1750 Rain 23 1009 43 0 2.69 192 11:37 10.06.2020
1751 Rain 23 1010 43 0 2.7 192 11:19 10.06.2020
1752 Rain 23 1010 43 0 2.7 192 10:44 10.06.2020
1753 Rain 23 1011 42 0 2.87 197 10:25 10.06.2020
1754 Rain 23 1011 42 0 2.87 197 09:58 10.06.2020
1755 Rain 23 1011 42 0 2.87 197 09:39 10.06.2020
1756 Rain 24 1011 38 0 3.5 204 09:20 10.06.2020
1757 Rain 24 1011 38 0 3.5 204 08:42 10.06.2020
1758 Rain 24 1011 36 0 3.21 200 08:23 10.06.2020
1759 Rain 24 1011 36 0 3.21 200 07:43 10.06.2020
1760 Clear 23 1012 35 0 2.76 198 07:23 10.06.2020
1761 Clear 23 1012 35 0 2.76 198 06:59 10.06.2020
1762 Clear 23 1012 35 0 2.76 198 06:39 10.06.2020
1763 Clear 23 1012 35 0 2.22 201 06:18 10.06.2020
1764 Clear 23 1012 35 0 2.22 201 05:51 10.06.2020
1765 Clear 22 1013 35 0 1.14 206 05:19 10.06.2020
1766 Clear 20 1013 37 0 0.44 14 04:29 10.06.2020
1767 Clear 18 1013 42 0 1.71 27 02:46 10.06.2020
1768 Clear 15 1013 42 0 2.16 31 01:51 10.06.2020
1769 Clear 15 1012 42 0 1.86 31 01:28 10.06.2020
1770 Clear 15 1012 42 0 1.86 31 00:39 10.06.2020
1771 Clear 16 1012 43 0 1.78 31 00:21 10.06.2020
1772 Clear 16 1012 43 0 1.78 31 23:55 09.06.2020
1773 Clear 16 1012 43 0 1.78 31 23:36 09.06.2020
1774 Clear 16 1012 43 0 2.23 27 23:18 09.06.2020
1775 Clear 16 1012 43 0 2.23 27 22:54 09.06.2020
1776 Clear 16 1012 43 0 2.23 27 22:36 09.06.2020
1777 Clear 16 1012 43 0 2.28 24 22:18 09.06.2020
1778 Clear 16 1012 43 0 2.28 24 21:54 09.06.2020
1779 Clear 16 1012 46 0 1.52 20 21:36 09.06.2020
1780 Clear 17 1012 47 0 1.53 5 21:18 09.06.2020
1781 Clear 17 1012 47 0 1.53 5 20:55 09.06.2020
1782 Clear 17 1012 47 0 1.53 5 20:37 09.06.2020
1783 Clouds 17 1012 48 0 1.75 8 20:18 09.06.2020
1784 Clouds 17 1012 48 0 1.75 8 19:54 09.06.2020
1785 Clouds 17 1012 48 0 1.75 8 19:36 09.06.2020
1786 Clouds 18 1012 49 0 1.93 16 19:18 09.06.2020
1787 Clouds 18 1012 49 0 1.93 16 19:18 09.06.2020
1788 Clouds 18 1012 49 0 1.93 16 18:43 09.06.2020
1789 Clouds 18 1012 50 0 1.48 23 18:25 09.06.2020
1790 Clouds 18 1012 50 0 1.48 23 17:57 09.06.2020
1791 Clouds 18 1012 50 0 1.48 23 17:38 09.06.2020
1792 Clouds 18 1012 50 0 1.48 23 17:38 09.06.2020
1793 Rain 18 1011 51 0 0.83 41 17:20 09.06.2020
1794 Rain 18 1011 51 0 0.83 41 16:55 09.06.2020
1795 Rain 18 1011 51 0 0.83 41 16:36 09.06.2020
1796 Rain 19 1011 52 0 0.42 122 16:18 09.06.2020
1797 Rain 19 1011 52 0 0.42 122 15:40 09.06.2020
1798 Rain 20 1010 49 0 1.4 175 15:21 09.06.2020
1799 Rain 20 1010 49 0 1.4 175 14:57 09.06.2020
1800 Rain 20 1010 49 0 1.4 175 14:37 09.06.2020
1801 Rain 22 1009 44 0 2.2 187 14:18 09.06.2020
1802 Rain 22 1009 44 0 2.2 187 13:54 09.06.2020
1803 Rain 22 1009 44 0 2.2 187 13:36 09.06.2020
1804 Rain 22 1009 44 0 2.2 187 13:36 09.06.2020
1805 Rain 22 1009 42 0 2.53 190 13:18 09.06.2020
1806 Rain 22 1009 42 0 2.53 190 12:41 09.06.2020
1807 Rain 23 1009 42 0 2.95 200 12:20 09.06.2020
1808 Rain 23 1009 42 0 2.95 200 11:56 09.06.2020
1809 Rain 23 1009 42 0 2.95 200 11:38 09.06.2020
1810 Rain 23 1010 41 0 3.28 203 11:19 09.06.2020
1811 Rain 23 1010 41 0 3.28 203 10:54 09.06.2020
1812 Rain 23 1010 41 0 3.28 203 10:36 09.06.2020
1813 Rain 24 1011 38 0 3.69 202 10:18 09.06.2020
1814 Rain 24 1011 38 0 3.69 202 09:40 09.06.2020
1815 Rain 24 1011 37 0 3.59 204 09:19 09.06.2020
1816 Rain 24 1011 37 0 3.59 204 08:40 09.06.2020
1817 Rain 24 1011 35 0 3.19 199 08:21 09.06.2020
1818 Rain 24 1011 35 0 3.19 199 07:59 09.06.2020
1819 Rain 24 1011 35 0 3.19 199 07:36 09.06.2020
1820 Clear 23 1012 34 0 2.8 199 07:18 09.06.2020
1821 Clear 23 1012 34 0 2.8 199 06:51 09.06.2020
1822 Clear 22 1012 33 0 2.19 199 06:27 09.06.2020
1823 Clear 21 1013 32 0 0.8 199 04:39 09.06.2020
1824 Clear 17 1013 38 0 1.95 38 02:52 09.06.2020
1825 Clear 15 1013 38 0 2.18 39 01:40 09.06.2020
1826 Clear 15 1012 39 0 2.14 41 01:19 09.06.2020
1827 Clear 15 1012 39 0 2.14 41 00:44 09.06.2020
1828 Clear 15 1012 40 0 1.98 40 00:20 09.06.2020
1829 Clear 15 1012 40 0 1.98 40 23:54 08.06.2020
1830 Clear 15 1012 40 0 1.98 40 23:36 08.06.2020
1831 Clear 15 1012 40 0 2.05 39 23:18 08.06.2020
1832 Clear 15 1012 40 0 2.05 39 22:39 08.06.2020
1833 Clear 15 1012 41 0 2.05 40 22:20 08.06.2020
1834 Clear 15 1012 41 0 2.05 40 21:57 08.06.2020
1835 Clear 15 1012 41 0 2.05 40 21:38 08.06.2020
1836 Clouds 16 1012 46 0 1.8 44 21:20 08.06.2020
1837 Clouds 16 1012 46 0 1.8 44 20:55 08.06.2020
1838 Clouds 16 1012 46 0 1.8 44 20:37 08.06.2020
1839 Clouds 16 1012 48 0 1.59 38 20:19 08.06.2020
1840 Clouds 16 1012 48 0 1.59 38 19:43 08.06.2020
1841 Clouds 17 1012 50 0 1.56 35 19:22 08.06.2020
1842 Clouds 17 1012 50 0 1.56 35 18:58 08.06.2020
1843 Clouds 17 1012 50 0 1.56 35 18:39 08.06.2020
1844 Clouds 17 1012 53 0 1.36 41 18:18 08.06.2020
1845 Clouds 17 1012 53 0 1.36 41 17:54 08.06.2020
1846 Clouds 17 1012 53 0 1.36 41 17:36 08.06.2020
1847 Clouds 17 1011 55 0 0.76 42 17:18 08.06.2020
1848 Clouds 17 1011 55 0 0.76 42 16:42 08.06.2020
1849 Rain 17 1010 56 0 0.25 198 16:22 08.06.2020
1850 Rain 17 1010 56 0 0.25 198 15:44 08.06.2020
1851 Rain 20 1009 52 0 1.09 191 15:22 08.06.2020
1852 Rain 20 1009 52 0 1.09 191 14:59 08.06.2020
1853 Rain 20 1009 52 0 1.09 191 14:40 08.06.2020
1854 Rain 21 1008 47 0 1.6 191 14:20 08.06.2020
1855 Rain 21 1008 47 0 1.6 191 14:20 08.06.2020
1856 Rain 21 1008 47 0 1.6 191 13:44 08.06.2020
1857 Rain 21 1008 45 0 2.31 196 13:26 08.06.2020
1858 Rain 21 1008 45 0 2.31 196 12:54 08.06.2020
1859 Rain 21 1008 45 0 2.31 196 12:36 08.06.2020
1860 Rain 22 1008 44 0 3.01 198 12:18 08.06.2020
1861 Rain 22 1008 44 0 3.01 198 11:42 08.06.2020
1862 Rain 23 1008 43 0 3.41 200 11:23 08.06.2020
1863 Rain 23 1008 43 0 3.41 200 10:59 08.06.2020
1864 Rain 23 1008 43 0 3.41 200 10:40 08.06.2020
1865 Rain 23 1009 40 0 3.77 200 10:21 08.06.2020
1866 Rain 23 1009 40 0 3.77 200 09:59 08.06.2020
1867 Rain 23 1009 40 0 3.77 200 09:59 08.06.2020
1868 Rain 23 1009 40 0 3.77 200 09:41 08.06.2020
1869 Rain 24 1010 38 0 3.66 199 09:22 08.06.2020
1870 Rain 23 1009 41 0 3.78 202 08:48 08.06.2020
1871 Rain 23 1010 39 0 3.41 204 08:23 08.06.2020
1872 Rain 23 1010 39 0 3.41 204 07:48 08.06.2020
1873 Rain 22 1010 38 0 2.68 199 07:24 08.06.2020
1874 Rain 22 1010 38 0 2.68 199 06:54 08.06.2020
1875 Rain 22 1010 38 0 2.68 199 06:36 08.06.2020
1876 Clear 22 1011 38 0 2.3 198 05:54 08.06.2020
1877 Clear 21 1011 36 0 1.71 202 04:35 08.06.2020
1878 Clear 17 1011 41 0 1.76 43 02:56 08.06.2020
1879 Clear 15 1011 40 0 1.87 43 02:25 08.06.2020
1880 Clear 15 1011 40 0 1.87 43 01:40 08.06.2020
1881 Clear 15 1010 40 0 2.01 43 00:41 08.06.2020
1882 Clear 15 1010 41 0 1.81 45 00:19 08.06.2020
1883 Clear 15 1010 41 0 1.81 45 23:38 07.06.2020
1884 Clear 15 1010 42 0 1.79 46 23:18 07.06.2020
1885 Clear 15 1010 42 0 1.79 46 22:55 07.06.2020
1886 Clear 15 1010 42 0 1.79 46 22:36 07.06.2020
1887 Clear 15 1011 42 0 1.74 46 22:18 07.06.2020
1888 Clear 15 1011 42 0 1.74 46 21:57 07.06.2020
1889 Clear 15 1011 42 0 1.74 46 21:36 07.06.2020
1890 Clear 15 1011 42 0 1.74 46 21:36 07.06.2020
1891 Clear 15 1011 44 0 1.46 43 21:18 07.06.2020
1892 Clear 15 1011 44 0 1.46 43 21:18 07.06.2020
1893 Clouds 16 1011 44 0 2.02 50 20:39 07.06.2020
1894 Clouds 16 1011 45 0 2 42 20:20 07.06.2020
1895 Clouds 16 1011 45 0 2 42 19:57 07.06.2020
1896 Clouds 16 1011 45 0 2 42 19:38 07.06.2020
1897 Clouds 16 1011 47 0 1.76 34 19:19 07.06.2020
1898 Clouds 16 1011 47 0 1.76 34 18:56 07.06.2020
1899 Clouds 16 1011 47 0 1.76 34 18:38 07.06.2020
1900 Clouds 17 1010 52 0 1.48 30 18:19 07.06.2020
1901 Clouds 17 1010 52 0 1.48 30 17:56 07.06.2020
1902 Clouds 17 1010 52 0 1.48 30 17:37 07.06.2020
1903 Clouds 17 1010 54 0 1.07 42 17:19 07.06.2020
1904 Clouds 17 1010 54 0 1.07 42 16:42 07.06.2020
1905 Clouds 17 1010 54 0 1.07 42 16:42 07.06.2020
1906 Clouds 17 1009 56 0 0.24 58 16:21 07.06.2020
1907 Clouds 17 1009 56 0 0.24 58 15:40 07.06.2020
1908 Rain 19 1008 54 0 0.8 187 15:21 07.06.2020
1909 Rain 19 1008 54 0 0.8 187 14:41 07.06.2020
1910 Rain 19 1008 53 0 1.71 186 14:22 07.06.2020
1911 Rain 19 1008 53 0 1.71 186 13:49 07.06.2020
1912 Rain 20 1007 51 0 2.16 188 13:22 07.06.2020
1913 Rain 20 1007 51 0 2.16 188 12:57 07.06.2020
1914 Rain 20 1007 51 0 2.16 188 12:39 07.06.2020
1915 Rain 20 1007 51 0 2.16 188 12:39 07.06.2020
1916 Rain 21 1008 48 0 2.62 194 12:20 07.06.2020
1917 Rain 21 1008 48 0 2.62 194 11:55 07.06.2020
1918 Rain 21 1008 48 0 2.62 194 11:36 07.06.2020
1919 Rain 21 1008 46 0 3.03 200 11:18 07.06.2020
1920 Rain 21 1008 46 0 3.03 200 10:45 07.06.2020
1921 Rain 22 1010 42 0 3.68 200 10:21 07.06.2020
1922 Rain 22 1010 42 0 3.68 200 09:59 07.06.2020
1923 Rain 22 1010 42 0 3.68 200 09:39 07.06.2020
1924 Rain 22 1011 44 0 3.56 205 09:20 07.06.2020
1925 Rain 22 1011 44 0 3.56 205 08:58 07.06.2020
1926 Rain 22 1011 44 0 3.56 205 08:39 07.06.2020
1927 Rain 22 1011 40 0 3.38 201 08:21 07.06.2020
1928 Rain 22 1011 40 0 3.38 201 07:38 07.06.2020
1929 Rain 22 1011 38 0 2.73 197 06:54 07.06.2020
1930 Clouds 21 1012 38 0 2.21 204 05:53 07.06.2020
1931 Clouds 18 1012 39 0 0.37 343 04:22 07.06.2020
1932 Clouds 18 1012 39 0 0.37 343 03:46 07.06.2020
1933 Clouds 15 1011 45 0 0.86 38 02:18 07.06.2020
1934 Clouds 15 1011 45 0 1.27 44 01:26 07.06.2020
1935 Clouds 15 1011 45 0 1.27 44 00:48 07.06.2020
1936 Clouds 15 1011 45 0 1.59 42 00:21 07.06.2020
1937 Clouds 15 1011 45 0 1.59 42 23:59 06.06.2020
1938 Clouds 15 1011 45 0 1.59 42 23:38 06.06.2020
1939 Clouds 15 1011 45 0 1.74 40 23:20 06.06.2020
1940 Clouds 15 1011 45 0 1.74 40 22:57 06.06.2020
1941 Clouds 15 1011 45 0 1.74 40 22:39 06.06.2020
1942 Clouds 15 1011 46 0 1.65 37 22:19 06.06.2020
1943 Clouds 15 1011 46 0 1.65 37 21:56 06.06.2020
1944 Clouds 15 1011 46 0 1.65 37 21:37 06.06.2020
1945 Clouds 15 1011 48 0 1.17 25 21:19 06.06.2020
1946 Clouds 15 1011 48 0 1.17 25 20:40 06.06.2020
1947 Clouds 15 1011 49 0 1.51 26 20:20 06.06.2020
1948 Clouds 15 1011 49 0 1.51 26 19:58 06.06.2020
1949 Clouds 15 1011 49 0 1.51 26 19:40 06.06.2020
1950 Clouds 16 1011 51 0 1.79 25 19:21 06.06.2020
1951 Clouds 16 1011 51 0 1.79 25 18:55 06.06.2020
1952 Clouds 16 1011 51 0 1.79 25 18:36 06.06.2020
1953 Clouds 16 1011 53 0 1.93 23 18:18 06.06.2020
1954 Clouds 16 1011 53 0 1.93 23 17:43 06.06.2020
1955 Rain 17 1010 56 0 1.33 30 17:20 06.06.2020
1956 Rain 17 1010 56 0 1.33 30 16:56 06.06.2020
1957 Rain 17 1010 56 0 1.33 30 16:38 06.06.2020
1958 Rain 16 1009 59 0 0.45 156 16:20 06.06.2020
1959 Rain 16 1009 59 0 0.45 156 15:44 06.06.2020
1960 Rain 18 1009 55 0 1.47 184 15:20 06.06.2020
1961 Rain 18 1009 55 0 1.47 184 14:58 06.06.2020
1962 Rain 18 1009 55 0 1.47 184 14:38 06.06.2020
1963 Rain 19 1008 51 0 1.51 181 14:19 06.06.2020
1964 Rain 19 1008 51 0 1.51 181 14:19 06.06.2020
1965 Rain 19 1008 51 0 1.51 181 13:47 06.06.2020
1966 Rain 19 1007 52 0 1.32 184 13:19 06.06.2020
1967 Rain 19 1007 52 0 1.32 184 12:57 06.06.2020
1968 Rain 19 1007 52 0 1.32 184 12:57 06.06.2020
1969 Rain 19 1007 52 0 1.32 184 12:39 06.06.2020
1970 Rain 19 1007 53 0 2.51 198 12:19 06.06.2020
1971 Rain 19 1007 53 0 2.51 198 11:54 06.06.2020
1972 Rain 19 1007 53 0 2.51 198 11:36 06.06.2020
1973 Rain 20 1008 51 0 2.99 199 11:18 06.06.2020
1974 Rain 20 1008 51 0 2.99 199 10:55 06.06.2020
1975 Rain 20 1008 51 0 2.99 199 10:36 06.06.2020
1976 Rain 20 1009 49 0 3.14 199 10:18 06.06.2020
1977 Rain 20 1009 49 0 3.14 199 09:43 06.06.2020
1978 Rain 21 1009 45 0 3.56 196 09:24 06.06.2020
1979 Rain 20 1009 50 0 3.18 195 08:48 06.06.2020
1980 Rain 20 1010 48 0 3.26 197 08:25 06.06.2020
1981 Rain 20 1010 48 0 3.26 197 07:57 06.06.2020
1982 Rain 20 1010 48 0 3.26 197 07:38 06.06.2020
1983 Rain 20 1010 45 0 2.6 197 07:20 06.06.2020
1984 Rain 20 1010 45 0 2.6 197 06:44 06.06.2020
1985 Clouds 19 1010 45 0 1.67 194 06:26 06.06.2020
1986 Clouds 19 1010 45 0 1.67 194 05:44 06.06.2020
1987 Clouds 18 1011 45 0 1.34 204 05:23 06.06.2020
1988 Clouds 17 1011 46 0 0.13 267 03:46 06.06.2020
1989 Clouds 16 1011 49 0 0.22 358 02:36 06.06.2020
1990 Clouds 13 1010 50 0 0.58 56 01:24 06.06.2020
1991 Clouds 13 1010 50 0 0.58 56 00:59 06.06.2020
1992 Clouds 13 1010 50 0 0.58 56 00:41 06.06.2020
1993 Clouds 14 1010 49 0 0.73 62 00:22 06.06.2020
1994 Clouds 14 1010 49 0 0.73 62 23:40 05.06.2020
1995 Clouds 14 1010 50 0 0.65 53 23:20 05.06.2020
1996 Clouds 14 1010 50 0 0.65 53 22:58 05.06.2020
1997 Clouds 14 1010 50 0 0.65 53 22:39 05.06.2020
1998 Clouds 14 1010 51 0 0.56 53 22:21 05.06.2020
1999 Clouds 14 1010 51 0 0.56 53 21:55 05.06.2020
2000 Clouds 14 1010 51 0 0.56 53 21:37 05.06.2020
2001 Clouds 14 1011 52 0 0.73 357 21:18 05.06.2020
2002 Clouds 14 1011 52 0 0.73 357 20:45 05.06.2020
2003 Clouds 14 1011 53 0 0.74 3 20:22 05.06.2020
2004 Clouds 14 1011 53 0 0.74 3 19:59 05.06.2020
2005 Clouds 14 1011 53 0 0.74 3 19:39 05.06.2020
2006 Rain 14 1011 54 0 0.88 29 19:21 05.06.2020
2007 Rain 14 1011 54 0 0.88 29 18:40 05.06.2020
2008 Rain 14 1011 55 0 0.68 9 18:21 05.06.2020
2009 Rain 14 1011 55 0 0.68 9 18:21 05.06.2020
2010 Rain 14 1011 55 0 0.68 9 17:59 05.06.2020
2011 Rain 14 1011 55 0 0.68 9 17:41 05.06.2020
2012 Rain 15 1010 56 0 1 0 17:20 05.06.2020
2013 Rain 15 1010 56 0 1 0 16:57 05.06.2020
2014 Rain 15 1010 56 0 1 0 16:37 05.06.2020
2015 Rain 15 1009 57 0 0.86 344 16:19 05.06.2020
2016 Rain 15 1009 57 0 0.86 344 16:19 05.06.2020
2017 Rain 15 1009 57 0 0.86 344 15:38 05.06.2020
2018 Rain 16 1008 57 0 0.83 201 15:20 05.06.2020
2019 Rain 16 1008 57 0 0.83 201 14:57 05.06.2020
2020 Rain 16 1008 57 0 0.83 201 14:39 05.06.2020
2021 Rain 17 1007 55 0 1.31 168 14:21 05.06.2020
2022 Rain 17 1007 55 0 1.29 170 13:46 05.06.2020
2023 Rain 18 1007 55 0 1.92 181 13:27 05.06.2020
2024 Rain 18 1007 55 0 1.92 181 12:56 05.06.2020
2025 Rain 18 1007 55 0 1.92 181 12:37 05.06.2020
2026 Rain 18 1007 54 0 1.9 206 12:18 05.06.2020
2027 Rain 18 1007 54 0 1.9 206 11:42 05.06.2020
2028 Rain 18 1007 54 0 2.42 195 11:23 05.06.2020
2029 Rain 18 1007 54 0 2.42 195 10:58 05.06.2020
2030 Rain 18 1007 54 0 2.42 195 10:39 05.06.2020
2031 Rain 20 1008 50 0 3.37 196 10:19 05.06.2020
2032 Rain 20 1008 50 0 3.37 196 09:57 05.06.2020
2033 Rain 20 1008 50 0 3.37 196 09:37 05.06.2020
2034 Rain 20 1008 43 0 2.79 192 09:19 05.06.2020
2035 Rain 20 1008 43 0 2.79 192 08:57 05.06.2020
2036 Rain 20 1008 43 0 2.79 192 08:38 05.06.2020
2037 Rain 20 1009 41 0 2.61 189 08:18 05.06.2020
2038 Rain 20 1009 41 0 2.61 189 07:49 05.06.2020
2039 Rain 20 1009 41 0 2.61 189 07:31 05.06.2020
2040 Clouds 19 1010 38 0 2.38 199 06:45 05.06.2020
2041 Clouds 18 1011 36 0 0.74 182 05:23 05.06.2020
2042 Clouds 16 1011 36 0 0.55 66 04:27 05.06.2020
2043 Clouds 16 1011 36 0 0.55 66 03:29 05.06.2020
2044 Clouds 14 1011 38 0 1.94 35 02:29 05.06.2020
2045 Clouds 12 1011 42 0 2.52 35 01:58 05.06.2020
2046 Clouds 12 1011 42 0 2.52 35 01:30 05.06.2020
2047 Clouds 12 1011 42 0 2.37 33 00:43 05.06.2020
2048 Clouds 12 1011 42 0 2.31 28 00:21 05.06.2020
2049 Clouds 12 1011 42 0 2.31 28 23:47 04.06.2020
2050 Clouds 12 1011 42 0 2.31 28 23:29 04.06.2020
2051 Clouds 13 1012 41 0 2.22 27 22:57 04.06.2020
2052 Clouds 13 1012 41 0 2.22 27 22:38 04.06.2020
2053 Clouds 13 1012 41 0 2.62 19 22:20 04.06.2020
2054 Clouds 13 1012 41 0 2.62 19 21:58 04.06.2020
2055 Clouds 13 1012 41 0 2.62 19 21:38 04.06.2020
2056 Clouds 13 1012 40 0 3 27 21:20 04.06.2020
2057 Clouds 13 1012 40 0 3 27 20:55 04.06.2020
2058 Clouds 13 1012 40 0 3 27 20:37 04.06.2020
2059 Clouds 13 1012 40 0 3.03 27 20:19 04.06.2020
2060 Clouds 13 1012 40 0 3.03 27 19:41 04.06.2020
2061 Clouds 13 1012 40 0 2.97 25 19:21 04.06.2020
2062 Clouds 13 1012 40 0 2.97 25 18:58 04.06.2020
2063 Clouds 13 1012 40 0 2.97 25 18:38 04.06.2020
2064 Clouds 14 1012 44 0 2.58 29 18:20 04.06.2020
2065 Clouds 14 1012 44 0 2.58 29 17:44 04.06.2020
2066 Clouds 14 1011 50 0 2.11 37 17:22 04.06.2020
2067 Clouds 14 1011 50 0 2.11 37 16:58 04.06.2020
2068 Clouds 14 1011 50 0 2.11 37 16:40 04.06.2020
2069 Rain 14 1010 56 0 1.06 55 16:20 04.06.2020
2070 Rain 14 1010 56 0 1.06 55 15:44 04.06.2020
2071 Rain 16 1008 56 0 0.67 168 15:26 04.06.2020
2072 Rain 16 1008 56 0 0.67 168 14:42 04.06.2020
2073 Rain 18 1008 49 0 0.75 177 14:23 04.06.2020
2074 Rain 18 1008 49 0 0.75 177 13:58 04.06.2020
2075 Rain 18 1008 49 0 0.75 177 13:40 04.06.2020
2076 Rain 18 1007 46 0 1.15 207 13:20 04.06.2020
2077 Rain 18 1007 46 0 1.15 207 12:59 04.06.2020
2078 Rain 18 1007 46 0 1.15 207 12:40 04.06.2020
2079 Rain 19 1008 46 0 1.78 192 12:22 04.06.2020
2080 Rain 19 1008 46 0 1.78 192 11:55 04.06.2020
2081 Rain 19 1008 46 0 1.78 192 11:37 04.06.2020
2082 Rain 19 1008 44 0 1.87 193 11:19 04.06.2020
2083 Rain 19 1008 44 0 1.87 193 10:41 04.06.2020
2084 Rain 19 1009 41 0 1.73 194 10:22 04.06.2020
2085 Rain 19 1009 41 0 1.73 194 09:57 04.06.2020
2086 Rain 19 1009 41 0 1.73 194 09:38 04.06.2020
2087 Rain 20 1010 37 0 2.36 197 09:20 04.06.2020
2088 Rain 20 1010 37 0 2.36 197 08:44 04.06.2020
2089 Rain 20 1011 36 0 1.83 195 08:25 04.06.2020
2090 Rain 20 1011 36 0 1.83 195 07:47 04.06.2020
2091 Rain 19 1011 37 0 1.75 196 07:23 04.06.2020
2092 Rain 19 1011 37 0 1.75 196 06:42 04.06.2020
2093 Clouds 19 1012 36 0 1.21 205 06:24 04.06.2020
2094 Clouds 19 1012 36 0 1.21 205 05:34 04.06.2020
2095 Clouds 16 1013 40 0 1.6 39 03:55 04.06.2020
2096 Clouds 14 1013 42 0 2.54 30 02:56 04.06.2020
2097 Clouds 13 1013 44 0 2.74 24 01:48 04.06.2020
2098 Clouds 13 1013 45 0 3.11 21 01:19 04.06.2020
2099 Clouds 13 1013 45 0 3.11 21 00:36 04.06.2020
2100 Clouds 13 1013 46 0 3.11 24 23:41 03.06.2020
2101 Clouds 12 1013 47 0 2.39 25 23:20 03.06.2020
2102 Clouds 12 1013 47 0 2.39 25 22:58 03.06.2020
2103 Clouds 12 1013 47 0 2.39 25 22:58 03.06.2020
2104 Clouds 12 1013 47 0 2.39 25 22:39 03.06.2020
2105 Clouds 12 1014 48 0 2.32 28 22:18 03.06.2020
2106 Clouds 12 1014 48 0 2.32 28 21:56 03.06.2020
2107 Clouds 12 1014 48 0 2.32 28 21:38 03.06.2020
2108 Clouds 13 1014 44 0 2.76 28 21:20 03.06.2020
2109 Clouds 13 1014 44 0 2.76 28 20:43 03.06.2020
2110 Clouds 13 1013 45 0 2.64 32 20:22 03.06.2020
2111 Clouds 13 1013 45 0 2.64 32 19:58 03.06.2020
2112 Clouds 13 1013 45 0 2.64 32 19:40 03.06.2020
2113 Clouds 13 1013 48 0 2.35 34 19:22 03.06.2020
2114 Clouds 13 1013 48 0 2.35 34 18:59 03.06.2020
2115 Clouds 13 1013 48 0 2.35 34 18:41 03.06.2020
2116 Clouds 13 1013 50 0 1.73 29 18:20 03.06.2020
2117 Clouds 13 1013 50 0 1.73 29 17:55 03.06.2020
2118 Clouds 13 1013 50 0 1.73 29 17:37 03.06.2020
2119 Clouds 13 1013 52 0 1.2 51 17:18 03.06.2020
2120 Clouds 13 1013 52 0 1.2 51 16:41 03.06.2020
2121 Rain 14 1012 54 0 0.8 88 16:20 03.06.2020
2122 Rain 14 1012 54 0 0.8 88 15:57 03.06.2020
2123 Rain 14 1012 54 0 0.8 88 15:38 03.06.2020
2124 Rain 16 1010 54 0 1.12 93 15:20 03.06.2020
2125 Rain 16 1010 54 0 1.12 93 14:46 03.06.2020
2126 Rain 17 1009 53 0 1.05 129 14:24 03.06.2020
2127 Rain 17 1009 53 0 1.15 121 13:56 03.06.2020
2128 Rain 17 1009 53 0 1.15 121 13:38 03.06.2020
2129 Rain 17 1009 51 0 1.35 138 13:18 03.06.2020
2130 Rain 17 1009 51 0 1.35 138 12:42 03.06.2020
2131 Rain 17 1009 51 0 0.87 185 12:21 03.06.2020
2132 Rain 17 1009 51 0 0.87 185 11:45 03.06.2020
2133 Rain 18 1010 50 0 1.53 180 11:26 03.06.2020
2134 Rain 18 1010 50 0 1.53 180 10:56 03.06.2020
2135 Rain 18 1010 50 0 1.53 180 10:38 03.06.2020
2136 Rain 18 1011 47 0 1.6 180 10:20 03.06.2020
2137 Rain 18 1011 47 0 1.6 180 09:42 03.06.2020
2138 Rain 21 1010 37 0 3.05 186 09:19 03.06.2020
2139 Rain 21 1010 37 0 3.05 186 08:47 03.06.2020
2140 Rain 20 1011 35 0 2.41 185 08:24 03.06.2020
2141 Rain 20 1011 35 0 2.41 185 07:58 03.06.2020
2142 Rain 20 1011 35 0 2.41 185 07:40 03.06.2020
2143 Clear 20 1011 35 0 2.06 179 07:19 03.06.2020
2144 Clear 20 1011 35 0 2.06 179 06:48 03.06.2020
2145 Clear 20 1011 35 0 2.06 179 06:29 03.06.2020
2146 Clear 19 1012 35 0 1.81 187 05:46 03.06.2020
2147 Clouds 18 1013 34 0 0.87 159 04:33 03.06.2020
2148 Clouds 17 1013 33 0 0.83 67 03:42 03.06.2020
2149 Clouds 14 1013 37 0 2.08 34 02:46 03.06.2020
2150 Clear 12 1013 42 0 2.63 34 01:48 03.06.2020
2151 Clear 12 1013 41 0 2.66 31 00:41 03.06.2020
2152 Clear 12 1013 41 0 2.79 30 00:23 03.06.2020
2153 Clear 12 1013 41 0 2.79 30 23:51 02.06.2020
2154 Clear 12 1013 41 0 2.94 29 23:27 02.06.2020
2155 Clear 12 1013 41 0 2.94 29 22:56 02.06.2020
2156 Clear 12 1013 41 0 2.94 29 22:37 02.06.2020
2157 Clear 12 1013 41 0 3.02 32 22:18 02.06.2020
2158 Clear 12 1013 41 0 3.02 32 21:56 02.06.2020
2159 Clear 12 1013 41 0 3.02 32 21:37 02.06.2020
2160 Clouds 13 1013 41 0 2.68 34 21:19 02.06.2020
2161 Clouds 13 1013 41 0 2.68 34 20:55 02.06.2020
2162 Clouds 13 1013 41 0 2.68 34 20:36 02.06.2020
2163 Clouds 13 1013 41 0 2.7 37 20:18 02.06.2020
2164 Clouds 13 1013 41 0 2.7 37 19:41 02.06.2020
2165 Clouds 13 1013 42 0 2.48 37 19:23 02.06.2020
2166 Clouds 13 1013 42 0 2.48 37 18:56 02.06.2020
2167 Clouds 13 1013 42 0 2.48 37 18:38 02.06.2020
2168 Clouds 13 1013 46 0 1.97 38 18:19 02.06.2020
2169 Clouds 13 1013 46 0 1.97 38 17:43 02.06.2020
2170 Clouds 14 1013 49 0 1.21 47 17:23 02.06.2020
2171 Clouds 14 1013 49 0 1.21 47 16:59 02.06.2020
2172 Clouds 14 1013 49 0 1.21 47 16:40 02.06.2020
2173 Clouds 14 1012 49 0 0.66 101 16:21 02.06.2020
2174 Clouds 14 1012 49 0 0.66 101 16:21 02.06.2020
2175 Clouds 14 1012 49 0 0.66 101 15:57 02.06.2020
2176 Clouds 14 1012 49 0 0.66 101 15:37 02.06.2020
2177 Clouds 17 1011 47 0 0.98 152 15:19 02.06.2020
2178 Clouds 17 1011 47 0 0.98 152 14:45 02.06.2020
2179 Clouds 18 1010 43 0 1.55 172 14:26 02.06.2020
2180 Clouds 18 1009 43 0 1.74 173 13:55 02.06.2020
2181 Clouds 18 1009 43 0 1.74 173 13:36 02.06.2020
2182 Rain 19 1010 40 0 2.46 182 13:18 02.06.2020
2183 Rain 19 1010 40 0 2.46 182 12:54 02.06.2020
2184 Rain 19 1010 40 0 2.46 182 12:36 02.06.2020
2185 Clouds 20 1010 38 0 2.85 178 12:18 02.06.2020
2186 Clouds 20 1010 38 0 2.85 178 11:40 02.06.2020
2187 Clouds 20 1012 35 0 2.96 178 11:21 02.06.2020
2188 Clouds 20 1012 35 0 2.96 178 10:55 02.06.2020
2189 Clouds 20 1012 35 0 2.96 178 10:37 02.06.2020
2190 Clouds 20 1013 33 0 2.85 177 10:18 02.06.2020
2191 Clouds 20 1013 33 0 2.85 177 09:42 02.06.2020
2192 Clouds 20 1013 33 0 2.79 176 09:20 02.06.2020
2193 Clouds 20 1013 32 0 3.2 180 08:53 02.06.2020
2194 Clouds 20 1013 31 0 2.9 177 08:28 02.06.2020
2195 Clouds 20 1013 31 0 2.9 177 07:55 02.06.2020
2196 Clouds 20 1013 31 0 2.9 177 07:32 02.06.2020
2197 Clouds 20 1014 30 0 2.4 181 06:58 02.06.2020
2198 Clouds 20 1014 30 0 2.4 181 06:36 02.06.2020
2199 Clouds 19 1014 31 0 1.11 179 05:31 02.06.2020
2200 Clear 16 1015 34 0 2.51 42 04:20 02.06.2020
2201 Clear 13 1015 40 0 3.41 35 02:37 02.06.2020
2202 Clear 11 1016 44 0 3.51 32 01:48 02.06.2020
2203 Clear 11 1015 44 0 3.28 33 00:46 02.06.2020
2204 Clear 11 1015 44 0 3.02 38 00:20 02.06.2020
2205 Clear 11 1015 44 0 3.02 38 23:39 01.06.2020
2206 Clear 11 1015 44 0 2.65 46 23:19 01.06.2020
2207 Clear 11 1015 44 0 2.65 46 22:56 01.06.2020
2208 Clear 11 1015 44 0 2.65 46 22:38 01.06.2020
2209 Clear 11 1016 44 0 2.4 48 22:19 01.06.2020
2210 Clear 11 1016 44 0 2.4 48 21:42 01.06.2020
2211 Clear 12 1015 43 0 2.78 38 21:22 01.06.2020
2212 Clear 12 1015 43 0 2.78 38 20:59 01.06.2020
2213 Clear 12 1015 43 0 2.78 38 20:41 01.06.2020
2214 Clouds 12 1015 43 0 3.13 34 20:21 01.06.2020
2215 Clouds 12 1015 43 0 3.13 34 19:59 01.06.2020
2216 Clouds 12 1015 43 0 3.13 34 19:41 01.06.2020
2217 Clouds 12 1015 44 0 2.97 33 19:20 01.06.2020
2218 Clouds 12 1015 44 0 2.97 33 19:20 01.06.2020
2219 Clouds 12 1015 44 0 2.97 33 18:58 01.06.2020
2220 Clouds 12 1015 44 0 2.97 33 18:38 01.06.2020
2221 Clouds 12 1015 48 0 2.35 34 18:19 01.06.2020
2222 Clouds 12 1015 48 0 2.35 34 17:42 01.06.2020
2223 Clouds 12 1015 51 0 1.54 43 17:22 01.06.2020
2224 Clouds 12 1015 51 0 1.54 43 16:58 01.06.2020
2225 Clouds 12 1015 51 0 1.54 43 16:39 01.06.2020
2226 Rain 13 1014 54 0 0.72 92 16:19 01.06.2020
2227 Rain 13 1014 54 0 0.72 92 15:54 01.06.2020
2228 Rain 13 1014 54 0 0.72 92 15:36 01.06.2020
2229 Rain 16 1013 52 0 1.03 162 15:18 01.06.2020
2230 Rain 16 1013 52 0 1.03 162 15:18 01.06.2020
2231 Rain 16 1013 52 0 1.03 162 14:54 01.06.2020
2232 Rain 16 1013 52 0 1.03 162 14:36 01.06.2020
2233 Rain 17 1012 50 0 1.04 161 14:18 01.06.2020
2234 Rain 17 1011 50 0 0.84 154 13:41 01.06.2020
2235 Rain 18 1012 49 0 1.09 166 13:21 01.06.2020
2236 Rain 18 1012 49 0 1.09 166 12:58 01.06.2020
2237 Rain 18 1012 49 0 1.09 166 12:40 01.06.2020
2238 Rain 18 1012 48 0 1.37 179 12:21 01.06.2020
2239 Rain 18 1012 48 0 1.37 179 11:56 01.06.2020
2240 Rain 18 1012 48 0 1.37 179 11:36 01.06.2020
2241 Rain 19 1013 47 0 1.93 184 11:18 01.06.2020
2242 Rain 19 1013 47 0 1.93 184 10:40 01.06.2020
2243 Rain 19 1013 44 0 2.26 186 10:20 01.06.2020
2244 Rain 19 1013 44 0 2.26 186 09:58 01.06.2020
2245 Rain 19 1013 44 0 2.26 186 09:40 01.06.2020
2246 Rain 19 1014 42 0 1.88 190 09:20 01.06.2020
2247 Rain 19 1014 42 0 1.88 190 08:52 01.06.2020
2248 Rain 19 1014 42 0 1.88 190 08:30 01.06.2020
2249 Rain 19 1014 41 0 1.63 187 07:57 01.06.2020
2250 Rain 19 1014 41 0 1.63 187 07:38 01.06.2020
2251 Clouds 18 1015 41 0 1.43 193 07:20 01.06.2020
2252 Clouds 18 1015 41 0 1.43 193 06:49 01.06.2020
2253 Clouds 18 1016 42 0 1.45 197 05:54 01.06.2020
2254 Clouds 17 1016 42 0 0.39 150 04:50 01.06.2020
2255 Clouds 16 1016 43 0 0.91 52 03:50 01.06.2020
2256 Clouds 16 1016 43 0 0.91 52 03:32 01.06.2020
2257 Clouds 13 1016 45 0 2.28 29 02:34 01.06.2020
2258 Clouds 11 1016 45 0 2.84 27 01:35 01.06.2020
2259 Clouds 12 1015 46 0 2.64 27 00:59 01.06.2020
2260 Clouds 12 1015 46 0 2.64 27 00:40 01.06.2020
2261 Clouds 12 1015 47 0 3.01 26 00:21 01.06.2020
2262 Clouds 12 1015 47 0 3.01 26 23:58 31.05.2020
2263 Clouds 12 1015 47 0 3.01 26 23:40 31.05.2020
2264 Clouds 12 1016 46 0 2.68 31 23:22 31.05.2020
2265 Clouds 12 1016 46 0 2.68 31 22:58 31.05.2020
2266 Clouds 12 1016 46 0 2.68 31 22:40 31.05.2020
2267 Clouds 12 1016 44 0 1.84 41 22:21 31.05.2020
2268 Clouds 12 1016 44 0 1.84 41 21:56 31.05.2020
2269 Clouds 12 1016 44 0 1.84 41 21:38 31.05.2020
2270 Clouds 12 1016 44 0 2.49 40 21:19 31.05.2020
2271 Clouds 12 1016 44 0 2.49 40 20:42 31.05.2020
2272 Clouds 12 1015 44 0 2.52 38 20:23 31.05.2020
2273 Clouds 12 1015 44 0 2.52 38 19:56 31.05.2020
2274 Clouds 12 1015 44 0 2.52 38 19:37 31.05.2020
2275 Clouds 12 1015 46 0 2.2 32 19:19 31.05.2020
2276 Clouds 12 1015 46 0 2.2 32 18:44 31.05.2020
2277 Clouds 12 1015 49 0 2.43 26 18:25 31.05.2020
2278 Clouds 12 1015 49 0 2.43 26 17:57 31.05.2020
2279 Clouds 12 1015 49 0 2.43 26 17:39 31.05.2020
2280 Clouds 13 1014 51 0 2.51 18 17:19 31.05.2020
2281 Clouds 13 1014 51 0 2.51 18 16:41 31.05.2020
2282 Rain 14 1014 56 0 1.81 45 16:21 31.05.2020
2283 Rain 14 1014 56 0 1.81 45 16:21 31.05.2020
2284 Rain 14 1014 56 0 1.81 45 16:21 31.05.2020
2285 Rain 14 1014 56 0 1.81 45 15:41 31.05.2020
2286 Rain 15 1013 58 0 0.9 88 15:23 31.05.2020
2287 Rain 15 1013 58 0 0.9 88 14:58 31.05.2020
2288 Rain 15 1013 58 0 0.9 88 14:40 31.05.2020
2289 Rain 16 1012 54 0 0.71 142 14:19 31.05.2020
2290 Rain 16 1012 54 0 0.71 142 13:55 31.05.2020
2291 Rain 16 1012 54 0 0.71 142 13:36 31.05.2020
2292 Rain 16 1012 54 0 1.13 53 13:18 31.05.2020
2293 Rain 16 1012 54 0 1.13 53 12:41 31.05.2020
2294 Rain 16 1012 55 0 0.8 81 12:23 31.05.2020
2295 Rain 16 1012 55 0 0.8 81 11:54 31.05.2020
2296 Rain 16 1012 55 0 0.8 81 11:36 31.05.2020
2297 Rain 16 1013 55 0 0.15 20 11:18 31.05.2020
2298 Rain 16 1013 55 0 0.15 20 10:42 31.05.2020
2299 Rain 16 1013 57 0 1.13 230 10:23 31.05.2020
2300 Rain 16 1013 57 0 1.13 230 09:57 31.05.2020
2301 Rain 16 1013 57 0 1.13 230 09:39 31.05.2020
2302 Rain 16 1014 56 0 1.9 238 09:19 31.05.2020
2303 Rain 15 1014 58 0 1.14 224 08:42 31.05.2020
2304 Rain 15 1014 57 0 1.35 226 08:23 31.05.2020
2305 Rain 15 1014 57 0 1.35 226 07:48 31.05.2020
2306 Rain 16 1015 55 0 1.63 218 07:22 31.05.2020
2307 Rain 16 1015 55 0 1.63 218 06:57 31.05.2020
2308 Rain 16 1015 55 0 1.63 218 06:35 31.05.2020
2309 Rain 15 1015 54 0 1.45 224 05:49 31.05.2020
2310 Rain 15 1015 54 0 1.45 224 05:31 31.05.2020
2311 Rain 14 1015 56 0 0.46 0 04:18 31.05.2020
2312 Rain 14 1015 56 0 0.46 0 03:39 31.05.2020
2313 Rain 14 1015 57 0 1.05 6 02:47 31.05.2020
2314 Clouds 13 1015 49 0 1.3 21 01:46 31.05.2020
2315 Clouds 13 1014 50 0 1.34 22 00:41 31.05.2020
2316 Clouds 14 1015 52 0 1.63 8 00:23 31.05.2020
2317 Clouds 14 1015 52 0 1.63 8 23:42 30.05.2020
2318 Rain 14 1015 52 0 1.68 43 23:24 30.05.2020
2319 Rain 14 1015 52 0 1.68 43 22:56 30.05.2020
2320 Rain 14 1015 52 0 1.68 43 22:38 30.05.2020
2321 Clouds 13 1015 49 0 1 35 22:20 30.05.2020
2322 Clouds 13 1015 49 0 1 35 21:43 30.05.2020
2323 Clouds 14 1015 48 0 2.09 21 21:22 30.05.2020
2324 Clouds 14 1015 48 0 2.09 21 21:22 30.05.2020
2325 Clouds 14 1015 48 0 2.09 21 20:58 30.05.2020
2326 Clouds 14 1015 48 0 2.09 21 20:39 30.05.2020
2327 Rain 14 1015 51 0 2.6 31 20:21 30.05.2020
2328 Rain 14 1015 51 0 2.6 31 19:58 30.05.2020
2329 Rain 14 1015 51 0 2.6 31 19:40 30.05.2020
2330 Rain 14 1015 53 0 1.72 22 19:20 30.05.2020
2331 Rain 14 1015 53 0 1.72 22 18:43 30.05.2020
2332 Rain 14 1015 54 0 1.71 32 18:20 30.05.2020
2333 Rain 14 1015 54 0 1.71 32 17:43 30.05.2020
2334 Rain 14 1015 56 0 1.58 27 17:25 30.05.2020
2335 Rain 14 1015 56 0 1.58 27 16:59 30.05.2020
2336 Rain 14 1015 56 0 1.58 27 16:40 30.05.2020
2337 Rain 13 1014 57 0 1.94 23 16:21 30.05.2020
2338 Rain 13 1014 57 0 1.94 23 15:44 30.05.2020
2339 Rain 14 1012 59 0 1.51 222 15:26 30.05.2020
2340 Rain 14 1012 59 0 1.51 222 14:45 30.05.2020
2341 Rain 16 1011 54 0 1.36 231 14:27 30.05.2020
2342 Rain 16 1011 54 0 1.36 231 13:44 30.05.2020
2343 Rain 17 1011 53 0 1.19 296 13:26 30.05.2020
2344 Rain 17 1011 53 0 1.19 296 12:43 30.05.2020
2345 Rain 17 1011 52 0 1.7 232 12:23 30.05.2020
2346 Rain 17 1011 52 0 1.7 232 11:59 30.05.2020
2347 Rain 17 1011 52 0 1.7 232 11:41 30.05.2020
2348 Rain 19 1012 46 0 3.45 199 11:22 30.05.2020
2349 Rain 19 1012 46 0 3.45 199 10:56 30.05.2020
2350 Rain 19 1012 46 0 3.45 199 10:38 30.05.2020
2351 Rain 20 1012 42 0 2.76 184 10:20 30.05.2020
2352 Rain 20 1012 42 0 2.76 184 09:43 30.05.2020
2353 Rain 20 1013 37 0 3 185 09:25 30.05.2020
2354 Rain 20 1013 37 0 3 185 08:44 30.05.2020
2355 Rain 20 1014 36 0 2.85 179 08:26 30.05.2020
2356 Rain 20 1014 36 0 2.85 179 07:40 30.05.2020
2357 Clouds 20 1014 36 0 2.23 183 07:19 30.05.2020
2358 Clouds 20 1014 36 0 2.23 183 06:30 30.05.2020
2359 Clouds 18 1015 37 0 1.6 180 05:52 30.05.2020
2360 Clouds 17 1015 39 0 0.66 139 04:59 30.05.2020
2361 Clouds 14 1015 39 0 3.07 32 02:53 30.05.2020
2362 Clouds 13 1014 40 0 2.61 37 02:23 30.05.2020
2363 Clouds 13 1014 40 0 2.41 45 00:45 30.05.2020
2364 Clouds 13 1013 41 0 2.22 46 00:25 30.05.2020
2365 Clouds 13 1013 41 0 2.22 46 23:59 29.05.2020
2366 Clouds 13 1013 41 0 2.22 46 23:38 29.05.2020
2367 Clouds 13 1013 40 0 2.75 35 23:19 29.05.2020
2368 Clouds 13 1013 40 0 2.75 35 22:56 29.05.2020
2369 Clouds 13 1013 40 0 2.75 35 22:37 29.05.2020
2370 Clouds 13 1014 40 0 3.13 37 22:18 29.05.2020
2371 Clouds 13 1014 40 0 3.13 37 21:41 29.05.2020
2372 Clouds 13 1014 40 0 3.13 37 21:41 29.05.2020
2373 Clouds 13 1013 40 0 2.74 35 21:21 29.05.2020
2374 Clouds 13 1013 40 0 2.74 35 20:58 29.05.2020
2375 Clouds 13 1013 40 0 2.74 35 20:39 29.05.2020
2376 Clouds 13 1013 40 0 2.55 39 20:19 29.05.2020
2377 Clouds 13 1013 40 0 2.55 39 19:44 29.05.2020
2378 Clouds 13 1013 40 0 3.16 31 19:26 29.05.2020
2379 Clouds 13 1013 40 0 3.16 31 18:49 29.05.2020
2380 Clouds 13 1013 41 0 3.02 29 18:24 29.05.2020
2381 Clouds 13 1013 41 0 3.02 29 17:59 29.05.2020
2382 Clouds 13 1013 41 0 3.02 29 17:40 29.05.2020
2383 Clouds 13 1013 43 0 2.91 20 17:21 29.05.2020
2384 Clouds 13 1013 43 0 2.91 20 16:58 29.05.2020
2385 Clouds 13 1013 43 0 2.91 20 16:40 29.05.2020
2386 Clouds 14 1012 46 0 3.46 24 16:21 29.05.2020
2387 Clouds 14 1012 46 0 3.46 24 15:42 29.05.2020
2388 Clouds 16 1011 48 0 3.49 32 15:22 29.05.2020
2389 Clouds 16 1011 48 0 3.49 32 14:59 29.05.2020
2390 Clouds 16 1011 48 0 3.49 32 14:39 29.05.2020
2391 Clouds 16 1011 48 0 3.49 32 14:39 29.05.2020
2392 Rain 17 1010 45 0 1.2 44 14:20 29.05.2020
2393 Rain 17 1010 45 0 1.2 44 13:43 29.05.2020
2394 Rain 17 1010 48 0 0.45 2 13:23 29.05.2020
2395 Rain 17 1010 48 0 0.45 2 12:58 29.05.2020
2396 Rain 17 1010 48 0 0.45 2 12:39 29.05.2020
2397 Rain 16 1011 52 0 1.09 294 12:21 29.05.2020
2398 Rain 16 1011 52 0 1.09 294 11:44 29.05.2020
2399 Rain 17 1012 51 0 1.95 232 11:25 29.05.2020
2400 Rain 17 1012 51 0 1.95 232 10:56 29.05.2020
2401 Rain 17 1012 51 0 1.95 232 10:36 29.05.2020
2402 Rain 18 1012 49 0 1.33 193 10:18 29.05.2020
2403 Rain 18 1012 49 0 1.33 193 09:42 29.05.2020
2404 Rain 20 1013 43 0 2.58 195 09:19 29.05.2020
2405 Rain 20 1013 43 0 2.58 195 08:48 29.05.2020
2406 Rain 20 1013 38 0 3.25 189 08:26 29.05.2020
2407 Rain 20 1013 38 0 3.25 189 07:58 29.05.2020
2408 Rain 20 1013 38 0 3.25 189 07:37 29.05.2020
2409 Rain 20 1014 34 0 2.22 188 07:18 29.05.2020
2410 Rain 20 1014 34 0 2.22 188 06:46 29.05.2020
2411 Rain 20 1014 35 0 0.98 181 06:26 29.05.2020
2412 Rain 20 1014 35 0 0.98 181 05:46 29.05.2020
2413 Clouds 15 1014 38 0 2.85 27 02:36 29.05.2020
2414 Clouds 14 1013 38 0 3.51 27 01:30 29.05.2020
2415 Clouds 14 1012 38 0 3.72 27 00:55 29.05.2020
2416 Clouds 14 1012 38 0 3.72 27 00:34 29.05.2020
2417 Clouds 14 1013 38 0 4.12 27 23:59 28.05.2020
2418 Clouds 14 1013 38 0 4.12 27 23:39 28.05.2020
2419 Clouds 13 1013 39 0 4.03 30 23:19 28.05.2020
2420 Clouds 13 1013 39 0 4.03 30 23:19 28.05.2020
2421 Clouds 13 1013 39 0 4.03 30 22:44 28.05.2020
2422 Clouds 14 1013 38 0 3.76 34 22:26 28.05.2020
2423 Clouds 14 1013 38 0 3.76 34 21:57 28.05.2020
2424 Clouds 14 1013 38 0 3.76 34 21:39 28.05.2020
2425 Clear 13 1012 39 0 3.79 30 21:20 28.05.2020
2426 Clear 13 1012 39 0 3.79 30 20:57 28.05.2020
2427 Clear 13 1012 39 0 3.79 30 20:38 28.05.2020
2428 Clouds 13 1013 39 0 3.58 30 20:18 28.05.2020
2429 Clouds 13 1013 39 0 3.58 30 19:55 28.05.2020
2430 Clouds 13 1013 39 0 3.58 30 19:37 28.05.2020
2431 Clouds 14 1013 40 0 3.29 33 19:18 28.05.2020
2432 Clouds 14 1013 40 0 3.29 33 18:42 28.05.2020
2433 Clouds 14 1013 40 0 3.41 30 18:22 28.05.2020
2434 Clouds 14 1013 40 0 3.41 30 17:43 28.05.2020
2435 Clouds 14 1013 40 0 3.41 30 17:43 28.05.2020
2436 Clouds 15 1013 43 0 2.89 29 17:23 28.05.2020
2437 -273 0 0 0 0 0 16:59 28.05.2020
2438 Clouds 15 1013 43 0 2.89 29 16:39 28.05.2020
2439 Clouds 15 1012 47 0 2.66 23 16:20 28.05.2020
2440 Clouds 15 1012 47 0 2.66 23 15:46 28.05.2020
2441 Clouds 17 1011 48 0 2.3 30 15:25 28.05.2020
2442 Clouds 17 1011 48 0 2.3 30 14:59 28.05.2020
2443 Clouds 17 1011 48 0 2.3 30 14:40 28.05.2020
2444 Rain 18 1010 46 0 0.87 134 14:21 28.05.2020
2445 Rain 18 1010 46 0 0.87 134 13:44 28.05.2020
2446 Rain 18 1009 44 0 0.48 145 13:25 28.05.2020
2447 Rain 18 1009 44 0 0.48 145 12:43 28.05.2020
2448 Rain 18 1010 46 0 2.73 18 12:19 28.05.2020
2449 Rain 18 1010 46 0 2.73 18 11:54 28.05.2020
2450 Rain 18 1010 46 0 2.73 18 11:36 28.05.2020
2451 Rain 16 1010 51 0 1.98 5 11:18 28.05.2020
2452 Rain 16 1010 51 0 1.98 5 10:42 28.05.2020
2453 Rain 16 1010 54 0 1.59 237 10:23 28.05.2020
2454 Rain 16 1010 54 0 1.59 237 09:40 28.05.2020
2455 Rain 20 1011 38 0 2.23 194 09:22 28.05.2020
2456 Rain 20 1011 38 0 2.23 194 09:22 28.05.2020
2457 Rain 20 1011 38 0 2.23 194 08:52 28.05.2020
2458 Rain 20 1011 38 0 2.23 194 08:33 28.05.2020
2459 Rain 21 1012 34 0 1.38 208 07:59 28.05.2020
2460 Rain 21 1012 34 0 1.38 208 07:41 28.05.2020
2461 Rain 21 1012 32 0 0.28 199 07:23 28.05.2020
2462 Rain 21 1012 32 0 0.28 199 06:44 28.05.2020
2463 Rain 20 1013 35 0 1.47 26 06:26 28.05.2020
2464 Rain 20 1013 35 0 1.47 26 05:38 28.05.2020
2465 Rain 18 1013 40 0 2.98 20 04:36 28.05.2020
2466 Rain 16 1014 44 0 4.02 19 03:52 28.05.2020
2467 Rain 14 1013 46 0 4.33 23 02:55 28.05.2020
2468 Rain 14 1013 45 0 4.31 26 01:57 28.05.2020
2469 Rain 14 1013 45 0 4.31 26 01:35 28.05.2020
2470 Rain 14 1012 45 0 3.77 35 00:47 28.05.2020
2471 Rain 14 1012 44 0 3.39 26 00:19 28.05.2020
2472 Rain 14 1012 44 0 3.39 26 23:56 27.05.2020
2473 Rain 14 1012 44 0 3.39 26 23:36 27.05.2020
2474 Rain 15 1013 42 0 3.82 25 23:18 27.05.2020
2475 Rain 15 1013 42 0 3.82 25 22:41 27.05.2020
2476 Clouds 15 1013 38 0 3.71 33 22:23 27.05.2020
2477 Clouds 15 1013 38 0 3.71 33 21:56 27.05.2020
2478 Clouds 15 1013 38 0 3.71 33 21:38 27.05.2020
2479 Clouds 15 1013 35 0 3.81 31 21:20 27.05.2020
2480 Clouds 15 1013 35 0 3.81 31 20:58 27.05.2020
2481 Clouds 15 1013 35 0 3.81 31 20:39 27.05.2020
2482 Clouds 15 1013 36 0 4.02 31 20:19 27.05.2020
2483 Clouds 15 1013 36 0 4.02 31 19:45 27.05.2020
2484 Clouds 15 1013 38 0 4.06 32 19:21 27.05.2020
2485 Clouds 15 1013 38 0 4.06 32 18:45 27.05.2020
2486 Clouds 15 1013 41 0 3.51 24 18:21 27.05.2020
2487 Clouds 15 1013 41 0 3.51 24 17:59 27.05.2020
2488 Clouds 15 1013 41 0 3.51 24 17:40 27.05.2020
2489 Clouds 15 1013 45 0 3.58 22 17:22 27.05.2020
2490 Clouds 15 1013 45 0 3.58 22 16:56 27.05.2020
2491 Clouds 15 1013 45 0 3.58 22 16:38 27.05.2020
2492 Clouds 15 1012 50 0 3.76 47 16:19 27.05.2020
2493 Clouds 15 1012 50 0 3.76 47 15:48 27.05.2020
2494 Rain 16 1012 53 0 2.34 67 15:22 27.05.2020
2495 Rain 16 1012 53 0 2.34 67 14:55 27.05.2020
2496 Rain 15 1011 53 0 2.81 54 14:37 27.05.2020
2497 Rain 17 1011 51 0 0.89 174 14:19 27.05.2020
2498 Rain 16 1010 53 0 1.12 53 13:41 27.05.2020
2499 Rain 17 1010 51 0 1.03 306 13:23 27.05.2020
2500 Rain 17 1010 51 0 1.03 306 12:42 27.05.2020
2501 Rain 18 1010 47 0 2.39 217 12:24 27.05.2020
2502 Rain 18 1010 47 0 2.39 217 11:58 27.05.2020
2503 Rain 18 1010 47 0 2.39 217 11:37 27.05.2020
2504 Rain 21 1010 38 0 2.29 143 11:19 27.05.2020
2505 Rain 21 1010 38 0 2.29 143 10:43 27.05.2020
2506 Rain 21 1011 36 0 2.02 132 10:24 27.05.2020
2507 Rain 21 1011 36 0 2.02 132 09:58 27.05.2020
2508 Rain 21 1011 36 0 2.02 132 09:39 27.05.2020
2509 Rain 23 1011 31 0 0.4 175 09:20 27.05.2020
2510 Rain 23 1011 31 0 0.4 175 08:43 27.05.2020
2511 Rain 23 1012 29 0 0.76 252 08:25 27.05.2020
2512 Rain 23 1012 29 0 0.76 252 07:57 27.05.2020
2513 Rain 23 1012 29 0 0.76 252 07:38 27.05.2020
2514 Snow 23 1012 29 0 0.71 241 07:20 27.05.2020
2515 Snow 23 1012 29 0 0.71 241 06:41 27.05.2020
2516 Clouds 22 1012 31 0 0.72 18 06:19 27.05.2020
2517 Clouds 22 1012 31 0 0.72 18 05:47 27.05.2020
2518 Clouds 18 1013 35 0 3.28 33 04:19 27.05.2020
2519 Clouds 16 1013 35 0 3.99 33 02:30 27.05.2020
2520 Clouds 14 1012 36 0 4.18 32 01:53 27.05.2020
2521 Clouds 14 1012 36 0 4.11 33 01:24 27.05.2020
2522 Clouds 14 1012 36 0 4.11 33 00:45 27.05.2020
2523 Clouds 14 1013 36 0 4.23 31 00:20 27.05.2020
2524 Clouds 14 1013 36 0 4.23 31 23:44 26.05.2020
2525 Clouds 14 1013 36 0 4.46 32 23:26 26.05.2020
2526 Clouds 14 1013 36 0 4.46 32 23:00 26.05.2020
2527 Clouds 14 1013 36 0 4.46 32 22:39 26.05.2020
2528 Clouds 14 1014 37 0 4.46 31 22:21 26.05.2020
2529 Clouds 14 1014 37 0 4.46 31 21:58 26.05.2020
2530 Clouds 14 1014 37 0 4.46 31 21:39 26.05.2020
2531 Clouds 14 1014 36 0 4.35 29 21:20 26.05.2020
2532 Clouds 14 1014 36 0 4.35 29 20:43 26.05.2020
2533 Clouds 14 1014 37 0 4.56 30 20:22 26.05.2020
2534 Clouds 14 1014 37 0 4.56 30 19:58 26.05.2020
2535 Clouds 14 1014 37 0 4.56 30 19:38 26.05.2020
2536 Clouds 14 1015 37 0 4.63 28 19:19 26.05.2020
2537 Clouds 14 1015 37 0 4.63 28 18:43 26.05.2020
2538 Clouds 15 1015 37 0 4.48 26 18:23 26.05.2020
2539 Clouds 15 1015 37 0 4.48 26 17:59 26.05.2020
2540 Clouds 15 1015 37 0 4.48 26 17:38 26.05.2020
2541 Clouds 15 1015 38 0 4.13 28 17:20 26.05.2020
2542 Clouds 15 1015 38 0 4.13 28 16:45 26.05.2020
2543 Clouds 16 1014 42 0 3.13 28 16:20 26.05.2020
2544 Clouds 16 1014 42 0 3.13 28 15:55 26.05.2020
2545 Clouds 16 1014 42 0 3.13 28 15:37 26.05.2020
2546 Clouds 17 1013 44 0 2.6 20 15:19 26.05.2020
2547 Clouds 17 1013 44 0 2.6 20 14:43 26.05.2020
2548 Clouds 19 1012 41 0 3.13 24 14:23 26.05.2020
2549 Clouds 19 1012 41 0 3.13 24 13:57 26.05.2020
2550 Clouds 19 1012 41 0 3.13 24 13:38 26.05.2020
2551 Rain 19 1012 41 0 2.98 18 13:20 26.05.2020
2552 Rain 19 1012 41 0 2.98 18 12:43 26.05.2020
2553 Rain 19 1012 42 0 3.38 355 12:22 26.05.2020
2554 -273 0 0 0 0 0 11:58 26.05.2020
2555 Rain 19 1012 42 0 3.38 355 11:40 26.05.2020
2556 Rain 19 1012 43 0 3.48 332 11:19 26.05.2020
2557 Rain 19 1012 43 0 3.48 332 10:43 26.05.2020
2558 Rain 21 1013 36 0 2.06 299 10:19 26.05.2020
2559 Rain 21 1013 36 0 2.06 299 09:41 26.05.2020
2560 Rain 22 1014 28 0 1.14 201 09:20 26.05.2020
2561 Rain 24 1014 25 0 3.23 192 08:44 26.05.2020
2562 Snow 24 1014 25 0 2.84 185 08:23 26.05.2020
2563 Snow 24 1014 25 0 2.84 185 07:59 26.05.2020
2564 Snow 24 1014 25 0 2.84 185 07:40 26.05.2020
2565 Snow 24 1014 25 0 2.84 185 07:40 26.05.2020
2566 Clouds 23 1014 26 0 1.94 172 07:22 26.05.2020
2567 Clouds 23 1014 26 0 1.94 172 06:47 26.05.2020
2568 Clouds 22 1014 27 0 0.87 135 06:23 26.05.2020
2569 Clouds 22 1014 27 0 0.87 135 05:35 26.05.2020
2570 Clouds 21 1015 28 0 1.57 56 04:59 26.05.2020
2571 Clouds 21 1015 28 0 1.57 56 04:41 26.05.2020
2572 Clouds 18 1015 31 0 3.09 40 04:22 26.05.2020
2573 Clouds 18 1015 31 0 3.09 40 03:34 26.05.2020
2574 Clear 15 1015 35 0 4.29 34 02:34 26.05.2020
2575 Clouds 13 1014 38 0 4.73 31 01:42 26.05.2020
2576 Clouds 13 1014 38 0 4.69 31 00:39 26.05.2020
2577 Clouds 13 1014 38 0 4.7 31 00:20 26.05.2020
2578 Clouds 13 1014 38 0 4.7 31 23:58 25.05.2020
2579 Clouds 13 1014 38 0 4.7 31 23:38 25.05.2020
2580 Clouds 14 1015 38 0 4.62 30 23:19 25.05.2020
2581 Clouds 14 1015 38 0 4.62 30 22:56 25.05.2020
2582 Clouds 14 1015 38 0 4.62 30 22:37 25.05.2020
2583 Clouds 14 1015 38 0 4.5 32 22:19 25.05.2020
2584 Clouds 14 1015 38 0 4.5 32 21:58 25.05.2020
2585 Clouds 14 1015 38 0 4.5 32 21:38 25.05.2020
2586 Clouds 14 1015 37 0 4.56 32 21:18 25.05.2020
2587 Clouds 14 1015 37 0 4.56 32 20:58 25.05.2020
2588 Clouds 14 1015 37 0 4.56 32 20:40 25.05.2020
2589 Clouds 14 1015 37 0 4.22 33 20:20 25.05.2020
2590 Clouds 14 1015 37 0 4.22 33 19:55 25.05.2020
2591 Clouds 14 1015 37 0 4.22 33 19:37 25.05.2020
2592 Clouds 15 1015 37 0 3.9 40 19:18 25.05.2020
2593 Clouds 15 1015 37 0 3.9 40 18:42 25.05.2020
2594 Clouds 15 1015 38 0 3.4 46 18:21 25.05.2020
2595 Clouds 15 1015 38 0 3.4 46 17:55 25.05.2020
2596 Clouds 15 1015 38 0 3.4 46 17:37 25.05.2020
2597 Clouds 16 1015 40 0 2.49 59 17:18 25.05.2020
2598 Clouds 16 1015 40 0 2.49 59 16:41 25.05.2020
2599 Clouds 16 1013 41 0 1.94 73 16:22 25.05.2020
2600 Clouds 16 1013 41 0 1.94 73 15:58 25.05.2020
2601 Clouds 16 1013 41 0 1.94 73 15:40 25.05.2020
2602 Clouds 19 1012 39 0 1.6 122 15:18 25.05.2020
2603 Clouds 19 1012 39 0 1.6 122 14:43 25.05.2020
2604 Clouds 22 1011 31 0 0.92 182 14:24 25.05.2020
2605 Clouds 22 1011 31 0 0.92 182 13:57 25.05.2020
2606 Clouds 22 1011 31 0 0.92 182 13:37 25.05.2020
2607 Snow 23 1011 28 0 2.05 166 13:19 25.05.2020
2608 Snow 23 1011 28 0 2.05 166 12:54 25.05.2020
2609 Snow 23 1011 28 0 2.05 166 12:36 25.05.2020
2610 Snow 24 1011 27 0 2.65 170 12:18 25.05.2020
2611 Snow 24 1011 27 0 2.65 170 11:38 25.05.2020
2612 Clear 24 1012 27 0 2.85 168 11:19 25.05.2020
2613 Clear 24 1012 27 0 2.85 168 10:44 25.05.2020
2614 Clear 24 1013 28 0 2.62 170 10:21 25.05.2020
2615 Clear 24 1013 28 0 2.62 170 09:59 25.05.2020
2616 Clear 24 1013 28 0 2.62 170 09:40 25.05.2020
2617 Clear 23 1013 30 0 2.59 178 09:19 25.05.2020
2618 Clouds 24 1013 25 0 2.88 174 08:59 25.05.2020
2619 Clouds 24 1013 25 0 2.88 174 08:37 25.05.2020
2620 Clear 23 1014 25 0 2.31 174 08:18 25.05.2020
2621 Clear 23 1014 25 0 2.31 174 07:45 25.05.2020
2622 Clear 23 1014 27 0 1.36 172 07:21 25.05.2020
2623 Clear 23 1014 27 0 1.36 172 06:54 25.05.2020
2624 Clear 23 1014 27 0 1.36 172 06:33 25.05.2020
2625 Clear 17 1015 30 0 3.14 35 04:19 25.05.2020
2626 Clear 14 1016 36 0 4.21 33 03:23 25.05.2020
2627 Clear 14 1016 36 0 4.21 33 02:45 25.05.2020
2628 Clear 13 1016 38 0 4.57 32 01:58 25.05.2020
2629 Clear 13 1016 38 0 4.57 32 01:29 25.05.2020
2630 Clear 13 1016 38 0 4.52 31 00:43 25.05.2020
2631 Clear 13 1015 39 0 4.62 30 00:23 25.05.2020
2632 Clear 13 1015 39 0 4.62 30 23:57 24.05.2020
2633 Clear 13 1015 39 0 4.62 30 23:37 24.05.2020
2634 Clear 13 1016 39 0 4.62 31 23:18 24.05.2020
2635 Clear 13 1016 39 0 4.62 31 22:41 24.05.2020
2636 Clear 13 1016 39 0 4.48 30 22:19 24.05.2020
2637 Clear 13 1016 39 0 4.48 30 21:57 24.05.2020
2638 Clear 13 1016 39 0 4.48 30 21:39 24.05.2020
2639 Clear 13 1016 38 0 4.55 29 21:20 24.05.2020
2640 Clear 13 1016 38 0 4.55 29 20:57 24.05.2020
2641 Clear 13 1016 38 0 4.55 29 20:57 24.05.2020
2642 Clear 13 1016 38 0 4.55 29 20:38 24.05.2020
2643 Clouds 13 1016 38 0 4.52 29 20:18 24.05.2020
2644 Clouds 13 1016 38 0 4.52 29 19:55 24.05.2020
2645 Clouds 13 1016 38 0 4.52 29 19:36 24.05.2020
2646 Clouds 14 1017 38 0 4.47 31 19:18 24.05.2020
2647 Clouds 14 1017 38 0 4.47 31 18:41 24.05.2020
2648 Clouds 14 1016 38 0 4.28 31 18:23 24.05.2020
2649 Clouds 14 1016 38 0 4.28 31 17:57 24.05.2020
2650 Clouds 14 1016 38 0 4.28 31 17:37 24.05.2020
2651 Clouds 15 1016 39 0 3.91 29 17:19 24.05.2020
2652 Clouds 15 1016 39 0 3.91 29 16:54 24.05.2020
2653 Clouds 15 1016 39 0 3.91 29 16:36 24.05.2020
2654 Clouds 16 1015 40 0 3.21 30 16:18 24.05.2020
2655 Clouds 16 1015 40 0 3.21 30 16:18 24.05.2020
2656 Clouds 16 1015 40 0 3.21 30 15:40 24.05.2020
2657 Clouds 18 1013 41 0 2.23 4 15:20 24.05.2020
2658 Clouds 18 1013 41 0 2.23 4 14:59 24.05.2020
2659 Clouds 18 1013 41 0 2.23 4 14:40 24.05.2020
2660 Rain 19 1012 39 0 2.14 353 14:21 24.05.2020
2661 Rain 19 1012 39 0 2.14 353 14:21 24.05.2020
2662 Rain 19 1012 41 0 2.79 359 13:55 24.05.2020
2663 Rain 19 1012 41 0 2.79 359 13:37 24.05.2020
2664 Rain 20 1012 38 0 2.44 345 13:19 24.05.2020
2665 Rain 20 1012 38 0 2.44 345 12:56 24.05.2020
2666 Rain 20 1012 38 0 2.44 345 12:37 24.05.2020
2667 Rain 22 1012 33 0 1.2 278 12:19 24.05.2020
2668 Rain 22 1012 33 0 1.2 278 11:54 24.05.2020
2669 Rain 22 1012 33 0 1.2 278 11:36 24.05.2020
2670 Rain 22 1013 31 0 1.9 211 11:18 24.05.2020
2671 Rain 22 1013 31 0 1.9 211 10:42 24.05.2020
2672 Rain 22 1013 31 0 1.9 188 10:23 24.05.2020
2673 Rain 22 1013 31 0 1.9 188 09:57 24.05.2020
2674 Rain 22 1013 31 0 1.9 188 09:39 24.05.2020
2675 Clouds 22 1014 29 0 1.03 193 09:18 24.05.2020
2676 Clouds 22 1014 29 0 1.03 193 08:42 24.05.2020
2677 Clear 22 1014 30 0 0.57 196 08:24 24.05.2020
2678 Clear 22 1014 30 0 0.57 196 07:59 24.05.2020
2679 Clear 22 1014 30 0 0.57 196 07:40 24.05.2020
2680 Clear 22 1015 31 0 0.19 316 07:21 24.05.2020
2681 Clear 22 1015 31 0 0.19 316 06:45 24.05.2020
2682 Clear 20 1016 32 0 1.08 10 05:50 24.05.2020
2683 Clear 16 1017 38 0 3.49 30 03:59 24.05.2020
2684 Clear 16 1017 38 0 3.49 30 03:40 24.05.2020
2685 Clear 14 1017 37 0 4.79 30 02:30 24.05.2020
2686 Clouds 13 1017 40 0 4.95 29 01:39 24.05.2020
2687 Clouds 13 1017 40 0 4.82 28 00:39 24.05.2020
2688 Clouds 13 1017 40 0 4.78 28 00:20 24.05.2020
2689 Clouds 13 1017 40 0 4.78 28 23:43 23.05.2020
2690 Clouds 13 1017 40 0 4.73 27 23:21 23.05.2020
2691 Clouds 13 1017 40 0 4.73 27 22:57 23.05.2020
2692 Clouds 13 1017 40 0 4.73 27 22:37 23.05.2020
2693 Clouds 13 1018 40 0 4.6 24 22:19 23.05.2020
2694 Clouds 13 1018 40 0 4.6 24 21:57 23.05.2020
2695 Clouds 13 1018 40 0 4.6 24 21:37 23.05.2020
2696 Clouds 13 1018 40 0 4.23 33 21:19 23.05.2020
2697 Clouds 13 1018 40 0 4.23 33 20:56 23.05.2020
2698 Clouds 13 1018 40 0 4.23 33 20:37 23.05.2020
2699 Clouds 14 1018 42 0 3.83 36 20:18 23.05.2020
2700 Clouds 14 1018 42 0 3.83 36 19:41 23.05.2020
2701 Rain 14 1019 42 0 3.4 43 19:19 23.05.2020
2702 Rain 14 1019 42 0 3.4 43 18:57 23.05.2020
2703 Rain 14 1019 42 0 3.4 43 18:39 23.05.2020
2704 Clouds 14 1018 44 0 3.27 32 18:21 23.05.2020
2705 Clouds 14 1018 44 0 3.27 32 17:55 23.05.2020
2706 Clouds 14 1018 44 0 3.27 32 17:37 23.05.2020
2707 Clouds 14 1018 44 0 3.27 32 17:37 23.05.2020
2708 Rain 14 1017 47 0 4.07 24 17:19 23.05.2020
2709 Rain 14 1017 47 0 4.07 24 16:55 23.05.2020
2710 Rain 14 1017 47 0 4.07 24 16:37 23.05.2020
2711 Rain 14 1016 50 0 3.42 31 16:18 23.05.2020
2712 Rain 14 1016 50 0 3.42 31 15:42 23.05.2020
2713 Rain 15 1014 48 0 1.58 341 15:23 23.05.2020
2714 Rain 15 1014 48 0 1.58 341 14:55 23.05.2020
2715 Rain 15 1014 48 0 1.58 341 14:37 23.05.2020
2716 Rain 18 1013 43 0 1.15 353 14:19 23.05.2020
2717 Rain 18 1013 43 0 1.15 353 13:40 23.05.2020
2718 Rain 17 1013 44 0 3.58 18 13:19 23.05.2020
2719 Rain 17 1013 44 0 3.58 18 12:55 23.05.2020
2720 Rain 17 1013 44 0 3.58 18 12:36 23.05.2020
2721 Rain 18 1013 43 0 4.37 3 12:18 23.05.2020
2722 Rain 18 1013 43 0 4.37 3 11:42 23.05.2020
2723 Rain 18 1013 42 0 3.49 6 11:21 23.05.2020
2724 Rain 18 1013 42 0 3.49 6 10:57 23.05.2020
2725 Rain 18 1013 42 0 3.49 6 10:39 23.05.2020
2726 Rain 22 1013 33 0 2.66 219 10:20 23.05.2020
2727 Rain 22 1013 33 0 2.66 219 09:56 23.05.2020
2728 Rain 22 1013 33 0 2.66 219 09:38 23.05.2020
2729 Snow 24 1014 25 0 2.87 174 09:20 23.05.2020
2730 Snow 24 1014 25 0 2.87 174 08:42 23.05.2020
2731 Clear 23 1014 25 0 2.42 163 08:19 23.05.2020
2732 Clear 23 1014 25 0 2.42 163 07:47 23.05.2020
2733 Clear 23 1014 25 0 2.42 163 07:29 23.05.2020
2734 Clear 23 1015 25 0 1.88 164 06:55 23.05.2020
2735 Clear 23 1015 25 0 1.88 164 06:36 23.05.2020
2736 Clear 21 1016 25 0 1.35 57 04:56 23.05.2020
2737 Clear 18 1016 29 0 3.03 37 03:30 23.05.2020
2738 Clear 15 1017 34 0 4.26 35 02:58 23.05.2020
2739 Clear 13 1016 37 0 4.46 34 01:58 23.05.2020
2740 Clear 13 1016 37 0 4.51 35 01:23 23.05.2020
2741 Clear 13 1016 37 0 4.51 35 00:47 23.05.2020
2742 Clear 13 1015 37 0 4.44 34 00:25 23.05.2020
2743 Clear 13 1015 37 0 4.44 34 23:57 22.05.2020
2744 Clear 13 1015 37 0 4.44 34 23:39 22.05.2020
2745 Clear 13 1016 37 0 4.44 34 23:19 22.05.2020
2746 Clear 13 1016 37 0 4.44 34 22:44 22.05.2020
2747 Clear 14 1017 37 0 4.32 37 22:22 22.05.2020
2748 Clear 14 1017 37 0 4.32 37 21:57 22.05.2020
2749 Clear 14 1017 37 0 4.32 37 21:39 22.05.2020
2750 Clear 14 1016 37 0 4.34 39 21:20 22.05.2020
2751 Clear 14 1016 37 0 4.34 39 20:46 22.05.2020
2752 Clouds 14 1016 36 0 3.88 41 20:21 22.05.2020
2753 Clouds 14 1016 36 0 3.88 41 19:59 22.05.2020
2754 Clouds 14 1016 36 0 3.88 41 19:37 22.05.2020
2755 Clouds 14 1016 36 0 3.59 43 19:18 22.05.2020
2756 Clouds 14 1016 36 0 3.59 43 18:39 22.05.2020
2757 Clouds 15 1016 36 0 3.39 47 18:20 22.05.2020
2758 Clouds 15 1016 36 0 3.39 47 17:57 22.05.2020
2759 Clouds 15 1016 36 0 3.39 47 17:37 22.05.2020
2760 Clouds 15 1015 35 0 2.99 46 17:18 22.05.2020
2761 Clouds 15 1015 35 0 2.99 46 16:43 22.05.2020
2762 Clouds 16 1014 35 0 2.44 60 16:20 22.05.2020
2763 Clouds 16 1014 35 0 2.44 60 15:59 22.05.2020
2764 Clouds 16 1014 35 0 2.44 60 15:40 22.05.2020
2765 Clouds 16 1014 35 0 2.44 60 15:40 22.05.2020
2766 Clouds 18 1012 35 0 1.15 107 15:19 22.05.2020
2767 Clouds 18 1012 35 0 1.15 107 14:43 22.05.2020
2768 Clear 22 1011 30 0 1.56 147 14:24 22.05.2020
2769 Clear 22 1011 30 0 1.56 147 14:24 22.05.2020
2770 Clear 22 1011 30 0 1.56 147 13:46 22.05.2020
2771 Clear 23 1010 28 0 2.33 161 13:21 22.05.2020
2772 Clear 23 1010 28 0 2.33 161 12:54 22.05.2020
2773 Clear 23 1010 28 0 2.33 161 12:36 22.05.2020
2774 Clear 23 1010 26 0 2.47 163 12:18 22.05.2020
2775 Clear 23 1010 26 0 2.47 163 11:43 22.05.2020
2776 Clear 24 1010 26 0 2.6 166 11:20 22.05.2020
2777 Clear 24 1010 26 0 2.6 166 10:55 22.05.2020
2778 Clear 24 1010 26 0 2.6 166 10:55 22.05.2020
2779 Clear 24 1010 26 0 2.6 166 10:37 22.05.2020
2780 Clear 24 1011 27 0 2.74 163 10:18 22.05.2020
2781 Clear 24 1011 27 0 2.74 163 09:42 22.05.2020
2782 Clear 25 1011 21 0 3.06 175 09:19 22.05.2020
2783 Clear 25 1011 21 0 3.06 175 08:45 22.05.2020
2784 Clear 24 1011 22 0 2.97 178 08:22 22.05.2020
2785 Clear 24 1011 22 0 2.97 178 07:57 22.05.2020
2786 Clear 24 1011 22 0 2.97 178 07:39 22.05.2020
2787 Clear 24 1012 21 0 2.18 168 07:21 22.05.2020
2788 Clear 24 1012 21 0 2.18 168 06:40 22.05.2020
2789 Clear 23 1012 21 0 1.04 146 05:58 22.05.2020
2790 Clear 23 1012 21 0 1.04 146 05:34 22.05.2020
2791 Clear 21 1013 23 0 1.39 59 04:45 22.05.2020
2792 Clear 18 1013 27 0 2.98 37 03:49 22.05.2020
2793 Clear 15 1013 31 0 4.31 32 03:28 22.05.2020
2794 Clear 13 1012 32 0 4.77 33 01:57 22.05.2020
2795 Clear 13 1012 32 0 4.77 33 01:30 22.05.2020
2796 Clear 13 1012 32 0 4.68 31 00:50 22.05.2020
2797 Clear 13 1012 32 0 4.68 31 00:29 22.05.2020
2798 Clear 13 1012 32 0 4.84 32 23:55 21.05.2020
2799 Clear 13 1012 32 0 4.84 32 23:37 21.05.2020
2800 Clear 13 1012 32 0 4.92 30 23:19 21.05.2020
2801 Clear 13 1012 32 0 4.92 30 22:56 21.05.2020
2802 Clear 13 1012 32 0 4.92 30 22:36 21.05.2020
2803 Clear 13 1013 33 0 5.07 30 22:18 21.05.2020
2804 Clear 13 1013 33 0 5.07 30 21:43 21.05.2020
2805 Clear 13 1013 33 0 4.83 33 21:25 21.05.2020
2806 Clear 13 1012 33 0 4.89 32 20:54 21.05.2020
2807 Clear 13 1012 33 0 4.89 32 20:36 21.05.2020
2808 Clear 13 1013 34 0 4.82 33 20:18 21.05.2020
2809 Clear 13 1013 34 0 4.82 33 19:39 21.05.2020
2810 Clear 14 1013 34 0 4.71 35 19:19 21.05.2020
2811 Clear 14 1013 34 0 4.71 35 18:40 21.05.2020
2812 Clear 14 1013 33 0 4.42 35 18:20 21.05.2020
2813 Clear 14 1013 33 0 4.42 35 17:59 21.05.2020
2814 Clear 14 1013 33 0 4.42 35 17:59 21.05.2020
2815 Clear 14 1013 33 0 4.42 35 17:41 21.05.2020
2816 Clear 14 1012 33 0 3.82 42 17:22 21.05.2020
2817 Clear 14 1012 33 0 3.82 42 16:47 21.05.2020
2818 Clear 14 1011 35 0 2.2 55 16:25 21.05.2020
2819 Clear 14 1011 35 0 2.2 55 15:56 21.05.2020
2820 Clear 14 1011 35 0 2.2 55 15:38 21.05.2020
2821 Clear 18 1009 29 0 0.9 94 15:19 21.05.2020
2822 Clear 18 1009 29 0 0.9 94 14:40 21.05.2020
2823 Clear 22 1008 27 0 1.16 141 14:19 21.05.2020
2824 Clear 22 1008 27 0 1.16 141 13:42 21.05.2020
2825 Clear 23 1008 24 0 1.75 155 13:22 21.05.2020
2826 Clear 23 1008 24 0 1.75 155 12:58 21.05.2020
2827 Clear 23 1008 24 0 1.75 155 12:38 21.05.2020
2828 Clear 24 1008 23 0 2.02 163 12:19 21.05.2020
2829 Clear 24 1008 23 0 2.02 163 11:42 21.05.2020
2830 Clear 24 1009 23 0 2.07 162 11:24 21.05.2020
2831 Clear 24 1009 23 0 2.07 162 10:59 21.05.2020
2832 Clear 24 1009 23 0 2.07 162 10:39 21.05.2020
2833 Clear 24 1010 24 0 2.27 171 10:20 21.05.2020
2834 Clear 24 1010 24 0 2.27 171 09:55 21.05.2020
2835 Clear 24 1010 24 0 2.27 171 09:37 21.05.2020
2836 Clear 24 1009 20 0 2.63 175 09:19 21.05.2020
2837 Clear 24 1009 20 0 2.63 175 08:45 21.05.2020
2838 Clear 24 1010 20 0 2.26 175 08:26 21.05.2020
2839 Clear 24 1010 20 0 2.26 175 07:49 21.05.2020
2840 Clear 23 1011 20 0 1.73 170 07:27 21.05.2020
2841 Clear 23 1011 20 0 1.73 170 06:54 21.05.2020
2842 Clear 22 1012 21 0 0.86 126 06:23 21.05.2020
2843 Clear 22 1012 21 0 0.86 126 05:37 21.05.2020
2844 Clear 13 1013 30 0 4.86 33 03:22 21.05.2020
2845 Clear 13 1013 30 0 4.86 33 02:54 21.05.2020
2846 Clear 13 1013 31 0 4.68 33 02:30 21.05.2020
2847 Clear 12 1013 31 0 5.2 32 01:47 21.05.2020
2848 Clear 12 1013 31 0 5.41 31 01:23 21.05.2020
2849 Clear 12 1013 31 0 5.41 31 00:53 21.05.2020
2850 Clear 12 1013 32 0 5.65 31 00:25 21.05.2020
2851 Clear 12 1013 32 0 5.65 31 23:47 20.05.2020
2852 Clear 12 1014 33 0 5.84 30 23:21 20.05.2020
2853 Clear 12 1014 33 0 5.84 30 22:59 20.05.2020
2854 Clear 12 1014 33 0 5.84 30 22:41 20.05.2020
2855 Clear 12 1014 34 0 5.65 30 22:23 20.05.2020
2856 Clear 12 1014 34 0 5.65 30 21:42 20.05.2020
2857 Clear 12 1014 35 0 5.82 30 21:23 20.05.2020
2858 Clear 12 1014 35 0 5.82 30 20:57 20.05.2020
2859 Clear 12 1014 35 0 5.82 30 20:38 20.05.2020
2860 Clear 12 1014 36 0 5.86 29 20:20 20.05.2020
2861 Clear 12 1014 36 0 5.86 29 19:41 20.05.2020
2862 Clear 12 1015 36 0 5.68 29 19:23 20.05.2020
2863 Clear 12 1015 36 0 5.68 29 18:58 20.05.2020
2864 Clear 12 1015 36 0 5.68 29 18:38 20.05.2020
2865 Clear 13 1015 36 0 5.23 30 18:20 20.05.2020
2866 Clear 13 1015 36 0 5.23 30 17:39 20.05.2020
2867 Clear 13 1014 36 0 4.12 40 17:21 20.05.2020
2868 Clear 13 1014 36 0 4.12 40 16:43 20.05.2020
2869 Clear 13 1012 37 0 2.64 48 16:24 20.05.2020
2870 Clear 13 1012 37 0 2.64 48 15:59 20.05.2020
2871 Clear 13 1012 37 0 2.64 48 15:40 20.05.2020
2872 Clear 17 1011 31 0 1.08 75 15:22 20.05.2020
2873 Clear 17 1011 31 0 1.08 75 14:43 20.05.2020
2874 Clear 20 1009 26 0 1.08 136 14:21 20.05.2020
2875 Clear 20 1009 26 0 1.09 134 13:41 20.05.2020
2876 Clear 21 1009 24 0 1.64 153 13:20 20.05.2020
2877 Clear 21 1009 24 0 1.64 153 12:58 20.05.2020
2878 Clear 21 1009 24 0 1.64 153 12:39 20.05.2020
2879 Clear 22 1010 24 0 1.77 152 12:19 20.05.2020
2880 Clear 22 1010 24 0 1.77 152 11:36 20.05.2020
2881 Clear 22 1010 24 0 1.77 152 11:36 20.05.2020
2882 Clear 22 1010 24 0 1.86 158 11:18 20.05.2020
2883 Clear 22 1010 24 0 1.86 158 10:43 20.05.2020
2884 Clear 22 1011 24 0 1.88 166 10:21 20.05.2020
2885 Clear 22 1011 24 0 1.88 166 09:46 20.05.2020
2886 Clear 22 1011 24 0 1.88 166 09:46 20.05.2020
2887 Clear 22 1011 21 0 2.15 165 09:22 20.05.2020
2888 Clear 21 1011 25 0 1.75 168 09:22 20.05.2020
2889 Clear 22 1011 21 0 2.15 165 08:59 20.05.2020
2890 Clear 22 1011 21 0 2.15 165 08:41 20.05.2020
2891 Clear 21 1011 22 0 1.63 162 08:19 20.05.2020
2892 Clear 21 1011 22 0 1.63 162 07:49 20.05.2020
2893 Clear 21 1012 23 0 0.78 133 07:22 20.05.2020
2894 Clear 21 1012 23 0 0.78 133 06:45 20.05.2020
2895 Clear 19 1013 24 0 1.31 56 05:39 20.05.2020
2896 Clear 17 1014 27 0 2.56 35 04:37 20.05.2020
2897 Clear 14 1015 32 0 4.09 32 03:54 20.05.2020
2898 Clear 11 1015 38 0 5.14 32 02:34 20.05.2020
2899 Clear 9 1015 42 0 5.66 32 01:32 20.05.2020
2900 Clear 9 1015 43 0 5.53 31 00:46 20.05.2020
2901 Clear 9 1015 43 0 5.36 30 00:25 20.05.2020
2902 Clear 9 1015 43 0 5.36 30 23:47 19.05.2020
2903 Clear 9 1015 44 0 5.18 29 23:22 19.05.2020
2904 Clear 9 1015 44 0 5.18 29 22:58 19.05.2020
2905 Clear 9 1015 44 0 5.18 29 22:39 19.05.2020
2906 Clear 9 1016 44 0 5.12 31 22:20 19.05.2020
2907 Clear 9 1016 44 0 5.12 31 21:59 19.05.2020
2908 Clear 9 1016 44 0 5.12 31 21:40 19.05.2020
2909 Clear 9 1016 45 0 5 32 21:22 19.05.2020
2910 Clear 9 1016 44 0 5.19 31 20:59 19.05.2020
2911 Clear 9 1016 44 0 5.19 31 20:40 19.05.2020
2912 Clouds 9 1016 45 0 5.05 31 20:22 19.05.2020
2913 Clouds 9 1016 45 0 5.05 31 19:59 19.05.2020
2914 Clouds 9 1016 45 0 5.05 31 19:37 19.05.2020
2915 Clouds 10 1016 45 0 4.9 29 19:19 19.05.2020
2916 Clouds 10 1016 45 0 4.9 29 18:43 19.05.2020
2917 Clouds 10 1016 44 0 4.74 28 18:22 19.05.2020
2918 Clouds 10 1016 44 0 4.74 28 17:56 19.05.2020
2919 Clouds 10 1016 44 0 4.74 28 17:38 19.05.2020
2920 Clouds 11 1015 44 0 4.31 34 17:18 19.05.2020
2921 Clouds 11 1015 44 0 4.31 34 16:40 19.05.2020
2922 Clouds 11 1014 42 0 2.67 27 16:21 19.05.2020
2923 Clouds 11 1014 42 0 2.67 27 15:56 19.05.2020
2924 Clouds 11 1014 42 0 2.67 27 15:38 19.05.2020
2925 Clouds 14 1012 36 0 1.22 337 15:19 19.05.2020
2926 Clouds 14 1012 36 0 1.22 337 14:43 19.05.2020
2927 Clouds 17 1011 30 0 0.51 307 14:22 19.05.2020
2928 Clouds 17 1011 30 0 0.51 307 13:59 19.05.2020
2929 Clouds 17 1011 30 0 0.51 307 13:40 19.05.2020
2930 Snow 18 1011 29 0 1.43 279 13:22 19.05.2020
2931 Snow 18 1011 29 0 1.43 279 12:59 19.05.2020
2932 Snow 18 1011 29 0 1.43 279 12:59 19.05.2020
2933 Snow 18 1011 29 0 1.43 279 12:40 19.05.2020
2934 Clouds 19 1011 28 0 2.8 225 12:22 19.05.2020
2935 Clouds 19 1011 28 0 2.8 225 11:58 19.05.2020
2936 Clouds 19 1011 28 0 2.8 225 11:40 19.05.2020
2937 Clouds 19 1011 28 0 2.8 225 11:40 19.05.2020
2938 Snow 19 1012 26 0 2.84 179 11:21 19.05.2020
2939 Snow 19 1012 26 0 2.84 179 10:48 19.05.2020
2940 Snow 19 1012 26 0 2.84 179 10:29 19.05.2020
2941 Clouds 19 1012 26 0 2.88 169 09:59 19.05.2020
2942 Clouds 19 1012 26 0 2.88 169 09:41 19.05.2020
2943 Clear 20 1013 24 0 2.79 179 09:23 19.05.2020
2944 Clear 20 1013 24 0 2.79 179 08:44 19.05.2020
2945 Clear 19 1013 25 0 2.39 182 08:24 19.05.2020
2946 Clear 19 1013 25 0 2.39 182 07:45 19.05.2020
2947 Clear 18 1014 26 0 1.63 162 07:26 19.05.2020
2948 Clear 18 1014 26 0 1.63 162 06:54 19.05.2020
2949 Clear 17 1015 27 0 0.91 99 06:25 19.05.2020
2950 Clear 17 1015 27 0 0.91 99 05:42 19.05.2020
2951 Clear 17 1015 27 0 0.91 99 05:42 19.05.2020
2952 Clear 15 1015 30 0 2.01 54 04:56 19.05.2020
2953 Clear 15 1015 30 0 2.01 54 04:34 19.05.2020
2954 Clear 7 1015 47 0 5.16 35 01:51 19.05.2020
2955 Clear 8 1015 48 0 5.13 32 00:47 19.05.2020
2956 Clear 8 1015 48 0 5.16 31 00:25 19.05.2020
2957 Clear 8 1015 48 0 5.16 31 23:58 18.05.2020
2958 Clear 8 1015 48 0 5.16 31 23:40 18.05.2020
2959 Clear 8 1016 48 0 4.91 33 23:20 18.05.2020
2960 Clear 8 1016 48 0 4.91 33 22:41 18.05.2020
2961 Clear 9 1016 48 0 4.77 36 22:22 18.05.2020
2962 Clear 9 1016 48 0 4.77 36 21:58 18.05.2020
2963 Clear 9 1016 48 0 4.77 36 21:40 18.05.2020
2964 Clear 9 1016 47 0 4.43 39 21:20 18.05.2020
2965 Clear 9 1016 48 0 4.51 37 20:57 18.05.2020
2966 Clear 9 1016 48 0 4.51 37 20:37 18.05.2020
2967 Clouds 9 1015 47 0 4.36 37 20:18 18.05.2020
2968 Clouds 10 1015 46 0 4.52 32 19:41 18.05.2020
2969 Clouds 10 1015 46 0 3.98 39 19:19 18.05.2020
2970 Clouds 10 1015 46 0 4.11 35 18:55 18.05.2020
2971 Clouds 10 1015 46 0 3.98 39 18:36 18.05.2020
2972 Clouds 10 1015 46 0 3.98 38 18:18 18.05.2020
2973 Clouds 10 1015 46 0 3.98 38 17:37 18.05.2020
2974 Clouds 11 1015 45 0 3.21 41 17:18 18.05.2020
2975 Clouds 11 1014 44 0 4.01 36 17:18 18.05.2020
2976 Clouds 11 1015 45 0 3.21 41 17:18 18.05.2020
2977 Clouds 11 1015 45 0 3.21 41 16:55 18.05.2020
2978 Clouds 11 1015 45 0 3.21 41 16:36 18.05.2020
2979 Snow 11 1014 44 0 1.87 47 16:18 18.05.2020
2980 Snow 11 1014 44 0 1.87 47 15:42 18.05.2020
2981 Snow 14 1012 39 0 0.76 157 15:23 18.05.2020
2982 Snow 14 1012 39 0 0.76 157 14:59 18.05.2020
2983 Snow 14 1012 39 0 0.76 157 14:39 18.05.2020
2984 Rain 16 1011 35 0 0.92 48 14:21 18.05.2020
2985 Rain 16 1011 35 0 0.92 48 13:42 18.05.2020
2986 Rain 17 1010 34 0 1.42 26 13:22 18.05.2020
2987 Rain 17 1010 34 0 1.42 26 12:58 18.05.2020
2988 Rain 17 1010 34 0 1.42 26 12:40 18.05.2020
2989 Rain 16 1010 35 0 1.54 318 12:20 18.05.2020
2990 Rain 16 1010 35 0 1.54 318 11:59 18.05.2020
2991 Rain 16 1010 35 0 1.54 318 11:41 18.05.2020
2992 Rain 18 1011 32 0 2.79 238 11:22 18.05.2020
2993 Rain 18 1011 32 0 2.79 238 10:47 18.05.2020
2994 Rain 18 1012 30 0 2.71 211 10:25 18.05.2020
2995 Rain 18 1012 30 0 2.71 211 09:46 18.05.2020
2996 Snow 18 1013 32 0 2.7 192 09:28 18.05.2020
2997 Snow 19 1012 28 0 2.79 197 08:59 18.05.2020
2998 Snow 19 1012 28 0 2.79 197 08:40 18.05.2020
2999 Rain 19 1013 28 0 2.87 187 08:21 18.05.2020
3000 Rain 19 1013 28 0 2.87 187 07:45 18.05.2020
3001 Rain 18 1013 28 0 2.74 193 07:24 18.05.2020
3002 Rain 18 1013 28 0 2.74 193 06:48 18.05.2020
3003 Rain 18 1014 30 0 1.52 171 06:23 18.05.2020
3004 Rain 18 1014 30 0 1.52 171 05:44 18.05.2020
3005 Clear 14 1015 38 0 2.98 46 03:58 18.05.2020
3006 Clear 11 1016 44 0 3.79 38 03:28 18.05.2020
3007 Rain 10 1015 47 0 3.86 36 01:56 18.05.2020
3008 Rain 10 1014 46 0 3.58 36 00:50 18.05.2020
3009 Rain 10 1014 46 0 3.4 34 00:19 18.05.2020
3010 Rain 10 1014 46 0 3.4 34 23:56 17.05.2020
3011 Rain 10 1014 46 0 3.4 34 23:38 17.05.2020
3012 Rain 11 1015 45 0 3.05 35 23:19 17.05.2020
3013 Rain 11 1015 45 0 3.05 35 22:54 17.05.2020
3014 Rain 11 1015 45 0 3.05 35 22:36 17.05.2020
3015 Rain 12 1015 42 0 3.09 33 22:18 17.05.2020
3016 Rain 12 1015 42 0 3.09 33 21:41 17.05.2020
3017 Snow 11 1015 42 0 3.01 39 21:20 17.05.2020
3018 Snow 11 1015 42 0 3.01 39 20:57 17.05.2020
3019 Snow 11 1015 42 0 3.01 39 20:39 17.05.2020
3020 Rain 12 1015 42 0 3.48 38 20:19 17.05.2020
3021 Rain 12 1015 42 0 3.48 38 19:47 17.05.2020
3022 Rain 12 1015 42 0 3.78 37 19:28 17.05.2020
3023 Rain 12 1015 42 0 3.78 37 18:58 17.05.2020
3024 Rain 12 1015 42 0 3.78 37 18:38 17.05.2020
3025 Clouds 12 1015 42 0 3.73 45 18:20 17.05.2020
3026 Clouds 12 1015 42 0 3.73 45 17:41 17.05.2020
3027 Rain 13 1015 41 0 3.23 45 17:23 17.05.2020
3028 Rain 13 1015 41 0 3.23 45 16:59 17.05.2020
3029 Rain 13 1015 41 0 3.23 45 16:39 17.05.2020
3030 Rain 13 1014 44 0 1.66 77 16:20 17.05.2020
3031 Rain 13 1014 44 0 1.66 77 15:54 17.05.2020
3032 Rain 13 1014 44 0 1.66 77 15:36 17.05.2020
3033 Rain 15 1013 43 0 1.23 117 15:18 17.05.2020
3034 Rain 15 1013 43 0 1.23 117 14:42 17.05.2020
3035 Rain 18 1012 40 0 0.03 215 14:24 17.05.2020
3036 Rain 18 1011 39 0 0.87 138 13:43 17.05.2020
3037 Rain 19 1011 37 0 2.49 176 13:21 17.05.2020
3038 Clouds 20 1012 33 0 2.58 171 10:50 17.05.2020
3039 Clouds 15 1017 33 0 3.24 37 04:19 17.05.2020
3040 Clouds 11 1017 40 0 4.6 33 02:29 17.05.2020
3041 Clear 10 1016 43 0 4.85 32 01:55 17.05.2020
3042 Clear 10 1016 43 0 4.74 32 00:58 17.05.2020
3043 Clear 10 1016 43 0 4.74 32 00:39 17.05.2020
3044 Clear 10 1016 43 0 4.64 31 23:57 16.05.2020
3045 Clear 10 1016 43 0 4.64 31 23:39 16.05.2020
3046 Clear 10 1016 44 0 4.56 31 23:20 16.05.2020
3047 Clear 10 1016 44 0 4.56 31 22:58 16.05.2020
3048 Clear 10 1016 44 0 4.56 31 22:39 16.05.2020
3049 Clear 11 1017 44 0 4.42 32 22:19 16.05.2020
3050 Clear 11 1017 44 0 4.42 32 21:45 16.05.2020
3051 Clear 11 1017 44 0 4.4 30 21:25 16.05.2020
3052 Clear 11 1016 43 0 4.57 32 20:58 16.05.2020
3053 Clear 11 1016 43 0 4.57 32 20:39 16.05.2020
3054 Clouds 11 1017 43 0 4.5 32 20:20 16.05.2020
3055 Clouds 11 1017 43 0 4.5 32 19:57 16.05.2020
3056 Clouds 11 1017 43 0 4.5 32 19:39 16.05.2020
3057 Clouds 11 1017 44 0 4.15 32 19:21 16.05.2020
3058 Clouds 11 1017 44 0 4.15 32 18:42 16.05.2020
3059 Rain 12 1016 44 0 3.69 38 18:23 16.05.2020
3060 Rain 12 1016 44 0 3.69 38 17:56 16.05.2020
3061 Rain 12 1016 44 0 3.69 38 17:38 16.05.2020
3062 Clouds 12 1016 45 0 2.88 49 17:19 16.05.2020
3063 Clouds 12 1016 45 0 2.88 49 16:40 16.05.2020
3064 Clouds 13 1014 47 0 1.5 63 16:22 16.05.2020
3065 Clouds 13 1014 47 0 1.5 63 15:58 16.05.2020
3066 Clouds 13 1014 47 0 1.5 63 15:39 16.05.2020
3067 Rain 16 1013 47 0 0.9 125 15:19 16.05.2020
3068 Rain 16 1013 47 0 0.9 125 14:46 16.05.2020
3069 Rain 18 1012 41 0 1.69 165 14:20 16.05.2020
3070 Rain 18 1012 41 0 1.69 165 13:58 16.05.2020
3071 Rain 18 1012 41 0 1.69 165 13:40 16.05.2020
3072 Rain 20 1011 36 0 2.62 181 13:22 16.05.2020
3073 Rain 20 1011 36 0 2.62 181 12:45 16.05.2020
3074 Rain 20 1011 36 0 2.62 181 12:45 16.05.2020
3075 Rain 20 1011 33 0 2.89 189 12:23 16.05.2020
3076 Rain 20 1011 33 0 2.89 189 11:59 16.05.2020
3077 Rain 20 1011 33 0 2.89 189 11:39 16.05.2020
3078 Rain 21 1012 31 0 3 189 11:20 16.05.2020
3079 Rain 21 1012 31 0 3 189 10:56 16.05.2020
3080 Rain 21 1012 31 0 3 189 10:37 16.05.2020
3081 Snow 21 1013 31 0 3.08 188 10:18 16.05.2020
3082 Snow 21 1013 31 0 3.08 188 09:45 16.05.2020
3083 Clear 21 1014 31 0 2.92 183 09:27 16.05.2020
3084 Clear 21 1013 26 0 3.49 192 08:44 16.05.2020
3085 Clear 21 1014 26 0 3.05 188 08:22 16.05.2020
3086 Clear 21 1014 26 0 3.05 188 07:55 16.05.2020
3087 Clear 21 1014 26 0 3.05 188 07:37 16.05.2020
3088 Clear 20 1015 27 0 2.37 185 07:19 16.05.2020
3089 Clear 20 1015 27 0 2.37 185 06:44 16.05.2020
3090 Clear 19 1015 28 0 1.36 168 06:18 16.05.2020
3091 Clear 19 1015 28 0 1.36 168 05:40 16.05.2020
3092 Clear 18 1016 29 0 0.87 82 04:31 16.05.2020
3093 Clear 12 1017 40 0 3.68 36 03:25 16.05.2020
3094 Clear 12 1017 40 0 3.68 36 02:38 16.05.2020
3095 Clear 10 1016 43 0 4.11 33 01:56 16.05.2020
3096 Clear 10 1016 43 0 4.11 33 01:37 16.05.2020
3097 Clear 11 1016 43 0 4.09 33 00:56 16.05.2020
3098 Clear 11 1016 43 0 4.09 33 00:38 16.05.2020
3099 Clear 11 1015 43 0 4.16 33 00:18 16.05.2020
3100 Clear 11 1015 43 0 4.16 33 23:38 15.05.2020
3101 Clear 11 1016 43 0 4.27 30 23:18 15.05.2020
3102 Clear 11 1016 43 0 4.27 30 22:41 15.05.2020
3103 Clear 11 1016 43 0 4.17 30 22:20 15.05.2020
3104 Clear 11 1016 43 0 4.17 30 22:20 15.05.2020
3105 Clear 11 1016 43 0 4.17 30 21:56 15.05.2020
3106 Clear 11 1016 43 0 4.17 30 21:38 15.05.2020
3107 Clouds 12 1016 42 0 4.12 33 21:20 15.05.2020
3108 Clouds 12 1016 42 0 4.12 33 20:54 15.05.2020
3109 Clouds 12 1016 42 0 4.12 33 20:54 15.05.2020
3110 Clouds 12 1016 42 0 4.12 33 20:36 15.05.2020
3111 Clear 12 1016 42 0 4.03 32 20:18 15.05.2020
3112 Clear 12 1016 42 0 4.03 32 19:42 15.05.2020
3113 Clear 12 1016 42 0 3.59 33 19:23 15.05.2020
3114 Clear 12 1016 42 0 3.93 33 18:48 15.05.2020
3115 Clear 12 1016 42 0 3.79 36 18:28 15.05.2020
3116 Clear 12 1016 42 0 3.79 36 17:59 15.05.2020
3117 Clear 12 1016 42 0 3.79 36 17:37 15.05.2020
3118 Clear 12 1016 45 0 2.9 42 17:18 15.05.2020
3119 Clear 12 1016 45 0 2.9 42 16:55 15.05.2020
3120 Clear 12 1016 45 0 2.9 42 16:37 15.05.2020
3121 Rain 13 1015 48 0 1.63 50 16:18 15.05.2020
3122 Rain 13 1015 48 0 1.63 50 15:40 15.05.2020
3123 Rain 15 1014 49 0 0.34 131 15:20 15.05.2020
3124 Rain 15 1014 49 0 0.34 131 14:57 15.05.2020
3125 Rain 15 1014 49 0 0.34 131 14:38 15.05.2020
3126 Rain 18 1012 47 0 0.63 174 14:20 15.05.2020
3127 Rain 18 1012 47 0 0.63 174 13:42 15.05.2020
3128 Rain 18 1012 46 0 1.34 165 13:22 15.05.2020
3129 Rain 18 1012 46 0 1.34 165 12:56 15.05.2020
3130 Rain 18 1012 46 0 1.34 165 12:36 15.05.2020
3131 Rain 19 1013 42 0 2.05 171 12:18 15.05.2020
3132 Rain 19 1013 42 0 2.05 171 11:56 15.05.2020
3133 Rain 19 1013 42 0 2.05 171 11:37 15.05.2020
3134 Rain 20 1013 38 0 2.78 187 11:18 15.05.2020
3135 Rain 20 1013 38 0 2.78 187 10:54 15.05.2020
3136 Rain 20 1013 38 0 2.78 187 10:36 15.05.2020
3137 Rain 21 1014 34 0 2.72 183 10:18 15.05.2020
3138 Rain 21 1014 34 0 2.72 183 09:38 15.05.2020
3139 Clear 20 1015 35 0 0.65 292 09:19 15.05.2020
3140 Clear 20 1015 35 0 0.65 292 08:58 15.05.2020
3141 Clear 20 1015 35 0 0.65 292 08:37 15.05.2020
3142 Clouds 20 1016 36 0 0.67 278 08:18 15.05.2020
3143 Clouds 20 1016 36 0 0.67 278 07:44 15.05.2020
3144 Clouds 19 1016 38 0 0.5 297 07:24 15.05.2020
3145 Clouds 19 1016 38 0 0.5 297 06:54 15.05.2020
3146 Clouds 18 1017 42 0 1.18 7 05:49 15.05.2020
3147 Clouds 15 1018 41 0 3.01 35 04:28 15.05.2020
3148 Clouds 15 1018 41 0 3.01 35 03:48 15.05.2020
3149 Clouds 13 1018 45 0 3.31 34 02:35 15.05.2020
3150 Clouds 12 1018 45 0 2.43 23 01:24 15.05.2020
3151 Clouds 12 1018 45 0 2.43 23 00:56 15.05.2020
3152 Clouds 12 1018 45 0 2.43 23 00:37 15.05.2020
3153 Clouds 12 1018 45 0 2.93 33 00:19 15.05.2020
3154 Clouds 12 1018 45 0 2.93 33 23:40 14.05.2020
3155 Clouds 12 1018 44 0 3.12 40 23:18 14.05.2020
3156 Clouds 12 1018 44 0 3.12 40 22:41 14.05.2020
3157 Clouds 11 1018 44 0 2.62 39 22:20 14.05.2020
3158 Clouds 11 1018 44 0 2.62 39 21:58 14.05.2020
3159 Clouds 11 1018 44 0 2.62 39 21:39 14.05.2020
3160 Clouds 12 1018 44 0 1.91 45 21:19 14.05.2020
3161 Clouds 12 1018 44 0 1.91 45 20:55 14.05.2020
3162 Clouds 12 1018 44 0 1.91 45 20:37 14.05.2020
3163 Clouds 12 1018 44 0 1.91 45 20:37 14.05.2020
3164 Clouds 13 1018 45 0 2 32 20:18 14.05.2020
3165 Clouds 13 1018 45 0 2 32 19:55 14.05.2020
3166 Clouds 13 1018 45 0 2 32 19:36 14.05.2020
3167 Clouds 14 1018 47 0 2.82 43 19:18 14.05.2020
3168 Clouds 14 1018 47 0 2.82 43 18:54 14.05.2020
3169 Clouds 14 1018 47 0 2.82 43 18:36 14.05.2020
3170 Clouds 13 1018 51 0 2.53 26 18:18 14.05.2020
3171 Clouds 13 1018 51 0 2.53 26 17:55 14.05.2020
3172 Clouds 13 1018 51 0 2.53 26 17:36 14.05.2020
3173 Rain 13 1017 55 0 3.11 43 17:18 14.05.2020
3174 Rain 13 1017 55 0 3.11 43 16:39 14.05.2020
3175 Rain 13 1017 56 0 1.02 48 16:20 14.05.2020
3176 Rain 13 1017 56 0 1.02 48 15:57 14.05.2020
3177 Rain 13 1017 56 0 1.02 48 15:39 14.05.2020
3178 Rain 14 1016 55 0 0.84 56 15:19 14.05.2020
3179 Rain 14 1016 55 0 0.84 56 14:56 14.05.2020
3180 Rain 14 1016 55 0 0.84 56 14:37 14.05.2020
3181 Rain 13 1015 56 0 1.33 24 14:19 14.05.2020
3182 Rain 15 1014 50 0 1.39 13 13:55 14.05.2020
3183 Rain 15 1014 50 0 1.39 13 13:37 14.05.2020
3184 Rain 17 1014 44 0 1 278 13:18 14.05.2020
3185 Rain 17 1014 44 0 1 278 12:55 14.05.2020
3186 Rain 17 1014 44 0 1 278 12:36 14.05.2020
3187 Rain 18 1015 40 0 2.17 224 12:18 14.05.2020
3188 Rain 18 1015 40 0 2.17 224 11:42 14.05.2020
3189 Rain 18 1015 42 0 2.65 202 11:24 14.05.2020
3190 Rain 18 1015 42 0 2.65 202 10:58 14.05.2020
3191 Rain 18 1015 42 0 2.65 202 10:39 14.05.2020
3192 Rain 19 1015 44 0 3.96 195 10:21 14.05.2020
3193 Rain 19 1015 44 0 3.96 195 09:43 14.05.2020
3194 Rain 20 1015 37 0 4.01 199 09:23 14.05.2020
3195 Rain 20 1015 37 0 4.01 199 08:56 14.05.2020
3196 Rain 20 1015 37 0 4.01 199 08:36 14.05.2020
3197 Clouds 20 1016 34 0 2.83 185 08:18 14.05.2020
3198 Clouds 20 1016 34 0 2.83 185 07:43 14.05.2020
3199 Clouds 20 1016 33 0 2.35 182 07:20 14.05.2020
3200 Clouds 20 1016 33 0 2.35 182 06:43 14.05.2020
3201 Clouds 19 1017 33 0 2.06 190 06:23 14.05.2020
3202 Clouds 19 1017 33 0 2.06 190 05:37 14.05.2020
3203 Clouds 18 1017 31 0 0.57 94 04:43 14.05.2020
3204 Clouds 16 1017 34 0 2.21 38 03:32 14.05.2020
3205 Clouds 13 1017 39 0 3.47 37 02:57 14.05.2020
3206 Clouds 13 1017 39 0 3.47 37 02:34 14.05.2020
3207 Clouds 11 1017 41 0 3.95 34 01:47 14.05.2020
3208 Clear 11 1016 41 0 3.62 35 00:51 14.05.2020
3209 Clear 11 1016 41 0 3.46 39 00:27 14.05.2020
3210 Clear 11 1016 41 0 3.46 39 23:45 13.05.2020
3211 Clear 11 1016 42 0 3.32 42 23:23 13.05.2020
3212 Clear 11 1016 42 0 3.32 42 22:59 13.05.2020
3213 Clear 11 1016 42 0 3.32 42 22:40 13.05.2020
3214 Clear 11 1016 42 0 3.02 31 22:21 13.05.2020
3215 Clear 11 1016 42 0 3.02 31 21:57 13.05.2020
3216 Clear 11 1016 42 0 3.02 31 21:39 13.05.2020
3217 Clear 12 1017 42 0 3.5 34 21:19 13.05.2020
3218 Clear 12 1016 42 0 2.91 40 20:41 13.05.2020
3219 Clouds 12 1017 42 0 3.31 33 20:23 13.05.2020
3220 Clouds 12 1017 42 0 3.31 33 19:59 13.05.2020
3221 Clouds 12 1017 42 0 3.31 33 19:40 13.05.2020
3222 Clouds 12 1017 42 0 3.35 34 19:22 13.05.2020
3223 Clouds 12 1017 42 0 3.35 34 18:42 13.05.2020
3224 Clouds 13 1017 47 0 2.41 34 18:22 13.05.2020
3225 Clouds 13 1017 47 0 2.41 34 18:21 13.05.2020
3226 Clouds 13 1017 47 0 2.41 34 17:39 13.05.2020
3227 Clouds 13 1016 52 0 1.39 65 17:20 13.05.2020
3228 Clouds 13 1016 52 0 1.39 65 16:56 13.05.2020
3229 Clouds 13 1016 52 0 1.39 65 16:38 13.05.2020
3230 Rain 12 1016 55 0 0.77 75 16:19 13.05.2020
3231 Rain 12 1016 55 0 0.77 75 15:42 13.05.2020
3232 Rain 14 1014 57 0 1.09 179 15:20 13.05.2020
3233 Rain 14 1014 57 0 1.09 179 14:58 13.05.2020
3234 Rain 14 1014 57 0 1.09 179 14:40 13.05.2020
3235 Rain 17 1013 53 0 0.59 182 14:22 13.05.2020
3236 Rain 17 1013 53 0 0.59 182 13:58 13.05.2020
3237 Rain 17 1013 53 0 0.59 182 13:39 13.05.2020
3238 Rain 18 1013 51 0 1.72 181 13:20 13.05.2020
3239 Rain 18 1013 51 0 1.72 181 12:56 13.05.2020
3240 Rain 18 1013 51 0 1.72 181 12:37 13.05.2020
3241 Rain 18 1013 46 0 2.37 192 12:18 13.05.2020
3242 Rain 18 1013 46 0 2.37 192 11:54 13.05.2020
3243 Rain 18 1013 46 0 2.37 192 11:36 13.05.2020
3244 Rain 19 1014 40 0 2.56 193 11:18 13.05.2020
3245 Rain 19 1014 40 0 2.56 193 10:55 13.05.2020
3246 Rain 19 1014 40 0 2.56 193 10:37 13.05.2020
3247 Clouds 19 1014 39 0 2.64 183 10:18 13.05.2020
3248 Clouds 19 1014 39 0 2.64 183 09:41 13.05.2020
3249 Clouds 19 1015 38 0 2.35 181 09:22 13.05.2020
3250 Clouds 19 1015 33 0 1.88 176 08:54 13.05.2020
3251 Clouds 19 1015 33 0 1.88 176 08:36 13.05.2020
3252 Clouds 19 1015 33 0 1.36 168 08:18 13.05.2020
3253 Clouds 19 1015 33 0 1.36 168 07:42 13.05.2020
3254 Clouds 18 1016 33 0 1.93 188 07:24 13.05.2020
3255 Clouds 18 1016 33 0 1.93 188 06:47 13.05.2020
3256 Clouds 18 1016 31 0 1.83 212 06:27 13.05.2020
3257 Clouds 17 1016 32 0 0.62 89 04:50 13.05.2020
3258 Clouds 13 1017 39 0 3.02 39 03:27 13.05.2020
3259 Clouds 13 1017 39 0 2.74 37 02:32 13.05.2020
3260 Clouds 11 1016 41 0 3.48 30 01:36 13.05.2020
3261 Clouds 11 1016 42 0 3.82 33 00:50 13.05.2020
3262 Clouds 11 1016 42 0 3.97 34 00:20 13.05.2020
3263 Clouds 11 1016 42 0 3.97 34 23:40 12.05.2020
3264 Clouds 11 1017 42 0 3.82 30 23:21 12.05.2020
3265 Clouds 11 1017 42 0 3.82 30 22:58 12.05.2020
3266 Clouds 11 1017 42 0 3.82 30 22:40 12.05.2020
3267 Clouds 11 1018 43 0 4.08 29 22:21 12.05.2020
3268 Clouds 11 1018 43 0 4.08 29 21:56 12.05.2020
3269 Clouds 11 1018 43 0 4.08 29 21:37 12.05.2020
3270 Clouds 11 1019 43 0 3.99 32 21:19 12.05.2020
3271 Clouds 11 1018 43 0 3.75 31 20:57 12.05.2020
3272 Clouds 11 1018 43 0 3.75 31 20:38 12.05.2020
3273 Clouds 11 1019 43 0 3.81 28 20:20 12.05.2020
3274 Clouds 11 1019 43 0 3.81 28 19:56 12.05.2020
3275 Clouds 11 1019 43 0 3.81 28 19:37 12.05.2020
3276 Clouds 11 1018 42 0 4.78 27 19:19 12.05.2020
3277 Clouds 11 1018 42 0 4.78 27 18:43 12.05.2020
3278 Clouds 11 1018 43 0 4.45 27 18:24 12.05.2020
3279 Clouds 11 1018 43 0 4.45 27 17:58 12.05.2020
3280 Clouds 11 1018 43 0 4.45 27 17:39 12.05.2020
3281 Clouds 12 1018 43 0 4.18 32 17:21 12.05.2020
3282 Clouds 12 1018 43 0 4.18 32 16:43 12.05.2020
3283 Clouds 13 1017 44 0 2.51 32 16:23 12.05.2020
3284 Clouds 13 1017 44 0 2.51 32 15:56 12.05.2020
3285 Clouds 13 1017 44 0 2.51 32 15:37 12.05.2020
3286 Clouds 15 1016 46 0 0.44 34 15:18 12.05.2020
3287 Clouds 15 1016 46 0 0.44 34 15:18 12.05.2020
3288 Clouds 15 1016 46 0 0.44 34 14:55 12.05.2020
3289 Clouds 15 1016 46 0 0.44 34 14:36 12.05.2020
3290 Clouds 17 1015 44 0 0.2 276 14:18 12.05.2020
3291 Clouds 17 1015 44 0 0.2 276 13:56 12.05.2020
3292 Clouds 17 1015 44 0 0.2 276 13:37 12.05.2020
3293 Rain 17 1015 43 0 0.89 228 13:18 12.05.2020
3294 Rain 17 1015 43 0 0.89 228 12:57 12.05.2020
3295 Rain 17 1015 43 0 0.89 228 12:39 12.05.2020
3296 Rain 18 1015 38 0 0.93 217 12:21 12.05.2020
3297 Rain 18 1015 38 0 0.93 217 11:57 12.05.2020
3298 Rain 18 1015 38 0 0.93 217 11:38 12.05.2020
3299 Rain 18 1016 35 0 0.92 198 11:20 12.05.2020
3300 Rain 18 1016 35 0 0.92 198 10:56 12.05.2020
3301 Rain 18 1016 35 0 0.92 198 10:38 12.05.2020
3302 Rain 18 1017 35 0 1.18 184 10:18 12.05.2020
3303 Rain 18 1017 35 0 1.18 184 09:57 12.05.2020
3304 Rain 18 1017 35 0 1.18 184 09:38 12.05.2020
3305 Rain 18 1017 35 0 1.18 184 09:38 12.05.2020
3306 Clouds 20 1017 28 0 2 193 09:20 12.05.2020
3307 Clouds 20 1017 28 0 2 193 08:42 12.05.2020
3308 Clouds 19 1018 28 0 1.9 197 08:21 12.05.2020
3309 Clouds 19 1018 28 0 1.9 197 07:57 12.05.2020
3310 Clouds 19 1018 28 0 1.9 197 07:39 12.05.2020
3311 Clouds 19 1019 28 0 1.92 201 07:19 12.05.2020
3312 Clouds 19 1019 28 0 1.92 201 06:38 12.05.2020
3313 Clouds 18 1019 29 0 0.93 203 06:19 12.05.2020
3314 Clouds 18 1019 29 0 0.93 203 05:45 12.05.2020
3315 Clouds 14 1020 36 0 3.16 32 03:57 12.05.2020
3316 Clouds 11 1021 41 0 4.4 32 03:19 12.05.2020
3317 Clouds 10 1020 44 0 4.62 30 02:27 12.05.2020
3318 Clouds 10 1020 43 0 4.36 28 01:40 12.05.2020
3319 Clouds 10 1020 44 0 4.79 32 00:59 12.05.2020
3320 Clouds 10 1020 44 0 4.49 29 00:24 12.05.2020
3321 Clouds 10 1020 44 0 4.49 29 23:57 11.05.2020
3322 Clouds 10 1020 44 0 4.49 29 23:38 11.05.2020
3323 Clouds 10 1020 44 0 4.31 30 23:19 11.05.2020
3324 Clouds 10 1020 44 0 4.31 30 22:57 11.05.2020
3325 Clouds 10 1020 44 0 4.31 30 22:39 11.05.2020
3326 Clouds 10 1020 44 0 4.31 30 22:39 11.05.2020
3327 Clouds 10 1021 44 0 4.61 29 22:19 11.05.2020
3328 Clouds 10 1021 44 0 4.61 29 21:55 11.05.2020
3329 Clouds 10 1021 44 0 4.61 29 21:37 11.05.2020
3330 Clouds 10 1021 45 0 4.69 30 21:18 11.05.2020
3331 Clouds 10 1020 44 0 4.38 30 20:55 11.05.2020
3332 Clouds 10 1020 44 0 4.38 30 20:36 11.05.2020
3333 Clouds 10 1021 44 0 4.42 28 20:18 11.05.2020
3334 Clouds 10 1021 44 0 4.42 28 19:41 11.05.2020
3335 Clouds 10 1021 45 0 4.44 29 19:22 11.05.2020
3336 Clouds 10 1021 45 0 4.44 29 18:58 11.05.2020
3337 Clouds 10 1021 45 0 4.44 29 18:39 11.05.2020
3338 Clouds 11 1021 45 0 4.67 24 18:20 11.05.2020
3339 Clouds 11 1021 45 0 4.67 24 17:58 11.05.2020
3340 Clouds 11 1021 45 0 4.67 24 17:40 11.05.2020
3341 Clouds 11 1020 45 0 4.14 21 17:21 11.05.2020
3342 Clouds 11 1020 45 0 4.14 21 16:57 11.05.2020
3343 Clouds 11 1020 45 0 4.14 21 16:38 11.05.2020
3344 Rain 12 1018 53 0 3.86 19 16:19 11.05.2020
3345 Rain 12 1018 53 0 3.86 19 15:42 11.05.2020
3346 Rain 13 1017 56 0 1.3 22 15:21 11.05.2020
3347 Rain 13 1017 56 0 1.3 22 14:59 11.05.2020
3348 Rain 13 1017 56 0 1.3 22 14:41 11.05.2020
3349 Rain 13 1016 54 0 2.33 2 14:22 11.05.2020
3350 Rain 13 1016 54 0 2.33 2 13:55 11.05.2020
3351 Rain 13 1016 54 0 2.33 2 13:55 11.05.2020
3352 Rain 13 1016 54 0 2.33 2 13:37 11.05.2020
3353 Rain 15 1016 52 0 0.94 283 13:18 11.05.2020
3354 Rain 15 1016 52 0 0.94 283 12:55 11.05.2020
3355 Rain 15 1016 52 0 0.94 283 12:37 11.05.2020
3356 Rain 17 1017 44 0 2.11 221 12:19 11.05.2020
3357 Rain 17 1017 44 0 2.11 221 11:41 11.05.2020
3358 Rain 19 1017 38 0 2.18 200 11:22 11.05.2020
3359 Rain 19 1017 38 0 2.18 200 10:58 11.05.2020
3360 Rain 19 1017 38 0 2.18 200 10:40 11.05.2020
3361 Rain 19 1018 35 0 1.81 193 10:22 11.05.2020
3362 Rain 19 1018 35 0 1.81 193 09:59 11.05.2020
3363 Rain 19 1018 35 0 1.81 193 09:41 11.05.2020
3364 Clouds 20 1018 27 0 1.54 189 09:20 11.05.2020
3365 Clouds 20 1018 27 0 1.54 189 08:56 11.05.2020
3366 Clouds 20 1018 27 0 1.54 189 08:37 11.05.2020
3367 Clouds 19 1019 28 0 1.42 195 08:18 11.05.2020
3368 Clouds 19 1019 28 0 1.42 195 07:46 11.05.2020
3369 Clouds 19 1020 29 0 0.89 206 07:27 11.05.2020
3370 Clouds 19 1020 29 0 0.89 206 06:43 11.05.2020
3371 Clouds 18 1020 29 0 0.13 101 05:58 11.05.2020
3372 Clouds 16 1021 33 0 1.63 29 05:25 11.05.2020
3373 Clouds 16 1021 33 0 1.63 29 04:32 11.05.2020
3374 Clear 14 1021 37 0 3.27 31 03:32 11.05.2020
3375 Clear 11 1021 43 0 4.63 32 02:33 11.05.2020
3376 Clear 10 1021 45 0 4.71 31 01:43 11.05.2020
3377 Clear 10 1020 45 0 4.5 29 00:53 11.05.2020
3378 Clear 10 1021 45 0 4.38 28 00:20 11.05.2020
3379 Clear 10 1021 45 0 4.38 28 23:44 10.05.2020
3380 Clear 10 1021 45 0 4.32 26 23:26 10.05.2020
3381 Clear 10 1021 45 0 4.32 26 22:57 10.05.2020
3382 Clear 10 1021 45 0 4.32 26 22:38 10.05.2020
3383 Clear 10 1021 45 0 4.55 28 22:20 10.05.2020
3384 Clear 10 1021 45 0 4.55 28 21:44 10.05.2020
3385 Clear 11 1021 45 0 4.19 27 21:20 10.05.2020
3386 Clear 11 1021 44 0 4.23 27 20:56 10.05.2020
3387 Clear 11 1021 44 0 4.23 27 20:38 10.05.2020
3388 Clear 11 1021 44 0 4.14 31 20:19 10.05.2020
3389 Clear 11 1021 44 0 4.14 31 19:41 10.05.2020
3390 Clear 11 1021 44 0 4.04 31 19:23 10.05.2020
3391 Clear 11 1021 44 0 4.04 31 18:57 10.05.2020
3392 Clear 11 1021 44 0 4.04 31 18:38 10.05.2020
3393 Clear 11 1020 43 0 4.03 29 18:19 10.05.2020
3394 Clear 11 1020 43 0 4.03 29 17:59 10.05.2020
3395 Clear 11 1020 43 0 4.03 29 17:41 10.05.2020
3396 Clear 12 1019 43 0 3.55 32 17:22 10.05.2020
3397 Clear 12 1019 43 0 3.55 32 16:59 10.05.2020
3398 Clear 12 1019 43 0 3.55 32 16:40 10.05.2020
3399 Clear 12 1018 43 0 3 24 16:19 10.05.2020
3400 Clear 12 1018 43 0 3 24 16:19 10.05.2020
3401 Clear 12 1018 43 0 3 24 15:55 10.05.2020
3402 Clear 12 1018 43 0 3 24 15:36 10.05.2020
3403 Clear 14 1017 44 0 1.94 27 15:18 10.05.2020
3404 Clear 14 1017 44 0 1.94 27 14:39 10.05.2020
3405 Clouds 17 1017 41 0 2.11 17 14:20 10.05.2020
3406 Clouds 17 1017 41 0 2.11 17 13:59 10.05.2020
3407 Clouds 17 1017 41 0 2.11 17 13:39 10.05.2020
3408 Clouds 18 1016 40 0 2.28 26 13:21 10.05.2020
3409 Clouds 18 1016 40 0 2.28 26 12:59 10.05.2020
3410 Clouds 18 1016 40 0 2.28 26 12:41 10.05.2020
3411 Clouds 17 1017 42 0 1.99 6 12:21 10.05.2020
3412 Clouds 17 1017 42 0 1.99 6 11:58 10.05.2020
3413 Clouds 17 1017 42 0 1.99 6 11:39 10.05.2020
3414 Rain 17 1018 44 0 0.39 170 11:20 10.05.2020
3415 Rain 17 1018 44 0 0.39 170 10:48 10.05.2020
3416 Rain 17 1018 44 0 0.39 170 10:29 10.05.2020
3417 Rain 16 1019 46 0 2.34 193 09:59 10.05.2020
3418 Rain 16 1019 46 0 2.34 193 09:41 10.05.2020
3419 Snow 17 1019 44 0 2.88 223 09:22 10.05.2020
3420 Snow 20 1018 32 0 3.32 215 08:53 10.05.2020
3421 Snow 20 1019 28 0 2.33 194 08:24 10.05.2020
3422 Snow 20 1019 28 0 2.33 194 07:57 10.05.2020
3423 Snow 20 1019 28 0 2.33 194 07:38 10.05.2020
3424 Clouds 20 1019 27 0 1.41 209 07:19 10.05.2020
3425 Clouds 20 1019 27 0 1.41 209 06:50 10.05.2020
3426 Clear 19 1020 29 0 0.38 356 06:22 10.05.2020
3427 Clear 19 1020 29 0 0.38 356 05:44 10.05.2020
3428 Clear 17 1020 32 0 2.48 24 04:41 10.05.2020
3429 Clear 15 1020 35 0 4.12 30 04:22 10.05.2020
3430 Clear 15 1020 35 0 4.12 30 03:43 10.05.2020
3431 Clear 12 1021 40 0 4.83 31 02:54 10.05.2020
3432 Clouds 11 1020 42 0 4.97 29 02:24 10.05.2020
3433 Clear 11 1020 43 0 4.96 27 01:44 10.05.2020
3434 Clear 11 1020 43 0 5.06 27 01:25 10.05.2020
3435 Clear 11 1020 43 0 5.06 27 00:59 10.05.2020
3436 Clear 11 1020 43 0 5.06 27 00:39 10.05.2020
3437 Clear 11 1020 43 0 4.95 27 00:19 10.05.2020
3438 Clear 11 1020 43 0 4.95 27 23:40 09.05.2020
3439 Clear 11 1020 43 0 4.36 30 23:21 09.05.2020
3440 Clear 11 1020 43 0 4.36 30 22:57 09.05.2020
3441 Clear 11 1020 43 0 4.36 30 22:38 09.05.2020
3442 Clear 11 1020 43 0 4.35 29 22:20 09.05.2020
3443 Clear 11 1020 43 0 4.35 29 21:55 09.05.2020
3444 Clear 11 1020 43 0 4.35 29 21:37 09.05.2020
3445 Clear 11 1020 43 0 4.7 29 21:19 09.05.2020
3446 Clear 11 1020 43 0 4.86 27 20:55 09.05.2020
3447 Clear 11 1020 43 0 4.86 27 20:36 09.05.2020
3448 Clouds 11 1020 44 0 5.07 25 20:18 09.05.2020
3449 Clouds 11 1020 44 0 5.07 25 19:40 09.05.2020
3450 Clouds 11 1020 44 0 4.96 24 19:20 09.05.2020
3451 Clouds 11 1020 44 0 4.96 24 18:55 09.05.2020
3452 Clouds 11 1020 44 0 4.96 24 18:55 09.05.2020
3453 Clouds 11 1020 44 0 4.96 24 18:37 09.05.2020
3454 Clouds 12 1019 44 0 4.65 23 18:18 09.05.2020
3455 Clouds 12 1019 44 0 4.65 23 17:42 09.05.2020
3456 Clouds 12 1019 44 0 3.84 27 17:22 09.05.2020
3457 Clouds 12 1019 44 0 3.84 27 16:41 09.05.2020
3458 Clouds 12 1018 46 0 2.59 30 16:20 09.05.2020
3459 Clouds 12 1018 46 0 2.59 30 15:58 09.05.2020
3460 Clouds 12 1018 46 0 2.59 30 15:39 09.05.2020
3461 Clouds 14 1016 49 0 1.05 44 15:21 09.05.2020
3462 Clouds 14 1016 49 0 1.05 44 14:43 09.05.2020
3463 Rain 15 1015 52 0 1.28 61 14:20 09.05.2020
3464 Rain 15 1015 52 0 1.28 61 13:59 09.05.2020
3465 Rain 15 1015 52 0 1.28 61 13:41 09.05.2020
3466 Rain 15 1015 54 0 1 83 13:21 09.05.2020
3467 Rain 15 1015 54 0 1 83 12:57 09.05.2020
3468 Rain 15 1015 54 0 1 83 12:39 09.05.2020
3469 Rain 14 1015 55 0 0.46 71 12:21 09.05.2020
3470 Rain 14 1015 55 0 0.46 71 11:43 09.05.2020
3471 Rain 15 1016 50 0 1.2 322 11:20 09.05.2020
3472 Rain 15 1016 50 0 1.2 322 10:48 09.05.2020
3473 Rain 17 1017 43 0 1.63 261 10:27 09.05.2020
3474 Rain 17 1017 43 0 1.63 261 09:59 09.05.2020
3475 Rain 17 1017 43 0 1.63 261 09:40 09.05.2020
3476 Clouds 20 1017 32 0 2.72 216 09:19 09.05.2020
3477 Clouds 20 1017 32 0 2.72 216 08:52 09.05.2020
3478 Clouds 20 1017 32 0 2.72 216 08:33 09.05.2020
3479 Clouds 20 1017 30 0 1.59 220 07:55 09.05.2020
3480 Clouds 20 1017 30 0 1.59 220 07:37 09.05.2020
3481 Clouds 20 1018 30 0 0.31 288 07:19 09.05.2020
3482 Clouds 18 1018 31 0 1.13 359 06:26 09.05.2020
3483 Clouds 18 1018 31 0 1.13 359 05:50 09.05.2020
3484 Clouds 17 1019 30 0 1.91 41 04:58 09.05.2020
3485 Clouds 15 1019 35 0 3.24 28 03:39 09.05.2020
3486 Clouds 11 1019 41 0 4 32 02:53 09.05.2020
3487 Clouds 11 1019 41 0 4.41 30 02:29 09.05.2020
3488 Clear 10 1019 42 0 4.77 30 01:48 09.05.2020
3489 Clear 10 1019 42 0 4.69 29 01:20 09.05.2020
3490 Clear 10 1019 42 0 4.69 29 00:42 09.05.2020
3491 Clear 10 1019 42 0 4.55 29 00:18 09.05.2020
3492 Clear 10 1019 42 0 4.55 29 23:43 08.05.2020
3493 Clear 10 1019 42 0 4.49 27 23:25 08.05.2020
3494 Clear 10 1019 42 0 4.49 27 22:55 08.05.2020
3495 Clear 10 1019 42 0 4.49 27 22:37 08.05.2020
3496 Clear 10 1019 42 0 4.63 30 22:19 08.05.2020
3497 Clear 10 1019 42 0 4.63 30 21:54 08.05.2020
3498 Clear 10 1019 42 0 4.63 30 21:36 08.05.2020
3499 Clear 10 1020 42 0 4.96 30 21:18 08.05.2020
3500 Clear 10 1020 42 0 4.96 30 20:55 08.05.2020
3501 Clear 10 1020 42 0 4.96 30 20:36 08.05.2020
3502 Clear 10 1020 42 0 4.96 30 20:36 08.05.2020
3503 Clouds 11 1020 43 0 4.79 28 20:18 08.05.2020
3504 Clouds 11 1020 43 0 4.79 28 19:41 08.05.2020
3505 Clouds 11 1020 43 0 4.66 29 19:21 08.05.2020
3506 Clouds 11 1020 43 0 4.66 29 18:45 08.05.2020
3507 Clouds 11 1019 43 0 4.44 32 18:27 08.05.2020
3508 Clouds 11 1019 43 0 4.44 32 17:43 08.05.2020
3509 Clouds 11 1018 43 0 4.02 35 17:20 08.05.2020
3510 Clouds 11 1018 43 0 4.02 35 16:56 08.05.2020
3511 Clouds 11 1018 43 0 4.02 35 16:38 08.05.2020
3512 Clouds 12 1017 43 0 2.58 43 16:19 08.05.2020
3513 Clouds 12 1017 43 0 2.58 43 15:43 08.05.2020
3514 Clouds 14 1016 46 0 0.66 97 15:22 08.05.2020
3515 Clouds 14 1016 46 0 0.66 97 14:57 08.05.2020
3516 Clouds 14 1016 46 0 0.66 97 14:39 08.05.2020
3517 Rain 17 1015 41 0 1.47 187 14:19 08.05.2020
3518 Rain 17 1015 41 0 1.47 187 13:56 08.05.2020
3519 Rain 17 1015 41 0 1.47 187 13:38 08.05.2020
3520 Rain 18 1014 37 0 1.69 191 13:18 08.05.2020
3521 Rain 18 1014 37 0 1.69 191 12:44 08.05.2020
3522 Rain 19 1014 34 0 1.61 184 12:23 08.05.2020
3523 Rain 19 1014 34 0 1.61 184 11:55 08.05.2020
3524 Rain 19 1014 34 0 1.61 184 11:36 08.05.2020
3525 Clouds 19 1014 33 0 1.36 169 11:18 08.05.2020
3526 Clouds 19 1014 33 0 1.36 169 10:43 08.05.2020
3527 Clear 19 1015 34 0 1.49 179 10:21 08.05.2020
3528 Clear 19 1015 34 0 1.49 179 10:21 08.05.2020
3529 Clear 19 1015 34 0 1.49 179 09:59 08.05.2020
3530 Clear 19 1015 34 0 1.49 179 09:40 08.05.2020
3531 Clear 19 1016 30 0 1.89 189 09:18 08.05.2020
3532 Clear 19 1016 30 0 1.89 189 08:45 08.05.2020
3533 Clouds 19 1016 29 0 1.4 200 08:24 08.05.2020
3534 Clouds 19 1016 29 0 1.4 200 07:45 08.05.2020
3535 Clouds 18 1017 34 0 0.2 142 07:25 08.05.2020
3536 Clouds 18 1017 34 0 0.2 142 06:53 08.05.2020
3537 Clouds 17 1017 37 0 1.26 28 06:25 08.05.2020
3538 Clouds 17 1017 37 0 1.26 28 05:59 08.05.2020
3539 Clear 15 1018 35 0 2.9 26 04:56 08.05.2020
3540 Clear 8 1019 45 0 6.03 30 02:57 08.05.2020
3541 Clear 7 1019 47 0 6.19 28 02:22 08.05.2020
3542 Clear 7 1019 47 0 6.3 28 01:38 08.05.2020
3543 Clear 7 1019 48 0 6.26 29 01:19 08.05.2020
3544 Clear 7 1019 48 0 6.26 29 00:46 08.05.2020
3545 Clear 7 1019 49 0 6.08 28 00:24 08.05.2020
3546 Clear 7 1019 49 0 6.08 28 23:46 07.05.2020
3547 Clear 7 1019 50 0 5.84 28 23:24 07.05.2020
3548 Clear 7 1019 50 0 5.84 28 22:59 07.05.2020
3549 Clear 7 1019 50 0 5.84 28 22:41 07.05.2020
3550 Clear 7 1020 50 0 5.71 28 22:20 07.05.2020
3551 Clear 7 1020 50 0 5.71 28 21:57 07.05.2020
3552 Clear 7 1020 50 0 5.71 28 21:38 07.05.2020
3553 Clear 8 1020 50 0 5.74 27 21:19 07.05.2020
3554 Clear 8 1020 50 0 5.74 27 20:56 07.05.2020
3555 Clear 8 1020 50 0 5.74 27 20:37 07.05.2020
3556 Clear 8 1020 50 0 5.54 28 20:18 07.05.2020
3557 Clear 8 1020 50 0 5.54 28 19:45 07.05.2020
3558 Clear 8 1020 50 0 5.01 30 19:21 07.05.2020
3559 Clear 8 1020 50 0 5.01 30 18:55 07.05.2020
3560 Clear 8 1020 50 0 5.01 30 18:36 07.05.2020
3561 Clear 8 1020 50 0 5.01 30 18:36 07.05.2020
3562 Clear 8 1019 50 0 4.36 32 18:18 07.05.2020
3563 Clear 8 1019 50 0 4.36 32 17:41 07.05.2020
3564 Clear 9 1018 50 0 3.62 35 17:20 07.05.2020
3565 Clear 9 1018 50 0 3.62 35 16:42 07.05.2020
3566 Clear 10 1017 49 0 2.37 35 16:19 07.05.2020
3567 Clear 10 1017 49 0 2.37 35 15:57 07.05.2020
3568 Clear 10 1017 49 0 2.37 35 15:38 07.05.2020
3569 Clouds 12 1016 49 0 0.62 54 15:18 07.05.2020
3570 Clouds 12 1016 49 0 0.62 54 14:56 07.05.2020
3571 Clouds 12 1016 49 0 0.62 54 14:37 07.05.2020
3572 Rain 14 1015 50 0 0.81 182 14:18 07.05.2020
3573 Rain 14 1015 50 0 0.81 182 13:42 07.05.2020
3574 Rain 15 1014 48 0 1.07 187 13:22 07.05.2020
3575 Rain 15 1014 48 0 1.07 187 12:43 07.05.2020
3576 Rain 15 1014 48 0 0.99 186 12:20 07.05.2020
3577 Rain 15 1014 48 0 0.99 186 12:20 07.05.2020
3578 Rain 15 1014 48 0 0.99 186 11:54 07.05.2020
3579 Rain 15 1014 48 0 0.99 186 11:36 07.05.2020
3580 Rain 15 1015 48 0 1.14 185 11:18 07.05.2020
3581 Rain 15 1015 48 0 1.14 185 10:40 07.05.2020
3582 Rain 15 1016 47 0 1.35 194 10:21 07.05.2020
3583 Rain 15 1016 47 0 1.35 194 09:41 07.05.2020
3584 Snow 15 1016 45 0 1.27 205 09:20 07.05.2020
3585 Clouds 15 1017 46 0 1.26 206 08:56 07.05.2020
3586 Clouds 15 1017 46 0 1.26 206 08:38 07.05.2020
3587 Clouds 15 1017 46 0 1.54 209 08:19 07.05.2020
3588 Clouds 15 1017 46 0 1.54 209 07:43 07.05.2020
3589 Clouds 15 1017 46 0 1.54 209 07:43 07.05.2020
3590 Clouds 14 1017 46 0 1.26 229 07:25 07.05.2020
3591 Clouds 14 1017 46 0 1.26 229 06:48 07.05.2020
3592 Clouds 14 1018 44 0 0.72 275 06:23 07.05.2020
3593 Clouds 14 1018 44 0 0.72 275 05:30 07.05.2020
3594 Clouds 11 1019 45 0 2.35 28 03:55 07.05.2020
3595 Clouds 8 1019 53 0 3.03 30 03:25 07.05.2020
3596 Clouds 8 1019 53 0 3.03 30 02:53 07.05.2020
3597 Clouds 7 1018 55 0 2.98 36 01:45 07.05.2020
3598 Snow 9 1017 52 0 2.81 41 01:24 07.05.2020
3599 Snow 9 1017 52 0 2.81 41 00:46 07.05.2020
3600 Clouds 9 1017 51 0 2.7 26 00:27 07.05.2020
3601 Clouds 9 1017 51 0 2.7 26 23:48 06.05.2020
3602 Clouds 8 1017 53 0 3.35 18 23:26 06.05.2020
3603 Clouds 8 1017 53 0 3.35 18 22:58 06.05.2020
3604 Clouds 8 1017 53 0 3.35 18 22:40 06.05.2020
3605 Clouds 8 1018 52 0 3.77 26 22:20 06.05.2020
3606 Clouds 8 1018 52 0 3.77 26 21:58 06.05.2020
3607 Clouds 8 1018 52 0 3.77 26 21:40 06.05.2020
3608 Clouds 8 1018 52 0 3.77 26 21:40 06.05.2020
3609 Snow 9 1018 52 0 2.76 46 21:21 06.05.2020
3610 Snow 9 1018 52 0 2.76 46 21:21 06.05.2020
3611 Snow 9 1018 52 0 2.76 46 20:54 06.05.2020
3612 Snow 9 1018 52 0 2.76 46 20:36 06.05.2020
3613 Rain 9 1019 53 0 2.23 52 20:18 06.05.2020
3614 Rain 9 1019 53 0 2.23 52 19:55 06.05.2020
3615 Rain 9 1019 53 0 2.23 52 19:36 06.05.2020
3616 Rain 9 1019 53 0 2.69 40 19:18 06.05.2020
3617 Rain 9 1019 53 0 2.69 40 18:54 06.05.2020
3618 Rain 9 1019 53 0 2.69 40 18:36 06.05.2020
3619 Rain 9 1019 51 0 2.73 24 18:18 06.05.2020
3620 Rain 9 1019 51 0 2.73 24 17:54 06.05.2020
3621 Rain 9 1019 51 0 2.73 24 17:54 06.05.2020
3622 Rain 9 1019 51 0 2.73 24 17:36 06.05.2020
3623 Rain 10 1018 54 0 2.07 36 17:18 06.05.2020
3624 Rain 10 1018 54 0 2.07 36 16:54 06.05.2020
3625 Rain 10 1018 54 0 2.07 36 16:36 06.05.2020
3626 Rain 10 1018 56 0 1.58 62 16:18 06.05.2020
3627 Rain 10 1018 56 0 1.58 62 15:42 06.05.2020
3628 Rain 10 1016 58 0 0.35 245 15:22 06.05.2020
3629 Rain 10 1016 58 0 0.35 245 14:56 06.05.2020
3630 Rain 10 1016 58 0 0.35 245 14:38 06.05.2020
3631 Rain 11 1015 54 0 2.09 26 14:18 06.05.2020
3632 Rain 11 1015 55 0 2.74 20 13:56 06.05.2020
3633 Rain 11 1015 55 0 2.74 20 13:37 06.05.2020
3634 Rain 11 1014 57 0 1.08 82 13:18 06.05.2020
3635 Rain 11 1014 57 0 1.08 82 12:42 06.05.2020
3636 Rain 11 1014 56 0 0.91 64 12:24 06.05.2020
3637 Rain 11 1014 56 0 0.91 64 11:41 06.05.2020
3638 Rain 13 1015 48 0 0.85 73 11:22 06.05.2020
3639 Rain 13 1015 48 0 0.85 73 10:58 06.05.2020
3640 Rain 13 1015 48 0 0.85 73 10:39 06.05.2020
3641 Rain 15 1015 42 0 1.44 170 10:19 06.05.2020
3642 Rain 15 1015 42 0 1.44 170 09:56 06.05.2020
3643 Rain 15 1015 42 0 1.44 170 09:36 06.05.2020
3644 Snow 17 1016 31 0 3.61 207 09:18 06.05.2020
3645 Snow 17 1016 31 0 3.61 207 08:41 06.05.2020
3646 Rain 17 1017 30 0 3.22 204 08:20 06.05.2020
3647 Rain 17 1017 30 0 3.22 204 07:55 06.05.2020
3648 Rain 17 1017 30 0 3.22 204 07:36 06.05.2020
3649 Clear 17 1017 31 0 2.6 201 07:18 06.05.2020
3650 Clear 17 1017 31 0 2.6 201 07:18 06.05.2020
3651 Clear 17 1017 31 0 2.6 201 06:43 06.05.2020
3652 Clear 16 1018 33 0 1.25 199 06:19 06.05.2020
3653 Clear 16 1018 33 0 1.25 199 05:37 06.05.2020
3654 Clear 15 1018 35 0 0.68 42 04:49 06.05.2020
3655 Clear 12 1018 40 0 2.54 35 03:50 06.05.2020
3656 Clear 9 1019 48 0 3.61 33 03:24 06.05.2020
3657 Clear 9 1019 48 0 3.61 33 02:43 06.05.2020
3658 Clear 8 1018 50 0 3.83 31 02:20 06.05.2020
3659 Clear 8 1018 50 0 3.83 31 01:42 06.05.2020
3660 Clear 9 1018 50 0 3.78 28 01:20 06.05.2020
3661 Clear 9 1018 50 0 3.78 28 00:44 06.05.2020
3662 Clear 9 1018 49 0 3.88 29 00:19 06.05.2020
3663 Clear 9 1018 49 0 3.88 29 23:41 05.05.2020
3664 Clear 9 1017 49 0 3.93 27 23:19 05.05.2020
3665 Clear 9 1017 49 0 3.93 27 23:19 05.05.2020
3666 Clear 9 1017 49 0 3.93 27 22:54 05.05.2020
3667 Clear 9 1017 49 0 3.93 27 22:36 05.05.2020
3668 Clear 9 1018 49 0 3.92 27 22:18 05.05.2020
3669 Clear 9 1018 49 0 3.92 27 21:41 05.05.2020
3670 Clear 9 1018 49 0 3.73 29 21:21 05.05.2020
3671 Clear 10 1018 49 0 3.42 28 20:59 05.05.2020
3672 Clear 10 1018 49 0 3.42 28 20:40 05.05.2020
3673 Clouds 10 1018 48 0 2.99 27 20:19 05.05.2020
3674 Clouds 10 1018 48 0 2.99 27 19:59 05.05.2020
3675 Clouds 10 1018 48 0 2.99 27 19:38 05.05.2020
3676 Clouds 10 1018 47 0 2.52 27 19:20 05.05.2020
3677 Clouds 10 1018 47 0 2.52 27 18:56 05.05.2020
3678 Clouds 10 1018 47 0 2.52 27 18:38 05.05.2020
3679 Clouds 11 1018 47 0 2.26 35 18:19 05.05.2020
3680 Clouds 11 1018 47 0 2.26 35 17:44 05.05.2020
3681 Rain 11 1017 49 0 2.11 39 17:25 05.05.2020
3682 Rain 11 1017 49 0 2.11 39 16:59 05.05.2020
3683 Rain 11 1017 49 0 2.11 39 16:38 05.05.2020
3684 Rain 11 1016 50 0 1.12 53 16:19 05.05.2020
3685 Rain 11 1016 50 0 1.12 53 15:57 05.05.2020
3686 Rain 11 1016 50 0 1.12 53 15:38 05.05.2020
3687 Rain 13 1015 49 0 0.45 60 15:20 05.05.2020
3688 Rain 13 1015 49 0 0.45 60 14:54 05.05.2020
3689 Rain 13 1015 49 0 0.45 60 14:36 05.05.2020
3690 Rain 16 1014 45 0 1.45 187 14:18 05.05.2020
3691 Rain 16 1014 45 0 1.45 187 13:54 05.05.2020
3692 Rain 16 1014 45 0 1.45 187 13:36 05.05.2020
3693 Rain 16 1013 41 0 2.02 195 13:18 05.05.2020
3694 Rain 16 1013 25 0 2.02 195 12:41 05.05.2020
3695 Rain 17 1014 23 0 2.15 201 12:22 05.05.2020
3696 Rain 17 1014 23 0 2.15 201 11:59 05.05.2020
3697 Rain 17 1014 23 0 2.15 201 11:40 05.05.2020
3698 Rain 17 1014 24 0 2.14 200 11:19 05.05.2020
3699 Rain 17 1014 24 0 2.14 200 10:55 05.05.2020
3700 Rain 17 1014 24 0 2.14 200 10:36 05.05.2020
3701 Rain 17 1015 25 0 2.36 205 10:18 05.05.2020
3702 Rain 17 1015 25 0 2.36 205 09:44 05.05.2020
3703 Snow 17 1016 26 0 2.57 200 09:26 05.05.2020
3704 Snow 18 1015 23 0 3.26 203 08:58 05.05.2020
3705 Snow 18 1015 23 0 3.26 203 08:39 05.05.2020
3706 Clouds 17 1016 22 0 2.82 199 08:18 05.05.2020
3707 Clouds 17 1016 22 0 2.82 199 07:43 05.05.2020
3708 Clouds 17 1017 20 0 1.89 192 07:21 05.05.2020
3709 Clouds 17 1017 20 0 1.89 192 06:57 05.05.2020
3710 Clouds 17 1017 20 0 1.89 192 06:39 05.05.2020
3711 Clouds 16 1017 19 0 1.09 179 05:53 05.05.2020
3712 Clouds 15 1018 20 0 0.31 72 04:59 05.05.2020
3713 Clouds 10 1019 23 0 3.55 33 02:41 05.05.2020
3714 Clouds 10 1018 24 0 3.55 22 00:57 05.05.2020
3715 Clouds 10 1018 24 0 3.55 22 00:37 05.05.2020
3716 Clouds 10 1017 23 0 3.5 34 23:55 04.05.2020
3717 Clouds 10 1017 23 0 3.5 34 23:36 04.05.2020
3718 Clouds 10 1018 23 0 2.6 35 23:18 04.05.2020
3719 Clouds 10 1018 23 0 2.6 35 23:18 04.05.2020
3720 Clouds 10 1018 23 0 2.6 35 22:54 04.05.2020
3721 Clouds 10 1018 23 0 2.6 35 22:36 04.05.2020
3722 Clouds 10 1019 23 0 3.08 37 22:18 04.05.2020
3723 Clouds 10 1019 23 0 3.08 37 22:18 04.05.2020
3724 Clouds 10 1019 23 0 3.08 37 21:43 04.05.2020
3725 Clouds 10 1019 23 0 3.08 37 21:43 04.05.2020
3726 Clouds 11 1019 23 0 2.14 45 21:20 04.05.2020
3727 Clouds 11 1019 23 0 2.14 45 21:20 04.05.2020
3728 Clouds 11 1019 45 0 2.14 45 20:42 04.05.2020
3729 Clouds 11 1019 23 0 2.73 32 20:21 04.05.2020
3730 Clouds 11 1019 23 0 2.73 32 19:58 04.05.2020
3731 Clouds 11 1019 23 0 2.73 32 19:40 04.05.2020
3732 Clouds 11 1019 46 0 3.35 37 19:18 04.05.2020
3733 Clouds 11 1019 46 0 3.35 37 18:39 04.05.2020
3734 Clouds 10 1018 46 0 3.36 23 18:21 04.05.2020
3735 Clouds 10 1018 46 0 3.36 23 17:58 04.05.2020
3736 Clouds 10 1018 24 0 3.36 23 17:40 04.05.2020
3737 Clouds 11 1018 26 0 2.84 47 17:21 04.05.2020
3738 Clouds 11 1018 26 0 2.84 47 16:59 04.05.2020
3739 Clouds 11 1018 26 0 2.84 47 16:41 04.05.2020
3740 Clouds 11 1016 29 0 1.33 52 16:19 04.05.2020
3741 Clouds 11 1016 29 0 1.33 52 16:19 04.05.2020
3742 Clouds 11 1016 29 0 1.33 52 15:42 04.05.2020
3743 Clouds 13 1016 30 0 0.68 35 15:24 04.05.2020
3744 Clouds 13 1016 30 0 0.68 35 14:54 04.05.2020
3745 Clouds 13 1016 30 0 0.68 35 14:54 04.05.2020
3746 Clouds 13 1016 30 0 0.68 35 14:54 04.05.2020
3747 Snow 14 1016 30 0 0.06 321 14:30 04.05.2020
3748 Snow 14 1016 30 0 0.06 321 14:30 04.05.2020
3749 Snow 14 1016 30 0 0.06 321 14:30 04.05.2020
3750 Snow 14 1016 30 0 0.06 321 14:30 04.05.2020
3751 Snow 14 1016 30 0 0.06 321 14:30 04.05.2020
3752 Rain 16 1015 30 0 0.74 151 13:40 04.05.2020
3753 Rain 16 1015 30 0 0.74 151 13:40 04.05.2020
3754 Rain 16 1015 30 0 0.74 151 13:40 04.05.2020
3755 Rain 16 1015 30 0 0.74 151 13:40 04.05.2020
3756 Rain 16 1015 30 0 0.74 151 13:40 04.05.2020
3757 Rain 16 1015 28 0 1.31 195 12:44 04.05.2020
3758 Rain 16 1015 28 0 1.31 195 12:44 04.05.2020
3759 Rain 16 1015 28 0 1.31 195 12:44 04.05.2020
3760 Rain 16 1015 28 0 1.31 195 12:44 04.05.2020
3761 Rain 16 1015 28 0 1.31 195 12:44 04.05.2020
3762 Rain 17 1015 29 0 1.58 200 11:29 04.05.2020
3763 Rain 17 1015 29 0 1.58 200 11:29 04.05.2020
3764 Rain 17 1015 29 0 1.58 200 11:29 04.05.2020
3765 Rain 17 1015 29 0 1.58 200 11:29 04.05.2020
3766 Rain 17 1017 28 0 1.86 201 09:31 04.05.2020
3767 Rain 18 1017 23 0 2.58 199 07:58 04.05.2020
3768 Rain 18 1017 23 0 2.58 199 07:38 04.05.2020
3769 Clear 17 1018 22 0 0.58 251 06:28 04.05.2020
3770 Clear 17 1018 22 0 0.58 251 06:27 04.05.2020
3771 Clear 17 1018 22 0 0.58 251 06:27 04.05.2020
3772 Clear 17 1018 22 0 0.58 251 06:27 04.05.2020
3773 Clear 17 1018 22 0 0.58 251 06:26 04.05.2020
3774 Clear 16 1018 24 0 1.42 10 04:53 04.05.2020
3775 Clear 11 1019 23 0 3.63 31 03:18 04.05.2020
3776 Clear 11 1020 23 0 3.85 27 02:30 04.05.2020
3777 Clouds 10 1018 24 0 3.61 27 00:36 04.05.2020
3778 Clouds 10 1018 24 0 3.61 27 00:36 04.05.2020
3779 Clouds 10 1018 24 0 3.57 26 23:45 03.05.2020
3780 Clouds 11 1018 24 0 3.21 20 23:24 03.05.2020
3781 Clouds 11 1018 24 0 3.21 20 22:45 03.05.2020
3782 Clouds 11 1019 24 0 3.42 25 22:25 03.05.2020
3783 Clouds 11 1019 24 0 3.42 25 21:58 03.05.2020
3784 Clouds 11 1019 24 0 3.42 25 21:40 03.05.2020
3785 Clouds 11 1019 23 0 3.5 34 21:20 03.05.2020
3786 Clouds 11 1019 23 0 3.5 34 20:46 03.05.2020
3787 Clouds 11 1018 23 0 3.41 36 20:22 03.05.2020
3788 Clouds 11 1018 23 0 3.41 36 19:54 03.05.2020
3789 Clouds 11 1018 23 0 3.41 36 19:36 03.05.2020
3790 Clouds 11 1018 23 0 3.89 24 19:18 03.05.2020
3791 Clouds 11 1018 23 0 3.89 24 18:39 03.05.2020
3792 Clouds 11 1018 23 0 3.89 24 18:39 03.05.2020
3793 Clouds 11 1018 24 0 4.14 26 18:19 03.05.2020
3794 Clouds 11 1018 24 0 4.14 26 17:42 03.05.2020
3795 Clouds 12 1018 25 0 3.86 29 17:22 03.05.2020
3796 Clouds 12 1018 25 0 3.86 29 17:22 03.05.2020
3797 Clouds 12 1018 25 0 3.86 29 16:56 03.05.2020
3798 Clouds 12 1018 25 0 3.86 29 16:56 03.05.2020
3799 Clouds 12 1018 25 0 3.86 29 16:37 03.05.2020
3800 Clouds 12 1017 27 0 2.8 40 16:18 03.05.2020
3801 Clouds 12 1017 27 0 2.8 40 15:55 03.05.2020
3802 Clouds 12 1017 27 0 2.8 40 15:37 03.05.2020
3803 Rain 14 1016 30 0 1.55 53 15:18 03.05.2020
3804 Rain 14 1016 30 0 1.55 53 15:18 03.05.2020
3805 Rain 14 1016 30 0 1.55 53 14:41 03.05.2020
3806 Rain 14 1016 30 0 1.55 53 14:41 03.05.2020
3807 Rain 16 1014 32 0 0.76 16 14:22 03.05.2020
3808 Rain 16 1014 32 0 0.76 16 14:22 03.05.2020
3809 Rain 16 1014 32 0 0.76 16 14:22 03.05.2020
3810 Rain 16 1014 32 0 0.76 16 13:57 03.05.2020
3811 Rain 16 1014 32 0 0.76 16 13:33 03.05.2020
3812 Rain 16 1014 32 0 0.76 16 13:33 03.05.2020
3813 Rain 16 1014 32 0 0.76 16 13:33 03.05.2020
3814 Rain 17 1014 32 0 0.78 244 12:47 03.05.2020
3815 Rain 17 1014 31 0 0.74 222 12:25 03.05.2020
3816 Rain 17 1014 31 0 0.74 222 12:25 03.05.2020
3817 Rain 17 1014 31 0 0.74 222 12:25 03.05.2020
3818 Rain 17 1014 31 0 0.74 222 11:57 03.05.2020
3819 Rain 17 1014 31 0 0.74 222 11:39 03.05.2020
3820 Rain 17 1015 30 0 1.32 227 11:20 03.05.2020
3821 Rain 17 1015 30 0 1.32 227 10:52 03.05.2020
3822 Rain 17 1016 30 0 1.75 215 10:24 03.05.2020
3823 Rain 17 1016 30 0 1.75 215 09:39 03.05.2020
3824 Rain 18 1016 27 0 2.24 201 08:58 03.05.2020
3825 Rain 18 1016 27 0 2.24 201 08:35 03.05.2020
3826 Rain 18 1016 27 0 2.24 201 08:35 03.05.2020
3827 Rain 18 1016 27 0 2.49 210 07:42 03.05.2020
3828 Rain 18 1016 27 0 2.49 210 07:42 03.05.2020
3829 Rain 18 1016 27 0 2.49 210 07:42 03.05.2020
3830 Rain 18 1016 27 0 2.49 210 07:42 03.05.2020
3831 Rain 18 1016 27 0 2.49 210 07:42 03.05.2020
3832 Rain 18 1016 26 0 1.49 214 06:42 03.05.2020
3833 Rain 17 1017 27 0 0.26 230 05:54 03.05.2020
3834 Rain 17 1017 27 0 0.26 230 05:35 03.05.2020
3835 Clouds 14 1018 26 0 2.34 31 04:27 03.05.2020
3836 Clouds 14 1018 26 0 2.34 31 03:31 03.05.2020
3837 Clouds 12 1018 25 0 3.32 25 02:31 03.05.2020
3838 -273 0 0 0 0 0 01:59 03.05.2020
3839 Clouds 11 1017 25 0 3.44 29 01:39 03.05.2020
3840 Clouds 11 1017 26 0 3.08 25 01:20 03.05.2020
3841 Clouds 11 1017 26 0 3.08 25 00:38 03.05.2020
3842 Rain 12 1017 29 0 2.93 23 00:20 03.05.2020
3843 Rain 12 1017 29 0 2.93 23 23:46 02.05.2020
3844 Rain 12 1018 30 0 2.99 21 23:27 02.05.2020
3845 Rain 12 1018 30 0 2.99 21 22:56 02.05.2020
3846 Rain 12 1018 30 0 2.99 21 22:38 02.05.2020
3847 Rain 12 1018 31 0 1.79 57 22:19 02.05.2020
3848 Rain 12 1018 31 0 1.79 57 21:41 02.05.2020
3849 Rain 12 1018 28 0 0.68 41 21:20 02.05.2020
3850 Rain 12 1018 31 0 2.43 50 20:58 02.05.2020
3851 Rain 12 1018 31 0 2.43 50 20:58 02.05.2020
3852 Rain 12 1018 31 0 2.43 50 20:38 02.05.2020
3853 Rain 13 1018 29 0 2.73 40 20:20 02.05.2020
3854 Rain 13 1018 29 0 2.73 40 19:59 02.05.2020
3855 Rain 13 1018 29 0 2.73 40 19:39 02.05.2020
3856 Rain 13 1018 28 0 3.53 29 19:20 02.05.2020
3857 Rain 13 1018 28 0 3.53 29 18:56 02.05.2020
3858 Rain 13 1018 28 0 3.53 29 18:38 02.05.2020
3859 Rain 13 1018 29 0 3.23 8 18:19 02.05.2020
3860 Rain 13 1018 29 0 3.23 8 18:19 02.05.2020
3861 Rain 13 1018 29 0 3.23 8 18:19 02.05.2020
3862 Rain 13 1018 29 0 3.23 8 17:56 02.05.2020
3863 Rain 13 1018 29 0 3.23 8 17:38 02.05.2020
3864 Rain 13 1018 27 0 2.53 48 17:19 02.05.2020
3865 Rain 13 1018 27 0 2.53 48 16:46 02.05.2020
3866 Rain 13 1017 26 0 1.68 53 16:27 02.05.2020
3867 Rain 13 1017 26 0 1.68 53 15:56 02.05.2020
3868 Rain 13 1017 26 0 1.68 53 15:38 02.05.2020
3869 Clouds 15 1015 27 0 1.05 53 15:19 02.05.2020
3870 Clouds 15 1015 27 0 1.05 53 14:42 02.05.2020
3871 Rain 16 1013 30 0 1.86 35 14:24 02.05.2020
3872 Rain 16 1013 30 0 1.86 35 13:58 02.05.2020
3873 Rain 16 1013 30 0 1.86 35 13:39 02.05.2020
3874 Rain 16 1013 31 0 1.85 30 13:19 02.05.2020
3875 Rain 16 1013 31 0 1.85 30 12:41 02.05.2020
3876 Rain 16 1014 31 0 2.24 23 12:22 02.05.2020
3877 Rain 16 1014 31 0 2.24 23 11:57 02.05.2020
3878 Rain 16 1014 31 0 2.24 23 11:39 02.05.2020
3879 Rain 17 1014 30 0 2.3 348 11:20 02.05.2020
3880 Rain 17 1014 30 0 2.3 348 10:54 02.05.2020
3881 Rain 17 1014 30 0 2.3 348 10:36 02.05.2020
3882 Rain 18 1016 28 0 0.96 298 10:18 02.05.2020
3883 Rain 18 1016 28 0 0.96 298 10:18 02.05.2020
3884 Rain 18 1016 28 0 0.96 298 09:54 02.05.2020
3885 Rain 18 1016 28 0 0.96 298 09:36 02.05.2020
3886 Clouds 20 1016 20 0 0.77 202 09:18 02.05.2020
3887 Clouds 20 1016 20 0 0.77 202 08:41 02.05.2020
3888 Clouds 19 1017 20 0 0.34 188 08:22 02.05.2020
3889 Clouds 19 1017 20 0 0.34 188 07:46 02.05.2020
3890 Clouds 18 1018 20 0 0.45 248 07:27 02.05.2020
3891 Clouds 18 1018 20 0 0.45 248 07:27 02.05.2020
3892 Clouds 18 1018 20 0 0.45 248 06:47 02.05.2020
3893 Clouds 17 1019 23 0 0.43 19 05:28 02.05.2020
3894 Clouds 17 1019 23 0 0.43 19 04:37 02.05.2020
3895 Clouds 15 1019 23 0 1.95 37 03:59 02.05.2020
3896 Clouds 13 1019 21 0 3.58 33 02:43 02.05.2020
3897 Clouds 12 1018 21 0 3.73 30 01:59 02.05.2020
3898 Clouds 12 1018 21 0 3.73 30 01:33 02.05.2020
3899 Clouds 12 1017 21 0 3.9 34 00:45 02.05.2020
3900 Clouds 12 1017 20 0 3.82 30 00:24 02.05.2020
3901 Clouds 12 1017 20 0 3.82 30 23:57 01.05.2020
3902 Clouds 12 1017 20 0 3.82 30 23:37 01.05.2020
3903 Clouds 12 1018 20 0 4.06 30 23:19 01.05.2020
3904 Clouds 12 1018 20 0 4.06 30 22:40 01.05.2020
3905 Clouds 12 1018 20 0 4.41 29 22:21 01.05.2020
3906 Clouds 12 1018 20 0 4.41 29 21:59 01.05.2020
3907 Clouds 12 1018 20 0 4.41 29 21:41 01.05.2020
3908 Clouds 12 1017 20 0 4.07 27 21:21 01.05.2020
3909 Clouds 12 1017 20 0 4.07 27 20:58 01.05.2020
3910 Clouds 12 1017 20 0 4.07 27 20:40 01.05.2020
3911 Clouds 12 1017 20 0 4.15 31 20:20 01.05.2020
3912 Clouds 12 1017 20 0 4.15 31 20:20 01.05.2020
3913 Clouds 12 1017 20 0 4.15 31 20:20 01.05.2020
3914 Clouds 12 1017 20 0 4.15 31 19:59 01.05.2020
3915 Clouds 12 1017 20 0 4.15 31 19:41 01.05.2020
3916 Clouds 12 1017 20 0 4.13 24 19:21 01.05.2020
3917 Clouds 12 1017 20 0 4.13 24 19:21 01.05.2020
3918 Clouds 12 1017 20 0 4.13 24 18:56 01.05.2020
3919 Clouds 12 1017 20 0 4.13 24 18:38 01.05.2020
3920 Clouds 12 1017 21 0 4.2 30 18:19 01.05.2020
3921 Clouds 12 1017 21 0 4.2 30 17:41 01.05.2020
3922 Clouds 13 1017 23 0 3.73 29 17:22 01.05.2020
3923 Clouds 13 1017 23 0 3.73 29 16:58 01.05.2020
3924 Clouds 13 1017 23 0 3.73 29 16:40 01.05.2020
3925 Clouds 14 1016 27 0 2.42 27 16:20 01.05.2020
3926 Clouds 14 1016 27 0 2.42 27 16:20 01.05.2020
3927 Clouds 14 1016 27 0 2.42 27 15:57 01.05.2020
3928 Clouds 14 1016 27 0 2.42 27 15:39 01.05.2020
3929 Clouds 15 1014 29 0 0.64 56 15:20 01.05.2020
3930 Clouds 15 1014 29 0 0.64 56 14:44 01.05.2020
3931 Clouds 17 1013 29 0 0.49 202 14:25 01.05.2020
3932 Clouds 17 1013 29 0 0.49 202 13:57 01.05.2020
3933 Clouds 17 1013 29 0 0.49 202 13:38 01.05.2020
3934 Clouds 17 1013 29 0 0.49 202 13:38 01.05.2020
3935 Clouds 17 1013 29 0 0.49 202 13:38 01.05.2020
3936 Rain 19 1013 30 0 0.81 205 13:20 01.05.2020
3937 Rain 19 1013 30 0 0.81 205 12:55 01.05.2020
3938 Rain 19 1013 30 0 0.81 205 12:37 01.05.2020
3939 Rain 19 1014 27 0 1 194 12:18 01.05.2020
3940 Rain 19 1014 27 0 1 194 12:18 01.05.2020
3941 Rain 19 1014 27 0 1 194 11:42 01.05.2020
3942 Rain 19 1014 27 0 1 194 11:42 01.05.2020
3943 Clouds 19 1015 25 0 1.05 186 11:23 01.05.2020
3944 Clouds 19 1015 25 0 1.05 186 10:58 01.05.2020
3945 Clouds 19 1015 25 0 1.05 186 10:39 01.05.2020
3946 Clear 19 1016 26 0 1.07 165 10:20 01.05.2020
3947 Clear 19 1016 26 0 1.07 165 10:20 01.05.2020
3948 Clear 19 1016 26 0 1.07 165 09:44 01.05.2020
3949 Clear 19 1016 26 0 1.07 165 09:44 01.05.2020
3950 Clear 21 1016 18 0 1.93 192 09:20 01.05.2020
3951 Clear 21 1016 18 0 1.93 192 08:59 01.05.2020
3952 Clear 21 1016 18 0 1.93 192 08:41 01.05.2020
3953 Clear 20 1017 16 0 1.97 205 08:22 01.05.2020
3954 Clear 20 1017 16 0 1.97 205 07:46 01.05.2020
3955 Clear 20 1018 16 0 0.72 233 07:23 01.05.2020
3956 Clear 20 1018 16 0 0.72 233 06:50 01.05.2020
3957 Clear 18 1018 19 0 1.56 36 05:36 01.05.2020
3958 Clear 16 1019 19 0 2.8 20 04:47 01.05.2020
3959 Clear 10 1020 20 0 5.31 30 03:25 01.05.2020
3960 Clear 10 1020 20 0 5.31 30 02:45 01.05.2020
3961 Clouds 9 1019 21 0 5.15 30 02:24 01.05.2020
3962 Clear 9 1019 21 0 5.08 28 01:28 01.05.2020
3963 Clear 9 1019 21 0 5.08 28 00:59 01.05.2020
3964 Clear 9 1019 21 0 5.08 28 00:37 01.05.2020
3965 Clouds 10 1019 21 0 5.33 31 00:18 01.05.2020
3966 Clouds 10 1019 21 0 5.33 31 23:55 30.04.2020
3967 Clouds 10 1019 21 0 5.33 31 23:37 30.04.2020
3968 Clouds 10 1019 21 0 5.33 31 23:37 30.04.2020
3969 Clouds 10 1019 21 0 5 29 23:18 30.04.2020
3970 Clouds 10 1019 21 0 5 29 22:41 30.04.2020
3971 Clear 10 1020 22 0 4.43 32 22:20 30.04.2020
3972 Clear 10 1020 22 0 4.43 32 21:56 30.04.2020
3973 Clear 10 1019 21 0 4.7 31 21:38 30.04.2020
3974 Clear 10 1019 22 0 4.71 29 21:19 30.04.2020
3975 Clear 10 1019 22 0 4.71 29 20:54 30.04.2020
3976 Clear 10 1019 22 0 4.71 29 20:36 30.04.2020
3977 Clouds 10 1019 22 0 4.93 30 20:18 30.04.2020
3978 Clouds 10 1019 22 0 4.93 30 19:42 30.04.2020
3979 Clouds 10 1019 22 0 4.77 30 19:23 30.04.2020
3980 Clouds 10 1019 22 0 4.77 30 18:56 30.04.2020
3981 Clouds 10 1019 22 0 4.77 30 18:37 30.04.2020
3982 Clouds 11 1019 22 0 4.23 29 18:19 30.04.2020
3983 Clouds 11 1019 22 0 4.23 29 17:55 30.04.2020
3984 Clouds 11 1019 22 0 4.23 29 17:37 30.04.2020
3985 Clouds 11 1019 22 0 4.23 29 17:37 30.04.2020
3986 Clouds 11 1019 24 0 3.19 29 17:18 30.04.2020
3987 Clouds 11 1019 24 0 3.19 29 16:54 30.04.2020
3988 Clouds 11 1019 24 0 3.19 29 16:36 30.04.2020
3989 Clouds 12 1017 28 0 1.96 31 16:18 30.04.2020
3990 Clouds 12 1017 28 0 1.96 31 15:44 30.04.2020
3991 Clouds 14 1015 30 0 0.51 57 15:21 30.04.2020
3992 Clouds 14 1015 30 0 0.51 57 14:42 30.04.2020
3993 Rain 16 1014 32 0 0.19 80 14:22 30.04.2020
3994 -273 0 0 0 0 0 13:59 30.04.2020
3995 Rain 16 1014 32 0 0.13 217 13:41 30.04.2020
3996 Rain 17 1013 32 0 0.68 199 13:22 30.04.2020
3997 Rain 17 1013 32 0 0.68 199 12:59 30.04.2020
3998 Rain 17 1013 32 0 0.68 199 12:41 30.04.2020
3999 Rain 17 1014 32 0 0.27 196 12:19 30.04.2020
4000 Rain 17 1014 32 0 0.27 196 11:38 30.04.2020
4001 Rain 17 1015 32 0 0.37 163 11:19 30.04.2020
4002 Rain 17 1015 32 0 0.37 163 10:58 30.04.2020
4003 Rain 17 1015 32 0 0.37 163 10:39 30.04.2020
4004 Rain 18 1016 30 0 0.97 205 10:20 30.04.2020
4005 Rain 18 1016 30 0 0.97 205 09:56 30.04.2020
4006 Rain 18 1016 30 0 0.97 205 09:37 30.04.2020
4007 Rain 20 1016 21 0 2.56 204 09:18 30.04.2020
4008 Rain 20 1016 21 0 2.56 204 08:44 30.04.2020
4009 Rain 19 1017 20 0 1.74 203 08:24 30.04.2020
4010 Rain 19 1017 20 0 1.74 203 07:44 30.04.2020
4011 Rain 19 1017 20 0 1.74 203 07:44 30.04.2020
4012 Clouds 19 1017 20 0 1.64 207 07:25 30.04.2020
4013 Clouds 19 1017 20 0 1.64 207 06:53 30.04.2020
4014 Clouds 18 1018 20 0 1.45 200 06:19 30.04.2020
4015 Clouds 18 1018 20 0 1.45 200 05:45 30.04.2020
4016 Clouds 17 1018 20 0 0.64 39 04:39 30.04.2020
4017 Clouds 14 1019 22 0 2.59 26 04:19 30.04.2020
4018 Clouds 12 1019 21 0 4.14 29 02:48 30.04.2020
4019 Clouds 10 1018 22 0 4.26 29 02:26 30.04.2020
4020 Clouds 10 1018 22 0 4.26 29 01:37 30.04.2020
4021 Clouds 10 1018 22 0 4.37 30 00:42 30.04.2020
4022 Clouds 11 1019 22 0 3.88 30 00:20 30.04.2020
4023 Clouds 11 1019 22 0 3.88 30 23:58 29.04.2020
4024 Clouds 11 1019 22 0 3.88 30 23:39 29.04.2020
4025 Clouds 11 1019 22 0 3.47 30 23:21 29.04.2020
4026 Clouds 11 1019 22 0 3.47 30 22:54 29.04.2020
4027 Clouds 11 1019 22 0 3.47 30 22:36 29.04.2020
4028 Clouds 11 1019 22 0 3.54 27 22:18 29.04.2020
4029 Clouds 11 1019 21 0 3.15 32 21:37 29.04.2020
4030 Clouds 11 1019 21 0 3.73 25 21:19 29.04.2020
4031 Clouds 11 1019 21 0 3.73 25 20:57 29.04.2020
4032 Clouds 11 1019 21 0 3.73 25 20:38 29.04.2020
4033 Clouds 11 1018 21 0 4.11 32 20:18 29.04.2020
4034 Clouds 11 1018 21 0 4.11 32 19:43 29.04.2020
4035 Clear 11 1018 22 0 3.24 31 19:22 29.04.2020
4036 Clear 11 1018 22 0 3.24 31 18:57 29.04.2020
4037 Clear 11 1018 22 0 3.24 31 18:39 29.04.2020
4038 Clear 11 1018 23 0 3.25 27 18:19 29.04.2020
4039 Clear 11 1018 23 0 3.25 27 17:42 29.04.2020
4040 Clouds 12 1017 25 0 3.53 27 17:21 29.04.2020
4041 Clouds 12 1017 25 0 3.53 27 16:57 29.04.2020
4042 Clouds 12 1017 25 0 3.53 27 16:36 29.04.2020
4043 Clouds 13 1016 29 0 2.45 28 16:18 29.04.2020
4044 Clouds 13 1016 29 0 2.45 28 15:55 29.04.2020
4045 Clouds 13 1016 29 0 2.45 28 15:37 29.04.2020
4046 Rain 14 1015 31 0 0.73 27 15:18 29.04.2020
4047 Rain 14 1015 31 0 0.73 27 14:43 29.04.2020
4048 Rain 17 1014 31 0 0.49 178 14:25 29.04.2020
4049 Rain 17 1014 31 0 0.49 178 13:57 29.04.2020
4050 Rain 17 1014 31 0 0.49 178 13:38 29.04.2020
4051 Rain 18 1014 29 0 1.42 198 13:18 29.04.2020
4052 Rain 18 1014 29 0 1.42 198 12:55 29.04.2020
4053 Rain 18 1014 29 0 1.42 198 12:37 29.04.2020
4054 Rain 18 1014 27 0 1.87 200 12:18 29.04.2020
4055 Rain 18 1014 27 0 1.87 200 11:38 29.04.2020
4056 Rain 19 1015 25 0 1.67 197 11:20 29.04.2020
4057 Rain 19 1015 25 0 1.67 197 11:20 29.04.2020
4058 Rain 19 1015 25 0 1.67 197 11:20 29.04.2020
4059 Rain 19 1015 25 0 1.67 197 10:54 29.04.2020
4060 Rain 19 1015 25 0 1.67 197 10:36 29.04.2020
4061 Clouds 19 1015 24 0 1.1 196 10:18 29.04.2020
4062 Clouds 19 1015 24 0 1.1 196 09:41 29.04.2020
4063 Clear 20 1016 19 0 1.92 203 09:21 29.04.2020
4064 Clear 20 1016 19 0 1.92 203 08:44 29.04.2020
4065 Clear 19 1017 19 0 1.92 205 08:26 29.04.2020
4066 Clear 19 1017 19 0 1.92 205 07:55 29.04.2020
4067 Clear 19 1017 19 0 1.92 205 07:29 29.04.2020
4068 Clear 19 1017 19 0 2.1 211 06:53 29.04.2020
4069 Clear 19 1017 19 0 2.1 211 06:32 29.04.2020
4070 Clear 18 1017 19 0 1.01 196 05:53 29.04.2020
4071 Clear 17 1018 20 0 1.03 31 05:19 29.04.2020
4072 Clear 14 1018 20 0 3.06 27 04:20 29.04.2020
4073 Clear 14 1018 20 0 3.06 27 03:53 29.04.2020
4074 Clear 11 1018 21 0 4.32 32 02:30 29.04.2020
4075 Clouds 10 1018 22 0 4.29 31 01:37 29.04.2020
4076 Clouds 10 1017 22 0 4.21 29 01:19 29.04.2020
4077 Clouds 10 1017 22 0 4.21 29 00:38 29.04.2020
4078 Clouds 10 1017 22 0 4.37 30 00:18 29.04.2020
4079 Clouds 10 1017 22 0 4.37 30 23:45 28.04.2020
4080 Clouds 10 1018 22 0 4.56 28 23:21 28.04.2020
4081 Clouds 10 1018 22 0 4.56 28 22:40 28.04.2020
4082 Clouds 10 1019 22 0 4.67 26 22:22 28.04.2020
4083 Clouds 10 1019 22 0 4.67 26 21:59 28.04.2020
4084 Clouds 10 1018 22 0 4.54 28 21:40 28.04.2020
4085 Clouds 10 1019 22 0 4.34 27 21:22 28.04.2020
4086 Clouds 10 1019 22 0 4.34 27 20:59 28.04.2020
4087 Clouds 10 1019 22 0 4.34 27 20:40 28.04.2020
4088 Clouds 10 1019 22 0 4.19 26 20:20 28.04.2020
4089 Clouds 10 1019 22 0 4.19 26 19:57 28.04.2020
4090 Clouds 10 1019 22 0 4.19 26 19:39 28.04.2020
4091 Clouds 10 1019 22 0 4.25 27 19:20 28.04.2020
4092 Clouds 10 1019 22 0 4.25 27 18:57 28.04.2020
4093 Clouds 10 1019 22 0 4.25 27 18:38 28.04.2020
4094 Clouds 11 1019 24 0 4.02 25 18:18 28.04.2020
4095 Clouds 11 1019 24 0 4.02 25 17:38 28.04.2020
4096 Clouds 11 1018 26 0 3.13 27 17:19 28.04.2020
4097 Clouds 11 1018 26 0 3.13 27 17:19 28.04.2020
4098 Clouds 11 1018 26 0 3.13 27 16:58 28.04.2020
4099 Clouds 11 1018 26 0 3.13 27 16:40 28.04.2020
4100 Clouds 11 1018 26 0 3.13 27 16:40 28.04.2020
4101 Clouds 12 1018 30 0 1.72 21 16:22 28.04.2020
4102 Clouds 12 1018 30 0 1.72 21 15:56 28.04.2020
4103 Clouds 12 1018 30 0 1.72 21 15:38 28.04.2020
4104 Clouds 13 1017 32 0 0.22 87 15:20 28.04.2020
4105 Clouds 13 1017 32 0 0.22 87 14:56 28.04.2020
4106 Clouds 13 1017 32 0 0.22 87 14:38 28.04.2020
4107 Rain 15 1016 32 0 0.85 172 14:19 28.04.2020
4108 Rain 15 1016 31 0 1.01 174 13:56 28.04.2020
4109 Rain 15 1016 31 0 1.01 174 13:37 28.04.2020
4110 Rain 16 1016 29 0 1.47 178 13:19 28.04.2020
4111 Rain 16 1016 29 0 1.47 178 12:43 28.04.2020
4112 Rain 16 1016 29 0 1.47 178 12:43 28.04.2020
4113 Rain 16 1016 28 0 1.64 189 12:23 28.04.2020
4114 Rain 16 1016 28 0 1.64 189 11:43 28.04.2020
4115 Clouds 17 1017 27 0 1.85 188 11:23 28.04.2020
4116 Clouds 17 1017 27 0 1.85 188 10:58 28.04.2020
4117 Clouds 17 1017 27 0 1.85 188 10:38 28.04.2020
4118 Clouds 17 1017 27 0 1.85 188 10:38 28.04.2020
4119 Rain 17 1018 26 0 1.83 189 10:19 28.04.2020
4120 Rain 17 1018 26 0 1.83 189 10:19 28.04.2020
4121 Rain 17 1018 26 0 1.83 189 09:55 28.04.2020
4122 Rain 17 1018 26 0 1.83 189 09:36 28.04.2020
4123 Clouds 17 1019 24 0 2.16 194 09:18 28.04.2020
4124 Clouds 17 1019 24 0 2.16 194 08:40 28.04.2020
4125 Clear 17 1020 23 0 2.02 193 08:22 28.04.2020
4126 Clear 17 1020 23 0 2.02 193 07:44 28.04.2020
4127 Clear 17 1020 23 0 2.02 193 07:44 28.04.2020
4128 Clear 17 1020 23 0 2.3 196 07:19 28.04.2020
4129 Clear 17 1020 23 0 2.3 196 06:44 28.04.2020
4130 Clear 16 1021 21 0 1.91 211 05:57 28.04.2020
4131 Clear 16 1021 21 0 1.91 211 05:38 28.04.2020
4132 Clear 15 1021 23 0 0.55 15 04:39 28.04.2020
4133 Clear 9 1022 23 0 4.14 31 02:59 28.04.2020
4134 Clouds 8 1021 24 0 4.04 30 02:25 28.04.2020
4135 Clear 9 1021 24 0 3.51 29 01:23 28.04.2020
4136 Clear 9 1021 24 0 3.51 29 00:51 28.04.2020
4137 Clear 9 1020 24 0 3.59 30 00:20 28.04.2020
4138 Clear 9 1020 24 0 3.59 30 23:43 27.04.2020
4139 Clouds 9 1020 24 0 3.35 31 23:22 27.04.2020
4140 Clouds 9 1020 24 0 3.35 31 22:55 27.04.2020
4141 Clouds 9 1020 24 0 3.35 31 22:55 27.04.2020
4142 Clear 9 1020 24 0 3.52 28 22:37 27.04.2020
4143 Clear 9 1020 24 0 3.52 28 22:18 27.04.2020
4144 Clear 9 1020 24 0 3.52 28 21:55 27.04.2020
4145 Clear 9 1020 24 0 3.52 28 21:37 27.04.2020
4146 Clear 9 1021 24 0 3.65 31 21:18 27.04.2020
4147 Clear 9 1021 24 0 3.65 31 20:43 27.04.2020
4148 Clouds 9 1021 24 0 3.4 35 20:22 27.04.2020
4149 Clouds 9 1021 24 0 3.4 35 19:58 27.04.2020
4150 Clouds 9 1021 24 0 3.4 35 19:39 27.04.2020
4151 Clouds 10 1021 24 0 3.13 31 19:20 27.04.2020
4152 Clouds 10 1021 24 0 3.13 31 18:57 27.04.2020
4153 Clouds 10 1021 24 0 3.13 31 18:39 27.04.2020
4154 Clouds 10 1021 27 0 2.73 28 18:19 27.04.2020
4155 Clouds 10 1021 27 0 2.73 28 17:43 27.04.2020
4156 Clouds 11 1020 30 0 1.71 28 17:21 27.04.2020
4157 Clouds 11 1020 30 0 1.71 28 16:58 27.04.2020
4158 Clouds 11 1020 30 0 1.71 28 16:39 27.04.2020
4159 Clouds 11 1020 30 0 1.71 28 16:39 27.04.2020
4160 Clouds 12 1019 32 0 1.43 30 16:20 27.04.2020
4161 Clouds 12 1019 32 0 1.43 30 15:56 27.04.2020
4162 Clouds 12 1019 32 0 1.43 30 15:38 27.04.2020
4163 Clouds 12 1019 32 0 1.43 30 15:38 27.04.2020
4164 Rain 13 1017 31 0 0.54 169 15:18 27.04.2020
4165 Rain 13 1017 31 0 0.54 169 14:42 27.04.2020
4166 Rain 14 1017 29 0 0.47 212 14:23 27.04.2020
4167 Rain 14 1017 29 0 0.47 212 13:59 27.04.2020
4168 Rain 14 1017 29 0 0.47 212 13:41 27.04.2020
4169 Rain 14 1017 29 0 0.47 212 13:20 27.04.2020
4170 Rain 14 1017 29 0 0.47 212 12:56 27.04.2020
4171 Rain 14 1017 29 0 0.47 212 12:38 27.04.2020
4172 Rain 15 1017 30 0 2.12 228 12:18 27.04.2020
4173 Rain 15 1017 30 0 2.12 228 11:41 27.04.2020
4174 Rain 15 1017 30 0 2.12 228 11:19 27.04.2020
4175 Rain 15 1017 30 0 2.12 228 10:56 27.04.2020
4176 Rain 15 1017 30 0 2.12 228 10:38 27.04.2020
4177 Rain 15 1017 30 0 2.12 228 10:19 27.04.2020
4178 Rain 15 1017 30 0 2.12 228 09:43 27.04.2020
4179 Rain 16 1019 28 0 2.16 218 09:19 27.04.2020
4180 Rain 16 1019 28 0 2.16 218 08:56 27.04.2020
4181 Rain 16 1019 28 0 2.16 218 08:36 27.04.2020
4182 Rain 16 1019 28 0 2.16 218 08:18 27.04.2020
4183 Rain 16 1019 28 0 2.16 218 07:44 27.04.2020
4184 Rain 16 1019 28 0 2.16 218 07:19 27.04.2020
4185 Rain 16 1019 28 0 2.16 218 06:44 27.04.2020
4186 Clouds 14 1019 24 0 0.83 179 06:24 27.04.2020
4187 Clouds 14 1019 24 0 0.83 179 05:49 27.04.2020
4188 Clouds 14 1019 24 0 0.83 179 04:41 27.04.2020
4189 Clouds 14 1019 24 0 0.83 179 03:49 27.04.2020
4190 Rain 11 1018 25 0 1.3 42 02:42 27.04.2020
4191 Rain 11 1018 25 0 1.3 42 01:34 27.04.2020
4192 Rain 11 1018 25 0 1.3 42 00:56 27.04.2020
4193 Rain 10 1017 24 0 2.11 36 00:19 27.04.2020
4194 Rain 10 1017 24 0 2.11 36 23:56 26.04.2020
4195 Rain 10 1017 24 0 2.11 36 23:37 26.04.2020
4196 Rain 10 1017 24 0 2.11 36 23:19 26.04.2020
4197 Rain 10 1017 24 0 2.11 36 22:58 26.04.2020
4198 Rain 10 1017 24 0 2.11 36 22:58 26.04.2020
4199 Rain 10 1017 24 0 2.11 36 22:39 26.04.2020
4200 Rain 10 1017 24 0 2.11 36 22:19 26.04.2020
4201 Rain 10 1017 24 0 2.11 36 21:57 26.04.2020
4202 Rain 10 1017 24 0 2.11 36 21:37 26.04.2020
4203 Clouds 11 1018 24 0 2.37 49 21:18 26.04.2020
4204 Clouds 11 1018 24 0 2.37 49 20:42 26.04.2020
4205 Clouds 11 1018 24 0 2.37 49 20:23 26.04.2020
4206 Clouds 11 1018 24 0 2.37 49 19:59 26.04.2020
4207 Clouds 11 1018 24 0 2.37 49 19:38 26.04.2020
4208 Clouds 11 1018 24 0 2.37 49 19:20 26.04.2020
4209 Clouds 11 1018 24 0 2.37 49 18:57 26.04.2020
4210 Clouds 11 1018 24 0 2.37 49 18:39 26.04.2020
4211 Rain 11 1018 27 0 1.03 53 18:21 26.04.2020
4212 Rain 11 1018 27 0 1.03 53 17:42 26.04.2020
4213 Rain 11 1018 27 0 1.03 53 17:22 26.04.2020
4214 Rain 11 1018 27 0 1.03 53 16:55 26.04.2020
4215 Rain 11 1018 27 0 1.03 53 16:37 26.04.2020
4216 Rain 11 1018 27 0 1.03 53 16:18 26.04.2020
4217 Rain 11 1018 27 0 1.03 53 15:55 26.04.2020
4218 Rain 11 1018 27 0 1.03 53 15:36 26.04.2020
4219 Rain 15 1015 29 0 0.57 100 15:18 26.04.2020
4220 Rain 15 1015 29 0 0.57 100 14:40 26.04.2020
4221 Rain 15 1014 25 0 0.83 178 14:19 26.04.2020
4222 Rain 15 1014 25 0 0.83 178 13:58 26.04.2020
4223 Rain 15 1014 25 0 0.83 178 13:39 26.04.2020
4224 Rain 15 1014 25 0 0.83 178 13:21 26.04.2020
4225 Rain 15 1014 25 0 0.83 178 12:55 26.04.2020
4226 Rain 15 1014 25 0 0.83 178 12:37 26.04.2020
4227 Rain 16 1015 25 0 1.06 246 12:18 26.04.2020
4228 Rain 16 1015 25 0 1.06 246 11:44 26.04.2020
4229 Rain 16 1015 25 0 1.06 246 11:23 26.04.2020
4230 Rain 16 1015 25 0 1.06 246 10:59 26.04.2020
4231 Rain 16 1015 25 0 1.06 246 10:41 26.04.2020
4232 Rain 16 1015 25 0 1.06 246 10:23 26.04.2020
4233 Rain 16 1015 25 0 1.06 246 09:57 26.04.2020
4234 Rain 16 1015 25 0 1.53 266 09:37 26.04.2020
4235 Rain 17 1017 22 0 2.15 223 09:19 26.04.2020
4236 Rain 17 1017 22 0 2.15 223 08:41 26.04.2020
4237 Rain 17 1017 22 0 2.15 223 08:22 26.04.2020
4238 Rain 17 1017 22 0 2.15 223 07:48 26.04.2020
4239 Rain 17 1017 22 0 2.15 223 07:24 26.04.2020
4240 Rain 17 1017 22 0 2.15 223 06:50 26.04.2020
4241 Clouds 15 1017 18 0 0.45 208 06:25 26.04.2020
4242 Clouds 15 1017 18 0 0.45 208 05:51 26.04.2020
4243 Clouds 15 1017 18 0 0.45 208 05:32 26.04.2020
4244 Clouds 15 1017 18 0 0.45 208 04:39 26.04.2020
4245 Clouds 15 1017 18 0 0.45 208 03:40 26.04.2020
4246 Clouds 9 1017 22 0 2.23 35 02:38 26.04.2020
4247 Clouds 9 1017 22 0 2.23 36 02:19 26.04.2020
4248 Clouds 9 1017 22 0 2.23 36 01:37 26.04.2020
4249 Clouds 9 1017 22 0 2.23 36 00:41 26.04.2020
4250 Clouds 10 1017 22 0 2.2 31 00:21 26.04.2020
4251 Clouds 10 1017 22 0 2.2 31 23:57 25.04.2020
4252 Clouds 10 1017 22 0 2.2 31 23:37 25.04.2020
4253 Clouds 10 1017 22 0 2.2 31 23:18 25.04.2020
4254 Clouds 10 1017 22 0 2.2 31 22:42 25.04.2020
4255 Clouds 10 1017 22 0 2.2 31 22:21 25.04.2020
4256 Clouds 10 1017 22 0 2.2 31 21:59 25.04.2020
4257 Clouds 10 1017 22 0 2.2 31 21:39 25.04.2020
4258 Clouds 10 1017 23 0 2.37 38 21:19 25.04.2020
4259 Clouds 10 1017 23 0 2.37 38 21:19 25.04.2020
4260 Clouds 10 1017 23 0 2.37 38 20:55 25.04.2020
4261 Clouds 10 1017 23 0 2.37 38 20:36 25.04.2020
4262 Clouds 10 1017 23 0 2.37 38 20:18 25.04.2020
4263 Clouds 10 1017 23 0 2.37 38 19:40 25.04.2020
4264 Clouds 10 1017 23 0 2.37 38 19:22 25.04.2020
4265 Clouds 10 1017 23 0 2.37 38 18:57 25.04.2020
4266 Clouds 10 1017 23 0 2.37 38 18:38 25.04.2020
4267 Rain 11 1016 24 0 1.68 43 18:19 25.04.2020
4268 Rain 11 1016 24 0 1.68 43 17:55 25.04.2020
4269 Rain 11 1016 24 0 1.68 43 17:37 25.04.2020
4270 Rain 11 1016 24 0 1.68 43 17:18 25.04.2020
4271 Rain 11 1016 24 0 1.68 43 16:48 25.04.2020
4272 Rain 11 1016 24 0 1.68 43 16:28 25.04.2020
4273 Rain 11 1016 24 0 1.68 43 15:58 25.04.2020
4274 Rain 11 1016 24 0 1.68 43 15:39 25.04.2020
4275 Rain 14 1013 27 0 0.26 45 15:19 25.04.2020
4276 Rain 14 1013 27 0 0.26 45 14:57 25.04.2020
4277 Rain 15 1013 25 0 0.29 224 14:38 25.04.2020
4278 Rain 15 1013 25 0 0.29 224 14:19 25.04.2020
4279 Rain 15 1013 25 0 0.29 224 13:42 25.04.2020
4280 Rain 15 1013 25 0 0.29 224 13:19 25.04.2020
4281 Rain 15 1013 25 0 0.29 224 12:57 25.04.2020
4282 Rain 15 1013 25 0 0.29 224 12:39 25.04.2020
4283 Rain 18 1013 21 0 1.53 231 12:20 25.04.2020
4284 Rain 18 1013 21 0 1.53 231 11:55 25.04.2020
4285 Rain 18 1013 21 0 1.53 231 11:37 25.04.2020
4286 Rain 18 1013 21 0 1.53 231 11:19 25.04.2020
4287 Rain 18 1013 21 0 1.53 231 10:42 25.04.2020
4288 Rain 18 1013 21 0 1.53 231 10:22 25.04.2020
4289 Rain 18 1013 21 0 1.53 231 09:47 25.04.2020
4290 Clear 17 1015 18 0 2.22 215 09:27 25.04.2020
4291 Clear 17 1015 18 0 2.22 215 08:57 25.04.2020
4292 Clear 17 1015 18 0 2.22 215 08:38 25.04.2020
4293 Clear 17 1015 18 0 2.22 215 08:20 25.04.2020
4294 Clear 18 1015 17 0 2.36 216 07:47 25.04.2020
4295 Clear 17 1015 18 0 2.22 215 07:25 25.04.2020
4296 Clear 17 1015 18 0 2.22 215 06:45 25.04.2020
4297 Clear 15 1017 17 0 0.52 101 06:18 25.04.2020
4298 Clear 15 1017 17 0 0.6 86 05:39 25.04.2020
4299 Clear 15 1017 17 0 0.52 101 04:57 25.04.2020
4300 Clear 8 1017 23 0 2.6 42 02:59 25.04.2020
4301 Clouds 8 1017 23 0 2.58 42 02:20 25.04.2020
4302 Clouds 8 1017 23 0 2.58 42 01:52 25.04.2020
4303 Clouds 8 1017 23 0 2.58 42 01:27 25.04.2020
4304 Clouds 8 1017 23 0 2.58 42 00:55 25.04.2020
4305 Clouds 8 1017 23 0 2.58 42 00:32 25.04.2020
4306 Clouds 8 1017 23 0 2.44 35 23:44 24.04.2020
4307 Clouds 8 1017 23 0 2.44 35 23:24 24.04.2020
4308 Clouds 8 1017 23 0 2.44 35 22:59 24.04.2020
4309 Clouds 8 1017 23 0 2.44 35 22:39 24.04.2020
4310 Clouds 8 1017 23 0 2.44 35 22:19 24.04.2020
4311 Clouds 8 1017 23 0 2.44 35 22:19 24.04.2020
4312 Clouds 8 1017 23 0 2.44 35 21:55 24.04.2020
4313 Clouds 8 1016 23 0 2.48 37 21:37 24.04.2020
4314 Clouds 9 1017 23 0 2.38 40 21:19 24.04.2020
4315 Clouds 9 1017 23 0 2.38 40 20:55 24.04.2020
4316 Clouds 9 1017 23 0 2.38 40 20:37 24.04.2020
4317 Clouds 9 1017 23 0 2.38 40 20:18 24.04.2020
4318 Clouds 9 1017 23 0 2.38 40 19:40 24.04.2020
4319 Clouds 9 1017 23 0 2.38 40 19:21 24.04.2020
4320 Clouds 9 1017 23 0 2.38 40 18:45 24.04.2020
4321 Clouds 10 1016 23 0 2.19 41 18:26 24.04.2020
4322 Clouds 10 1016 23 0 2.19 41 17:57 24.04.2020
4323 Clouds 10 1016 23 0 2.19 41 17:37 24.04.2020
4324 Clouds 10 1016 23 0 2.19 41 17:19 24.04.2020
4325 Clouds 10 1016 23 0 2.19 41 16:58 24.04.2020
4326 Clouds 10 1016 23 0 2.19 41 16:40 24.04.2020
4327 Clouds 10 1016 23 0 2.19 41 16:21 24.04.2020
4328 Clouds 10 1016 23 0 2.19 41 15:42 24.04.2020
4329 Clouds 10 1016 23 0 2.19 41 15:42 24.04.2020
4330 Clouds 15 1012 22 0 1.14 253 15:21 24.04.2020
4331 Clouds 15 1012 22 0 1.14 253 14:57 24.04.2020
4332 Clouds 15 1012 22 0 1.14 253 14:38 24.04.2020
4333 Clouds 15 1012 22 0 1.13 249 14:19 24.04.2020
4334 Clouds 15 1012 22 0 1.13 249 14:19 24.04.2020
4335 Clouds 15 1012 22 0 1.13 249 13:41 24.04.2020
4336 Clouds 15 1012 22 0 1.13 249 13:41 24.04.2020
4337 Clouds 15 1012 22 0 1.13 249 13:22 24.04.2020
4338 Clouds 15 1012 22 0 1.13 249 12:59 24.04.2020
4339 Clouds 15 1012 22 0 1.13 249 12:40 24.04.2020
4340 Clouds 18 1013 18 0 2.16 232 12:20 24.04.2020
4341 Clouds 18 1013 18 0 2.16 232 11:55 24.04.2020
4342 Clouds 18 1013 18 0 2.16 232 11:36 24.04.2020
4343 Clouds 18 1013 18 0 2.16 232 11:18 24.04.2020
4344 Clouds 18 1013 18 0 2.16 232 10:38 24.04.2020
4345 Clouds 18 1013 18 0 2.16 232 10:20 24.04.2020
4346 Clouds 18 1013 18 0 2.16 232 09:58 24.04.2020
4347 Clouds 18 1013 18 0 2.16 232 09:39 24.04.2020
4348 Clear 17 1015 14 0 1.79 213 09:20 24.04.2020
4349 Clear 17 1015 14 0 1.79 213 08:43 24.04.2020
4350 Clear 17 1015 14 0 1.79 213 08:23 24.04.2020
4351 Clear 17 1015 14 0 1.79 213 07:59 24.04.2020
4352 Clear 17 1015 14 0 1.79 213 07:41 24.04.2020
4353 Clear 17 1015 14 0 1.79 213 07:22 24.04.2020
4354 Clear 17 1015 14 0 1.79 213 06:48 24.04.2020
4355 Clear 17 1015 14 0 1.79 213 06:30 24.04.2020
4356 Clear 14 1018 17 0 1.11 56 05:40 24.04.2020
4357 Clear 14 1018 17 0 1.11 56 03:41 24.04.2020
4358 Clear 7 1017 24 0 3.53 40 02:56 24.04.2020
4359 Clear 7 1018 24 0 3.49 40 02:37 24.04.2020
4360 Clear 7 1018 24 0 3.49 40 01:47 24.04.2020
4361 Clear 7 1018 24 0 3.49 40 00:58 24.04.2020
4362 Clear 7 1017 24 0 3.26 39 00:21 24.04.2020
4363 Clear 7 1017 24 0 3.26 39 23:54 23.04.2020
4364 Clear 7 1017 24 0 3.26 39 23:36 23.04.2020
4365 Clear 7 1017 24 0 3.26 39 23:18 23.04.2020
4366 Clear 7 1017 24 0 3.26 39 22:54 23.04.2020
4367 Clear 7 1017 24 0 3.26 39 22:36 23.04.2020
4368 Clear 7 1017 24 0 3.26 39 22:18 23.04.2020
4369 Clear 7 1017 24 0 3.26 39 21:54 23.04.2020
4370 Clear 7 1017 24 0 3.26 40 21:36 23.04.2020
4371 Clouds 8 1018 24 0 3.11 38 21:18 23.04.2020
4372 Clouds 8 1018 24 0 3.11 38 20:41 23.04.2020
4373 Clouds 8 1018 24 0 3.11 38 20:21 23.04.2020
4374 Clouds 8 1018 24 0 3.11 38 19:56 23.04.2020
4375 Clouds 8 1018 24 0 3.11 38 19:38 23.04.2020
4376 Clouds 8 1018 24 0 3.11 38 19:20 23.04.2020
4377 Clouds 8 1018 24 0 3.11 38 18:55 23.04.2020
4378 Clouds 8 1018 24 0 3.11 38 18:36 23.04.2020
4379 Clouds 9 1017 24 0 3.18 38 18:18 23.04.2020
4380 Clouds 9 1017 24 0 3.18 38 17:40 23.04.2020
4381 Clouds 9 1017 24 0 3.18 38 17:22 23.04.2020
4382 Clouds 9 1017 24 0 3.18 38 16:57 23.04.2020
4383 Clouds 9 1017 24 0 3.18 38 16:39 23.04.2020
4384 Clouds 9 1017 24 0 3.18 38 16:19 23.04.2020
4385 Clouds 9 1017 24 0 3.18 38 15:42 23.04.2020
4386 Rain 14 1013 23 0 1.08 261 15:23 23.04.2020
4387 Rain 14 1013 23 0 1.08 261 14:57 23.04.2020
4388 Rain 14 1013 23 0 1.08 261 14:38 23.04.2020
4389 Rain 13 1013 24 0 1.33 320 14:19 23.04.2020
4390 Rain 13 1013 24 0 1.33 320 13:56 23.04.2020
4391 Rain 13 1013 24 0 1.33 320 13:38 23.04.2020
4392 Rain 13 1013 24 0 1.33 320 13:19 23.04.2020
4393 Rain 13 1013 24 0 1.33 320 12:44 23.04.2020
4394 Rain 16 1014 20 0 2.35 236 12:25 23.04.2020
4395 Rain 16 1014 20 0 2.35 236 11:58 23.04.2020
4396 Rain 16 1014 20 0 2.35 236 11:40 23.04.2020
4397 Rain 16 1014 20 0 2.35 236 11:21 23.04.2020
4398 Rain 16 1014 20 0 2.35 236 10:41 23.04.2020
4399 Rain 16 1014 20 0 2.35 236 10:22 23.04.2020
4400 Rain 16 1014 20 0 2.35 236 09:55 23.04.2020
4401 Rain 16 1014 20 0 2.35 236 09:37 23.04.2020
4402 Rain 16 1016 18 0 2.32 215 09:18 23.04.2020
4403 Rain 16 1016 18 0 2.32 215 08:42 23.04.2020
4404 Rain 16 1016 18 0 2.32 215 08:23 23.04.2020
4405 Rain 16 1016 18 0 2.32 215 07:42 23.04.2020
4406 Rain 16 1016 18 0 2.32 215 07:23 23.04.2020
4407 Rain 16 1016 18 0 2.32 215 06:49 23.04.2020
4408 Clouds 13 1018 19 0 0.93 84 06:22 23.04.2020
4409 Clouds 13 1018 19 0 0.93 84 05:31 23.04.2020
4410 Clouds 13 1018 19 0 0.93 84 04:52 23.04.2020
4411 Clouds 6 1017 27 0 2.72 39 02:24 23.04.2020
4412 Clouds 6 1017 27 0 2.72 39 01:49 23.04.2020
4413 Clouds 6 1017 27 0 2.72 39 01:28 23.04.2020
4414 Clouds 6 1017 27 0 2.72 39 00:47 23.04.2020
4415 Clouds 6 1017 27 0 2.5 38 00:22 23.04.2020
4416 Clouds 6 1017 27 0 2.5 38 23:50 22.04.2020
4417 Clouds 6 1017 27 0 2.5 38 23:24 22.04.2020
4418 Clouds 6 1017 27 0 2.5 38 22:57 22.04.2020
4419 Clouds 6 1017 27 0 2.5 38 22:37 22.04.2020
4420 Clouds 6 1017 27 0 2.5 38 22:19 22.04.2020
4421 Clouds 6 1017 27 0 2.5 38 21:56 22.04.2020
4422 Clouds 6 1017 27 0 2.5 38 21:37 22.04.2020
4423 Clouds 8 1018 26 0 1.64 34 21:19 22.04.2020
4424 Clouds 8 1018 26 0 1.64 34 20:43 22.04.2020
4425 Clouds 8 1018 26 0 1.64 34 20:43 22.04.2020
4426 Clouds 8 1018 26 0 1.64 34 20:20 22.04.2020
4427 Clouds 8 1018 26 0 1.64 34 19:58 22.04.2020
4428 Clouds 8 1018 26 0 1.64 34 19:39 22.04.2020
4429 Clouds 8 1018 26 0 1.64 34 19:19 22.04.2020
4430 Clouds 8 1018 26 0 1.64 34 18:59 22.04.2020
4431 Clouds 8 1018 26 0 1.64 34 18:41 22.04.2020
4432 Rain 9 1017 28 0 1.05 29 18:22 22.04.2020
4433 Rain 9 1017 28 0 1.05 29 17:58 22.04.2020
4434 Rain 9 1017 28 0 1.05 29 17:39 22.04.2020
4435 Rain 9 1017 28 0 1.05 29 17:21 22.04.2020
4436 Rain 9 1017 28 0 1.05 29 16:46 22.04.2020
4437 Rain 9 1017 28 0 1.05 29 16:28 22.04.2020
4438 Rain 9 1017 28 0 1.05 29 15:54 22.04.2020
4439 Rain 9 1017 28 0 1.05 29 15:36 22.04.2020
4440 Rain 13 1013 27 0 1.49 242 15:18 22.04.2020
4441 Rain 13 1013 27 0 1.49 242 15:18 22.04.2020
4442 Rain 13 1013 27 0 1.49 242 14:41 22.04.2020
4443 Rain 13 1013 27 0 1.49 242 14:41 22.04.2020
4444 Rain 13 1013 27 0 1.26 243 14:21 22.04.2020
4445 Rain 13 1013 27 0 1.26 243 13:59 22.04.2020
4446 Rain 13 1013 27 0 1.26 243 13:40 22.04.2020
4447 Rain 13 1013 27 0 1.26 243 13:19 22.04.2020
4448 Rain 13 1013 27 0 1.26 243 12:42 22.04.2020
4449 Rain 16 1013 23 0 2.35 236 12:23 22.04.2020
4450 Rain 16 1013 23 0 2.35 236 11:57 22.04.2020
4451 Rain 16 1013 23 0 2.35 236 11:37 22.04.2020
4452 Rain 16 1013 23 0 2.35 236 11:18 22.04.2020
4453 Rain 16 1013 23 0 2.35 236 11:18 22.04.2020
4454 Rain 16 1013 23 0 2.35 236 10:41 22.04.2020
4455 Rain 16 1013 23 0 2.35 236 10:23 22.04.2020
4456 Rain 16 1013 23 0 2.35 236 09:43 22.04.2020
4457 Clear 15 1014 22 0 2.63 225 09:24 22.04.2020
4458 Clear 15 1014 22 0 2.63 225 08:59 22.04.2020
4459 Clear 15 1014 22 0 2.63 225 08:41 22.04.2020
4460 Clear 15 1014 22 0 2.63 225 08:41 22.04.2020
4461 Clear 15 1014 22 0 2.63 225 08:23 22.04.2020
4462 Clear 15 1014 22 0 2.63 225 07:54 22.04.2020
4463 Clear 15 1014 22 0 2.63 225 07:33 22.04.2020
4464 Clear 15 1014 22 0 2.63 225 06:59 22.04.2020
4465 Clear 15 1014 22 0 2.63 225 06:39 22.04.2020
4466 Clear 12 1016 19 0 0.34 64 05:39 22.04.2020
4467 Clear 12 1016 19 0 0.34 64 04:42 22.04.2020
4468 Clear 5 1016 27 0 2.66 36 02:59 22.04.2020
4469 Clear 5 1016 27 0 2.58 38 02:18 22.04.2020
4470 Clear 5 1016 27 0 2.58 38 01:38 22.04.2020
4471 Clear 5 1016 27 0 2.58 38 01:19 22.04.2020
4472 Clear 5 1016 27 0 2.58 38 00:41 22.04.2020
4473 Clear 5 1017 28 0 2.51 36 00:20 22.04.2020
4474 Clear 5 1017 28 0 2.51 36 23:44 21.04.2020
4475 Clear 5 1017 28 0 2.51 36 23:22 21.04.2020
4476 Clear 5 1017 28 0 2.51 36 22:58 21.04.2020
4477 Clear 5 1017 28 0 2.51 36 22:39 21.04.2020
4478 Clear 5 1017 28 0 2.51 36 22:19 21.04.2020
4479 Clear 5 1017 28 0 2.51 36 21:43 21.04.2020
4480 Clouds 6 1018 27 0 2.46 38 21:24 21.04.2020
4481 Clouds 6 1018 27 0 2.41 39 20:59 21.04.2020
4482 Clouds 6 1018 27 0 2.46 38 20:40 21.04.2020
4483 Clouds 6 1018 27 0 2.41 39 20:22 21.04.2020
4484 Clouds 6 1018 27 0 2.41 39 19:57 21.04.2020
4485 Clouds 6 1018 27 0 2.46 38 19:37 21.04.2020
4486 Clouds 6 1018 27 0 2.41 39 19:18 21.04.2020
4487 Clouds 6 1018 27 0 2.41 39 18:54 21.04.2020
4488 Clouds 6 1018 27 0 2.46 38 18:36 21.04.2020
4489 Rain 8 1018 27 0 1.64 57 18:18 21.04.2020
4490 Rain 8 1018 27 0 1.64 57 17:39 21.04.2020
4491 Rain 8 1018 27 0 1.64 57 17:20 21.04.2020
4492 Rain 7 1018 26 0 1.96 45 16:56 21.04.2020
4493 Rain 7 1018 26 0 1.96 45 16:36 21.04.2020
4494 Rain 7 1018 26 0 1.96 45 16:18 21.04.2020
4495 Rain 7 1018 26 0 1.96 45 15:55 21.04.2020
4496 Rain 8 1018 27 0 1.64 57 15:36 21.04.2020
4497 Rain 13 1014 27 0 1.38 232 15:18 21.04.2020
4498 Rain 12 1014 29 0 1.29 239 14:44 21.04.2020
4499 Rain 13 1014 27 0 1.38 232 14:23 21.04.2020
4500 Rain 13 1014 27 0 1.38 232 13:55 21.04.2020
4501 Rain 13 1014 27 0 1.38 232 13:37 21.04.2020
4502 Rain 13 1014 27 0 1.38 232 13:18 21.04.2020
4503 Rain 13 1014 27 0 1.38 232 12:38 21.04.2020
4504 Rain 14 1015 25 0 2.53 230 12:19 21.04.2020
4505 Rain 14 1015 25 0 2.53 230 11:57 21.04.2020
4506 Rain 14 1015 25 0 2.53 230 11:38 21.04.2020
4507 Rain 14 1015 25 0 2.53 230 11:19 21.04.2020
4508 Rain 14 1015 25 0 2.53 230 10:59 21.04.2020
4509 Rain 14 1015 25 0 2.53 230 10:39 21.04.2020
4510 Rain 14 1015 25 0 2.53 230 10:21 21.04.2020
4511 Rain 14 1015 25 0 2.53 230 09:57 21.04.2020
4512 Rain 14 1015 25 0 2.53 230 09:36 21.04.2020
4513 Rain 14 1017 22 0 2.24 219 09:18 21.04.2020
4514 Rain 14 1017 22 0 2.24 219 08:43 21.04.2020
4515 Rain 14 1017 22 0 2.24 219 08:25 21.04.2020
4516 Rain 14 1017 22 0 2.24 219 07:52 21.04.2020
4517 Rain 14 1017 22 0 2.24 219 07:27 21.04.2020
4518 Rain 14 1017 22 0 2.24 219 06:51 21.04.2020
4519 Rain 14 1017 22 0 2.24 219 06:51 21.04.2020
4520 Rain 14 1017 22 0 2.24 219 06:33 21.04.2020
4521 Clouds 12 1019 20 0 0.46 122 05:50 21.04.2020
4522 Clouds 12 1019 20 0 0.46 122 04:57 21.04.2020
4523 Clouds 12 1019 20 0 0.46 122 04:57 21.04.2020
4524 Clouds 12 1019 20 0 0.46 122 03:46 21.04.2020
4525 Clouds 7 1020 27 0 2.42 41 02:42 21.04.2020
4526 Clouds 7 1020 27 0 2.42 41 01:31 21.04.2020
4527 Clouds 7 1020 27 0 2.42 41 00:38 21.04.2020
4528 Clouds 8 1020 26 0 2.33 45 00:18 21.04.2020
4529 Clouds 8 1020 26 0 2.33 45 23:43 20.04.2020
4530 Clouds 8 1020 26 0 2.33 45 23:21 20.04.2020
4531 Clouds 8 1020 26 0 2.33 45 22:55 20.04.2020
4532 Clouds 8 1020 26 0 2.33 45 22:36 20.04.2020
4533 Clouds 8 1020 26 0 2.33 45 22:18 20.04.2020
4534 Clouds 8 1020 26 0 2.33 45 22:18 20.04.2020
4535 Clouds 8 1020 26 0 2.33 45 21:54 20.04.2020
4536 Clouds 8 1020 25 0 2.59 46 21:36 20.04.2020
4537 Clouds 8 1020 26 0 2.33 45 21:36 20.04.2020
4538 Rain 8 1020 26 0 2.33 45 21:18 20.04.2020
4539 Rain 8 1020 26 0 2.33 45 20:42 20.04.2020
4540 Rain 8 1020 26 0 2.33 45 20:20 20.04.2020
4541 Rain 8 1020 26 0 2.33 45 19:59 20.04.2020
4542 Rain 8 1020 26 0 2.33 45 19:41 20.04.2020
4543 Rain 8 1020 26 0 2.33 45 19:22 20.04.2020
4544 Rain 8 1020 26 0 2.33 45 18:58 20.04.2020
4545 Rain 8 1020 26 0 2.33 45 18:39 20.04.2020
4546 Rain 8 1020 28 0 2.17 66 18:20 20.04.2020
4547 Rain 8 1020 28 0 2.17 66 18:20 20.04.2020
4548 Rain 8 1020 28 0 2.17 66 17:54 20.04.2020
4549 Rain 8 1020 28 0 2.17 66 17:36 20.04.2020
4550 Rain 8 1020 28 0 2.17 66 17:18 20.04.2020
4551 Rain 8 1020 28 0 2.17 66 16:42 20.04.2020
4552 Rain 8 1020 28 0 2.17 66 16:20 20.04.2020
4553 Rain 8 1020 28 0 2.17 66 15:57 20.04.2020
4554 Rain 8 1020 28 0 2.17 66 15:38 20.04.2020
4555 Rain 13 1016 23 0 1.29 178 15:20 20.04.2020
4556 Rain 13 1015 24 0 0.73 166 14:42 20.04.2020
4557 Rain 13 1015 24 0 0.73 166 14:20 20.04.2020
4558 Rain 13 1015 24 0 0.73 166 13:59 20.04.2020
4559 Rain 13 1015 24 0 0.73 166 13:40 20.04.2020
4560 Rain 13 1015 24 0 0.73 166 13:22 20.04.2020
4561 Rain 13 1015 24 0 0.73 166 12:44 20.04.2020
4562 Clouds 15 1017 20 0 2.31 215 12:25 20.04.2020
4563 Clouds 15 1017 20 0 2.31 215 11:59 20.04.2020
4564 Clouds 15 1017 20 0 2.31 215 11:39 20.04.2020
4565 Clouds 15 1017 20 0 2.31 215 11:20 20.04.2020
4566 Clouds 15 1017 20 0 2.31 215 10:56 20.04.2020
4567 Clouds 15 1017 20 0 2.31 215 10:38 20.04.2020
4568 Clouds 15 1017 20 0 2.31 215 10:19 20.04.2020
4569 Clouds 15 1017 20 0 2.31 215 09:44 20.04.2020
4570 Clouds 15 1018 17 0 2.4 207 09:26 20.04.2020
4571 Clouds 15 1018 18 0 2.35 206 08:59 20.04.2020
4572 Clouds 15 1018 18 0 2.35 206 08:41 20.04.2020
4573 Clouds 15 1018 18 0 2.35 206 08:19 20.04.2020
4574 Clouds 15 1018 18 0 2.35 206 07:52 20.04.2020
4575 Clouds 15 1018 18 0 2.35 206 07:29 20.04.2020
4576 Clouds 15 1018 18 0 2.35 206 07:29 20.04.2020
4577 Clouds 15 1018 18 0 2.35 206 06:55 20.04.2020
4578 Clouds 15 1018 18 0 2.35 206 06:36 20.04.2020
4579 Clouds 11 1020 20 0 0.81 80 05:38 20.04.2020
4580 Clouds 11 1020 20 0 0.81 80 03:49 20.04.2020
4581 Clouds 5 1021 27 0 2.71 46 02:44 20.04.2020
4582 Clouds 4 1021 28 0 3.05 46 01:37 20.04.2020
4583 Clouds 4 1021 28 0 3.05 46 01:19 20.04.2020
4584 Clouds 4 1021 28 0 3.05 46 00:35 20.04.2020
4585 Clouds 5 1020 28 0 2.58 46 23:57 19.04.2020
4586 Clouds 5 1020 28 0 2.58 46 23:38 19.04.2020
4587 Clouds 5 1020 28 0 2.58 46 23:19 19.04.2020
4588 Clouds 5 1020 28 0 2.58 46 22:40 19.04.2020
4589 Clouds 5 1020 28 0 2.58 46 22:22 19.04.2020
4590 Clouds 5 1020 28 0 2.58 46 21:58 19.04.2020
4591 Clouds 5 1020 28 0 2.58 46 21:40 19.04.2020
4592 Rain 6 1020 27 0 2.6 46 21:21 19.04.2020
4593 Rain 6 1020 27 0 2.6 46 20:55 19.04.2020
4594 Rain 6 1020 27 0 2.6 46 20:37 19.04.2020
4595 Rain 6 1020 27 0 2.6 46 20:19 19.04.2020
4596 Rain 6 1020 27 0 2.6 46 19:41 19.04.2020
4597 Rain 6 1020 27 0 2.6 46 19:23 19.04.2020
4598 Rain 6 1020 27 0 2.6 46 18:58 19.04.2020
4599 Rain 6 1020 27 0 2.6 46 18:40 19.04.2020
4600 Rain 6 1020 27 0 2.6 46 18:40 19.04.2020
4601 Rain 7 1019 27 0 1.44 41 18:20 19.04.2020
4602 Rain 7 1019 27 0 1.44 41 17:59 19.04.2020
4603 Rain 7 1019 27 0 1.44 41 17:40 19.04.2020
4604 Rain 7 1019 27 0 1.44 41 17:22 19.04.2020
4605 Rain 7 1019 27 0 1.44 41 16:58 19.04.2020
4606 Rain 7 1019 27 0 1.44 41 16:39 19.04.2020
4607 Rain 7 1019 27 0 1.44 41 16:21 19.04.2020
4608 Rain 7 1019 27 0 1.44 41 15:54 19.04.2020
4609 Rain 7 1019 27 0 1.44 41 15:36 19.04.2020
4610 Rain 12 1015 28 0 0.99 243 15:18 19.04.2020
4611 Rain 12 1015 28 0 0.99 243 14:38 19.04.2020
4612 Rain 11 1015 28 0 0.98 229 14:20 19.04.2020
4613 Rain 11 1015 28 0 0.98 229 13:54 19.04.2020
4614 Rain 11 1015 28 0 0.98 229 13:36 19.04.2020
4615 Rain 11 1015 28 0 0.98 229 13:18 19.04.2020
4616 Rain 11 1015 28 0 0.98 229 12:42 19.04.2020
4617 Clouds 15 1015 21 0 2.96 229 12:23 19.04.2020
4618 Clouds 15 1015 21 0 2.96 229 11:39 19.04.2020
4619 Clouds 15 1015 21 0 2.96 229 11:20 19.04.2020
4620 Clouds 15 1015 21 0 2.96 229 10:59 19.04.2020
4621 Clouds 15 1015 21 0 2.96 229 10:41 19.04.2020
4622 Clouds 15 1015 21 0 2.96 229 10:20 19.04.2020
4623 Clouds 15 1015 21 0 2.96 229 09:51 19.04.2020
4624 Rain 15 1015 24 0 2.5 221 09:32 19.04.2020
4625 Clouds 15 1018 20 0 2.52 212 08:59 19.04.2020
4626 Clouds 15 1018 20 0 2.52 212 08:38 19.04.2020
4627 Clear 15 1018 19 0 2.57 208 08:18 19.04.2020
4628 Clouds 15 1018 20 0 2.52 212 07:45 19.04.2020
4629 Clear 15 1018 19 0 2.57 208 07:25 19.04.2020
4630 Clouds 15 1018 20 0 2.52 212 06:55 19.04.2020
4631 Clear 12 1019 20 0 0.86 100 06:19 19.04.2020
4632 Clear 12 1019 20 0 0.86 100 04:56 19.04.2020
4633 Clouds 5 1020 27 0 2.72 50 03:24 19.04.2020
4634 Clouds 5 1020 27 0 2.72 50 02:22 19.04.2020
4635 Clouds 5 1020 27 0 2.72 50 01:39 19.04.2020
4636 Clouds 5 1020 27 0 2.72 50 01:21 19.04.2020
4637 Clouds 5 1020 27 0 2.72 50 00:40 19.04.2020
4638 Clouds 6 1019 26 0 2.58 43 00:19 19.04.2020
4639 Clouds 6 1019 26 0 2.58 43 23:41 18.04.2020
4640 Clouds 6 1019 26 0 2.58 43 23:19 18.04.2020
4641 Clouds 6 1019 26 0 2.58 43 22:43 18.04.2020
4642 Clouds 6 1019 26 0 2.58 43 22:43 18.04.2020
4643 Clouds 6 1019 26 0 2.58 43 22:24 18.04.2020
4644 Clouds 6 1019 26 0 2.58 43 21:58 18.04.2020
4645 Clouds 6 1019 26 0 2.58 43 21:39 18.04.2020
4646 Clouds 7 1021 26 0 2.54 51 21:21 18.04.2020
4647 Clouds 7 1021 26 0 2.54 51 20:58 18.04.2020
4648 Clouds 7 1021 26 0 2.54 51 20:40 18.04.2020
4649 Clouds 7 1021 26 0 2.54 51 20:20 18.04.2020
4650 Clouds 7 1021 26 0 2.54 51 19:41 18.04.2020
4651 Clouds 7 1021 26 0 2.54 51 19:22 18.04.2020
4652 Clouds 7 1021 26 0 2.54 51 18:40 18.04.2020
4653 Rain 7 1020 27 0 2.41 51 18:20 18.04.2020
4654 Rain 7 1020 27 0 2.41 51 17:58 18.04.2020
4655 Rain 7 1020 27 0 2.41 51 17:40 18.04.2020
4656 Rain 7 1020 27 0 2.41 51 17:20 18.04.2020
4657 Rain 7 1020 27 0 2.41 51 16:43 18.04.2020
4658 Rain 7 1020 27 0 2.41 51 16:22 18.04.2020
4659 Rain 7 1020 27 0 2.41 51 15:56 18.04.2020
4660 Rain 7 1020 27 0 2.41 51 15:37 18.04.2020
4661 Rain 13 1016 26 0 0.94 170 15:19 18.04.2020
4662 Rain 13 1016 26 0 0.94 170 14:44 18.04.2020
4663 Rain 13 1016 27 0 0.69 168 14:24 18.04.2020
4664 Rain 13 1016 27 0 0.69 168 13:44 18.04.2020
4665 Rain 13 1016 27 0 0.69 168 13:23 18.04.2020
4666 Rain 13 1016 27 0 0.69 168 12:56 18.04.2020
4667 Rain 13 1016 27 0 0.69 168 12:38 18.04.2020
4668 Rain 15 1015 28 0 2.58 222 12:19 18.04.2020
4669 Rain 15 1015 28 0 2.58 222 11:42 18.04.2020
4670 Rain 15 1015 28 0 2.58 222 11:22 18.04.2020
4671 Rain 15 1015 28 0 2.58 222 10:57 18.04.2020
4672 Rain 15 1015 28 0 2.58 222 10:37 18.04.2020
4673 Rain 15 1015 28 0 2.58 222 10:18 18.04.2020
4674 Rain 15 1015 28 0 2.58 222 09:41 18.04.2020
4675 Rain 13 1018 30 0 1.77 221 09:23 18.04.2020
4676 Rain 13 1018 30 0 1.77 221 08:44 18.04.2020
4677 Rain 13 1018 30 0 1.77 221 08:26 18.04.2020
4678 Rain 13 1018 30 0 1.77 221 07:58 18.04.2020
4679 Rain 13 1018 30 0 1.77 221 07:36 18.04.2020
4680 Rain 13 1018 30 0 1.77 221 06:55 18.04.2020
4681 Rain 11 1018 29 0 1.21 103 06:29 18.04.2020
4682 Rain 11 1018 29 0 1.21 103 05:36 18.04.2020
4683 Rain 11 1018 29 0 1.21 103 04:47 18.04.2020
4684 Rain 11 1018 29 0 1.21 103 04:25 18.04.2020
4685 Rain 9 1018 29 0 1.97 85 02:48 18.04.2020
4686 Rain 10 1017 29 0 1.05 102 02:23 18.04.2020
4687 Rain 10 1017 29 0 1.05 102 01:53 18.04.2020
4688 Rain 10 1017 29 0 1.05 102 01:34 18.04.2020
4689 Rain 10 1017 29 0 1.05 102 00:44 18.04.2020
4690 Rain 11 1017 29 0 0.52 165 00:22 18.04.2020
4691 Rain 11 1017 29 0 0.52 165 00:22 18.04.2020
4692 Rain 11 1017 29 0 0.52 165 23:55 17.04.2020
4693 Rain 11 1017 29 0 0.52 165 23:37 17.04.2020
4694 Rain 11 1017 29 0 0.52 165 23:18 17.04.2020
4695 Rain 11 1017 29 0 0.52 165 22:56 17.04.2020
4696 Rain 11 1017 29 0 0.52 165 22:37 17.04.2020
4697 Rain 11 1017 29 0 0.52 165 22:18 17.04.2020
4698 Rain 11 1017 29 0 0.52 165 21:42 17.04.2020
4699 Rain 11 1017 30 0 0.48 188 21:21 17.04.2020
4700 Rain 11 1017 30 0 0.48 188 21:21 17.04.2020
4701 Rain 11 1018 29 0 1.01 116 20:57 17.04.2020
4702 Rain 11 1018 29 0 1.01 116 20:38 17.04.2020
4703 Rain 11 1018 29 0 1.01 116 20:19 17.04.2020
4704 Rain 11 1018 29 0 1.01 116 19:58 17.04.2020
4705 Rain 11 1018 29 0 1.01 116 19:40 17.04.2020
4706 Rain 11 1018 29 0 1.01 116 19:22 17.04.2020
4707 Rain 11 1018 29 0 1.01 116 18:44 17.04.2020
4708 Rain 11 1017 30 0 0.42 257 18:24 17.04.2020
4709 Rain 11 1017 30 0 0.42 257 18:24 17.04.2020
4710 Rain 11 1017 30 0 0.42 257 18:24 17.04.2020
4711 Rain 11 1017 30 0 0.42 257 17:56 17.04.2020
4712 Rain 11 1017 30 0 0.42 257 17:37 17.04.2020
4713 Rain 11 1017 30 0 0.42 257 17:18 17.04.2020
4714 Rain 11 1017 30 0 0.42 257 16:43 17.04.2020
4715 Rain 11 1017 30 0 0.42 257 16:23 17.04.2020
4716 Rain 11 1017 30 0 0.42 257 15:44 17.04.2020
4717 Rain 13 1014 30 0 1.47 251 15:24 17.04.2020
4718 Rain 13 1014 30 0 1.47 251 14:58 17.04.2020
4719 Rain 13 1014 30 0 1.47 251 14:39 17.04.2020
4720 Rain 14 1014 27 0 0.6 180 14:21 17.04.2020
4721 Rain 14 1014 27 0 0.6 180 13:55 17.04.2020
4722 Rain 14 1014 27 0 0.6 180 13:36 17.04.2020
4723 Rain 14 1014 27 0 0.6 180 13:18 17.04.2020
4724 Rain 14 1014 27 0 0.6 180 12:45 17.04.2020
4725 Rain 14 1015 28 0 1.07 184 12:24 17.04.2020
4726 Rain 14 1015 28 0 1.07 184 11:42 17.04.2020
4727 Rain 14 1015 28 0 1.07 184 11:19 17.04.2020
4728 Rain 14 1015 28 0 1.07 184 10:56 17.04.2020
4729 Rain 14 1015 28 0 1.07 184 10:38 17.04.2020
4730 Rain 14 1015 28 0 1.07 184 10:19 17.04.2020
4731 Rain 14 1015 28 0 1.07 184 09:41 17.04.2020
4732 Clouds 16 1017 20 0 2.48 214 09:22 17.04.2020
4733 Clouds 16 1017 20 0 2.48 214 08:58 17.04.2020
4734 Clouds 16 1017 20 0 2.48 214 08:39 17.04.2020
4735 Clouds 16 1017 20 0 2.48 214 08:19 17.04.2020
4736 Clouds 16 1017 20 0 2.48 214 07:44 17.04.2020
4737 Clouds 16 1017 20 0 2.48 214 07:23 17.04.2020
4738 Clouds 16 1017 20 0 2.48 214 06:50 17.04.2020
4739 Clouds 14 1018 17 0 1.63 100 06:23 17.04.2020
4740 Clouds 14 1018 17 0 1.63 100 05:27 17.04.2020
4741 Clouds 10 1019 21 0 1.91 45 03:20 17.04.2020
4742 Clouds 10 1019 21 0 1.91 45 02:34 17.04.2020
4743 Clouds 10 1019 21 0 2.23 44 01:30 17.04.2020
4744 Clouds 10 1019 21 0 2.23 44 00:53 17.04.2020
4745 Clouds 9 1019 22 0 2.57 44 00:19 17.04.2020
4746 Clouds 9 1019 22 0 2.57 44 23:45 16.04.2020
4747 Clouds 9 1019 22 0 2.57 44 23:23 16.04.2020
4748 Clouds 9 1019 22 0 2.57 44 22:58 16.04.2020
4749 Clouds 9 1019 22 0 2.57 44 22:37 16.04.2020
4750 Clouds 9 1019 22 0 2.57 44 22:19 16.04.2020
4751 Clouds 9 1019 22 0 2.57 44 21:43 16.04.2020
4752 Clouds 9 1020 22 0 1.86 44 21:21 16.04.2020
4753 -273 0 0 0 0 0 20:59 16.04.2020
4754 Clouds 9 1020 22 0 1.86 44 20:40 16.04.2020
4755 Clouds 9 1020 22 0 1.86 44 20:21 16.04.2020
4756 Clouds 9 1020 22 0 1.86 44 19:56 16.04.2020
4757 Clouds 9 1020 22 0 1.86 44 19:37 16.04.2020
4758 Clouds 9 1020 22 0 1.86 44 19:19 16.04.2020
4759 Clouds 9 1020 22 0 1.86 44 18:45 16.04.2020
4760 Clouds 11 1019 21 0 1.72 46 18:25 16.04.2020
4761 Clouds 11 1019 21 0 1.72 46 17:58 16.04.2020
4762 Clouds 11 1019 21 0 1.72 46 17:39 16.04.2020
4763 Clouds 11 1019 21 0 1.72 46 17:20 16.04.2020
4764 Clouds 11 1019 21 0 1.72 46 16:44 16.04.2020
4765 Clouds 11 1019 21 0 1.72 46 16:26 16.04.2020
4766 Clouds 11 1019 21 0 1.72 46 15:57 16.04.2020
4767 Clouds 11 1019 21 0 1.72 46 15:39 16.04.2020
4768 Rain 15 1015 21 0 0.86 201 15:18 16.04.2020
4769 Rain 15 1015 21 0 0.86 201 14:45 16.04.2020
4770 Rain 15 1015 21 0 0.86 201 14:45 16.04.2020
4771 Clouds 16 1015 21 0 0.94 183 14:25 16.04.2020
4772 Clouds 16 1015 21 0 0.94 183 13:59 16.04.2020
4773 Clouds 16 1015 21 0 0.94 183 13:41 16.04.2020
4774 Clouds 16 1015 21 0 0.94 183 13:23 16.04.2020
4775 Clouds 16 1015 21 0 0.94 183 12:58 16.04.2020
4776 Clouds 16 1015 21 0 0.94 183 12:39 16.04.2020
4777 Clouds 18 1016 16 0 2.46 235 12:20 16.04.2020
4778 Clouds 18 1016 16 0 2.46 235 11:59 16.04.2020
4779 Clouds 18 1016 16 0 2.46 235 11:40 16.04.2020
4780 Clouds 18 1016 16 0 2.46 235 11:20 16.04.2020
4781 Clouds 18 1016 16 0 2.46 235 10:55 16.04.2020
4782 Clouds 18 1016 16 0 2.46 235 10:37 16.04.2020
4783 Clouds 18 1016 16 0 2.46 235 10:18 16.04.2020
4784 Clouds 18 1016 16 0 2.46 235 09:39 16.04.2020
4785 Clouds 18 1019 14 0 2.4 215 09:20 16.04.2020
4786 Clouds 18 1019 14 0 2.4 215 08:56 16.04.2020
4787 Clouds 18 1019 14 0 2.4 215 08:38 16.04.2020
4788 Clouds 18 1019 14 0 2.4 215 08:19 16.04.2020
4789 Clouds 18 1019 14 0 2.4 215 07:43 16.04.2020
4790 Clouds 18 1018 15 0 2.31 209 07:23 16.04.2020
4791 Clouds 18 1019 14 0 2.4 215 06:42 16.04.2020
4792 Clouds 14 1020 18 0 1.76 68 06:23 16.04.2020
4793 Clouds 14 1020 18 0 1.76 68 04:54 16.04.2020
4794 Clouds 14 1020 18 0 1.76 68 03:39 16.04.2020
4795 Clouds 7 1021 25 0 2.94 50 03:21 16.04.2020
4796 Clouds 7 1021 25 0 2.94 50 02:43 16.04.2020
4797 Clouds 8 1021 25 0 2.86 48 01:58 16.04.2020
4798 Clouds 8 1021 25 0 2.86 48 00:57 16.04.2020
4799 Clouds 8 1020 24 0 1.89 43 00:26 16.04.2020
4800 Clouds 8 1020 24 0 1.89 43 23:56 15.04.2020
4801 Clouds 8 1020 24 0 1.89 43 23:38 15.04.2020
4802 Clouds 8 1020 24 0 1.89 43 23:19 15.04.2020
4803 Clouds 8 1020 24 0 1.89 43 22:40 15.04.2020
4804 Clouds 8 1020 24 0 1.89 43 22:21 15.04.2020
4805 Clouds 8 1020 24 0 1.89 43 21:58 15.04.2020
4806 Clouds 8 1020 24 0 2.08 48 21:40 15.04.2020
4807 Clouds 10 1021 23 0 1.92 39 21:22 15.04.2020
4808 Clouds 10 1021 23 0 1.92 39 20:57 15.04.2020
4809 Clouds 10 1021 23 0 1.92 39 20:39 15.04.2020
4810 Clouds 10 1021 23 0 1.92 39 20:20 15.04.2020
4811 Clouds 10 1021 23 0 1.92 39 19:42 15.04.2020
4812 Clouds 10 1021 23 0 1.92 39 19:20 15.04.2020
4813 Clouds 10 1021 23 0 1.92 39 18:54 15.04.2020
4814 Clouds 10 1021 23 0 1.92 39 18:36 15.04.2020
4815 Rain 10 1019 25 0 1.83 42 18:18 15.04.2020
4816 Rain 10 1019 25 0 1.83 42 17:40 15.04.2020
4817 Rain 10 1019 25 0 1.83 42 17:21 15.04.2020
4818 Rain 10 1019 25 0 1.83 42 16:58 15.04.2020
4819 Rain 10 1019 25 0 1.83 42 16:38 15.04.2020
4820 Rain 10 1019 25 0 1.83 42 16:38 15.04.2020
4821 Rain 10 1019 25 0 1.83 42 16:20 15.04.2020
4822 Rain 10 1019 25 0 1.83 42 15:58 15.04.2020
4823 Rain 10 1019 25 0 1.83 42 15:39 15.04.2020
4824 Rain 15 1016 25 0 2.02 236 15:19 15.04.2020
4825 Rain 15 1016 25 0 2.02 236 14:58 15.04.2020
4826 Rain 15 1016 25 0 2.02 236 14:39 15.04.2020
4827 Rain 15 1016 25 0 2.02 236 14:39 15.04.2020
4828 Rain 16 1015 24 0 1.8 213 14:21 15.04.2020
4829 Rain 16 1015 24 0 1.8 213 13:58 15.04.2020
4830 Rain 16 1015 24 0 1.8 213 13:39 15.04.2020
4831 Rain 16 1015 24 0 1.8 213 13:20 15.04.2020
4832 Rain 16 1015 24 0 1.8 213 12:56 15.04.2020
4833 Rain 16 1015 24 0 1.8 213 12:38 15.04.2020
4834 Clouds 19 1016 20 0 3.98 231 12:19 15.04.2020
4835 Clouds 19 1016 20 0 3.98 231 11:42 15.04.2020
4836 Clouds 19 1016 20 0 3.98 231 11:24 15.04.2020
4837 Clouds 19 1016 20 0 3.98 231 10:58 15.04.2020
4838 Clouds 19 1016 20 0 3.98 231 10:36 15.04.2020
4839 Clouds 19 1016 20 0 3.98 231 10:18 15.04.2020
4840 Clouds 19 1016 20 0 3.98 231 09:55 15.04.2020
4841 Clouds 19 1016 20 0 3.98 231 09:37 15.04.2020
4842 Clouds 19 1019 19 0 2.96 215 09:18 15.04.2020
4843 Clouds 19 1019 19 0 2.96 215 08:41 15.04.2020
4844 Clouds 19 1019 19 0 2.96 215 08:20 15.04.2020
4845 Clouds 19 1019 19 0 2.96 215 07:55 15.04.2020
4846 Clouds 19 1019 19 0 2.96 215 07:34 15.04.2020
4847 Clouds 19 1019 19 0 2.96 215 06:37 15.04.2020
4848 Clouds 16 1021 22 0 0.36 169 05:57 15.04.2020
4849 Clouds 16 1021 22 0 0.36 169 05:21 15.04.2020
4850 Clouds 16 1021 22 0 0.36 169 04:45 15.04.2020
4851 Clouds 16 1021 22 0 0.36 169 03:51 15.04.2020
4852 Clouds 13 1021 25 0 0.39 356 03:20 15.04.2020
4853 Clouds 13 1021 25 0 0.39 356 02:39 15.04.2020
4854 Clouds 13 1021 25 0 0.39 356 01:48 15.04.2020
4855 Clouds 13 1021 25 0 0.39 356 01:22 15.04.2020
4856 Clouds 13 1021 25 0 0.39 356 00:37 15.04.2020
4857 Clouds 13 1021 26 0 1.55 55 00:19 15.04.2020
4858 Clouds 13 1021 26 0 1.55 55 23:55 14.04.2020
4859 Clouds 13 1021 26 0 1.55 55 23:55 14.04.2020
4860 Clouds 13 1021 26 0 1.55 55 23:36 14.04.2020
4861 Clouds 13 1021 26 0 1.55 55 23:18 14.04.2020
4862 Clouds 13 1021 26 0 1.55 55 22:55 14.04.2020
4863 Clouds 13 1021 26 0 1.55 55 22:37 14.04.2020
4864 Clouds 13 1021 26 0 1.55 55 22:19 14.04.2020
4865 Clouds 13 1021 26 0 1.55 55 21:55 14.04.2020
4866 Clouds 13 1021 26 0 1.55 55 21:37 14.04.2020
4867 Rain 13 1022 26 0 0.87 49 21:18 14.04.2020
4868 Rain 12 1022 25 0 1.06 51 20:41 14.04.2020
4869 Rain 12 1022 25 0 1.06 51 20:22 14.04.2020
4870 Rain 12 1022 25 0 1.06 51 19:59 14.04.2020
4871 Rain 12 1022 25 0 1.06 51 19:40 14.04.2020
4872 Rain 12 1022 25 0 1.06 51 19:21 14.04.2020
4873 Rain 13 1022 26 0 0.87 49 18:57 14.04.2020
4874 Rain 12 1022 25 0 1.06 51 18:38 14.04.2020
4875 Clouds 13 1021 24 0 1.82 46 18:19 14.04.2020
4876 Rain 13 1021 26 0 1.64 51 17:56 14.04.2020
4877 Clouds 13 1021 24 0 1.82 46 17:37 14.04.2020
4878 Clouds 13 1021 24 0 1.82 46 17:37 14.04.2020
4879 Rain 13 1021 26 0 1.64 51 17:37 14.04.2020
4880 Rain 13 1021 26 0 1.64 51 17:19 14.04.2020
4881 Rain 13 1021 26 0 1.64 51 16:43 14.04.2020
4882 Rain 13 1021 26 0 1.64 51 16:24 14.04.2020
4883 Rain 13 1021 26 0 1.64 51 15:58 14.04.2020
4884 Rain 13 1021 26 0 1.64 51 15:58 14.04.2020
4885 Rain 13 1021 26 0 1.64 51 15:40 14.04.2020
4886 Rain 17 1017 23 0 0.29 7 15:21 14.04.2020
4887 Rain 17 1017 24 0 0.18 359 14:59 14.04.2020
4888 Rain 17 1017 24 0 0.18 359 14:40 14.04.2020
4889 Rain 17 1017 23 0 0.29 7 14:22 14.04.2020
4890 Rain 17 1017 23 0 0.29 7 13:57 14.04.2020
4891 Rain 17 1017 23 0 0.29 7 13:39 14.04.2020
4892 Rain 17 1017 23 0 0.29 7 13:20 14.04.2020
4893 Rain 17 1017 23 0 0.29 7 12:42 14.04.2020
4894 Clouds 20 1017 19 0 2.65 235 12:21 14.04.2020
4895 Clouds 20 1017 19 0 2.65 235 11:56 14.04.2020
4896 Clouds 20 1017 19 0 2.65 235 11:37 14.04.2020
4897 Clouds 20 1017 19 0 2.65 235 11:19 14.04.2020
4898 Clouds 20 1017 19 0 2.65 235 10:44 14.04.2020
4899 Clouds 20 1017 19 0 2.65 235 10:26 14.04.2020
4900 Clouds 20 1017 19 0 2.65 235 09:55 14.04.2020
4901 Clouds 20 1017 19 0 2.65 235 09:37 14.04.2020
4902 Clouds 19 1019 16 0 2.44 226 09:19 14.04.2020
4903 Clouds 19 1019 16 0 2.44 226 08:41 14.04.2020
4904 Clouds 19 1019 16 0 2.44 226 08:22 14.04.2020
4905 Clouds 19 1019 16 0 2.44 226 08:22 14.04.2020
4906 Clouds 19 1019 16 0 2.44 226 07:55 14.04.2020
4907 Clouds 19 1019 16 0 2.44 226 07:31 14.04.2020
4908 Clouds 19 1019 16 0 2.44 226 06:51 14.04.2020
4909 Clouds 16 1021 18 0 0.43 91 06:24 14.04.2020
4910 Clouds 16 1021 18 0 0.43 91 04:43 14.04.2020
4911 Clouds 11 1021 22 0 2.74 43 02:56 14.04.2020
4912 Clouds 11 1021 22 0 2.74 41 01:49 14.04.2020
4913 Clouds 11 1021 22 0 2.74 41 01:24 14.04.2020
4914 Clouds 11 1021 22 0 2.74 41 00:39 14.04.2020
4915 Clouds 12 1020 22 0 2 37 00:19 14.04.2020
4916 Clouds 12 1020 22 0 2 37 23:45 13.04.2020
4917 Clouds 12 1020 22 0 2 37 23:26 13.04.2020
4918 Clouds 12 1020 22 0 2 37 22:59 13.04.2020
4919 Clouds 12 1020 22 0 2 37 22:41 13.04.2020
4920 Clouds 12 1020 22 0 2 37 22:22 13.04.2020
4921 Clouds 12 1020 22 0 2 37 21:56 13.04.2020
4922 Clouds 12 1020 22 0 2 37 21:37 13.04.2020
4923 Clouds 13 1021 22 0 1.63 46 21:19 13.04.2020
4924 Clouds 13 1021 22 0 1.63 46 20:55 13.04.2020
4925 Clouds 13 1021 22 0 1.63 46 20:37 13.04.2020
4926 Clouds 13 1021 22 0 1.63 46 20:18 13.04.2020
4927 Clouds 13 1021 22 0 1.63 46 19:39 13.04.2020
4928 Clouds 13 1021 22 0 1.63 46 19:20 13.04.2020
4929 Clouds 13 1021 22 0 1.63 46 19:00 13.04.2020
4930 Clouds 13 1021 22 0 1.63 46 18:39 13.04.2020
4931 Rain 14 1019 24 0 1.8 50 18:20 13.04.2020
4932 Rain 14 1019 24 0 1.8 50 17:59 13.04.2020
4933 Rain 14 1019 24 0 1.8 50 17:39 13.04.2020
4934 Rain 14 1019 24 0 1.8 50 17:20 13.04.2020
4935 Rain 14 1019 24 0 1.8 50 17:20 13.04.2020
4936 Rain 14 1019 24 0 1.8 50 17:20 13.04.2020
4937 Rain 14 1019 24 0 1.8 50 16:59 13.04.2020
4938 Rain 14 1019 24 0 1.8 50 16:41 13.04.2020
4939 Rain 14 1019 24 0 1.8 50 16:21 13.04.2020
4940 Rain 14 1019 24 0 1.8 50 15:59 13.04.2020
4941 Rain 14 1019 24 0 1.8 50 15:41 13.04.2020
4942 Rain 17 1016 23 0 1.86 233 15:23 13.04.2020
4943 Rain 17 1016 23 0 1.86 233 14:56 13.04.2020
4944 Rain 17 1016 23 0 2.04 231 14:38 13.04.2020
4945 Rain 17 1016 23 0 2.04 231 14:20 13.04.2020
4946 Rain 17 1016 23 0 2.04 231 13:55 13.04.2020
4947 Rain 17 1016 23 0 2.04 231 13:55 13.04.2020
4948 Rain 17 1016 23 0 2.04 231 13:55 13.04.2020
4949 Rain 17 1016 23 0 2.04 231 13:37 13.04.2020
4950 Rain 17 1016 23 0 2.04 231 13:18 13.04.2020
4951 Rain 17 1016 23 0 2.04 231 12:57 13.04.2020
4952 Rain 17 1016 23 0 2.04 231 12:38 13.04.2020
4953 Clouds 21 1016 17 0 2.69 227 12:19 13.04.2020
4954 Clouds 20 1016 17 0 2.58 222 11:43 13.04.2020
4955 Clouds 20 1016 17 0 2.58 222 11:19 13.04.2020
4956 Clouds 20 1016 17 0 2.58 222 11:19 13.04.2020
4957 Clouds 20 1016 17 0 2.58 222 10:56 13.04.2020
4958 Clouds 21 1016 17 0 2.69 227 10:56 13.04.2020
4959 Clouds 20 1016 17 0 2.58 222 10:38 13.04.2020
4960 Clouds 20 1016 17 0 2.58 222 10:20 13.04.2020
4961 Clouds 20 1016 17 0 2.58 222 09:55 13.04.2020
4962 Clouds 20 1016 17 0 2.58 222 09:37 13.04.2020
4963 Clouds 20 1019 14 0 2.25 214 09:19 13.04.2020
4964 Clouds 20 1019 14 0 2.25 214 08:44 13.04.2020
4965 Clouds 20 1019 14 0 2.25 214 08:26 13.04.2020
4966 Clouds 20 1019 14 0 2.25 214 07:43 13.04.2020
4967 Clouds 20 1019 14 0 2.25 214 07:25 13.04.2020
4968 Clouds 20 1019 14 0 2.25 214 06:55 13.04.2020
4969 Clouds 20 1019 14 0 2.25 214 06:33 13.04.2020
4970 Clouds 17 1021 15 0 0.59 57 05:40 13.04.2020
4971 Clouds 17 1021 15 0 0.59 57 05:19 13.04.2020
4972 Clouds 17 1021 15 0 0.59 57 04:31 13.04.2020
4973 Clouds 17 1021 15 0 0.59 57 03:53 13.04.2020
4974 Clouds 17 1021 15 0 0.59 57 03:33 13.04.2020
4975 Clouds 11 1022 20 0 2.68 38 02:40 13.04.2020
4976 Clouds 11 1021 20 0 2.66 38 01:46 13.04.2020
4977 Clouds 11 1021 20 0 2.66 38 01:27 13.04.2020
4978 Clouds 11 1021 20 0 2.66 38 00:46 13.04.2020
4979 Clear 11 1021 20 0 2.38 37 00:24 13.04.2020
4980 Clear 11 1021 20 0 2.38 37 23:56 12.04.2020
4981 Clear 11 1021 20 0 2.38 37 23:36 12.04.2020
4982 Clear 11 1021 20 0 2.38 37 23:18 12.04.2020
4983 Clear 11 1021 20 0 2.38 37 23:18 12.04.2020
4984 Clear 11 1021 20 0 2.38 37 22:39 12.04.2020
4985 Clear 11 1021 20 0 2.38 37 22:19 12.04.2020
4986 Clear 11 1021 20 0 2.38 37 21:59 12.04.2020
4987 Clear 11 1021 20 0 2.45 37 21:37 12.04.2020
4988 Clouds 11 1022 20 0 2.69 42 21:18 12.04.2020
4989 Clouds 11 1022 20 0 2.69 42 20:42 12.04.2020
4990 Clouds 11 1022 20 0 2.69 42 20:23 12.04.2020
4991 Clouds 11 1022 20 0 2.69 42 19:57 12.04.2020
4992 Clouds 11 1022 20 0 2.69 42 19:39 12.04.2020
4993 Clouds 11 1022 20 0 2.69 42 19:19 12.04.2020
4994 Clouds 11 1022 20 0 2.69 42 18:56 12.04.2020
4995 Clouds 11 1022 20 0 2.69 42 18:37 12.04.2020
4996 Clouds 13 1022 20 0 2.72 46 18:18 12.04.2020
4997 Clouds 13 1022 20 0 2.72 46 17:41 12.04.2020
4998 Clouds 13 1022 20 0 2.72 46 17:23 12.04.2020
4999 Clouds 13 1022 20 0 2.72 46 16:59 12.04.2020
5000 Clouds 13 1022 20 0 2.72 46 16:39 12.04.2020
5001 Clouds 13 1022 20 0 2.72 46 16:20 12.04.2020
5002 Clouds 13 1022 20 0 2.72 46 15:49 12.04.2020
5003 Clouds 13 1022 20 0 2.72 46 15:31 12.04.2020
5004 Rain 17 1019 21 0 1 212 14:56 12.04.2020
5005 Rain 17 1019 21 0 1 212 14:37 12.04.2020
5006 Rain 17 1019 21 0 0.93 211 14:18 12.04.2020
5007 Rain 17 1019 21 0 0.93 211 13:42 12.04.2020
5008 Rain 17 1019 21 0 0.93 211 13:24 12.04.2020
5009 Rain 17 1019 21 0 0.93 211 12:55 12.04.2020
5010 Rain 17 1019 21 0 0.93 211 12:37 12.04.2020
5011 Clouds 20 1019 16 0 2.33 221 12:18 12.04.2020
5012 Clouds 20 1019 16 0 2.33 221 11:56 12.04.2020
5013 Clouds 20 1019 16 0 2.33 221 11:36 12.04.2020
5014 Clouds 20 1019 16 0 2.33 221 11:18 12.04.2020
5015 Clouds 20 1019 16 0 2.33 221 10:54 12.04.2020
5016 Clouds 20 1019 16 0 2.33 221 10:36 12.04.2020
5017 Clouds 20 1019 16 0 2.33 221 10:18 12.04.2020
5018 Clouds 20 1019 15 0 2.35 221 09:40 12.04.2020
5019 Clouds 19 1022 12 0 2.02 213 09:21 12.04.2020
5020 Clouds 19 1022 12 0 2.02 213 09:00 12.04.2020
5021 Clouds 19 1022 12 0 2.02 213 08:41 12.04.2020
5022 Clouds 19 1022 12 0 2.02 213 08:23 12.04.2020
5023 Clouds 19 1022 12 0 2.02 213 07:45 12.04.2020
5024 Clouds 19 1022 12 0 2.02 213 07:18 12.04.2020
5025 Clouds 19 1022 12 0 2.02 213 06:35 12.04.2020
5026 Clouds 16 1024 15 0 0.94 56 05:55 12.04.2020
5027 Clouds 16 1024 15 0 0.94 56 05:36 12.04.2020
5028 Clouds 16 1024 15 0 0.94 56 03:44 12.04.2020
5029 Clouds 9 1024 20 0 3.02 39 03:24 12.04.2020
5030 Clouds 9 1024 20 0 3.02 39 02:34 12.04.2020
5031 Clouds 9 1024 20 0 3.17 40 01:52 12.04.2020
5032 Clouds 9 1024 20 0 3.17 40 00:59 12.04.2020
5033 Clouds 9 1024 20 0 3.17 40 00:41 12.04.2020
5034 Clouds 9 1024 20 0 3.11 40 00:20 12.04.2020
5035 Clouds 9 1024 20 0 3.11 40 23:46 11.04.2020
5036 Clouds 9 1024 20 0 3.11 40 23:26 11.04.2020
5037 Clouds 9 1024 20 0 3.11 40 23:26 11.04.2020
5038 Clouds 9 1024 20 0 3.11 40 22:55 11.04.2020
5039 Clouds 9 1024 20 0 3.11 40 22:36 11.04.2020
5040 Clouds 9 1024 20 0 3.11 40 22:18 11.04.2020
5041 Clouds 9 1024 20 0 3.11 40 21:54 11.04.2020
5042 Clouds 9 1024 20 0 3.02 40 21:36 11.04.2020
5043 Clouds 10 1026 21 0 2.83 41 21:18 11.04.2020
5044 Clouds 10 1026 21 0 2.83 41 21:18 11.04.2020
5045 Clouds 10 1026 21 0 2.83 41 20:54 11.04.2020
5046 Clouds 10 1026 21 0 2.83 41 20:36 11.04.2020
5047 Clouds 10 1026 21 0 2.83 41 20:18 11.04.2020
5048 Clouds 10 1026 21 0 2.83 41 19:54 11.04.2020
5049 Clouds 10 1026 21 0 2.83 41 19:36 11.04.2020
5050 Clouds 10 1026 21 0 2.83 41 19:18 11.04.2020
5051 Clouds 10 1026 21 0 2.83 41 18:54 11.04.2020
5052 Clouds 10 1026 21 0 2.83 41 18:54 11.04.2020
5053 Clouds 10 1026 21 0 2.83 41 18:36 11.04.2020
5054 Clouds 10 1025 21 0 3.38 43 18:18 11.04.2020
5055 Clouds 10 1025 21 0 3.38 43 17:55 11.04.2020
5056 Clouds 10 1025 21 0 3.38 43 17:36 11.04.2020
5057 Clouds 10 1025 21 0 3.38 43 17:18 11.04.2020
5058 Clouds 10 1025 21 0 3.38 43 16:41 11.04.2020
5059 Clouds 10 1025 21 0 3.38 43 16:21 11.04.2020
5060 Clouds 10 1025 21 0 3.38 43 15:40 11.04.2020
5061 Clouds 10 1025 21 0 3.38 43 15:40 11.04.2020
5062 Clouds 10 1025 21 0 3.38 43 15:40 11.04.2020
5063 Clouds 16 1021 20 0 1.02 239 15:20 11.04.2020
5064 Clouds 16 1021 20 0 1.02 239 14:57 11.04.2020
5065 Clouds 16 1021 20 0 0.98 241 14:39 11.04.2020
5066 Clouds 16 1021 20 0 0.98 241 14:20 11.04.2020
5067 Clouds 16 1021 20 0 0.98 241 13:41 11.04.2020
5068 Clouds 16 1021 20 0 0.98 241 13:23 11.04.2020
5069 Clouds 16 1021 20 0 0.98 241 12:57 11.04.2020
5070 Clouds 16 1021 20 0 0.98 241 12:37 11.04.2020
5071 Clouds 18 1022 15 0 1.99 227 12:18 11.04.2020
5072 Clouds 18 1022 15 0 1.99 227 11:41 11.04.2020
5073 Clouds 18 1022 15 0 1.99 227 11:20 11.04.2020
5074 Clouds 18 1022 15 0 1.99 227 10:56 11.04.2020
5075 Clouds 18 1022 15 0 1.99 227 10:37 11.04.2020
5076 Clouds 18 1022 15 0 1.99 227 10:19 11.04.2020
5077 Clouds 18 1022 15 0 1.99 227 09:57 11.04.2020
5078 Clear 18 1021 14 0 1.97 233 09:37 11.04.2020
5079 Clear 17 1024 14 0 1.95 226 09:18 11.04.2020
5080 Clear 17 1024 14 0 1.95 226 08:42 11.04.2020
5081 Clear 17 1024 14 0 1.95 226 08:23 11.04.2020
5082 Clear 17 1024 14 0 1.95 226 07:48 11.04.2020
5083 Clear 17 1024 14 0 1.95 226 07:27 11.04.2020
5084 Clear 17 1024 14 0 1.95 226 06:42 11.04.2020
5085 Clear 14 1025 17 0 1.31 54 05:58 11.04.2020
5086 Clear 14 1025 17 0 1.31 54 04:31 11.04.2020
5087 Clear 14 1025 17 0 1.31 54 03:30 11.04.2020
5088 Clear 6 1026 24 0 3.57 44 01:48 11.04.2020
5089 Clear 6 1026 24 0 3.57 44 01:19 11.04.2020
5090 Clear 6 1026 24 0 3.57 44 00:42 11.04.2020
5091 Clear 7 1026 25 0 2.85 41 00:19 11.04.2020
5092 Clear 7 1026 25 0 2.85 41 23:55 10.04.2020
5093 Clear 7 1026 25 0 2.85 41 23:36 10.04.2020
5094 Clear 7 1026 25 0 2.85 41 23:18 10.04.2020
5095 Clear 7 1026 25 0 2.85 41 22:43 10.04.2020
5096 Clear 7 1026 25 0 2.85 41 22:21 10.04.2020
5097 Clear 7 1026 25 0 2.85 41 21:58 10.04.2020
5098 Clear 7 1026 25 0 2.85 41 21:39 10.04.2020
5099 Clouds 7 1025 25 0 2.86 44 21:20 10.04.2020
5100 Clouds 7 1025 25 0 2.86 44 20:41 10.04.2020
5101 Clouds 7 1025 25 0 2.86 44 20:23 10.04.2020
5102 Clouds 7 1025 25 0 2.86 44 19:58 10.04.2020
5103 Clouds 7 1025 25 0 2.86 44 19:40 10.04.2020
5104 Clouds 7 1025 25 0 2.86 44 19:20 10.04.2020
5105 Clouds 7 1025 25 0 2.86 44 18:57 10.04.2020
5106 Clouds 7 1025 25 0 2.86 44 18:39 10.04.2020
5107 Rain 8 1023 25 0 2.46 37 18:21 10.04.2020
5108 Rain 8 1023 25 0 2.46 37 17:58 10.04.2020
5109 Rain 8 1023 25 0 2.46 37 17:39 10.04.2020
5110 Rain 8 1023 25 0 2.46 37 17:20 10.04.2020
5111 Rain 8 1023 25 0 2.46 37 16:56 10.04.2020
5112 Rain 8 1023 25 0 2.46 37 16:38 10.04.2020
5113 Rain 8 1023 25 0 2.46 37 16:20 10.04.2020
5114 Rain 8 1023 25 0 2.46 37 15:56 10.04.2020
5115 Rain 8 1023 25 0 2.46 37 15:37 10.04.2020
5116 Rain 14 1019 24 0 1.65 250 15:18 10.04.2020
5117 Rain 14 1019 24 0 1.65 250 14:56 10.04.2020
5118 Rain 14 1019 24 0 1.03 262 14:38 10.04.2020
5119 Rain 14 1019 24 0 1.03 262 14:18 10.04.2020
5120 Rain 14 1019 24 0 1.03 262 13:43 10.04.2020
5121 Rain 14 1019 24 0 1.03 262 13:21 10.04.2020
5122 Rain 14 1019 24 0 1.03 262 12:44 10.04.2020
5123 Rain 16 1018 22 0 2.9 239 12:24 10.04.2020
5124 Rain 16 1018 22 0 2.9 239 11:58 10.04.2020
5125 Rain 16 1018 22 0 2.9 239 11:39 10.04.2020
5126 Rain 16 1018 22 0 2.9 239 11:21 10.04.2020
5127 Rain 16 1018 22 0 2.9 239 10:46 10.04.2020
5128 Rain 16 1018 22 0 2.9 239 10:23 10.04.2020
5129 Rain 16 1018 22 0 2.9 239 09:57 10.04.2020
5130 Rain 16 1018 22 0 2.9 239 09:39 10.04.2020
5131 Rain 15 1022 18 0 2.54 226 09:20 10.04.2020
5132 Rain 15 1022 18 0 2.54 226 08:43 10.04.2020
5133 Rain 15 1022 18 0 2.54 226 08:24 10.04.2020
5134 Rain 15 1022 18 0 2.54 226 07:47 10.04.2020
5135 Rain 15 1022 18 0 2.54 226 07:27 10.04.2020
5136 Rain 15 1022 18 0 2.54 226 06:52 10.04.2020
5137 Clouds 12 1023 20 0 1.52 74 06:29 10.04.2020
5138 Clouds 12 1023 20 0 1.52 74 05:43 10.04.2020
5139 Clouds 12 1023 20 0 1.52 74 05:19 10.04.2020
5140 Clouds 12 1023 20 0 1.52 74 03:55 10.04.2020
5141 Clouds 12 1023 20 0 1.52 74 03:32 10.04.2020
5142 Clouds 12 1023 20 0 1.52 74 03:32 10.04.2020
5143 Clouds 7 1023 25 0 2.06 42 02:50 10.04.2020
5144 Clouds 7 1023 25 0 2.06 42 02:31 10.04.2020
5145 Clouds 8 1023 25 0 1.91 43 01:30 10.04.2020
5146 Clouds 8 1023 25 0 1.91 43 00:55 10.04.2020
5147 Clouds 8 1023 25 0 1.91 43 00:37 10.04.2020
5148 Clouds 8 1022 24 0 1.91 44 00:18 10.04.2020
5149 Clouds 8 1022 24 0 1.91 44 23:41 09.04.2020
5150 Clouds 8 1022 24 0 1.91 44 23:22 09.04.2020
5151 Clouds 8 1022 24 0 1.91 44 22:56 09.04.2020
5152 Clouds 8 1022 24 0 1.91 44 22:38 09.04.2020
5153 Clouds 8 1022 24 0 1.91 44 22:19 09.04.2020
5154 Clouds 8 1022 24 0 2.01 47 21:38 09.04.2020
5155 Clouds 8 1023 25 0 1.9 42 21:19 09.04.2020
5156 Clouds 8 1023 25 0 1.9 42 20:47 09.04.2020
5157 Clouds 8 1023 25 0 1.9 42 20:22 09.04.2020
5158 Clouds 8 1023 25 0 1.9 42 19:59 09.04.2020
5159 Clouds 8 1023 25 0 1.9 42 19:59 09.04.2020
5160 Clouds 8 1023 25 0 1.9 42 19:38 09.04.2020
5161 Clouds 8 1023 25 0 1.9 42 19:20 09.04.2020
5162 Clouds 8 1023 25 0 1.9 42 18:42 09.04.2020
5163 Clouds 9 1021 24 0 1.68 51 18:21 09.04.2020
5164 Clouds 9 1021 24 0 1.68 51 17:55 09.04.2020
5165 Clouds 9 1021 24 0 1.68 51 17:36 09.04.2020
5166 Clouds 9 1021 24 0 1.68 51 17:18 09.04.2020
5167 Clouds 9 1021 24 0 1.68 51 16:39 09.04.2020
5168 Clouds 9 1021 24 0 1.68 51 16:19 09.04.2020
5169 Clouds 9 1021 24 0 1.68 51 15:56 09.04.2020
5170 Clouds 9 1021 24 0 1.68 51 15:56 09.04.2020
5171 Clouds 9 1021 24 0 1.68 51 15:37 09.04.2020
5172 Rain 13 1018 22 0 1.71 225 15:19 09.04.2020
5173 Rain 13 1018 22 0 1.71 225 14:42 09.04.2020
5174 Rain 13 1018 22 0 1.73 221 14:21 09.04.2020
5175 Rain 13 1018 22 0 1.73 221 13:58 09.04.2020
5176 Rain 13 1018 22 0 1.73 221 13:40 09.04.2020
5177 Rain 13 1018 22 0 1.73 221 13:21 09.04.2020
5178 Rain 13 1018 22 0 1.73 221 12:54 09.04.2020
5179 Rain 13 1018 22 0 1.73 221 12:36 09.04.2020
5180 Clouds 16 1017 16 0 2.97 225 12:18 09.04.2020
5181 Clouds 16 1017 16 0 2.97 225 11:42 09.04.2020
5182 Clouds 16 1017 16 0 2.97 225 11:20 09.04.2020
5183 Clouds 16 1017 16 0 2.97 225 11:20 09.04.2020
5184 Clouds 16 1017 16 0 2.97 225 10:58 09.04.2020
5185 Clouds 16 1017 16 0 2.97 225 10:40 09.04.2020
5186 Clouds 16 1017 16 0 2.97 225 10:21 09.04.2020
5187 Clouds 16 1017 16 0 2.97 225 09:56 09.04.2020
5188 Clouds 16 1017 16 0 2.97 225 09:38 09.04.2020
5189 Clouds 16 1020 15 0 2.78 224 09:20 09.04.2020
5190 Clouds 16 1020 15 0 2.78 224 08:44 09.04.2020
5191 Clouds 16 1020 15 0 2.78 224 08:23 09.04.2020
5192 Clouds 16 1020 15 0 2.78 224 07:56 09.04.2020
5193 Clouds 16 1020 15 0 2.78 224 07:27 09.04.2020
5194 Clouds 16 1020 15 0 2.78 224 06:56 09.04.2020
5195 Clear 12 1022 18 0 0.6 50 06:25 09.04.2020
5196 Clear 12 1022 18 0 0.6 50 05:43 09.04.2020
5197 Clear 12 1022 18 0 0.6 50 04:26 09.04.2020
5198 Clouds 4 1024 25 0 3.14 39 02:32 09.04.2020
5199 Clouds 4 1024 25 0 3.09 39 01:43 09.04.2020
5200 Clouds 4 1024 25 0 3.09 39 01:24 09.04.2020
5201 Clouds 4 1024 25 0 3.09 39 00:43 09.04.2020
5202 Clouds 5 1024 25 0 2.86 37 00:20 09.04.2020
5203 Clouds 5 1024 25 0 2.86 37 00:20 09.04.2020
5204 Clouds 5 1024 25 0 2.86 37 23:59 08.04.2020
5205 Clouds 5 1024 25 0 2.86 37 23:41 08.04.2020
5206 Clouds 5 1024 25 0 2.86 37 23:21 08.04.2020
5207 Clouds 5 1024 25 0 2.86 37 22:44 08.04.2020
5208 Clouds 5 1024 25 0 2.86 37 22:24 08.04.2020
5209 Clouds 5 1024 25 0 2.86 37 21:57 08.04.2020
5210 Clouds 5 1024 25 0 2.86 37 21:39 08.04.2020
5211 Clear 5 1024 26 0 2.94 43 21:20 08.04.2020
5212 Clear 5 1024 26 0 2.94 43 20:58 08.04.2020
5213 Clear 5 1024 26 0 2.94 43 20:39 08.04.2020
5214 Clear 5 1024 26 0 2.94 43 20:20 08.04.2020
5215 Clear 5 1024 26 0 2.94 43 19:58 08.04.2020
5216 Clear 5 1024 26 0 2.94 43 19:37 08.04.2020
5217 Clear 5 1024 26 0 2.94 43 19:19 08.04.2020
5218 Clear 5 1024 26 0 2.94 43 18:44 08.04.2020
5219 Clear 6 1022 26 0 3.05 45 18:24 08.04.2020
5220 Clear 6 1022 26 0 3.05 45 17:56 08.04.2020
5221 Clear 6 1022 26 0 3.05 45 17:38 08.04.2020
5222 Clear 6 1022 26 0 3.05 45 17:19 08.04.2020
5223 Clear 6 1022 26 0 3.05 45 16:43 08.04.2020
5224 Clear 6 1022 26 0 3.05 45 16:23 08.04.2020
5225 Clear 6 1022 26 0 3.05 45 15:58 08.04.2020
5226 Clear 6 1022 26 0 3.05 45 15:38 08.04.2020
5227 Rain 12 1017 20 0 0.9 232 15:20 08.04.2020
5228 Rain 12 1017 20 0 0.9 232 14:45 08.04.2020
5229 Rain 12 1017 20 0 0.9 232 14:25 08.04.2020
5230 Rain 11 1017 22 0 0.41 262 13:57 08.04.2020
5231 Rain 11 1017 22 0 0.41 262 13:39 08.04.2020
5232 Rain 11 1017 22 0 0.41 262 13:20 08.04.2020
5233 Rain 11 1017 22 0 0.41 262 12:42 08.04.2020
5234 Clouds 14 1017 17 0 1.31 228 12:19 08.04.2020
5235 Clouds 14 1017 17 0 1.31 228 11:59 08.04.2020
5236 Clouds 14 1017 17 0 1.31 228 11:40 08.04.2020
5237 Clouds 14 1017 17 0 1.31 228 11:22 08.04.2020
5238 Clouds 14 1017 17 0 1.31 228 10:56 08.04.2020
5239 Clouds 14 1017 17 0 1.31 228 10:37 08.04.2020
5240 Clouds 14 1017 17 0 1.31 228 10:19 08.04.2020
5241 Clouds 14 1017 17 0 1.31 228 09:55 08.04.2020
5242 Rain 13 1017 18 0 1.59 209 09:37 08.04.2020
5243 Clouds 14 1019 17 0 2.48 203 09:18 08.04.2020
5244 Clouds 14 1019 17 0 2.48 203 08:42 08.04.2020
5245 Clouds 14 1019 17 0 2.48 203 08:42 08.04.2020
5246 Clouds 14 1019 17 0 2.48 203 08:23 08.04.2020
5247 Clouds 14 1019 17 0 2.48 203 07:47 08.04.2020
5248 Clouds 14 1019 17 0 2.48 203 07:28 08.04.2020
5249 Clouds 14 1019 17 0 2.48 203 06:59 08.04.2020
5250 Clouds 10 1021 20 0 1.67 85 06:19 08.04.2020
5251 Clouds 10 1021 20 0 1.67 85 04:20 08.04.2020
5252 Clouds 4 1022 28 0 3.19 53 02:49 08.04.2020
5253 Clouds 5 1021 27 0 2.92 54 02:20 08.04.2020
5254 Clouds 5 1021 27 0 2.92 54 01:51 08.04.2020
5255 Clouds 5 1021 27 0 2.92 54 01:27 08.04.2020
5256 Clouds 5 1021 27 0 2.92 54 00:41 08.04.2020
5257 Clouds 5 1021 27 0 2.18 55 00:22 08.04.2020
5258 Clouds 5 1021 27 0 2.18 55 23:40 07.04.2020
5259 Clouds 5 1021 27 0 2.18 55 23:40 07.04.2020
5260 Clouds 5 1021 27 0 2.18 55 23:21 07.04.2020
5261 Clouds 5 1021 27 0 2.18 55 22:57 07.04.2020
5262 Clouds 5 1021 27 0 2.18 55 22:39 07.04.2020
5263 Clouds 5 1021 27 0 2.18 55 22:19 07.04.2020
5264 Clouds 5 1021 27 0 2.18 55 21:56 07.04.2020
5265 Clouds 5 1021 27 0 2.18 55 21:56 07.04.2020
5266 Clouds 5 1021 27 0 2.18 55 21:38 07.04.2020
5267 Clouds 6 1021 27 0 2.4 40 21:20 07.04.2020
5268 Clouds 6 1021 27 0 2.4 40 20:57 07.04.2020
5269 Clouds 6 1021 27 0 2.4 40 20:38 07.04.2020
5270 Clouds 6 1021 27 0 2.4 40 20:20 07.04.2020
5271 Clouds 6 1021 27 0 2.4 40 19:57 07.04.2020
5272 Clouds 6 1021 27 0 2.4 40 19:36 07.04.2020
5273 Clouds 6 1021 27 0 2.4 40 19:18 07.04.2020
5274 Clouds 6 1021 27 0 2.4 40 18:54 07.04.2020
5275 Clouds 6 1021 27 0 2.4 40 18:36 07.04.2020
5276 Clouds 7 1020 26 0 1.99 75 18:18 07.04.2020
5277 Clouds 7 1020 26 0 1.99 75 17:44 07.04.2020
5278 Clouds 7 1020 26 0 1.99 75 17:20 07.04.2020
5279 Clouds 7 1020 26 0 1.99 75 16:46 07.04.2020
5280 Clouds 7 1020 26 0 1.99 75 16:27 07.04.2020
5281 Clouds 7 1020 26 0 1.99 75 15:56 07.04.2020
5282 Clouds 7 1020 26 0 1.99 75 15:38 07.04.2020
5283 Rain 12 1016 24 0 1.8 172 15:19 07.04.2020
5284 Rain 11 1016 25 0 1.36 152 14:41 07.04.2020
5285 Rain 11 1016 25 0 1.36 152 14:22 07.04.2020
5286 Rain 11 1016 25 0 1.36 152 13:56 07.04.2020
5287 Rain 11 1016 25 0 1.36 152 13:37 07.04.2020
5288 Rain 11 1016 25 0 1.36 152 13:18 07.04.2020
5289 Rain 11 1016 25 0 1.36 152 12:54 07.04.2020
5290 Rain 11 1016 25 0 1.36 152 12:36 07.04.2020
5291 Rain 13 1017 22 0 2.91 231 12:18 07.04.2020
5292 Rain 13 1017 22 0 2.91 231 11:42 07.04.2020
5293 Rain 13 1017 22 0 2.91 231 11:22 07.04.2020
5294 Rain 13 1017 22 0 2.91 231 10:58 07.04.2020
5295 Rain 13 1017 22 0 2.91 231 10:37 07.04.2020
5296 Rain 13 1017 22 0 2.91 231 10:19 07.04.2020
5297 Rain 13 1017 22 0 2.91 231 09:45 07.04.2020
5298 Clouds 15 1019 16 0 3.45 221 09:18 07.04.2020
5299 Clouds 15 1019 16 0 3.45 221 08:55 07.04.2020
5300 Clouds 15 1019 16 0 3.45 221 08:36 07.04.2020
5301 Clouds 15 1019 16 0 3.45 221 08:18 07.04.2020
5302 Clouds 15 1019 16 0 3.45 221 07:40 07.04.2020
5303 Clouds 15 1019 16 0 3.45 221 07:21 07.04.2020
5304 Clouds 15 1019 16 0 3.45 221 06:51 07.04.2020
5305 Clouds 11 1021 19 0 1.73 66 06:21 07.04.2020
5306 Clouds 11 1021 19 0 1.73 66 05:38 07.04.2020
5307 Clouds 11 1021 19 0 1.73 66 04:46 07.04.2020
5308 Clouds 4 1022 26 0 2.77 41 03:26 07.04.2020
5309 Clouds 4 1022 26 0 2.77 41 02:59 07.04.2020
5310 Clouds 4 1022 26 0 3.01 44 01:50 07.04.2020
5311 Clouds 4 1022 26 0 3.01 44 01:26 07.04.2020
5312 Clouds 5 1023 27 0 2.48 39 00:29 07.04.2020
5313 Clouds 5 1023 27 0 2.48 39 23:57 06.04.2020
5314 Clouds 5 1023 27 0 2.48 39 23:38 06.04.2020
5315 Clouds 5 1023 27 0 2.48 39 23:19 06.04.2020
5316 Clouds 5 1023 27 0 2.48 39 22:41 06.04.2020
5317 Clouds 5 1023 27 0 2.48 39 22:22 06.04.2020
5318 Clouds 5 1023 27 0 2.48 39 21:58 06.04.2020
5319 Clouds 5 1022 27 0 2.51 39 21:39 06.04.2020
5320 Clouds 5 1023 27 0 2.27 39 21:19 06.04.2020
5321 Clouds 5 1023 27 0 2.27 39 20:55 06.04.2020
5322 Clouds 5 1023 27 0 2.27 39 20:55 06.04.2020
5323 Clouds 5 1023 27 0 2.27 39 20:37 06.04.2020
5324 Clouds 5 1023 27 0 2.27 39 20:19 06.04.2020
5325 Clouds 5 1023 27 0 2.27 39 19:42 06.04.2020
5326 Clouds 5 1023 27 0 2.27 39 19:23 06.04.2020
5327 Clouds 5 1023 27 0 2.27 39 18:59 06.04.2020
5328 Clouds 5 1023 27 0 2.27 39 18:41 06.04.2020
5329 Rain 6 1022 27 0 2.83 44 18:23 06.04.2020
5330 Rain 6 1022 27 0 2.83 44 17:55 06.04.2020
5331 Rain 6 1022 27 0 2.83 44 17:36 06.04.2020
5332 Rain 6 1022 27 0 2.83 44 17:18 06.04.2020
5333 Rain 6 1022 27 0 2.83 44 17:18 06.04.2020
5334 Rain 6 1022 27 0 2.83 44 16:45 06.04.2020
5335 Rain 6 1022 27 0 2.83 44 16:27 06.04.2020
5336 Rain 12 1018 23 0 1.4 243 14:46 06.04.2020
5337 Rain 12 1018 23 0 1.4 243 14:46 06.04.2020
5338 Rain 12 1018 23 0 1.4 243 14:46 06.04.2020
5339 Rain 12 1018 23 0 1.4 243 14:46 06.04.2020
5340 Rain 12 1018 23 0 1.4 243 14:46 06.04.2020
5341 Rain 12 1018 23 0 1.24 251 13:44 06.04.2020
5342 Rain 12 1018 23 0 1.24 251 13:44 06.04.2020
5343 Rain 12 1018 23 0 1.24 251 13:21 06.04.2020
5344 Rain 12 1018 23 0 1.24 251 12:40 06.04.2020
5345 Rain 14 1018 19 0 2.88 241 12:18 06.04.2020
5346 Rain 14 1018 19 0 2.88 241 12:18 06.04.2020
5347 Rain 14 1018 19 0 2.88 241 11:40 06.04.2020
5348 Rain 14 1018 19 0 2.88 241 11:40 06.04.2020
5349 Rain 14 1018 19 0 2.88 241 11:40 06.04.2020
5350 Rain 14 1018 19 0 2.88 241 11:40 06.04.2020
5351 Rain 14 1018 19 0 2.88 241 11:40 06.04.2020
5352 Rain 14 1018 19 0 2.88 241 10:53 06.04.2020
5353 Rain 14 1018 19 0 2.88 241 10:53 06.04.2020
5354 Rain 14 1018 19 0 2.88 241 10:53 06.04.2020
5355 Rain 14 1018 19 0 2.88 241 10:23 06.04.2020
5356 Rain 14 1018 19 0 2.88 241 10:23 06.04.2020
5357 Rain 14 1018 19 0 2.88 241 10:03 06.04.2020
5358 Rain 14 1018 19 0 2.88 241 10:02 06.04.2020
5359 Rain 14 1018 19 0 2.88 241 10:01 06.04.2020
5360 Rain 14 1018 19 0 2.88 241 09:26 06.04.2020
5361 Clear 14 1021 17 0 2.79 221 08:55 06.04.2020
5362 Clear 14 1021 17 0 2.79 221 08:37 06.04.2020
5363 Clear 14 1021 17 0 2.79 221 08:37 06.04.2020
5364 Clear 14 1021 17 0 2.79 221 08:37 06.04.2020
5365 Clear 14 1021 17 0 2.79 221 07:56 06.04.2020
5366 Clear 14 1021 17 0 2.79 221 07:56 06.04.2020
5367 Clear 14 1021 17 0 2.79 221 07:56 06.04.2020
5368 Clear 14 1021 17 0 2.79 221 07:19 06.04.2020
5369 Clear 14 1021 17 0 2.79 221 06:26 06.04.2020
5370 Clear 10 1023 20 0 0.77 72 05:42 06.04.2020
5371 Clear 10 1023 20 0 0.77 72 03:29 06.04.2020
5372 Clouds 4 1025 28 0 3.17 48 02:49 06.04.2020
5373 Clouds 4 1025 28 0 3.17 48 02:49 06.04.2020
5374 Clouds 4 1025 28 0 2.94 48 01:53 06.04.2020
5375 Clouds 4 1025 28 0 2.94 48 00:52 06.04.2020
5376 Clouds 4 1025 28 0 2.94 48 00:27 06.04.2020
5377 Clouds 4 1025 29 0 3.01 46 23:50 05.04.2020
5378 Clouds 4 1025 29 0 3.01 46 23:32 05.04.2020
5379 Clouds 4 1025 29 0 3.01 46 23:32 05.04.2020
5380 Clouds 4 1025 29 0 3.01 46 23:32 05.04.2020
5381 Clouds 4 1025 29 0 3.01 46 22:57 05.04.2020
5382 Clouds 4 1025 29 0 3.01 46 22:38 05.04.2020
5383 Clouds 4 1025 29 0 3.01 46 22:19 05.04.2020
5384 Clouds 4 1025 29 0 3.01 46 21:59 05.04.2020
5385 Clouds 4 1025 29 0 3.01 46 21:40 05.04.2020
5386 Clouds 4 1025 28 0 3.08 47 21:22 05.04.2020
5387 Clouds 5 1026 28 0 2.6 47 20:22 05.04.2020
5388 Clouds 5 1026 28 0 2.6 47 20:22 05.04.2020
5389 Clouds 5 1026 28 0 2.6 47 19:42 05.04.2020
5390 Clouds 5 1026 28 0 2.6 47 19:22 05.04.2020
5391 Clouds 5 1026 28 0 2.6 47 18:47 05.04.2020
5392 Clouds 6 1023 27 0 2.01 50 18:18 05.04.2020
5393 Clouds 6 1023 27 0 2.01 50 17:41 05.04.2020
5394 Clouds 6 1023 27 0 2.01 50 17:41 05.04.2020
5395 Clouds 6 1023 27 0 2.01 50 17:41 05.04.2020
5396 Clouds 6 1023 27 0 2.01 50 17:20 05.04.2020
5397 Clouds 6 1023 27 0 2.01 50 16:47 05.04.2020
5398 Clouds 6 1023 27 0 2.01 50 16:18 05.04.2020
5399 Clouds 6 1023 27 0 2.01 50 15:45 05.04.2020
5400 Clouds 6 1023 27 0 2.01 50 15:25 05.04.2020
5401 Rain 12 1019 22 0 2.3 231 14:48 05.04.2020
5402 Rain 12 1019 22 0 2.3 231 14:48 05.04.2020
5403 Rain 12 1019 22 0 2.3 231 14:48 05.04.2020
5404 Rain 12 1019 22 0 2.3 231 14:48 05.04.2020
5405 Rain 12 1019 22 0 2.17 228 13:54 05.04.2020
5406 Rain 12 1019 22 0 2.17 228 13:24 05.04.2020
5407 Rain 12 1019 22 0 2.17 228 13:24 05.04.2020
5408 Rain 12 1019 22 0 2.17 228 13:21 05.04.2020
5409 Rain 12 1019 22 0 2.17 228 13:20 05.04.2020
5410 Rain 12 1019 22 0 2.17 228 13:18 05.04.2020
5411 Clouds 14 1019 17 0 3.14 223 11:58 05.04.2020
5412 Clouds 14 1019 17 0 3.14 223 11:39 05.04.2020
5413 Clouds 14 1019 17 0 3.14 223 11:19 05.04.2020
5414 Clouds 14 1019 17 0 3.14 223 10:47 05.04.2020
5415 Clouds 14 1019 17 0 3.14 223 10:47 05.04.2020
5416 Clouds 14 1019 17 0 3.14 223 10:47 05.04.2020
5417 Clouds 14 1019 17 0 3.14 223 10:22 05.04.2020
5418 Clouds 14 1019 17 0 3.14 223 09:52 05.04.2020
5419 Clouds 14 1019 17 0 3.14 223 09:25 05.04.2020
5420 Clouds 14 1019 18 0 3.34 222 09:25 05.04.2020
5421 Clouds 14 1019 17 0 3.14 223 09:25 05.04.2020
5422 Clouds 14 1019 17 0 3.14 223 09:25 05.04.2020
5423 Clouds 15 1022 16 0 2.81 210 08:18 05.04.2020
5424 Clouds 11 1024 19 0 1.23 68 05:37 05.04.2020
5425 Clouds 11 1024 19 0 1.23 68 05:37 05.04.2020
5426 Clouds 11 1024 19 0 1.23 68 05:37 05.04.2020
5427 Clouds 11 1024 19 0 1.23 68 05:37 05.04.2020
5428 Clouds 11 1024 19 0 1.23 68 05:37 05.04.2020
5429 Clouds 11 1024 19 0 1.23 68 04:29 05.04.2020
5430 Clouds 11 1024 19 0 1.23 68 04:29 05.04.2020
5431 Clouds 11 1024 19 0 1.23 68 03:24 05.04.2020
5432 Clouds 4 1025 26 0 3.21 43 02:18 05.04.2020
5433 Clouds 4 1025 26 0 3.21 43 01:42 05.04.2020
5434 Clouds 4 1025 26 0 3.21 43 01:18 05.04.2020
5435 Clouds 4 1025 26 0 3.21 43 00:37 05.04.2020
5436 Clear 4 1024 27 0 2.69 42 00:18 05.04.2020
5437 Clear 4 1024 27 0 2.69 42 23:41 04.04.2020
5438 Clear 4 1024 27 0 2.69 42 23:21 04.04.2020
5439 Clear 4 1024 27 0 2.69 42 22:57 04.04.2020
5440 Clear 4 1024 27 0 2.69 42 22:39 04.04.2020
5441 Clear 4 1024 27 0 2.69 42 22:19 04.04.2020
5442 Clear 4 1024 27 0 2.69 42 21:57 04.04.2020
5443 Clear 4 1024 27 0 2.69 42 21:38 04.04.2020
5444 Clouds 5 1024 27 0 2.46 45 21:19 04.04.2020
5445 Clouds 5 1025 27 0 2.41 44 21:19 04.04.2020
5446 Clouds 5 1024 27 0 2.46 45 20:55 04.04.2020
5447 Clouds 5 1024 27 0 2.46 45 20:36 04.04.2020
5448 Clouds 5 1024 27 0 2.46 45 20:18 04.04.2020
5449 Clouds 5 1024 27 0 2.46 45 19:41 04.04.2020
5450 Clouds 5 1024 27 0 2.46 45 19:21 04.04.2020
5451 Clouds 5 1024 27 0 2.76 46 18:59 04.04.2020
5452 Clouds 5 1024 27 0 2.46 45 18:40 04.04.2020
5453 Clouds 5 1024 27 0 2.76 46 18:21 04.04.2020
5454 Rain 6 1022 26 0 2.7 46 17:59 04.04.2020
5455 Clouds 6 1022 26 0 2.76 47 17:39 04.04.2020
5456 Rain 6 1022 26 0 2.7 46 17:39 04.04.2020
5457 Rain 6 1022 26 0 2.7 46 17:19 04.04.2020
5458 Rain 6 1022 26 0 2.7 46 16:46 04.04.2020
5459 Rain 6 1022 26 0 2.7 46 16:27 04.04.2020
5460 Rain 6 1022 26 0 2.7 46 15:59 04.04.2020
5461 Rain 6 1022 26 0 2.7 46 15:39 04.04.2020
5462 Rain 12 1018 21 0 1.38 230 15:20 04.04.2020
5463 Rain 12 1018 21 0 1.39 232 14:56 04.04.2020
5464 Rain 12 1018 21 0 1.38 230 14:37 04.04.2020
5465 Rain 12 1018 21 0 1.38 230 14:18 04.04.2020
5466 Rain 12 1018 21 0 1.39 232 13:54 04.04.2020
5467 Rain 12 1018 21 0 1.39 232 13:36 04.04.2020
5468 Rain 12 1018 21 0 1.39 232 13:18 04.04.2020
5469 Rain 12 1018 21 0 1.39 232 12:42 04.04.2020
5470 Rain 12 1018 21 0 1.39 232 12:23 04.04.2020
5471 Clouds 15 1018 17 0 2.8 227 11:54 04.04.2020
5472 Clouds 15 1018 17 0 2.8 227 11:36 04.04.2020
5473 Clouds 15 1018 17 0 2.8 227 11:18 04.04.2020
5474 Clouds 15 1018 17 0 2.8 227 10:55 04.04.2020
5475 Clouds 15 1018 17 0 2.8 227 10:37 04.04.2020
5476 Clouds 15 1018 17 0 2.8 227 10:18 04.04.2020
5477 Clouds 15 1018 17 0 2.8 227 09:42 04.04.2020
5478 Clouds 15 1018 17 0 2.69 226 09:24 04.04.2020
5479 Clear 14 1021 16 0 2.54 223 08:56 04.04.2020
5480 Clear 14 1021 16 0 2.54 223 08:37 04.04.2020
5481 Clear 14 1021 16 0 2.54 223 08:19 04.04.2020
5482 Clear 14 1021 16 0 2.54 223 07:40 04.04.2020
5483 Clear 14 1021 16 0 2.54 223 07:22 04.04.2020
5484 Clear 14 1021 16 0 2.54 223 07:22 04.04.2020
5485 Clear 14 1021 16 0 2.54 223 06:46 04.04.2020
5486 Clouds 10 1023 20 0 0.95 57 05:57 04.04.2020
5487 Clouds 10 1023 20 0 0.95 57 05:39 04.04.2020
5488 Clouds 10 1023 20 0 0.95 57 05:21 04.04.2020
5489 Clouds 10 1023 20 0 0.95 57 04:24 04.04.2020
5490 Clouds 10 1023 20 0 0.95 57 03:45 04.04.2020
5491 Clouds 4 1023 26 0 2.64 40 02:49 04.04.2020
5492 Clouds 4 1023 26 0 2.64 40 02:30 04.04.2020
5493 Clouds 4 1024 26 0 2.92 44 01:50 04.04.2020
5494 Clouds 4 1024 26 0 2.92 44 01:22 04.04.2020
5495 Clouds 4 1024 26 0 2.92 44 00:47 04.04.2020
5496 Clouds 4 1024 26 0 2.92 44 00:26 04.04.2020
5497 Clouds 4 1023 27 0 2.59 45 23:39 03.04.2020
5498 Clouds 4 1023 27 0 2.59 45 23:20 03.04.2020
5499 Clouds 4 1023 27 0 2.59 45 22:56 03.04.2020
5500 Clouds 4 1023 27 0 2.59 45 22:37 03.04.2020
5501 Clouds 4 1023 27 0 2.59 45 22:18 03.04.2020
5502 Clouds 4 1023 27 0 2.59 45 21:43 03.04.2020
5503 Clouds 4 1023 26 0 2.56 44 21:22 03.04.2020
5504 Clouds 5 1023 26 0 2.43 46 20:56 03.04.2020
5505 Clouds 5 1023 26 0 2.43 46 20:37 03.04.2020
5506 Clouds 5 1023 26 0 2.43 46 20:19 03.04.2020
5507 Clouds 5 1023 26 0 2.43 46 19:56 03.04.2020
5508 Clouds 5 1023 26 0 2.43 46 19:38 03.04.2020
5509 Clouds 5 1023 26 0 2.43 46 19:19 03.04.2020
5510 Clouds 5 1023 26 0 2.43 46 18:58 03.04.2020
5511 Clouds 5 1023 26 0 2.43 46 18:40 03.04.2020
5512 Clouds 5 1023 26 0 2.43 46 18:22 03.04.2020
5513 Clouds 6 1022 26 0 2.47 54 17:43 03.04.2020
5514 Clouds 6 1022 26 0 2.47 54 17:21 03.04.2020
5515 Clouds 6 1022 26 0 2.47 54 16:58 03.04.2020
5516 Clouds 6 1022 26 0 2.47 54 16:40 03.04.2020
5517 Clouds 6 1022 26 0 2.47 54 16:21 03.04.2020
5518 Clouds 6 1022 26 0 2.47 54 15:58 03.04.2020
5519 Clouds 6 1022 26 0 2.47 54 15:38 03.04.2020
5520 Rain 11 1018 21 0 1.3 218 15:19 03.04.2020
5521 Rain 11 1018 21 0 1.3 218 14:41 03.04.2020
5522 Rain 11 1018 21 0 1.3 218 14:41 03.04.2020
5523 Clouds 11 1017 21 0 1.24 219 14:22 03.04.2020
5524 Clouds 11 1017 21 0 1.24 219 13:59 03.04.2020
5525 Clouds 11 1017 21 0 1.24 219 13:40 03.04.2020
5526 Clouds 11 1017 21 0 1.24 219 13:22 03.04.2020
5527 Clouds 11 1017 21 0 1.24 219 12:43 03.04.2020
5528 Clouds 11 1017 21 0 1.24 219 12:20 03.04.2020
5529 Clear 14 1017 17 0 2.39 222 11:57 03.04.2020
5530 Clear 14 1017 17 0 2.39 222 11:39 03.04.2020
5531 Clear 14 1017 17 0 2.39 222 11:20 03.04.2020
5532 Clear 14 1017 17 0 2.39 222 10:59 03.04.2020
5533 Clear 14 1017 17 0 2.39 222 10:39 03.04.2020
5534 Clear 14 1017 17 0 2.39 222 10:20 03.04.2020
5535 Clear 14 1017 17 0 2.39 222 10:20 03.04.2020
5536 Clear 14 1017 17 0 2.39 222 09:59 03.04.2020
5537 Clear 14 1017 17 0 2.39 222 09:40 03.04.2020
5538 Clear 14 1017 17 0 2.39 222 09:21 03.04.2020
5539 Clear 14 1018 17 0 2.33 224 09:21 03.04.2020
5540 Clear 13 1020 17 0 1.29 221 08:56 03.04.2020
5541 Clear 13 1020 17 0 1.29 221 08:37 03.04.2020
5542 Clear 13 1020 17 0 1.29 221 08:19 03.04.2020
5543 Clear 13 1020 17 0 1.29 221 07:46 03.04.2020
5544 Clear 13 1020 17 0 1.29 221 07:28 03.04.2020
5545 Clear 13 1020 17 0 1.29 221 06:40 03.04.2020
5546 Clear 9 1024 21 0 1.91 54 06:22 03.04.2020
5547 Clear 9 1024 21 0 1.91 54 05:39 03.04.2020
5548 Clear 9 1024 21 0 1.91 54 03:42 03.04.2020
5549 Clear 1 1026 29 0 3.62 45 02:56 03.04.2020
5550 Clear 1 1026 29 0 3.62 45 02:18 03.04.2020
5551 Clear 1 1026 29 0 3.51 43 01:20 03.04.2020
5552 Clear 1 1026 29 0 3.51 43 00:34 03.04.2020
5553 Clear 1 1025 31 0 3.17 43 23:58 02.04.2020
5554 Clear 1 1025 31 0 3.17 43 23:39 02.04.2020
5555 Clear 1 1025 31 0 3.17 43 23:21 02.04.2020
5556 Clear 1 1025 31 0 3.17 43 22:57 02.04.2020
5557 Clear 1 1025 31 0 3.17 43 22:37 02.04.2020
5558 Clear 1 1025 31 0 3.17 43 22:18 02.04.2020
5559 Clear 1 1025 31 0 3.17 43 21:39 02.04.2020
5560 Clouds 1 1023 32 0 3.23 42 21:19 02.04.2020
5561 Clouds 1 1023 32 0 3.23 42 20:58 02.04.2020
5562 Clouds 1 1023 32 0 3.23 42 20:58 02.04.2020
5563 Clouds 1 1023 32 0 3.23 42 20:40 02.04.2020
5564 Clouds 1 1023 32 0 3.23 42 20:21 02.04.2020
5565 Clouds 1 1023 32 0 3.23 42 19:44 02.04.2020
5566 Clouds 1 1023 32 0 3.23 42 19:21 02.04.2020
5567 Clouds 1 1023 32 0 3.23 42 18:58 02.04.2020
5568 Clouds 1 1023 32 0 3.23 42 18:39 02.04.2020
5569 Snow 2 1020 32 0 2.39 34 18:20 02.04.2020
5570 Snow 2 1020 32 0 2.39 34 17:56 02.04.2020
5571 Snow 2 1020 32 0 2.39 34 17:38 02.04.2020
5572 Snow 2 1020 32 0 2.39 34 17:19 02.04.2020
5573 Snow 2 1020 32 0 2.39 34 16:55 02.04.2020
5574 Snow 2 1020 32 0 2.39 34 16:37 02.04.2020
5575 Snow 2 1020 32 0 2.39 34 16:19 02.04.2020
5576 Snow 2 1020 32 0 2.39 34 15:44 02.04.2020
5577 Snow 2 1020 32 0 2.39 34 15:21 02.04.2020
5578 Clouds 8 1015 25 0 1.46 230 14:59 02.04.2020
5579 Clouds 8 1015 25 0 1.46 230 14:40 02.04.2020
5580 Clouds 8 1015 25 0 1.46 230 14:20 02.04.2020
5581 Clouds 8 1015 25 0 1.08 232 13:57 02.04.2020
5582 Clouds 8 1015 25 0 1.08 232 13:38 02.04.2020
5583 Clouds 8 1015 25 0 1.08 232 13:38 02.04.2020
5584 Clouds 8 1015 25 0 1.08 232 13:20 02.04.2020
5585 Clouds 8 1015 25 0 1.08 232 12:55 02.04.2020
5586 Clouds 8 1015 25 0 1.08 232 12:37 02.04.2020
5587 Clouds 11 1015 21 0 3.37 223 12:19 02.04.2020
5588 Clouds 11 1015 21 0 3.37 223 11:56 02.04.2020
5589 Clouds 11 1015 21 0 3.37 223 11:37 02.04.2020
5590 Clouds 11 1015 21 0 3.37 223 11:37 02.04.2020
5591 Clouds 11 1015 21 0 3.37 223 11:18 02.04.2020
5592 Clouds 11 1015 21 0 3.37 223 10:54 02.04.2020
5593 Clouds 11 1015 21 0 3.37 223 10:36 02.04.2020
5594 Clouds 11 1015 21 0 3.37 223 10:18 02.04.2020
5595 Clouds 11 1015 21 0 3.37 223 09:43 02.04.2020
5596 Clouds 11 1015 21 0 3.37 223 09:24 02.04.2020
5597 Clouds 11 1018 21 0 2.72 223 08:58 02.04.2020
5598 Clouds 11 1018 21 0 2.72 223 08:40 02.04.2020
5599 Clouds 11 1018 21 0 2.72 223 08:20 02.04.2020
5600 Clouds 11 1018 21 0 2.72 223 07:43 02.04.2020
5601 Clouds 11 1018 21 0 2.72 223 07:20 02.04.2020
5602 Clouds 11 1018 21 0 2.72 223 06:57 02.04.2020
5603 Clouds 11 1018 21 0 2.72 223 06:21 02.04.2020
5604 Clouds 8 1021 24 0 0.72 136 05:42 02.04.2020
5605 Clouds 8 1021 24 0 0.72 136 03:24 02.04.2020
5606 Clouds 2 1022 32 0 2.34 50 01:34 02.04.2020
5607 Clouds 2 1022 32 0 2.34 50 00:46 02.04.2020
5608 Clouds 2 1022 32 0 2.34 50 00:26 02.04.2020
5609 Clouds 2 1022 33 0 2.68 47 23:41 01.04.2020
5610 Clouds 2 1022 33 0 2.68 47 23:20 01.04.2020
5611 Clouds 2 1022 33 0 2.68 47 22:59 01.04.2020
5612 Clouds 2 1022 33 0 2.68 47 22:39 01.04.2020
5613 Clouds 2 1022 33 0 2.68 47 22:21 01.04.2020
5614 Clouds 2 1022 33 0 2.68 47 21:55 01.04.2020
5615 Clouds 2 1022 33 0 2.68 47 21:36 01.04.2020
5616 Rain 3 1022 31 0 2.51 43 21:18 01.04.2020
5617 Rain 3 1022 31 0 2.51 43 20:54 01.04.2020
5618 Rain 3 1022 31 0 2.51 43 20:36 01.04.2020
5619 Rain 3 1022 31 0 2.51 43 20:18 01.04.2020
5620 Rain 3 1022 31 0 2.51 43 19:41 01.04.2020
5621 Rain 3 1022 31 0 2.51 43 19:21 01.04.2020
5622 Rain 3 1022 31 0 2.51 43 18:46 01.04.2020
5623 Rain 3 1022 31 0 2.51 43 18:27 01.04.2020
5624 Rain 4 1020 31 0 1.36 43 17:59 01.04.2020
5625 Rain 4 1020 31 0 1.36 43 17:59 01.04.2020
5626 Rain 4 1020 31 0 1.36 43 17:39 01.04.2020
5627 Rain 4 1020 31 0 1.36 43 17:21 01.04.2020
5628 Rain 4 1020 31 0 1.36 43 16:59 01.04.2020
5629 Rain 4 1020 31 0 1.36 43 16:41 01.04.2020
5630 Rain 4 1020 31 0 1.36 43 16:22 01.04.2020
5631 Rain 4 1020 31 0 1.36 43 15:58 01.04.2020
5632 Rain 4 1020 31 0 1.36 43 15:40 01.04.2020
5633 Rain 4 1020 31 0 1.36 43 15:21 01.04.2020
5634 Rain 10 1015 27 0 2.01 247 14:57 01.04.2020
5635 Rain 10 1015 27 0 2.01 247 14:57 01.04.2020
5636 Rain 10 1015 27 0 2.01 247 14:38 01.04.2020
5637 Rain 10 1015 27 0 2.01 247 14:19 01.04.2020
5638 Rain 10 1016 26 0 2.24 244 13:58 01.04.2020
5639 Rain 10 1016 26 0 2.24 244 13:37 01.04.2020
5640 Rain 10 1016 26 0 2.24 244 13:19 01.04.2020
5641 Rain 10 1016 26 0 2.24 244 12:55 01.04.2020
5642 Rain 10 1016 26 0 2.24 244 12:36 01.04.2020
5643 Rain 13 1017 21 0 3.05 228 12:18 01.04.2020
5644 Rain 13 1017 21 0 3.05 228 11:42 01.04.2020
5645 Rain 13 1017 21 0 3.05 228 11:23 01.04.2020
5646 Rain 13 1017 21 0 3.05 228 10:58 01.04.2020
5647 Rain 13 1017 21 0 3.05 228 10:38 01.04.2020
5648 Rain 13 1017 21 0 3.05 228 10:19 01.04.2020
5649 Rain 13 1017 21 0 3.05 228 09:57 01.04.2020
5650 Rain 13 1017 21 0 3.05 228 09:57 01.04.2020
5651 Rain 13 1017 21 0 3.05 228 09:38 01.04.2020
5652 Clouds 13 1019 19 0 2.74 210 09:18 01.04.2020
5653 Clouds 12 1019 21 0 2.42 211 08:41 01.04.2020
5654 Clouds 12 1019 21 0 2.42 211 08:18 01.04.2020
5655 Clouds 12 1019 21 0 2.42 211 07:46 01.04.2020
5656 Clouds 12 1019 21 0 2.42 211 07:21 01.04.2020
5657 Clouds 12 1019 21 0 2.42 211 06:52 01.04.2020
5658 Clouds 12 1019 21 0 2.42 211 06:27 01.04.2020
5659 Clouds 9 1020 24 0 1.01 92 05:58 01.04.2020
5660 Clouds 9 1020 24 0 1.01 92 04:33 01.04.2020
5661 Clouds 9 1020 24 0 1.01 92 03:32 01.04.2020
5662 Rain 5 1019 30 0 1.08 60 02:57 01.04.2020
5663 Rain 6 1018 29 0 0.73 76 01:59 01.04.2020
5664 Rain 6 1018 29 0 0.73 76 01:40 01.04.2020
5665 Rain 6 1018 29 0 0.73 76 01:19 01.04.2020
5666 Rain 6 1018 29 0 0.73 76 00:46 01.04.2020
5667 Rain 6 1018 29 0 0.73 76 00:21 01.04.2020
5668 Rain 8 1017 30 0 1.62 246 23:48 31.03.2020
5669 Rain 8 1017 30 0 1.62 246 23:27 31.03.2020
5670 Rain 8 1017 30 0 1.62 246 22:59 31.03.2020
5671 Rain 8 1017 30 0 1.62 246 22:37 31.03.2020
5672 Rain 8 1017 30 0 1.62 246 22:19 31.03.2020
5673 Rain 8 1017 30 0 1.62 246 21:57 31.03.2020
5674 Rain 8 1017 30 0 1.62 246 21:39 31.03.2020
5675 Rain 9 1018 30 0 1.02 227 21:20 31.03.2020
5676 Rain 9 1018 30 0 1.53 237 20:55 31.03.2020
5677 Rain 9 1018 30 0 1.53 237 20:37 31.03.2020
5678 Rain 9 1018 30 0 1.53 237 20:18 31.03.2020
5679 Rain 9 1018 30 0 1.53 237 19:42 31.03.2020
5680 Rain 9 1018 30 0 1.53 237 19:24 31.03.2020
5681 Rain 9 1018 30 0 1.53 237 18:59 31.03.2020
5682 Rain 9 1018 30 0 1.53 237 18:41 31.03.2020
5683 Rain 10 1018 29 0 0.78 177 18:19 31.03.2020
5684 Rain 10 1018 29 0 0.78 177 17:55 31.03.2020
5685 Rain 10 1018 29 0 0.78 177 17:37 31.03.2020
5686 Rain 10 1018 29 0 0.78 177 17:37 31.03.2020
5687 Rain 10 1018 29 0 0.78 177 17:19 31.03.2020
5688 Rain 10 1018 29 0 0.78 177 16:41 31.03.2020
5689 Rain 10 1018 29 0 0.78 177 16:20 31.03.2020
5690 Rain 10 1018 29 0 0.78 177 15:58 31.03.2020
5691 Rain 10 1018 29 0 0.78 177 15:40 31.03.2020
5692 Rain 10 1018 29 0 0.78 177 15:22 31.03.2020
5693 Rain 11 1016 29 0 0.86 249 14:58 31.03.2020
5694 Rain 11 1016 29 0 0.86 249 14:40 31.03.2020
5695 Rain 11 1016 30 0 0.98 208 14:21 31.03.2020
5696 Rain 11 1016 30 0 0.98 208 13:44 31.03.2020
5697 Rain 11 1016 30 0 0.98 208 13:20 31.03.2020
5698 Rain 11 1016 30 0 0.98 208 12:59 31.03.2020
5699 Rain 11 1016 30 0 0.98 208 12:40 31.03.2020
5700 Rain 12 1017 26 0 0.96 226 12:19 31.03.2020
5701 Rain 12 1017 26 0 0.96 226 12:19 31.03.2020
5702 Rain 12 1017 26 0 0.96 226 11:55 31.03.2020
5703 Rain 12 1017 26 0 0.96 226 11:36 31.03.2020
5704 Rain 12 1017 26 0 0.96 226 11:18 31.03.2020
5705 Rain 12 1017 26 0 0.96 226 10:54 31.03.2020
5706 Rain 12 1017 26 0 0.96 226 10:36 31.03.2020
5707 Rain 12 1017 26 0 0.96 226 10:18 31.03.2020
5708 Rain 12 1017 26 0 0.96 226 09:42 31.03.2020
5709 Rain 13 1016 24 0 2.1 210 09:24 31.03.2020
5710 Clouds 14 1019 21 0 2.43 209 08:57 31.03.2020
5711 Clouds 14 1019 21 0 2.43 209 08:39 31.03.2020
5712 Clouds 14 1019 21 0 2.43 209 08:19 31.03.2020
5713 Clouds 14 1019 21 0 2.43 209 07:56 31.03.2020
5714 Clouds 14 1019 21 0 2.43 209 07:38 31.03.2020
5715 Clouds 14 1019 21 0 2.43 209 07:19 31.03.2020
5716 Clouds 14 1019 21 0 2.43 209 06:47 31.03.2020
5717 Clouds 14 1019 21 0 2.43 209 06:23 31.03.2020
5718 Clouds 12 1022 20 0 1.06 91 05:39 31.03.2020
5719 Clouds 12 1022 20 0 1.06 91 03:43 31.03.2020
5720 Clouds 7 1022 25 0 3.12 48 02:19 31.03.2020
5721 Clouds 7 1022 25 0 3.17 46 01:45 31.03.2020
5722 Clouds 7 1022 25 0 3.17 46 00:51 31.03.2020
5723 Clouds 7 1022 25 0 3.17 46 00:25 31.03.2020
5724 Clouds 7 1023 26 0 2.33 46 23:58 30.03.2020
5725 Clouds 7 1023 26 0 2.33 46 23:38 30.03.2020
5726 Clouds 7 1023 26 0 2.33 46 23:18 30.03.2020
5727 Clouds 7 1023 26 0 2.33 46 22:55 30.03.2020
5728 Clouds 7 1023 26 0 2.33 46 22:36 30.03.2020
5729 Clouds 7 1023 26 0 2.33 46 22:18 30.03.2020
5730 Clouds 7 1023 26 0 2.33 46 21:55 30.03.2020
5731 Clouds 7 1023 26 0 2.33 46 21:36 30.03.2020
5732 Clouds 6 1023 26 0 2.35 45 21:18 30.03.2020
5733 Clouds 6 1023 26 0 2.35 45 20:42 30.03.2020
5734 Clouds 6 1023 26 0 2.35 45 20:24 30.03.2020
5735 Clouds 6 1023 26 0 2.35 45 20:24 30.03.2020
5736 Clouds 6 1023 26 0 2.35 45 20:24 30.03.2020
5737 Clouds 6 1023 26 0 2.35 45 19:59 30.03.2020
5738 Clouds 6 1023 26 0 2.35 45 19:40 30.03.2020
5739 Clouds 6 1023 26 0 2.35 45 19:21 30.03.2020
5740 Clouds 6 1023 26 0 2.35 45 18:56 30.03.2020
5741 Clouds 6 1023 26 0 2.35 45 18:38 30.03.2020
5742 Clouds 6 1023 26 0 2.35 45 18:38 30.03.2020
5743 Clouds 8 1022 24 0 2.25 46 18:19 30.03.2020
5744 Clouds 8 1022 24 0 2.25 46 17:56 30.03.2020
5745 Clouds 8 1022 24 0 2.25 46 17:56 30.03.2020
5746 Clouds 8 1022 24 0 2.25 46 17:37 30.03.2020
5747 Clouds 8 1022 24 0 2.25 46 17:37 30.03.2020
5748 Clouds 8 1022 24 0 2.25 46 17:18 30.03.2020
5749 Clouds 8 1022 24 0 2.25 46 16:55 30.03.2020
5750 Clouds 8 1022 24 0 2.25 46 16:36 30.03.2020
5751 Clouds 8 1022 24 0 2.25 46 16:18 30.03.2020
5752 Clouds 8 1022 24 0 2.25 46 15:42 30.03.2020
5753 Clouds 8 1022 24 0 2.25 46 15:22 30.03.2020
5754 Clouds 12 1018 23 0 0.31 156 14:59 30.03.2020
5755 Clouds 12 1018 23 0 0.31 156 14:39 30.03.2020
5756 Clouds 12 1018 23 0 0.31 156 14:19 30.03.2020
5757 Clouds 12 1018 23 0 0.31 156 14:19 30.03.2020
5758 Clouds 12 1018 22 0 0.07 57 13:59 30.03.2020
5759 Clouds 12 1018 22 0 0.07 57 13:40 30.03.2020
5760 Clouds 12 1018 22 0 0.07 57 13:20 30.03.2020
5761 Clouds 12 1018 22 0 0.07 57 12:54 30.03.2020
5762 Clouds 12 1018 22 0 0.07 57 12:36 30.03.2020
5763 Clouds 14 1018 17 0 2.57 213 12:18 30.03.2020
5764 Clouds 14 1018 17 0 2.57 213 12:18 30.03.2020
5765 Clouds 14 1018 17 0 2.57 213 11:43 30.03.2020
5766 Clouds 14 1018 17 0 2.57 213 11:24 30.03.2020
5767 Clouds 14 1018 17 0 2.57 213 10:59 30.03.2020
5768 Clouds 14 1018 17 0 2.57 213 10:39 30.03.2020
5769 Clouds 14 1018 17 0 2.57 213 10:21 30.03.2020
5770 Clouds 14 1018 17 0 2.57 213 09:54 30.03.2020
5771 Clouds 14 1018 17 0 2.57 213 09:36 30.03.2020
5772 Clouds 15 1021 16 0 2.1 207 09:18 30.03.2020
5773 Clouds 15 1021 15 0 2.04 209 08:40 30.03.2020
5774 Clouds 15 1021 15 0 2.04 209 08:21 30.03.2020
5775 Clouds 15 1021 15 0 2.04 209 07:48 30.03.2020
5776 Clouds 15 1021 15 0 2.04 209 07:25 30.03.2020
5777 Clouds 15 1021 15 0 2.04 209 06:47 30.03.2020
5778 Clouds 15 1021 15 0 2.04 209 06:29 30.03.2020
5779 Clouds 11 1024 18 0 1.13 63 05:46 30.03.2020
5780 Clouds 11 1024 18 0 1.13 63 05:18 30.03.2020
5781 Clouds 11 1024 18 0 1.13 63 04:21 30.03.2020
5782 Clouds 3 1025 24 0 2.85 44 03:19 30.03.2020
5783 Clouds 3 1025 24 0 2.87 42 01:59 30.03.2020
5784 Clouds 3 1025 24 0 2.87 42 01:26 30.03.2020
5785 Clouds 3 1025 24 0 2.87 42 00:33 30.03.2020
5786 Clear 2 1026 27 0 3.24 48 23:59 29.03.2020
5787 Clear 2 1026 27 0 3.24 48 23:41 29.03.2020
5788 Clear 2 1026 27 0 3.24 48 23:22 29.03.2020
5789 Clear 2 1026 27 0 3.24 48 22:57 29.03.2020
5790 Clear 2 1026 27 0 3.24 48 22:37 29.03.2020
5791 Clear 2 1026 27 0 3.24 48 22:19 29.03.2020
5792 Clear 2 1026 27 0 3.24 48 21:55 29.03.2020
5793 Clear 2 1026 27 0 3.24 48 21:36 29.03.2020
5794 Clear 3 1025 29 0 2.94 43 21:18 29.03.2020
5795 Clear 3 1025 29 0 3.24 44 20:54 29.03.2020
5796 Clear 3 1025 29 0 3.24 44 20:36 29.03.2020
5797 Clear 3 1025 29 0 3.24 44 20:18 29.03.2020
5798 Clear 3 1025 29 0 3.24 44 19:42 29.03.2020
5799 Clear 3 1025 29 0 3.24 44 19:24 29.03.2020
5800 Clear 3 1025 29 0 3.24 44 18:57 29.03.2020
5801 Clear 3 1025 29 0 3.24 44 18:39 29.03.2020
5802 Clear 3 1025 29 0 3.24 44 18:20 29.03.2020
5803 -273 0 0 0 0 0 18:20 29.03.2020
5804 Clear 3 1023 31 0 2.6 46 17:57 29.03.2020
5805 Clear 3 1023 31 0 2.6 46 17:39 29.03.2020
5806 Clear 3 1023 31 0 2.6 46 17:20 29.03.2020
5807 Clear 3 1023 31 0 2.6 46 16:58 29.03.2020
5808 Clear 3 1023 31 0 2.6 46 16:39 29.03.2020
5809 Clear 3 1023 31 0 2.6 46 16:20 29.03.2020
5810 Clear 3 1023 31 0 2.6 46 15:56 29.03.2020
5811 Clear 3 1023 31 0 2.6 46 15:37 29.03.2020
5812 Rain 9 1016 24 0 1.43 230 15:19 29.03.2020
5813 Rain 9 1016 24 0 1.43 230 14:55 29.03.2020
5814 Rain 9 1016 24 0 1.43 230 14:36 29.03.2020
5815 Rain 10 1016 23 0 1.3 238 14:18 29.03.2020
5816 Rain 10 1016 23 0 1.3 238 13:41 29.03.2020
5817 Rain 10 1016 23 0 1.3 238 13:22 29.03.2020
5818 Rain 10 1016 23 0 1.3 238 12:58 29.03.2020
5819 Rain 10 1016 23 0 1.3 238 12:39 29.03.2020
5820 Rain 12 1017 20 0 2.89 233 12:19 29.03.2020
5821 Rain 12 1017 20 0 2.89 233 11:58 29.03.2020
5822 Rain 12 1017 20 0 2.89 233 11:37 29.03.2020
5823 Rain 12 1017 20 0 2.89 233 11:19 29.03.2020
5824 Rain 12 1017 20 0 2.89 233 10:39 29.03.2020
5825 Rain 12 1017 20 0 2.89 233 10:20 29.03.2020
5826 Rain 12 1017 20 0 2.89 233 09:56 29.03.2020
5827 Rain 12 1017 20 0 2.89 233 09:38 29.03.2020
5828 Rain 11 1020 19 0 2.4 219 09:18 29.03.2020
5829 Rain 11 1020 19 0 2.4 219 08:43 29.03.2020
5830 Rain 11 1020 19 0 2.4 219 08:25 29.03.2020
5831 Rain 11 1020 19 0 2.4 219 07:47 29.03.2020
5832 Rain 11 1020 19 0 2.4 219 07:47 29.03.2020
5833 Rain 11 1020 19 0 2.4 219 07:23 29.03.2020
5834 Rain 11 1020 19 0 2.4 219 06:40 29.03.2020
5835 Clouds 8 1023 24 0 1.18 60 04:56 29.03.2020
5836 Clouds 8 1023 24 0 1.18 60 03:41 29.03.2020
5837 Clouds 2 1024 31 0 2.41 41 03:20 29.03.2020
5838 Clouds 2 1024 31 0 2.41 41 01:43 29.03.2020
5839 Clouds 3 1024 30 0 2.35 40 01:22 29.03.2020
5840 Clouds 3 1024 30 0 2.35 40 00:45 29.03.2020
5841 Clouds 3 1024 30 0 2.35 40 00:27 29.03.2020
5842 Clouds 3 1024 30 0 2.35 40 23:41 28.03.2020
5843 Clouds 3 1024 30 0 2.35 40 23:22 28.03.2020
5844 Clouds 2 1024 31 0 2.19 45 22:54 28.03.2020
5845 Clouds 2 1024 31 0 2.19 45 22:36 28.03.2020
5846 Clouds 2 1024 31 0 2.19 45 22:18 28.03.2020
5847 Clouds 2 1024 31 0 2.19 45 21:40 28.03.2020
5848 Clouds 2 1024 31 0 2.19 45 21:40 28.03.2020
5849 Clouds 2 1024 31 0 2.19 45 21:21 28.03.2020
5850 Clouds 2 1024 31 0 2.19 45 20:58 28.03.2020
5851 Clouds 2 1024 31 0 2.19 45 20:38 28.03.2020
5852 Clouds 3 1024 31 0 2.22 46 20:20 28.03.2020
5853 Clouds 3 1024 31 0 2.22 46 19:56 28.03.2020
5854 Clouds 3 1024 31 0 2.22 46 19:36 28.03.2020
5855 Clouds 3 1024 31 0 2.22 46 19:18 28.03.2020
5856 Clouds 3 1024 31 0 2.22 46 18:47 28.03.2020
5857 Clouds 3 1024 31 0 2.22 46 18:22 28.03.2020
5858 Clouds 3 1024 31 0 2.22 46 17:58 28.03.2020
5859 Clouds 3 1024 31 0 2.22 46 17:38 28.03.2020
5860 Clouds 3 1022 32 0 2.55 46 17:18 28.03.2020
5861 Clouds 3 1022 32 0 2.55 46 16:42 28.03.2020
5862 Clouds 3 1022 32 0 2.55 46 16:20 28.03.2020
5863 Clouds 3 1022 32 0 2.55 46 15:55 28.03.2020
5864 Clouds 3 1022 32 0 2.55 46 15:37 28.03.2020
5865 Clouds 3 1022 32 0 2.55 46 15:37 28.03.2020
5866 Clouds 3 1022 32 0 2.55 46 15:18 28.03.2020
5867 Clouds 3 1022 32 0 2.55 46 14:42 28.03.2020
5868 Clouds 3 1022 32 0 2.55 46 14:22 28.03.2020
5869 Rain 9 1017 27 0 1.22 230 13:55 28.03.2020
5870 Rain 9 1017 27 0 1.22 230 13:36 28.03.2020
5871 Rain 9 1017 27 0 1.22 230 13:18 28.03.2020
5872 Rain 9 1017 26 0 1.55 230 12:37 28.03.2020
5873 Rain 9 1017 26 0 1.55 230 12:19 28.03.2020
5874 Rain 9 1017 26 0 1.55 230 11:42 28.03.2020
5875 Rain 9 1017 26 0 1.55 230 11:21 28.03.2020
5876 Rain 11 1018 24 0 2.96 229 10:44 28.03.2020
5877 Rain 11 1018 24 0 2.96 229 10:25 28.03.2020
5878 Rain 11 1018 24 0 2.96 229 09:59 28.03.2020
5879 Rain 11 1018 24 0 2.96 229 09:40 28.03.2020
5880 Rain 11 1018 24 0 2.96 229 09:21 28.03.2020
5881 Rain 11 1018 24 0 2.96 229 08:43 28.03.2020
5882 Rain 11 1018 24 0 2.96 229 08:24 28.03.2020
5883 Rain 11 1021 26 0 2.58 230 07:53 28.03.2020
5884 Rain 11 1021 26 0 2.58 230 07:35 28.03.2020
5885 Rain 11 1021 26 0 2.58 230 06:52 28.03.2020
5886 Rain 11 1021 26 0 2.58 230 06:26 28.03.2020
5887 Rain 11 1021 26 0 2.58 230 05:30 28.03.2020
5888 Rain 11 1021 26 0 2.58 230 05:30 28.03.2020
5889 Clouds 8 1023 26 0 1.28 101 04:58 28.03.2020
5890 Clouds 8 1023 26 0 1.28 101 04:39 28.03.2020
5891 Clouds 8 1023 26 0 1.28 101 02:52 28.03.2020
5892 Clouds 5 1020 29 0 1.18 103 01:48 28.03.2020
5893 Clouds 5 1020 29 0 1.18 103 01:23 28.03.2020
5894 Clouds 5 1020 29 0 1.18 103 00:51 28.03.2020
5895 Clouds 5 1020 29 0 1.18 103 00:25 28.03.2020
5896 Clouds 5 1020 29 0 1.18 103 23:44 27.03.2020
5897 Clouds 5 1020 29 0 1.18 103 23:26 27.03.2020
5898 Clouds 6 1018 29 0 0.86 125 22:57 27.03.2020
5899 Clouds 6 1018 29 0 0.86 125 22:39 27.03.2020
5900 Clouds 6 1018 29 0 0.86 125 22:39 27.03.2020
5901 Clouds 6 1018 29 0 0.86 125 22:20 27.03.2020
5902 Clouds 6 1018 29 0 0.86 125 21:58 27.03.2020
5903 Clouds 6 1018 29 0 0.86 125 21:40 27.03.2020
5904 Clouds 6 1018 29 0 0.86 125 21:22 27.03.2020
5905 Clouds 6 1018 29 0 0.86 125 21:22 27.03.2020
5906 Clouds 6 1018 29 0 0.86 125 20:57 27.03.2020
5907 Clouds 6 1018 29 0 0.86 125 20:38 27.03.2020
5908 Clouds 8 1017 30 0 3.12 206 20:19 27.03.2020
5909 Clouds 8 1017 30 0 3.12 206 20:19 27.03.2020
5910 Clouds 8 1017 30 0 3.12 206 20:19 27.03.2020
5911 Clouds 8 1017 30 0 1.78 191 19:55 27.03.2020
5912 Clouds 8 1017 30 0 1.78 191 19:55 27.03.2020
5913 Clouds 8 1017 30 0 1.78 191 19:36 27.03.2020
5914 Clouds 8 1017 30 0 1.78 191 19:18 27.03.2020
5915 Clouds 8 1017 30 0 1.78 191 18:42 27.03.2020
5916 Clouds 8 1017 30 0 1.78 191 18:22 27.03.2020
5917 Clouds 8 1017 30 0 1.78 191 17:54 27.03.2020
5918 Clouds 8 1017 30 0 1.78 191 17:36 27.03.2020
5919 Rain 9 1015 30 0 2.41 231 17:18 27.03.2020
5920 Rain 9 1015 30 0 2.41 231 16:42 27.03.2020
5921 Rain 9 1015 30 0 2.41 231 16:23 27.03.2020
5922 Rain 9 1015 30 0 2.41 231 15:44 27.03.2020
5923 Rain 9 1015 30 0 2.41 231 15:26 27.03.2020
5924 Rain 9 1015 30 0 2.41 231 14:56 27.03.2020
5925 Rain 9 1015 30 0 2.41 231 14:36 27.03.2020
5926 Rain 11 1012 31 0 3.77 224 14:18 27.03.2020
5927 Rain 11 1012 31 0 3.77 224 13:42 27.03.2020
5928 Rain 11 1012 31 0 3.77 224 13:22 27.03.2020
5929 Rain 11 1012 31 0 3.57 227 12:59 27.03.2020
5930 Rain 11 1012 31 0 3.57 227 12:39 27.03.2020
5931 Rain 11 1012 31 0 3.57 227 12:19 27.03.2020
5932 Rain 11 1012 31 0 3.57 227 11:42 27.03.2020
5933 Rain 11 1012 31 0 3.57 227 11:24 27.03.2020
5934 Rain 12 1015 31 0 2.96 207 10:56 27.03.2020
5935 Rain 12 1015 31 0 2.96 207 10:38 27.03.2020
5936 Rain 12 1015 31 0 2.96 207 10:20 27.03.2020
5937 Rain 12 1015 31 0 2.96 207 09:58 27.03.2020
5938 Rain 12 1015 31 0 2.96 207 09:38 27.03.2020
5939 Rain 12 1015 31 0 2.96 207 09:20 27.03.2020
5940 Rain 12 1015 31 0 2.96 207 08:57 27.03.2020
5941 Rain 12 1015 31 0 2.96 207 08:39 27.03.2020
5942 Rain 12 1015 31 0 2.96 207 08:20 27.03.2020
5943 Rain 12 1019 30 0 2.21 182 07:52 27.03.2020
5944 Rain 12 1019 30 0 2.21 182 07:26 27.03.2020
5945 Rain 12 1019 30 0 2.21 182 06:57 27.03.2020
5946 Rain 12 1019 30 0 2.21 182 06:37 27.03.2020
5947 Rain 12 1019 30 0 2.21 182 05:37 27.03.2020
5948 Rain 9 1021 29 0 1.41 92 02:50 27.03.2020
5949 Rain 8 1020 26 0 1.73 75 01:50 27.03.2020
5950 Rain 8 1020 26 0 1.93 78 00:55 27.03.2020
5951 Rain 8 1020 26 0 1.93 78 00:32 27.03.2020
5952 Rain 8 1020 26 0 1.93 78 23:45 26.03.2020
5953 Rain 8 1020 26 0 1.93 78 23:25 26.03.2020
5954 Clouds 9 1021 24 0 1.25 66 22:59 26.03.2020
5955 Clouds 9 1021 24 0 1.25 66 22:39 26.03.2020
5956 Clouds 9 1021 24 0 1.25 66 22:20 26.03.2020
5957 Clouds 9 1021 24 0 1.25 66 21:59 26.03.2020
5958 Clouds 9 1021 24 0 1.25 66 21:39 26.03.2020
5959 Clouds 9 1021 24 0 1.25 66 21:21 26.03.2020
5960 Clouds 9 1021 24 0 1.25 66 20:58 26.03.2020
5961 Clouds 9 1021 24 0 1.25 66 20:39 26.03.2020
5962 Clouds 9 1021 24 0 1.25 66 20:20 26.03.2020
5963 Clouds 10 1022 23 0 1.48 74 19:57 26.03.2020
5964 Clouds 10 1022 23 0 1.48 74 19:57 26.03.2020
5965 Clouds 10 1022 23 0 1.48 74 19:39 26.03.2020
5966 Clouds 10 1022 23 0 1.48 74 19:20 26.03.2020
5967 Clouds 10 1022 23 0 1.48 74 19:20 26.03.2020
5968 -273 0 0 0 0 0 19:20 26.03.2020
5969 Clouds 10 1022 23 0 1.48 74 18:58 26.03.2020
5970 Clouds 10 1022 23 0 1.48 74 18:58 26.03.2020
5971 Clouds 10 1022 23 0 1.48 74 18:39 26.03.2020
5972 Clouds 10 1022 23 0 1.48 74 18:21 26.03.2020
5973 Clouds 10 1022 23 0 1.48 74 17:43 26.03.2020
5974 Clouds 10 1021 22 0 2 53 17:19 26.03.2020
5975 Clouds 10 1021 22 0 2 53 16:47 26.03.2020
5976 Clouds 10 1021 22 0 2 53 16:28 26.03.2020
5977 Clouds 10 1021 22 0 2 53 15:59 26.03.2020
5978 Clouds 10 1021 22 0 2 53 15:41 26.03.2020
5979 Clouds 10 1021 22 0 2 53 15:22 26.03.2020
5980 Clouds 10 1021 22 0 2 53 14:58 26.03.2020
5981 Clouds 10 1021 22 0 2 53 14:39 26.03.2020
5982 Clouds 12 1018 23 0 1.12 199 14:19 26.03.2020
5983 Clouds 12 1018 23 0 1.12 199 13:44 26.03.2020
5984 Clouds 12 1018 22 0 1.48 217 13:24 26.03.2020
5985 Clouds 12 1018 22 0 1.48 217 12:58 26.03.2020
5986 Clouds 12 1018 22 0 1.48 217 12:38 26.03.2020
5987 Clouds 12 1018 22 0 1.48 217 12:20 26.03.2020
5988 Clouds 12 1018 22 0 1.48 217 11:46 26.03.2020
5989 Clouds 12 1018 22 0 1.48 217 11:22 26.03.2020
5990 Clouds 12 1018 22 0 1.48 217 11:22 26.03.2020
5991 Clouds 15 1018 16 0 2.3 218 10:56 26.03.2020
5992 Clouds 15 1018 16 0 2.3 218 10:38 26.03.2020
5993 Clouds 15 1018 16 0 2.3 218 10:19 26.03.2020
5994 Clouds 15 1018 16 0 2.3 218 09:44 26.03.2020
5995 Clouds 15 1018 16 0 2.3 218 09:20 26.03.2020
5996 Clouds 15 1018 16 0 2.3 218 08:56 26.03.2020
5997 Clouds 15 1018 16 0 2.3 218 08:37 26.03.2020
5998 Clouds 14 1021 15 0 1.71 207 08:19 26.03.2020
5999 Clouds 15 1020 15 0 1.82 205 07:44 26.03.2020
6000 Clouds 15 1020 15 0 1.82 205 07:22 26.03.2020
6001 Clouds 15 1020 15 0 1.82 205 06:56 26.03.2020
6002 Clouds 15 1020 15 0 1.82 205 05:59 26.03.2020
6003 Clouds 10 1024 20 0 1.63 54 04:49 26.03.2020
6004 Clouds 10 1024 20 0 1.63 54 03:44 26.03.2020
6005 Clouds 10 1024 20 0 1.63 54 02:55 26.03.2020
6006 Clouds 4 1023 26 0 2.74 44 01:50 26.03.2020
6007 Clouds 4 1023 25 0 2.84 44 00:55 26.03.2020
6008 Clouds 4 1023 25 0 2.84 44 00:22 26.03.2020
6009 Clouds 4 1023 25 0 2.84 44 23:41 25.03.2020
6010 Clouds 4 1023 25 0 2.84 44 23:21 25.03.2020
6011 Clouds 4 1023 27 0 1.93 45 22:42 25.03.2020
6012 Clouds 4 1023 27 0 1.93 45 22:21 25.03.2020
6013 Clouds 4 1023 27 0 1.93 45 21:56 25.03.2020
6014 Clouds 4 1023 27 0 1.93 45 21:38 25.03.2020
6015 Clouds 4 1023 27 0 1.93 45 21:20 25.03.2020
6016 Clouds 4 1023 27 0 1.93 45 20:56 25.03.2020
6017 Clouds 4 1023 27 0 1.93 45 20:37 25.03.2020
6018 Clouds 4 1023 27 0 3.7 44 20:18 25.03.2020
6019 Clouds 4 1023 27 0 3.7 44 19:43 25.03.2020
6020 Clouds 4 1023 27 0 3.47 46 19:23 25.03.2020
6021 Clouds 4 1023 27 0 3.7 44 18:58 25.03.2020
6022 Clouds 4 1023 27 0 3.47 46 18:40 25.03.2020
6023 Clouds 4 1023 27 0 3.7 44 18:21 25.03.2020
6024 Clouds 4 1023 27 0 3.7 44 17:55 25.03.2020
6025 Clouds 4 1023 27 0 3.7 44 17:55 25.03.2020
6026 -273 0 0 0 0 0 17:37 25.03.2020
6027 Rain 5 1021 28 0 2.95 49 17:19 25.03.2020
6028 Rain 5 1021 28 0 2.84 51 16:43 25.03.2020
6029 Rain 5 1021 28 0 2.95 49 16:24 25.03.2020
6030 Rain 5 1021 28 0 2.95 49 15:59 25.03.2020
6031 Rain 5 1021 28 0 2.95 49 15:40 25.03.2020
6032 Rain 5 1021 28 0 2.95 49 15:20 25.03.2020
6033 Rain 5 1021 28 0 2.84 51 14:42 25.03.2020
6034 Rain 5 1021 28 0 2.95 49 14:22 25.03.2020
6035 Rain 11 1017 24 0 1.11 191 13:59 25.03.2020
6036 Rain 12 1016 25 0 1.2 211 13:41 25.03.2020
6037 Rain 11 1017 24 0 1.11 191 13:22 25.03.2020
6038 Rain 11 1017 24 0 1.11 191 12:38 25.03.2020
6039 Rain 12 1016 25 0 1.2 211 12:19 25.03.2020
6040 Rain 12 1016 25 0 1.2 211 11:55 25.03.2020
6041 Rain 12 1016 25 0 1.2 211 11:36 25.03.2020
6042 Rain 14 1016 21 0 3.08 224 11:18 25.03.2020
6043 Rain 14 1016 21 0 3.08 224 10:56 25.03.2020
6044 Rain 14 1016 21 0 3.08 224 10:37 25.03.2020
6045 Rain 14 1016 21 0 3.08 224 10:18 25.03.2020
6046 Rain 14 1016 21 0 3.08 224 09:42 25.03.2020
6047 Rain 14 1016 21 0 3.08 224 09:23 25.03.2020
6048 Rain 14 1016 21 0 3.08 224 08:56 25.03.2020
6049 Rain 14 1016 21 0 3.08 224 08:38 25.03.2020
6050 Rain 14 1019 21 0 2.36 217 08:19 25.03.2020
6051 Rain 13 1019 22 0 2.25 214 07:41 25.03.2020
6052 Rain 13 1019 22 0 2.25 214 07:20 25.03.2020
6053 Rain 13 1019 22 0 2.25 214 06:48 25.03.2020
6054 Rain 13 1019 22 0 2.25 214 06:28 25.03.2020
6055 Rain 13 1019 22 0 2.25 214 05:56 25.03.2020
6056 Rain 13 1019 22 0 2.25 214 05:30 25.03.2020
6057 Clouds 11 1021 23 0 0.85 101 04:39 25.03.2020
6058 Clouds 11 1021 23 0 0.85 101 03:36 25.03.2020
6059 Clouds 11 1021 23 0 0.85 101 02:40 25.03.2020
6060 Rain 8 1020 26 0 1.21 47 01:23 25.03.2020
6061 Rain 7 1020 26 0 1.63 46 00:49 25.03.2020
6062 Rain 7 1020 26 0 1.63 46 00:24 25.03.2020
6063 Rain 7 1020 26 0 1.63 46 23:45 24.03.2020
6064 Rain 7 1020 26 0 1.63 46 23:26 24.03.2020
6065 Rain 6 1019 29 0 1.63 36 22:57 24.03.2020
6066 Rain 6 1019 29 0 1.63 36 22:38 24.03.2020
6067 Rain 6 1019 29 0 1.63 36 22:19 24.03.2020
6068 Rain 6 1019 29 0 1.63 36 21:56 24.03.2020
6069 Rain 6 1019 29 0 1.63 36 21:37 24.03.2020
6070 Rain 6 1019 29 0 1.63 36 21:18 24.03.2020
6071 Rain 6 1019 29 0 1.63 36 20:56 24.03.2020
6072 Rain 6 1019 29 0 1.63 36 20:38 24.03.2020
6073 Rain 8 1019 26 0 0.71 28 20:20 24.03.2020
6074 Rain 7 1020 26 0 1.38 45 19:44 24.03.2020
6075 Rain 7 1020 26 0 1.38 45 19:19 24.03.2020
6076 Rain 7 1020 26 0 1.38 45 18:56 24.03.2020
6077 Rain 7 1020 26 0 1.38 45 18:56 24.03.2020
6078 Rain 7 1020 26 0 1.38 45 18:37 24.03.2020
6079 Rain 7 1020 26 0 1.38 45 18:19 24.03.2020
6080 Rain 7 1020 26 0 1.38 45 17:43 24.03.2020
6081 Rain 7 1020 26 0 1.38 45 17:24 24.03.2020
6082 Rain 6 1018 78 0 2.38 23 16:59 24.03.2020
6083 Rain 6 1018 78 0 2.38 23 16:41 24.03.2020
6084 Rain 6 1018 78 0 2.38 23 16:23 24.03.2020
6085 Rain 6 1018 78 0 2.38 23 16:23 24.03.2020
6086 Rain 6 1018 78 0 2.38 23 16:23 24.03.2020
6087 Rain 6 1018 78 0 2.38 23 15:59 24.03.2020
6088 Rain 6 1018 78 0 2.38 23 15:39 24.03.2020
6089 Rain 6 1018 78 0 2.38 23 15:21 24.03.2020
6090 Rain 6 1018 78 0 2.38 23 14:43 24.03.2020
6091 Rain 6 1018 78 0 2.38 23 14:43 24.03.2020
6092 Clouds 9 1019 27 0 0.71 72 14:22 24.03.2020
6093 Rain 11 1016 28 0 0.94 205 13:55 24.03.2020
6094 Rain 11 1016 28 0 0.94 205 13:36 24.03.2020
6095 Rain 12 1015 29 0 1.57 207 13:18 24.03.2020
6096 Rain 12 1015 29 0 1.57 207 12:41 24.03.2020
6097 Rain 12 1015 29 0 1.57 207 12:23 24.03.2020
6098 Rain 12 1015 29 0 1.57 207 11:41 24.03.2020
6099 Rain 8 1015 80 0 1.61 71 11:21 24.03.2020
6100 Rain 6 1016 93 0 1.64 111 10:59 24.03.2020
6101 Rain 6 1016 93 0 1.64 111 10:40 24.03.2020
6102 Rain 6 1016 93 0 1.64 111 10:40 24.03.2020
6103 Rain 6 1016 93 0 1.64 111 10:18 24.03.2020
6104 Rain 6 1016 93 0 1.64 111 09:44 24.03.2020
6105 Rain 6 1016 93 0 1.64 111 09:25 24.03.2020
6106 Rain 6 1016 93 0 1.64 111 08:57 24.03.2020
6107 Rain 6 1016 93 0 1.64 111 08:37 24.03.2020
6108 Rain 7 1019 71 0 2.91 57 08:18 24.03.2020
6109 Rain 7 1019 71 0 2.91 57 07:44 24.03.2020
6110 Rain 7 1019 71 0 2.91 57 07:22 24.03.2020
6111 Rain 7 1019 71 0 2.91 57 06:38 24.03.2020
6112 Rain 7 1019 71 0 2.91 57 05:42 24.03.2020
6113 Clouds 9 1020 52 0 1.91 225 04:51 24.03.2020
6114 Clouds 9 1020 52 0 1.91 225 03:22 24.03.2020
6115 Clouds 9 1020 52 0 1.91 225 02:41 24.03.2020
6116 Clouds 7 1019 48 0 3.01 6 00:54 24.03.2020
6117 Clouds 7 1019 48 0 3.01 6 00:27 24.03.2020
6118 Clouds 7 1019 48 0 3.01 6 23:58 23.03.2020
6119 Clouds 7 1019 48 0 3.01 6 23:38 23.03.2020
6120 Clouds 7 1020 55 0 2.62 5 23:19 23.03.2020
6121 Clouds 7 1020 55 0 2.62 5 22:44 23.03.2020
6122 Clouds 7 1020 55 0 2.62 5 22:23 23.03.2020
6123 Clouds 7 1020 55 0 2.62 5 21:55 23.03.2020
6124 Clouds 7 1020 55 0 2.62 5 21:37 23.03.2020
6125 Clouds 7 1020 55 0 2.62 5 21:18 23.03.2020
6126 Clouds 7 1020 55 0 2.62 5 20:55 23.03.2020
6127 Clouds 7 1020 55 0 2.62 5 20:36 23.03.2020
6128 Clouds 7 1020 50 0 2.85 10 20:18 23.03.2020
6129 Clouds 7 1020 50 0 2.85 10 20:18 23.03.2020
6130 Clouds 7 1020 50 0 2.85 10 19:41 23.03.2020
6131 Clouds 7 1020 50 0 2.85 10 19:22 23.03.2020
6132 Clouds 7 1020 50 0 2.85 10 18:56 23.03.2020
6133 Clouds 7 1020 50 0 2.85 10 18:38 23.03.2020
6134 Clouds 7 1020 50 0 2.85 10 18:19 23.03.2020
6135 Clouds 7 1020 50 0 2.85 10 17:41 23.03.2020
6136 Clouds 7 1020 50 0 2.85 10 17:20 23.03.2020
6137 Clouds 7 1020 55 0 2.84 12 16:56 23.03.2020
6138 Clouds 7 1020 55 0 2.84 12 16:37 23.03.2020
6139 Clouds 7 1020 55 0 2.84 12 16:18 23.03.2020
6140 Clouds 7 1020 55 0 2.84 12 15:41 23.03.2020
6141 Clouds 7 1020 55 0 2.84 12 15:19 23.03.2020
6142 Clouds 7 1020 55 0 2.84 12 14:38 23.03.2020
6143 Clouds 11 1017 52 0 1.63 214 14:20 23.03.2020
6144 Clouds 11 1017 52 0 1.63 214 13:57 23.03.2020
6145 Clouds 11 1017 52 0 1.63 214 13:39 23.03.2020
6146 Clouds 11 1016 50 0 1.52 216 13:20 23.03.2020
6147 Clouds 11 1016 50 0 1.52 216 12:44 23.03.2020
6148 Clouds 11 1016 50 0 1.52 216 12:25 23.03.2020
6149 Clouds 11 1016 50 0 1.52 216 11:59 23.03.2020
6150 Clouds 11 1016 50 0 1.52 216 11:39 23.03.2020
6151 Clouds 14 1016 35 0 3.27 215 11:19 23.03.2020
6152 Clouds 14 1016 35 0 3.27 215 10:57 23.03.2020
6153 Clouds 14 1016 35 0 3.27 215 10:38 23.03.2020
6154 Clouds 14 1016 35 0 3.27 215 10:20 23.03.2020
6155 Clouds 14 1016 35 0 3.27 215 09:44 23.03.2020
6156 Clouds 14 1016 35 0 3.27 215 09:21 23.03.2020
6157 Clouds 14 1016 35 0 3.27 215 08:57 23.03.2020
6158 Clouds 14 1016 35 0 3.27 215 08:36 23.03.2020
6159 Clouds 13 1019 31 0 2.79 212 08:18 23.03.2020
6160 Clouds 13 1019 31 0 2.79 212 07:42 23.03.2020
6161 Clouds 13 1019 31 0 2.79 212 07:23 23.03.2020
6162 Clouds 13 1019 31 0 2.79 212 06:49 23.03.2020
6163 Clouds 13 1019 31 0 2.79 212 05:54 23.03.2020
6164 Clouds 13 1019 31 0 2.79 212 05:29 23.03.2020
6165 Clouds 9 1022 44 0 1.52 21 03:28 23.03.2020
6166 Clouds 4 1022 57 0 3 4 01:51 23.03.2020
6167 Clouds 4 1022 57 0 3 4 01:32 23.03.2020
6168 Clouds 4 1022 59 0 2.99 2 00:36 23.03.2020
6169 Clouds 4 1022 59 0 2.99 2 23:47 22.03.2020
6170 Clouds 4 1022 59 0 2.99 2 23:26 22.03.2020
6171 Clouds 4 1022 75 0 2.44 357 22:45 22.03.2020
6172 Clouds 4 1022 75 0 2.44 357 22:24 22.03.2020
6173 Clouds 4 1022 75 0 2.44 357 21:56 22.03.2020
6174 Clouds 4 1022 75 0 2.44 357 21:37 22.03.2020
6175 Clouds 4 1022 75 0 2.44 357 21:19 22.03.2020
6176 Clouds 4 1022 75 0 2.44 357 20:46 22.03.2020
6177 Clouds 4 1022 75 0 2.44 357 20:25 22.03.2020
6178 Clouds 4 1022 71 0 2.03 346 19:58 22.03.2020
6179 Clouds 4 1022 71 0 2.03 346 19:40 22.03.2020
6180 Clouds 4 1022 71 0 2.03 346 19:21 22.03.2020
6181 Clouds 4 1022 71 0 2.03 346 18:59 22.03.2020
6182 Clouds 4 1022 71 0 2.03 346 18:41 22.03.2020
6183 Clouds 4 1022 71 0 2.03 346 18:22 22.03.2020
6184 Clouds 4 1022 71 0 2.03 346 18:22 22.03.2020
6185 Clouds 4 1022 71 0 2.03 346 17:59 22.03.2020
6186 Clouds 4 1022 71 0 2.03 346 17:39 22.03.2020
6187 Clouds 4 1022 71 0 2.03 346 17:21 22.03.2020
6188 Clouds 4 1022 71 0 2.03 346 17:21 22.03.2020
6189 Rain 5 1020 76 0 2.46 22 16:59 22.03.2020
6190 Rain 5 1020 76 0 2.46 22 16:41 22.03.2020
6191 Rain 5 1020 76 0 2.46 22 16:22 22.03.2020
6192 Rain 5 1020 76 0 2.46 22 15:58 22.03.2020
6193 Rain 5 1020 76 0 2.46 22 15:39 22.03.2020
6194 Rain 5 1020 76 0 2.46 22 14:47 22.03.2020
6195 Rain 8 1016 77 0 0.87 110 14:20 22.03.2020
6196 Rain 8 1016 77 0 0.87 110 13:58 22.03.2020
6197 Rain 8 1016 77 0 0.87 110 13:40 22.03.2020
6198 Rain 9 1016 73 0 0.84 204 13:19 22.03.2020
6199 Rain 9 1016 73 0 0.84 204 12:44 22.03.2020
6200 Rain 9 1016 73 0 0.84 204 12:22 22.03.2020
6201 Rain 9 1016 73 0 0.84 204 12:22 22.03.2020
6202 Rain 9 1016 73 0 0.84 204 11:58 22.03.2020
6203 Rain 9 1016 73 0 0.84 204 11:39 22.03.2020
6204 Rain 9 1016 73 0 0.84 204 11:20 22.03.2020
6205 Rain 11 1015 65 0 2.44 230 10:43 22.03.2020
6206 Rain 11 1015 65 0 2.44 230 10:24 22.03.2020
6207 Rain 11 1015 65 0 2.44 230 09:59 22.03.2020
6208 Rain 11 1015 65 0 2.44 230 09:40 22.03.2020
6209 Rain 11 1015 65 0 2.44 230 09:19 22.03.2020
6210 Rain 11 1015 65 0 2.44 230 08:42 22.03.2020
6211 Rain 11 1015 65 0 2.44 230 08:23 22.03.2020
6212 Clear 12 1019 48 0 2.73 196 07:50 22.03.2020
6213 Clear 12 1019 48 0 2.73 196 07:22 22.03.2020
6214 Clear 12 1019 48 0 2.73 196 05:57 22.03.2020
6215 Clear 12 1019 48 0 2.73 196 05:31 22.03.2020
6216 Clear 8 1021 54 0 0.62 252 03:25 22.03.2020
6217 Clouds 3 1020 70 0 3.24 10 01:26 22.03.2020
6218 Clouds 3 1020 70 0 2.99 0 00:47 22.03.2020
6219 Clouds 3 1020 70 0 2.99 0 00:25 22.03.2020
6220 Clouds 3 1020 70 0 2.99 0 23:43 21.03.2020
6221 Snow 4 1019 78 0 2.47 5 23:19 21.03.2020
6222 Snow 4 1019 78 0 2.47 5 22:55 21.03.2020
6223 Snow 4 1019 78 0 2.47 5 22:36 21.03.2020
6224 Snow 4 1019 78 0 2.47 5 22:18 21.03.2020
6225 Snow 4 1019 78 0 2.47 5 21:41 21.03.2020
6226 Snow 4 1019 78 0 2.47 5 21:23 21.03.2020
6227 Snow 4 1019 78 0 2.47 5 20:59 21.03.2020
6228 Snow 4 1019 78 0 2.47 5 20:41 21.03.2020
6229 Rain 5 1020 83 0 2.52 24 20:19 21.03.2020
6230 Rain 5 1020 76 0 1.6 41 19:44 21.03.2020
6231 Rain 5 1020 76 0 1.6 41 19:25 21.03.2020
6232 Rain 5 1020 76 0 1.6 41 18:57 21.03.2020
6233 Rain 5 1020 76 0 1.6 41 18:38 21.03.2020
6234 Rain 5 1020 76 0 1.6 41 18:20 21.03.2020
6235 Rain 5 1020 76 0 1.6 41 18:20 21.03.2020
6236 Rain 5 1020 76 0 1.6 41 17:55 21.03.2020
6237 Rain 5 1020 76 0 1.6 41 17:37 21.03.2020
6238 Rain 5 1019 80 0 2.46 17 17:18 21.03.2020
6239 Rain 5 1019 80 0 2.46 17 17:18 21.03.2020
6240 Rain 5 1019 80 0 2.46 17 16:41 21.03.2020
6241 Rain 5 1019 80 0 2.46 17 16:20 21.03.2020
6242 Rain 5 1019 80 0 2.46 17 16:20 21.03.2020
6243 Rain 5 1019 80 0 2.46 17 15:56 21.03.2020
6244 Rain 5 1019 80 0 2.46 17 15:37 21.03.2020
6245 Rain 5 1019 80 0 2.46 17 15:19 21.03.2020
6246 Rain 5 1019 80 0 2.46 17 14:54 21.03.2020
6247 Rain 5 1019 80 0 2.46 17 14:36 21.03.2020
6248 Rain 5 1019 80 0 2.46 17 14:36 21.03.2020
6249 Rain 8 1015 74 0 0.63 84 14:18 21.03.2020
6250 Rain 8 1015 74 0 0.63 84 13:57 21.03.2020
6251 Rain 8 1015 74 0 0.63 84 13:38 21.03.2020
6252 Rain 8 1015 74 0 0.63 84 13:19 21.03.2020
6253 Rain 9 1015 68 0 0.58 152 12:40 21.03.2020
6254 Rain 9 1015 68 0 0.58 152 12:20 21.03.2020
6255 Rain 9 1015 68 0 0.58 152 11:59 21.03.2020
6256 Rain 9 1015 68 0 0.58 152 11:39 21.03.2020
6257 Rain 9 1014 63 0 1.17 136 11:19 21.03.2020
6258 Rain 9 1014 63 0 1.17 136 11:19 21.03.2020
6259 Rain 9 1014 63 0 1.17 136 10:57 21.03.2020
6260 Rain 9 1014 63 0 1.17 136 10:57 21.03.2020
6261 Rain 9 1014 63 0 1.17 136 10:39 21.03.2020
6262 Rain 9 1014 63 0 1.17 136 10:21 21.03.2020
6263 Rain 9 1014 63 0 1.17 136 10:20 21.03.2020
6264 Rain 9 1014 63 0 1.17 136 09:58 21.03.2020
6265 Rain 9 1014 63 0 1.17 136 09:38 21.03.2020
6266 Rain 9 1014 63 0 1.17 136 09:20 21.03.2020
6267 Rain 9 1014 63 0 1.17 136 08:55 21.03.2020
6268 Rain 9 1014 63 0 1.17 136 08:37 21.03.2020
6269 Clouds 11 1017 46 0 2.74 208 08:18 21.03.2020
6270 Snow 10 1018 53 0 1.08 12 07:33 21.03.2020
6271 Snow 10 1018 53 0 1.08 12 06:56 21.03.2020
6272 Snow 10 1018 53 0 1.08 12 06:36 21.03.2020
6273 Snow 10 1018 53 0 1.08 12 06:18 21.03.2020
6274 Snow 10 1018 53 0 1.08 12 05:39 21.03.2020
6275 Clouds 9 1020 49 0 1.61 301 03:39 21.03.2020
6276 Clouds 9 1020 49 0 1.61 301 02:36 21.03.2020
6277 Clouds 4 1019 56 0 3.09 4 01:44 21.03.2020
6278 Clouds 4 1019 56 0 3.09 4 01:23 21.03.2020
6279 Clouds 4 1019 57 0 3.36 359 00:39 21.03.2020
6280 Clouds 4 1019 57 0 3.36 359 00:21 21.03.2020
6281 Clouds 4 1019 57 0 3.36 359 23:42 20.03.2020
6282 Clouds 4 1019 57 0 3.36 359 23:22 20.03.2020
6283 Clouds 4 1019 64 0 3.14 2 22:44 20.03.2020
6284 Clouds 4 1019 64 0 3.14 2 22:25 20.03.2020
6285 Clouds 4 1019 64 0 3.14 2 21:58 20.03.2020
6286 Clouds 4 1019 64 0 3.14 2 21:40 20.03.2020
6287 Clouds 4 1019 64 0 3.14 2 21:20 20.03.2020
6288 Clouds 4 1019 64 0 3.14 2 20:58 20.03.2020
6289 Clouds 4 1019 64 0 3.14 2 20:40 20.03.2020
6290 Clouds 4 1019 64 0 3.23 6 20:19 20.03.2020
6291 Clouds 4 1019 64 0 3.23 6 19:48 20.03.2020
6292 Clouds 4 1019 64 0 3.23 6 19:21 20.03.2020
6293 Clouds 4 1019 64 0 3.23 6 18:58 20.03.2020
6294 Clouds 4 1019 64 0 3.23 6 18:38 20.03.2020
6295 Clouds 4 1019 64 0 3.23 6 18:20 20.03.2020
6296 Clouds 4 1019 64 0 3.23 6 18:20 20.03.2020
6297 Clouds 4 1019 64 0 3.23 6 17:56 20.03.2020
6298 Clouds 4 1019 64 0 3.23 6 17:37 20.03.2020
6299 Rain 5 1018 74 0 3.12 21 17:19 20.03.2020
6300 Rain 5 1018 74 0 3.12 21 16:42 20.03.2020
6301 Rain 5 1018 74 0 3.12 21 16:21 20.03.2020
6302 Rain 5 1018 74 0 3.12 21 15:56 20.03.2020
6303 Rain 5 1018 74 0 3.12 21 15:37 20.03.2020
6304 Rain 5 1018 74 0 3.12 21 15:19 20.03.2020
6305 Rain 5 1018 74 0 3.12 21 14:42 20.03.2020
6306 Rain 5 1018 74 0 3.12 21 14:21 20.03.2020
6307 Rain 8 1015 69 0 1.28 258 13:50 20.03.2020
6308 Rain 8 1015 69 0 1.28 258 13:50 20.03.2020
6309 Rain 8 1015 69 0 1.28 258 13:26 20.03.2020
6310 Rain 9 1014 63 0 1.67 251 12:59 20.03.2020
6311 Rain 9 1014 63 0 1.67 251 12:38 20.03.2020
6312 Rain 9 1014 63 0 1.67 251 12:20 20.03.2020
6313 Rain 9 1014 63 0 1.67 251 11:40 20.03.2020
6314 Rain 9 1014 63 0 1.67 251 11:21 20.03.2020
6315 Rain 12 1015 39 0 2.81 216 10:57 20.03.2020
6316 Rain 12 1015 39 0 2.81 216 10:57 20.03.2020
6317 Rain 12 1015 39 0 2.81 216 10:38 20.03.2020
6318 Rain 12 1015 39 0 2.81 216 10:18 20.03.2020
6319 Rain 12 1015 39 0 2.81 216 09:46 20.03.2020
6320 Rain 12 1015 39 0 2.81 216 09:21 20.03.2020
6321 Rain 12 1015 39 0 2.81 216 08:58 20.03.2020
6322 Rain 12 1015 39 0 2.81 216 08:39 20.03.2020
6323 Clouds 12 1018 35 0 3.12 211 08:19 20.03.2020
6324 Clouds 12 1018 35 0 3.12 211 07:43 20.03.2020
6325 Clouds 12 1018 35 0 3.12 211 07:25 20.03.2020
6326 Clouds 12 1018 35 0 3.12 211 06:43 20.03.2020
6327 Clouds 12 1018 35 0 3.12 211 06:22 20.03.2020
6328 Clear 8 1020 44 0 0.65 35 04:48 20.03.2020
6329 Clear 8 1020 44 0 0.65 35 03:18 20.03.2020
6330 Clear 3 1020 55 0 3.41 12 01:51 20.03.2020
6331 Clouds 3 1020 54 0 3.14 13 00:46 20.03.2020
6332 Clouds 3 1020 54 0 3.14 13 00:24 20.03.2020
6333 Clouds 3 1020 54 0 3.14 13 23:42 19.03.2020
6334 Clouds 3 1020 54 0 3.14 13 23:23 19.03.2020
6335 Clouds 3 1020 60 0 3.34 17 22:55 19.03.2020
6336 Clouds 3 1020 60 0 3.34 17 22:37 19.03.2020
6337 Clouds 3 1020 60 0 3.34 17 22:18 19.03.2020
6338 Clouds 3 1020 60 0 3.34 17 21:40 19.03.2020
6339 Clouds 3 1020 60 0 3.34 17 21:20 19.03.2020
6340 Clouds 3 1020 60 0 3.34 17 20:55 19.03.2020
6341 Clouds 3 1020 60 0 3.34 17 20:37 19.03.2020
6342 Clouds 4 1020 62 0 3.14 17 20:19 19.03.2020
6343 Clouds 4 1020 62 0 3.14 17 19:54 19.03.2020
6344 Clouds 4 1020 62 0 3.14 17 19:36 19.03.2020
6345 Clouds 4 1020 62 0 3.14 17 19:18 19.03.2020
6346 Clouds 4 1020 62 0 3.14 17 18:41 19.03.2020
6347 Clouds 4 1020 62 0 3.14 17 18:22 19.03.2020
6348 Clouds 4 1020 62 0 3.14 17 17:56 19.03.2020
6349 Clouds 4 1020 62 0 3.14 17 17:37 19.03.2020
6350 Snow 4 1018 75 0 2.36 23 17:18 19.03.2020
6351 Snow 4 1018 75 0 2.36 23 16:43 19.03.2020
6352 Snow 4 1018 75 0 2.36 23 16:22 19.03.2020
6353 Snow 4 1018 75 0 2.36 23 15:44 19.03.2020
6354 Snow 4 1018 75 0 2.36 23 15:25 19.03.2020
6355 Snow 4 1018 75 0 2.36 23 14:55 19.03.2020
6356 Snow 4 1018 75 0 2.36 23 14:37 19.03.2020
6357 Rain 8 1015 72 0 1.37 252 14:18 19.03.2020
6358 Rain 8 1015 72 0 1.37 252 13:39 19.03.2020
6359 Rain 8 1014 73 0 1.61 253 13:19 19.03.2020
6360 Rain 8 1014 73 0 1.61 253 12:44 19.03.2020
6361 Rain 8 1014 73 0 1.61 253 12:24 19.03.2020
6362 Rain 8 1014 73 0 1.61 253 11:59 19.03.2020
6363 Rain 8 1014 73 0 1.61 253 11:41 19.03.2020
6364 Rain 8 1014 73 0 1.61 253 11:22 19.03.2020
6365 Rain 11 1014 45 0 3.26 221 10:44 19.03.2020
6366 Rain 11 1014 45 0 3.26 221 10:22 19.03.2020
6367 Rain 11 1014 45 0 3.26 221 09:59 19.03.2020
6368 Rain 11 1014 45 0 3.26 221 09:40 19.03.2020
6369 Rain 11 1014 45 0 3.26 221 09:22 19.03.2020
6370 Rain 11 1014 45 0 3.26 221 08:48 19.03.2020
6371 Rain 12 1014 41 0 3.25 217 08:23 19.03.2020
6372 Clear 11 1017 34 0 3.11 207 07:57 19.03.2020
6373 Clear 11 1017 34 0 3.11 207 07:37 19.03.2020
6374 Clear 11 1017 34 0 3.11 207 07:18 19.03.2020
6375 Clear 11 1017 34 0 3.11 207 06:23 19.03.2020
6376 Clear 11 1017 34 0 3.11 207 05:24 19.03.2020
6377 Clear 8 1020 43 0 0.85 311 04:46 19.03.2020
6378 Clear 8 1020 43 0 0.85 311 03:44 19.03.2020
6379 Clear 3 1021 56 0 2.84 3 01:46 19.03.2020
6380 Clouds 3 1020 55 0 2.95 1 00:42 19.03.2020
6381 Clouds 3 1020 55 0 2.95 1 00:19 19.03.2020
6382 Clouds 3 1020 55 0 2.95 1 23:42 18.03.2020
6383 Clouds 3 1020 55 0 2.95 1 23:22 18.03.2020
6384 Clouds 3 1021 60 0 2.84 5 22:43 18.03.2020
6385 Clouds 3 1021 60 0 2.84 5 22:23 18.03.2020
6386 Clouds 3 1021 60 0 2.84 5 21:55 18.03.2020
6387 Clouds 3 1021 60 0 2.84 5 21:37 18.03.2020
6388 Clouds 3 1021 60 0 2.84 5 21:19 18.03.2020
6389 Clouds 3 1021 60 0 2.84 5 20:55 18.03.2020
6390 Clouds 3 1021 60 0 2.84 5 20:37 18.03.2020
6391 Clouds 4 1021 63 0 3.13 17 20:19 18.03.2020
6392 Clouds 4 1021 63 0 3.13 17 19:41 18.03.2020
6393 Clouds 4 1021 63 0 3.13 17 19:21 18.03.2020
6394 Clouds 4 1021 63 0 3.13 17 18:58 18.03.2020
6395 Clouds 4 1021 63 0 3.13 17 18:39 18.03.2020
6396 Clouds 4 1021 63 0 3.13 17 18:19 18.03.2020
6397 Clouds 4 1021 63 0 3.13 17 17:55 18.03.2020
6398 Clouds 4 1021 63 0 3.13 17 17:37 18.03.2020
6399 Rain 5 1021 76 0 2.34 21 17:19 18.03.2020
6400 Rain 5 1021 76 0 2.34 21 16:42 18.03.2020
6401 Rain 5 1021 76 0 2.34 21 16:20 18.03.2020
6402 Rain 5 1021 76 0 2.34 21 15:57 18.03.2020
6403 Rain 5 1021 76 0 2.34 21 15:38 18.03.2020
6404 Rain 5 1021 76 0 2.34 21 15:20 18.03.2020
6405 Rain 5 1021 76 0 2.34 21 14:42 18.03.2020
6406 Rain 5 1021 76 0 2.34 21 14:21 18.03.2020
6407 Rain 8 1017 71 0 1.67 246 13:42 18.03.2020
6408 Rain 8 1017 70 0 1.57 244 13:19 18.03.2020
6409 Rain 8 1017 70 0 1.57 244 12:55 18.03.2020
6410 Rain 8 1017 70 0 1.57 244 12:37 18.03.2020
6411 Rain 8 1017 70 0 1.57 244 12:18 18.03.2020
6412 Rain 8 1017 70 0 1.57 244 11:38 18.03.2020
6413 Rain 12 1017 50 0 3.07 220 11:19 18.03.2020
6414 Rain 12 1017 50 0 3.07 220 10:57 18.03.2020
6415 Rain 12 1017 50 0 3.07 220 10:37 18.03.2020
6416 Rain 12 1017 50 0 3.07 220 10:19 18.03.2020
6417 Rain 12 1017 50 0 3.07 220 09:43 18.03.2020
6418 Rain 12 1017 50 0 3.07 220 09:23 18.03.2020
6419 Rain 12 1017 50 0 3.07 220 08:55 18.03.2020
6420 Rain 12 1017 50 0 3.07 220 08:37 18.03.2020
6421 Clear 12 1020 38 0 3.1 215 08:19 18.03.2020
6422 Clear 12 1020 38 0 3.1 215 07:43 18.03.2020
6423 Clear 12 1020 38 0 3.1 215 07:25 18.03.2020
6424 Clear 12 1020 38 0 3.1 215 06:44 18.03.2020
6425 Clear 12 1020 38 0 3.1 215 06:18 18.03.2020
6426 Clear 12 1020 38 0 3.1 215 05:34 18.03.2020
6427 Clear 8 1024 41 0 1.03 298 04:24 18.03.2020
6428 Clear 8 1024 41 0 1.03 298 02:43 18.03.2020
6429 Clear 4 1025 50 0 2.67 353 01:48 18.03.2020
6430 Clear 4 1024 47 0 2.65 358 01:26 18.03.2020
6431 Clear 4 1024 52 0 2.69 357 00:24 18.03.2020
6432 Clear 4 1024 52 0 2.69 357 23:47 17.03.2020
6433 Clear 4 1024 47 0 2.65 358 23:27 17.03.2020
6434 Clear 4 1024 54 0 2.41 356 22:55 17.03.2020
6435 Clear 4 1024 51 0 2.6 356 22:37 17.03.2020
6436 Clear 4 1024 54 0 2.41 356 22:18 17.03.2020
6437 Clear 4 1024 54 0 2.41 356 21:39 17.03.2020
6438 Clear 4 1024 51 0 2.6 356 21:21 17.03.2020
6439 Clear 4 1024 51 0 2.6 356 21:21 17.03.2020
6440 Clear 4 1024 54 0 2.41 356 20:40 17.03.2020
6441 Clear 4 1024 51 0 2.6 356 20:21 17.03.2020
6442 Clouds 5 1024 52 0 2.75 2 19:58 17.03.2020
6443 Clouds 5 1024 52 0 2.75 2 19:39 17.03.2020
6444 Clouds 5 1024 52 0 2.75 2 19:18 17.03.2020
6445 Clouds 5 1024 52 0 2.75 2 18:56 17.03.2020
6446 Clouds 5 1024 52 0 2.75 2 18:37 17.03.2020
6447 Clouds 5 1024 52 0 2.75 2 18:19 17.03.2020
6448 Clouds 5 1024 52 0 2.75 2 17:40 17.03.2020
6449 Clouds 5 1024 52 0 2.75 2 17:21 17.03.2020
6450 Clouds 5 1024 71 0 2.71 19 16:55 17.03.2020
6451 Clouds 5 1024 71 0 2.71 19 16:37 17.03.2020
6452 Clouds 5 1024 71 0 2.71 19 16:18 17.03.2020
6453 Clouds 5 1024 71 0 2.71 19 15:43 17.03.2020
6454 Clouds 5 1024 71 0 2.71 19 15:20 17.03.2020
6455 Clouds 5 1024 71 0 2.71 19 14:42 17.03.2020
6456 Clouds 5 1024 71 0 2.71 19 14:21 17.03.2020
6457 Rain 9 1020 70 0 1.77 226 13:44 17.03.2020
6458 Rain 9 1020 70 0 1.77 226 13:26 17.03.2020
6459 Rain 9 1019 67 0 1.87 221 12:58 17.03.2020
6460 Rain 9 1019 67 0 1.87 221 12:40 17.03.2020
6461 Rain 9 1019 67 0 1.87 221 12:21 17.03.2020
6462 Rain 9 1019 65 0 1.88 221 11:46 17.03.2020
6463 Rain 9 1019 65 0 1.88 221 11:28 17.03.2020
6464 Clear 12 1019 43 0 3.36 212 10:58 17.03.2020
6465 Clear 12 1019 43 0 3.36 212 10:38 17.03.2020
6466 Clear 12 1019 43 0 3.36 212 10:20 17.03.2020
6467 Clear 12 1019 43 0 3.36 212 09:55 17.03.2020
6468 Clear 12 1019 39 0 3.29 212 09:55 17.03.2020
6469 Clear 12 1019 43 0 3.36 212 09:36 17.03.2020
6470 Clear 12 1019 43 0 3.36 212 09:18 17.03.2020
6471 Clear 12 1019 43 0 3.36 212 08:42 17.03.2020
6472 Clear 12 1019 39 0 3.29 212 08:21 17.03.2020
6473 Clouds 12 1021 29 0 2.85 212 07:50 17.03.2020
6474 Clouds 12 1021 29 0 2.85 212 07:26 17.03.2020
6475 Clouds 12 1021 29 0 2.85 212 06:58 17.03.2020
6476 Clouds 12 1021 29 0 2.85 212 06:33 17.03.2020
6477 Clouds 12 1021 29 0 2.85 212 05:46 17.03.2020
6478 Clouds 8 1024 33 0 1.06 322 03:40 17.03.2020
6479 Clouds 8 1024 33 0 1.06 322 02:45 17.03.2020
6480 Clear 3 1024 38 0 3.14 2 01:43 17.03.2020
6481 Clear 3 1024 36 0 3.21 1 01:24 17.03.2020
6482 Clear 3 1024 36 0 3.21 1 00:31 17.03.2020
6483 Clear 3 1024 36 0 3.21 1 23:45 16.03.2020
6484 Clear 3 1024 36 0 3.21 1 23:25 16.03.2020
6485 Clear 3 1024 44 0 2.96 0 22:41 16.03.2020
6486 Clear 3 1024 44 0 2.96 0 22:41 16.03.2020
6487 Clear 3 1024 44 0 2.96 0 22:23 16.03.2020
6488 Clear 3 1024 44 0 2.96 0 21:57 16.03.2020
6489 Clear 3 1024 44 0 2.96 0 21:39 16.03.2020
6490 Clear 3 1024 44 0 2.96 0 21:21 16.03.2020
6491 Clear 3 1024 44 0 2.96 0 20:55 16.03.2020
6492 Clear 3 1024 44 0 2.96 0 20:37 16.03.2020
6493 Clouds 4 1025 52 0 2.77 359 20:18 16.03.2020
6494 Clouds 4 1025 52 0 2.9 5 19:40 16.03.2020
6495 Clouds 4 1025 52 0 2.9 5 19:20 16.03.2020
6496 Clouds 4 1025 52 0 2.9 5 18:43 16.03.2020
6497 Clouds 4 1025 52 0 2.9 5 18:21 16.03.2020
6498 Clouds 4 1025 52 0 2.9 5 17:55 16.03.2020
6499 Clouds 4 1025 52 0 2.9 5 17:36 16.03.2020
6500 Clouds 4 1024 59 0 2.75 14 17:18 16.03.2020
6501 Clouds 4 1024 59 0 2.75 14 16:42 16.03.2020
6502 Clouds 4 1024 59 0 2.75 14 16:24 16.03.2020
6503 Clouds 4 1024 59 0 2.75 14 15:44 16.03.2020
6504 Clouds 4 1024 59 0 2.75 14 15:26 16.03.2020
6505 Clouds 4 1024 59 0 2.75 14 14:49 16.03.2020
6506 Clouds 4 1024 59 0 2.75 14 14:27 16.03.2020
6507 Clouds 8 1020 65 0 1.51 207 13:57 16.03.2020
6508 Clouds 8 1020 65 0 1.51 207 13:38 16.03.2020
6509 Clouds 8 1020 64 0 1.67 214 13:20 16.03.2020
6510 Clouds 8 1020 64 0 1.67 214 12:44 16.03.2020
6511 Clouds 8 1020 64 0 1.67 214 12:23 16.03.2020
6512 Clouds 8 1020 64 0 1.67 214 11:46 16.03.2020
6513 Clouds 8 1020 64 0 1.67 214 11:27 16.03.2020
6514 Clouds 8 1020 64 0 1.67 214 11:27 16.03.2020
6515 Clouds 11 1019 37 0 2.89 213 10:56 16.03.2020
6516 Clouds 11 1019 37 0 2.89 213 10:37 16.03.2020
6517 Clouds 11 1019 37 0 2.89 213 10:18 16.03.2020
6518 Clouds 11 1019 37 0 2.89 213 09:42 16.03.2020
6519 Clouds 11 1019 37 0 2.89 213 09:21 16.03.2020
6520 Clouds 11 1019 37 0 2.89 213 08:52 16.03.2020
6521 Clouds 11 1019 37 0 2.89 213 08:25 16.03.2020
6522 Clouds 11 1023 27 0 2.33 205 07:48 16.03.2020
6523 Clouds 11 1023 27 0 2.33 205 07:25 16.03.2020
6524 Clouds 11 1023 27 0 2.33 205 06:52 16.03.2020
6525 Clouds 11 1023 27 0 2.33 205 06:24 16.03.2020
6526 Clouds 6 1026 38 0 1.34 300 04:54 16.03.2020
6527 Clouds 6 1026 38 0 1.34 300 02:42 16.03.2020
6528 Clear 2 1027 43 0 2.94 11 00:52 16.03.2020
6529 Clear 2 1027 43 0 2.94 11 00:33 16.03.2020
6530 Clear 2 1027 43 0 2.94 11 23:46 15.03.2020
6531 Clear 2 1027 56 0 3 8 23:20 15.03.2020
6532 Clear 2 1027 56 0 3 8 22:43 15.03.2020
6533 Clear 2 1027 56 0 3 8 22:23 15.03.2020
6534 Clear 2 1027 56 0 3 8 21:58 15.03.2020
6535 Clear 2 1027 56 0 3 8 21:38 15.03.2020
6536 Clear 2 1027 56 0 3 8 21:18 15.03.2020
6537 Clear 2 1027 56 0 3 8 20:42 15.03.2020
6538 Clear 2 1027 56 0 3 8 20:21 15.03.2020
6539 Clouds 2 1026 56 0 3.09 20 19:58 15.03.2020
6540 Clouds 2 1026 56 0 3.09 20 19:39 15.03.2020
6541 Clouds 2 1026 56 0 3.09 20 19:39 15.03.2020
6542 Clouds 2 1026 56 0 3.09 20 19:20 15.03.2020
6543 Clouds 2 1026 56 0 3.09 20 19:20 15.03.2020
6544 Clouds 2 1026 56 0 3.09 20 18:56 15.03.2020
6545 Clouds 2 1026 56 0 3.09 20 18:37 15.03.2020
6546 Clouds 2 1026 56 0 3.09 20 18:19 15.03.2020
6547 Clouds 2 1026 56 0 3.09 20 17:41 15.03.2020
6548 Clouds 2 1026 56 0 3.09 20 17:21 15.03.2020
6549 Clouds 3 1024 85 0 1.55 34 16:58 15.03.2020
6550 Clouds 3 1024 85 0 1.55 34 16:40 15.03.2020
6551 Clouds 3 1024 85 0 1.55 34 16:21 15.03.2020
6552 Clouds 3 1024 85 0 1.55 34 15:54 15.03.2020
6553 Clouds 3 1024 85 0 1.55 34 15:36 15.03.2020
6554 Clouds 3 1024 85 0 1.55 34 15:18 15.03.2020
6555 Clouds 3 1024 85 0 1.55 34 14:39 15.03.2020
6556 Clouds 3 1024 85 0 1.55 34 14:21 15.03.2020
6557 Rain 5 1019 84 0 1.97 217 13:55 15.03.2020
6558 Rain 5 1019 84 0 1.97 217 13:37 15.03.2020
6559 Rain 6 1019 81 0 1.88 219 13:18 15.03.2020
6560 Rain 6 1019 81 0 1.88 219 12:40 15.03.2020
6561 Rain 6 1019 81 0 1.88 219 12:22 15.03.2020
6562 Rain 6 1019 81 0 1.88 219 11:44 15.03.2020
6563 Rain 6 1019 81 0 1.88 219 11:25 15.03.2020
6564 Snow 8 1019 61 0 2.76 221 10:59 15.03.2020
6565 Snow 8 1019 61 0 2.76 221 10:40 15.03.2020
6566 Snow 8 1019 61 0 2.76 221 10:21 15.03.2020
6567 Snow 8 1019 61 0 2.76 221 09:59 15.03.2020
6568 Snow 8 1019 61 0 2.76 221 09:38 15.03.2020
6569 Snow 8 1019 61 0 2.76 221 09:19 15.03.2020
6570 Snow 8 1019 61 0 2.76 221 08:41 15.03.2020
6571 Clouds 8 1022 49 0 2.73 204 08:19 15.03.2020
6572 Clouds 8 1022 49 0 2.73 204 07:48 15.03.2020
6573 Clouds 8 1022 49 0 2.73 204 07:22 15.03.2020
6574 Clouds 8 1022 49 0 2.73 204 06:44 15.03.2020
6575 Clouds 8 1022 49 0 2.73 204 05:48 15.03.2020
6576 Clouds 5 1025 57 0 0.12 304 04:57 15.03.2020
6577 Clouds 5 1025 57 0 0.12 304 04:39 15.03.2020
6578 Clouds 5 1025 57 0 0.12 304 04:20 15.03.2020
6579 Clouds 5 1025 57 0 0.12 304 03:19 15.03.2020
6580 Clouds 5 1025 57 0 0.12 304 02:28 15.03.2020
6581 Clouds 0 1025 66 0 2.78 6 00:59 15.03.2020
6582 Clouds 0 1025 66 0 2.78 6 00:41 15.03.2020
6583 Clouds 0 1025 66 0 2.78 6 00:19 15.03.2020
6584 Clouds 0 1025 66 0 2.78 6 23:40 14.03.2020
6585 Clouds 1 1023 66 0 2.52 355 23:20 14.03.2020
6586 Clouds 1 1023 66 0 2.52 355 22:56 14.03.2020
6587 Clouds 1 1023 66 0 2.52 355 22:38 14.03.2020
6588 Clouds 1 1023 66 0 2.52 355 22:20 14.03.2020
6589 Clouds 1 1023 66 0 2.52 355 21:56 14.03.2020
6590 Clouds 1 1023 66 0 2.52 355 21:36 14.03.2020
6591 Clouds 1 1023 66 0 2.52 355 21:18 14.03.2020
6592 Clouds 1 1023 66 0 2.52 355 21:18 14.03.2020
6593 Clouds 1 1023 66 0 2.52 355 20:58 14.03.2020
6594 Clouds 1 1023 66 0 2.52 355 20:39 14.03.2020
6595 Clouds 2 1022 70 0 2.39 18 20:18 14.03.2020
6596 Clouds 2 1022 70 0 2.39 18 19:42 14.03.2020
6597 Clouds 2 1022 70 0 2.39 18 19:24 14.03.2020
6598 Clouds 2 1022 70 0 2.39 18 18:41 14.03.2020
6599 Clouds 2 1022 70 0 2.39 18 18:22 14.03.2020
6600 Clouds 2 1022 70 0 2.39 18 17:55 14.03.2020
6601 Clouds 2 1022 70 0 2.39 18 17:37 14.03.2020
6602 Snow 3 1019 76 0 2.3 12 17:19 14.03.2020
6603 Snow 3 1019 76 0 2.3 12 16:40 14.03.2020
6604 Snow 3 1019 76 0 2.3 12 16:22 14.03.2020
6605 Snow 3 1019 76 0 2.3 12 15:54 14.03.2020
6606 Snow 3 1019 76 0 2.3 12 15:26 14.03.2020
6607 Snow 3 1019 76 0 2.3 12 14:47 14.03.2020
6608 Snow 3 1019 76 0 2.3 12 14:24 14.03.2020
6609 Snow 3 1015 87 0 0.51 141 13:58 14.03.2020
6610 Snow 3 1015 87 0 0.51 141 13:39 14.03.2020
6611 Snow 4 1015 81 0 1.48 345 13:21 14.03.2020
6612 Snow 4 1015 81 0 1.48 345 12:47 14.03.2020
6613 Snow 4 1015 81 0 1.48 345 12:27 14.03.2020
6614 Snow 4 1015 81 0 1.48 345 11:56 14.03.2020
6615 Snow 4 1015 81 0 1.48 345 11:38 14.03.2020
6616 Snow 6 1015 74 0 1.75 213 11:19 14.03.2020
6617 Snow 6 1015 74 0 1.75 213 10:44 14.03.2020
6618 Snow 6 1015 74 0 1.75 213 10:25 14.03.2020
6619 Snow 6 1015 74 0 1.75 213 09:57 14.03.2020
6620 Snow 6 1015 74 0 1.75 213 09:39 14.03.2020
6621 Snow 6 1015 74 0 1.75 213 09:19 14.03.2020
6622 Snow 6 1015 74 0 1.75 213 08:42 14.03.2020
6623 Snow 5 1016 81 0 2.12 225 08:21 14.03.2020
6624 Snow 6 1019 76 0 1.98 196 07:39 14.03.2020
6625 Snow 6 1019 76 0 1.98 196 07:20 14.03.2020
6626 Snow 6 1019 76 0 1.98 196 06:41 14.03.2020
6627 Snow 6 1019 76 0 1.98 196 05:49 14.03.2020
6628 Snow 4 1022 76 0 0.56 316 04:43 14.03.2020
6629 Snow 4 1022 76 0 0.56 316 03:24 14.03.2020
6630 Snow 4 1022 76 0 0.56 316 02:28 14.03.2020
6631 Snow 1 1022 85 0 3.05 30 01:20 14.03.2020
6632 Snow 1 1022 85 0 3.05 30 00:20 14.03.2020
6633 Snow 1 1022 85 0 3.05 30 23:32 13.03.2020
6634 Snow 1 1021 78 0 3.1 358 22:57 13.03.2020
6635 Snow 1 1021 78 0 3.1 358 22:38 13.03.2020
6636 Snow 1 1021 78 0 3.1 358 22:19 13.03.2020
6637 Snow 1 1021 78 0 3.1 358 21:39 13.03.2020
6638 Snow 1 1021 78 0 3.1 358 21:18 13.03.2020
6639 Snow 1 1021 78 0 3.1 358 20:41 13.03.2020
6640 Snow 1 1021 78 0 2.83 11 20:22 13.03.2020
6641 Snow 2 1022 83 0 3.09 1 19:51 13.03.2020
6642 Snow 2 1022 83 0 3.09 1 19:31 13.03.2020
6643 Snow 2 1022 83 0 3.09 1 18:59 13.03.2020
6644 Snow 2 1022 83 0 3.09 1 18:39 13.03.2020
6645 Snow 2 1022 83 0 3.09 1 18:21 13.03.2020
6646 Snow 2 1022 83 0 3.09 1 17:42 13.03.2020
6647 Snow 2 1022 83 0 3.09 1 17:21 13.03.2020
6648 Snow 2 1020 95 0 0.7 37 16:56 13.03.2020
6649 Snow 2 1020 95 0 0.7 37 16:38 13.03.2020
6650 Snow 2 1020 95 0 0.7 37 16:19 13.03.2020
6651 Snow 2 1020 95 0 0.7 37 15:42 13.03.2020
6652 Snow 2 1020 95 0 0.7 37 15:21 13.03.2020
6653 Snow 2 1020 95 0 0.7 37 14:55 13.03.2020
6654 Snow 2 1020 95 0 0.7 37 14:36 13.03.2020
6655 Snow 4 1016 82 0 2.2 6 14:18 13.03.2020
6656 Snow 4 1016 82 0 2.2 6 13:42 13.03.2020
6657 Snow 4 1016 82 0 2.2 6 13:21 13.03.2020
6658 Snow 4 1016 86 0 0.89 170 12:57 13.03.2020
6659 Snow 4 1016 86 0 0.89 170 12:38 13.03.2020
6660 Snow 4 1016 86 0 0.89 170 12:19 13.03.2020
6661 Snow 4 1016 86 0 0.89 170 11:55 13.03.2020
6662 Snow 4 1016 86 0 0.89 170 11:36 13.03.2020
6663 Snow 6 1016 70 0 1.34 273 11:18 13.03.2020
6664 Snow 6 1016 70 0 1.34 273 10:42 13.03.2020
6665 Snow 6 1016 70 0 1.34 273 10:24 13.03.2020
6666 Snow 6 1016 70 0 1.34 273 09:46 13.03.2020
6667 Snow 6 1016 70 0 1.34 273 09:27 13.03.2020
6668 Snow 6 1016 70 0 1.34 273 08:57 13.03.2020
6669 Snow 6 1016 70 0 1.34 273 08:38 13.03.2020
6670 Snow 5 1019 75 0 3.1 16 08:19 13.03.2020
6671 Snow 5 1019 75 0 3.1 16 07:44 13.03.2020
6672 Snow 5 1019 75 0 3.1 16 07:23 13.03.2020
6673 Snow 5 1019 75 0 3.1 16 06:46 13.03.2020
6674 Snow 5 1019 75 0 3.1 16 06:21 13.03.2020
6675 Snow 5 1019 75 0 3.1 16 05:44 13.03.2020
6676 Snow 4 1021 74 0 2.69 22 04:39 13.03.2020
6677 Snow 4 1021 74 0 2.69 22 03:51 13.03.2020
6678 Snow 4 1021 74 0 2.69 22 02:42 13.03.2020
6679 Snow 1 1019 91 0 1 216 01:37 13.03.2020
6680 Snow 1 1019 91 0 1 216 01:18 13.03.2020
6681 Snow -1 1019 94 0 2.12 44 00:39 13.03.2020
6682 Snow -1 1019 94 0 2.12 44 00:19 13.03.2020
6683 Snow -1 1019 94 0 2.12 44 23:38 12.03.2020
6684 Snow 1 1020 79 0 3.7 8 23:19 12.03.2020
6685 Snow 1 1020 79 0 3.7 8 22:46 12.03.2020
6686 Snow 1 1020 79 0 3.7 8 22:27 12.03.2020
6687 Snow 1 1020 79 0 3.7 8 21:56 12.03.2020
6688 Snow 1 1020 79 0 3.7 8 21:38 12.03.2020
6689 Snow 1 1020 79 0 3.7 8 21:20 12.03.2020
6690 Snow 1 1020 79 0 3.7 8 20:42 12.03.2020
6691 Snow 2 1020 93 0 1.45 254 20:20 12.03.2020
6692 Snow 3 1019 91 0 0.74 79 19:56 12.03.2020
6693 Snow 3 1019 91 0 0.74 79 19:37 12.03.2020
6694 Snow 3 1019 91 0 0.74 79 19:18 12.03.2020
6695 Snow 3 1019 91 0 0.74 79 18:42 12.03.2020
6696 Snow 3 1019 91 0 0.74 79 18:22 12.03.2020
6697 Snow 3 1019 91 0 0.74 79 17:56 12.03.2020
6698 Snow 3 1019 91 0 0.74 79 17:37 12.03.2020
6699 Snow 3 1018 79 0 4.13 16 17:18 12.03.2020
6700 Snow 3 1018 79 0 4.13 16 16:41 12.03.2020
6701 Snow 3 1018 79 0 4.13 16 16:23 12.03.2020
6702 Snow 3 1018 79 0 4.13 16 15:49 12.03.2020
6703 Snow 3 1018 79 0 4.13 16 15:28 12.03.2020
6704 Snow 3 1018 79 0 4.13 16 14:58 12.03.2020
6705 Snow 3 1018 79 0 4.13 16 14:38 12.03.2020
6706 Snow 6 1015 79 0 1.02 248 14:19 12.03.2020
6707 Snow 6 1015 79 0 1.02 248 13:40 12.03.2020
6708 Snow 6 1015 79 0 1.02 248 13:21 12.03.2020
6709 Snow 7 1014 74 0 1.8 27 12:55 12.03.2020
6710 Snow 7 1014 74 0 1.8 27 12:37 12.03.2020
6711 Snow 7 1014 74 0 1.8 27 12:18 12.03.2020
6712 Snow 7 1014 74 0 1.8 27 11:56 12.03.2020
6713 Snow 7 1014 74 0 1.8 27 11:37 12.03.2020
6714 Snow 9 1014 70 0 1.15 237 11:18 12.03.2020
6715 Snow 9 1014 70 0 1.15 237 10:44 12.03.2020
6716 Snow 9 1014 70 0 1.15 237 10:26 12.03.2020
6717 Snow 9 1014 70 0 1.15 237 09:59 12.03.2020
6718 Snow 9 1014 70 0 1.15 237 09:41 12.03.2020
6719 Snow 9 1014 70 0 1.15 237 09:23 12.03.2020
6720 Snow 9 1014 70 0 1.15 237 08:39 12.03.2020
6721 Snow 8 1017 69 0 2.02 250 08:19 12.03.2020
6722 Snow 4 1017 93 0 1.09 339 07:48 12.03.2020
6723 Snow 4 1017 93 0 1.09 339 07:23 12.03.2020
6724 Snow 4 1017 93 0 1.09 339 06:33 12.03.2020
6725 Snow 4 1017 93 0 1.09 339 05:40 12.03.2020
6726 Snow 3 1017 86 0 1.73 13 03:54 12.03.2020
6727 Snow 3 1017 86 0 1.73 13 02:21 12.03.2020
6728 Snow 2 1015 90 0 1.8 292 01:29 12.03.2020
6729 Snow 2 1015 87 0 3.13 356 00:42 12.03.2020
6730 Snow 2 1015 87 0 3.13 356 23:59 11.03.2020
6731 Snow 2 1015 87 0 3.13 356 23:37 11.03.2020
6732 Snow 1 1015 97 0 0.97 334 23:18 11.03.2020
6733 Snow 1 1015 97 0 0.97 334 22:42 11.03.2020
6734 Snow 1 1015 97 0 0.97 334 22:23 11.03.2020
6735 Snow 1 1015 97 0 0.97 334 21:58 11.03.2020
6736 Snow 1 1015 97 0 0.97 334 21:40 11.03.2020
6737 Snow 1 1015 97 0 0.97 334 21:22 11.03.2020
6738 Snow 1 1015 97 0 0.97 334 20:57 11.03.2020
6739 Snow 1 1015 97 0 0.97 334 20:38 11.03.2020
6740 Snow 2 1014 94 0 1.47 38 20:19 11.03.2020
6741 Snow 2 1014 94 0 1.47 38 19:43 11.03.2020
6742 Snow 2 1014 94 0 1.47 38 19:25 11.03.2020
6743 Snow 2 1014 94 0 1.47 38 18:58 11.03.2020
6744 Snow 2 1014 94 0 1.47 38 18:38 11.03.2020
6745 Snow 2 1014 94 0 1.47 38 18:20 11.03.2020
6746 Snow 2 1014 94 0 1.47 38 17:56 11.03.2020
6747 Snow 2 1014 94 0 1.47 38 17:37 11.03.2020
6748 Snow 5 1014 74 0 2.99 354 17:19 11.03.2020
6749 Snow 5 1014 74 0 2.99 354 16:45 11.03.2020
6750 Snow 5 1014 74 0 2.99 354 16:22 11.03.2020
6751 Snow 5 1014 74 0 2.99 354 15:45 11.03.2020
6752 Snow 5 1014 74 0 2.99 354 15:24 11.03.2020
6753 Snow 5 1014 74 0 2.99 354 14:58 11.03.2020
6754 Snow 5 1014 74 0 2.99 354 14:40 11.03.2020
6755 Snow 5 1014 74 0 2.99 354 14:21 11.03.2020
6756 Snow 4 1012 90 0 1.83 5 13:44 11.03.2020
6757 Snow 4 1011 94 0 2.44 166 13:26 11.03.2020
6758 Snow 4 1011 94 0 2.44 166 12:58 11.03.2020
6759 Snow 4 1011 94 0 2.44 166 12:39 11.03.2020
6760 Snow 4 1011 94 0 2.44 166 12:19 11.03.2020
6761 Snow 4 1011 94 0 2.44 166 11:42 11.03.2020
6762 Snow 4 1011 94 0 2.44 166 11:24 11.03.2020
6763 Snow 9 1012 48 0 3.29 225 10:57 11.03.2020
6764 Snow 9 1012 48 0 3.29 225 10:39 11.03.2020
6765 Snow 9 1012 48 0 3.29 225 10:18 11.03.2020
6766 Snow 9 1012 48 0 3.29 225 09:43 11.03.2020
6767 Snow 9 1012 48 0 3.29 225 09:24 11.03.2020
6768 Snow 9 1012 48 0 3.29 225 08:45 11.03.2020
6769 Snow 9 1012 48 0 3.29 225 08:27 11.03.2020
6770 Clouds 10 1016 33 0 2.9 204 07:58 11.03.2020
6771 Clouds 10 1016 33 0 2.9 204 07:38 11.03.2020
6772 Clouds 10 1016 33 0 2.9 204 07:18 11.03.2020
6773 Clouds 10 1016 33 0 2.9 204 06:37 11.03.2020
6774 Clouds 10 1016 33 0 2.9 204 05:34 11.03.2020
6775 Clouds 7 1019 42 0 0.34 340 03:59 11.03.2020
6776 Snow 3 1019 56 0 3.66 15 01:59 11.03.2020
6777 Snow 3 1019 56 0 3.66 15 01:26 11.03.2020
6778 Clouds 3 1019 53 0 4.5 17 00:45 11.03.2020
6779 Clouds 3 1019 53 0 4.5 17 23:57 10.03.2020
6780 Clouds 3 1019 53 0 4.5 17 23:39 10.03.2020
6781 Clouds 3 1019 55 0 2.15 16 23:20 10.03.2020
6782 Clouds 3 1019 55 0 2.15 16 22:38 10.03.2020
6783 Clouds 3 1019 55 0 2.15 16 22:20 10.03.2020
6784 Clouds 3 1019 55 0 2.15 16 21:57 10.03.2020
6785 Clouds 3 1019 55 0 2.15 16 21:38 10.03.2020
6786 Clouds 3 1019 55 0 2.15 16 21:38 10.03.2020
6787 Clouds 3 1019 55 0 2.15 16 21:20 10.03.2020
6788 Clouds 3 1019 55 0 2.15 16 20:58 10.03.2020
6789 Clouds 3 1019 55 0 2.15 16 20:40 10.03.2020
6790 Rain 3 1020 61 0 1.94 8 20:18 10.03.2020
6791 Rain 3 1020 61 0 1.94 8 19:56 10.03.2020
6792 Rain 3 1020 61 0 1.94 8 19:37 10.03.2020
6793 Rain 3 1020 61 0 1.94 8 19:19 10.03.2020
6794 Rain 3 1020 61 0 1.94 8 18:44 10.03.2020
6795 Rain 3 1020 61 0 1.94 8 18:25 10.03.2020
6796 Rain 3 1020 61 0 1.94 8 17:57 10.03.2020
6797 Rain 3 1020 61 0 1.94 8 17:39 10.03.2020
6798 Rain 3 1020 61 0 1.94 8 17:21 10.03.2020
6799 Rain 4 1017 61 0 2.05 20 16:39 10.03.2020
6800 Rain 4 1017 61 0 2.05 20 16:19 10.03.2020
6801 Rain 4 1017 61 0 2.05 20 15:56 10.03.2020
6802 Rain 4 1017 61 0 2.05 20 15:37 10.03.2020
6803 Rain 4 1017 61 0 2.05 20 15:19 10.03.2020
6804 Rain 4 1017 61 0 2.05 20 14:41 10.03.2020
6805 Clear 8 1013 57 0 2.35 224 14:20 10.03.2020
6806 Clear 8 1013 57 0 2.35 224 13:58 10.03.2020
6807 Clear 8 1013 57 0 2.35 224 13:38 10.03.2020
6808 Clear 8 1014 55 0 2.51 225 13:20 10.03.2020
6809 Clear 8 1014 55 0 2.51 225 12:42 10.03.2020
6810 Clear 8 1014 55 0 2.51 225 12:19 10.03.2020
6811 Clear 8 1014 55 0 2.51 225 11:58 10.03.2020
6812 Clear 8 1014 55 0 2.51 225 11:58 10.03.2020
6813 Clear 8 1014 55 0 2.51 225 11:40 10.03.2020
6814 Clear 8 1014 55 0 2.51 225 11:40 10.03.2020
6815 Clear 8 1014 55 0 2.51 225 11:22 10.03.2020
6816 Clear 12 1014 27 0 3.23 219 10:43 10.03.2020
6817 Clear 12 1014 27 0 3.23 219 10:23 10.03.2020
6818 Clear 12 1014 27 0 3.23 219 09:58 10.03.2020
6819 Clear 12 1014 27 0 3.23 219 09:40 10.03.2020
6820 Clear 12 1014 27 0 3.23 219 09:19 10.03.2020
6821 Clear 12 1014 27 0 3.23 219 09:19 10.03.2020
6822 Clear 12 1014 27 0 3.23 219 08:51 10.03.2020
6823 Clear 12 1014 26 0 3.47 220 08:32 10.03.2020
6824 Clear 12 1018 20 0 3.04 206 07:51 10.03.2020
6825 Clear 12 1018 20 0 3.04 206 07:32 10.03.2020
6826 Clear 12 1018 20 0 3.04 206 06:48 10.03.2020
6827 Clear 12 1018 20 0 3.04 206 06:30 10.03.2020
6828 Clear 12 1018 20 0 3.04 206 06:30 10.03.2020
6829 Clear 12 1018 20 0 3.04 206 05:42 10.03.2020
6830 Clear 8 1021 25 0 1.03 24 04:49 10.03.2020
6831 Clear 8 1021 25 0 1.03 24 04:20 10.03.2020
6832 Clear 8 1021 25 0 1.03 24 02:44 10.03.2020
6833 Clear 3 1022 34 0 3.24 8 01:30 10.03.2020
6834 Clear 3 1022 34 0 3.27 10 00:47 10.03.2020
6835 Clear 3 1022 34 0 3.27 10 00:27 10.03.2020
6836 Clear 3 1022 34 0 3.27 10 23:41 09.03.2020
6837 Clear 3 1022 34 0 3.27 10 23:22 09.03.2020
6838 Clear 3 1022 36 0 2.88 2 22:55 09.03.2020
6839 Clear 3 1022 36 0 2.88 2 22:36 09.03.2020
6840 Clear 3 1022 36 0 2.88 2 22:18 09.03.2020
6841 Clear 3 1022 36 0 2.88 2 21:41 09.03.2020
6842 Clear 3 1022 36 0 2.88 2 21:21 09.03.2020
6843 Clear 3 1022 36 0 2.88 2 20:58 09.03.2020
6844 Clear 3 1022 36 0 2.88 2 20:58 09.03.2020
6845 Clear 3 1022 36 0 2.88 2 20:39 09.03.2020
6846